<?xml version="1.0" encoding="UTF-8" standalone="no" ?>
<gpx xmlns="http://www.topografix.com/GPX/1/1" xmlns:xsi="http://www.w3.org/2001/XMLSchema-instance" xsi:schemaLocation="http://www.topografix.com/GPX/1/1 http://www.topografix.com/GPX/1/1/gpx.xsd" version="1.1" creator="VisuGPX - https://www.visugpx.com">
  <metadata>
    <name>CKCV - 2014/03/29 matin - de Arradon à la sortie du golfe</name>
    <desc><![CDATA[Coef 93 BM Arradon 11h44
Départ port d\\\'Arradon vers sortie du golfe]]></desc>
  </metadata>
  <trk>
    <name><![CDATA[Parcours 2014-03-29 08:07]]></name>
    <trkseg>
      <trkpt lat="47.61469" lon="-2.83004">
        <ele>9</ele>
        <time>2014-03-29T07:07:21Z</time>
      </trkpt>
      <trkpt lat="47.61472" lon="-2.82999">
        <ele>6</ele>
        <time>2014-03-29T07:20:34Z</time>
      </trkpt>
      <trkpt lat="47.61471" lon="-2.82993">
        <ele>6</ele>
        <time>2014-03-29T07:20:38Z</time>
      </trkpt>
      <trkpt lat="47.61466" lon="-2.8299">
        <ele>6</ele>
        <time>2014-03-29T07:20:43Z</time>
      </trkpt>
      <trkpt lat="47.61462" lon="-2.82988">
        <ele>6</ele>
        <time>2014-03-29T07:22:18Z</time>
      </trkpt>
      <trkpt lat="47.61458" lon="-2.82985">
        <ele>5</ele>
        <time>2014-03-29T07:23:00Z</time>
      </trkpt>
      <trkpt lat="47.61454" lon="-2.82981">
        <ele>5</ele>
        <time>2014-03-29T07:23:08Z</time>
      </trkpt>
      <trkpt lat="47.6145" lon="-2.82977">
        <ele>5</ele>
        <time>2014-03-29T07:23:14Z</time>
      </trkpt>
      <trkpt lat="47.61447" lon="-2.82971">
        <ele>5</ele>
        <time>2014-03-29T07:23:23Z</time>
      </trkpt>
      <trkpt lat="47.61445" lon="-2.82965">
        <ele>5</ele>
        <time>2014-03-29T07:23:27Z</time>
      </trkpt>
      <trkpt lat="47.61442" lon="-2.82957">
        <ele>5</ele>
        <time>2014-03-29T07:23:30Z</time>
      </trkpt>
      <trkpt lat="47.61438" lon="-2.82952">
        <ele>5</ele>
        <time>2014-03-29T07:23:35Z</time>
      </trkpt>
      <trkpt lat="47.61433" lon="-2.8295">
        <ele>5</ele>
        <time>2014-03-29T07:23:41Z</time>
      </trkpt>
      <trkpt lat="47.61429" lon="-2.82947">
        <ele>5</ele>
        <time>2014-03-29T07:23:52Z</time>
      </trkpt>
      <trkpt lat="47.61423" lon="-2.82943">
        <ele>5</ele>
        <time>2014-03-29T07:23:57Z</time>
      </trkpt>
      <trkpt lat="47.61418" lon="-2.82943">
        <ele>5</ele>
        <time>2014-03-29T07:24:00Z</time>
      </trkpt>
      <trkpt lat="47.61413" lon="-2.82946">
        <ele>3</ele>
        <time>2014-03-29T07:24:04Z</time>
      </trkpt>
      <trkpt lat="47.61409" lon="-2.82949">
        <ele>3</ele>
        <time>2014-03-29T07:24:09Z</time>
      </trkpt>
      <trkpt lat="47.61405" lon="-2.82953">
        <ele>3</ele>
        <time>2014-03-29T07:24:13Z</time>
      </trkpt>
      <trkpt lat="47.614" lon="-2.82957">
        <ele>3</ele>
        <time>2014-03-29T07:24:18Z</time>
      </trkpt>
      <trkpt lat="47.61397" lon="-2.82962">
        <ele>3</ele>
        <time>2014-03-29T07:24:23Z</time>
      </trkpt>
      <trkpt lat="47.61393" lon="-2.82966">
        <ele>3</ele>
        <time>2014-03-29T07:24:31Z</time>
      </trkpt>
      <trkpt lat="47.61389" lon="-2.82971">
        <ele>3</ele>
        <time>2014-03-29T07:24:39Z</time>
      </trkpt>
      <trkpt lat="47.61385" lon="-2.82975">
        <ele>3</ele>
        <time>2014-03-29T07:24:45Z</time>
      </trkpt>
      <trkpt lat="47.61381" lon="-2.8298">
        <ele>3</ele>
        <time>2014-03-29T07:24:49Z</time>
      </trkpt>
      <trkpt lat="47.61377" lon="-2.82986">
        <ele>3</ele>
        <time>2014-03-29T07:24:54Z</time>
      </trkpt>
      <trkpt lat="47.61374" lon="-2.82991">
        <ele>3</ele>
        <time>2014-03-29T07:24:58Z</time>
      </trkpt>
      <trkpt lat="47.61371" lon="-2.82996">
        <ele>3</ele>
        <time>2014-03-29T07:25:02Z</time>
      </trkpt>
      <trkpt lat="47.61368" lon="-2.83002">
        <ele>4</ele>
        <time>2014-03-29T07:25:06Z</time>
      </trkpt>
      <trkpt lat="47.61365" lon="-2.83008">
        <ele>4</ele>
        <time>2014-03-29T07:25:09Z</time>
      </trkpt>
      <trkpt lat="47.61361" lon="-2.83015">
        <ele>5</ele>
        <time>2014-03-29T07:25:13Z</time>
      </trkpt>
      <trkpt lat="47.61358" lon="-2.8302">
        <ele>5</ele>
        <time>2014-03-29T07:25:17Z</time>
      </trkpt>
      <trkpt lat="47.61355" lon="-2.83026">
        <ele>5</ele>
        <time>2014-03-29T07:25:22Z</time>
      </trkpt>
      <trkpt lat="47.61352" lon="-2.83032">
        <ele>5</ele>
        <time>2014-03-29T07:25:26Z</time>
      </trkpt>
      <trkpt lat="47.61349" lon="-2.83038">
        <ele>5</ele>
        <time>2014-03-29T07:25:30Z</time>
      </trkpt>
      <trkpt lat="47.61346" lon="-2.83045">
        <ele>5</ele>
        <time>2014-03-29T07:25:33Z</time>
      </trkpt>
      <trkpt lat="47.61343" lon="-2.8305">
        <ele>5</ele>
        <time>2014-03-29T07:25:36Z</time>
      </trkpt>
      <trkpt lat="47.6134" lon="-2.83056">
        <ele>5</ele>
        <time>2014-03-29T07:25:40Z</time>
      </trkpt>
      <trkpt lat="47.61337" lon="-2.83061">
        <ele>5</ele>
        <time>2014-03-29T07:25:44Z</time>
      </trkpt>
      <trkpt lat="47.61334" lon="-2.83067">
        <ele>5</ele>
        <time>2014-03-29T07:25:48Z</time>
      </trkpt>
      <trkpt lat="47.61332" lon="-2.83074">
        <time>2014-03-29T07:25:54Z</time>
      </trkpt>
      <trkpt lat="47.6133" lon="-2.8308">
        <time>2014-03-29T07:25:58Z</time>
      </trkpt>
      <trkpt lat="47.61327" lon="-2.83086">
        <time>2014-03-29T07:26:02Z</time>
      </trkpt>
      <trkpt lat="47.61324" lon="-2.83092">
        <time>2014-03-29T07:26:05Z</time>
      </trkpt>
      <trkpt lat="47.61322" lon="-2.83098">
        <time>2014-03-29T07:26:08Z</time>
      </trkpt>
      <trkpt lat="47.61319" lon="-2.83104">
        <time>2014-03-29T07:26:13Z</time>
      </trkpt>
      <trkpt lat="47.61316" lon="-2.83111">
        <time>2014-03-29T07:26:19Z</time>
      </trkpt>
      <trkpt lat="47.61313" lon="-2.83117">
        <time>2014-03-29T07:26:22Z</time>
      </trkpt>
      <trkpt lat="47.6131" lon="-2.83123">
        <time>2014-03-29T07:26:28Z</time>
      </trkpt>
      <trkpt lat="47.61307" lon="-2.83129">
        <time>2014-03-29T07:26:33Z</time>
      </trkpt>
      <trkpt lat="47.61305" lon="-2.83135">
        <time>2014-03-29T07:26:38Z</time>
      </trkpt>
      <trkpt lat="47.61302" lon="-2.83142">
        <time>2014-03-29T07:26:45Z</time>
      </trkpt>
      <trkpt lat="47.613" lon="-2.83147">
        <time>2014-03-29T07:26:51Z</time>
      </trkpt>
      <trkpt lat="47.61297" lon="-2.83154">
        <time>2014-03-29T07:26:56Z</time>
      </trkpt>
      <trkpt lat="47.61294" lon="-2.83161">
        <time>2014-03-29T07:27:02Z</time>
      </trkpt>
      <trkpt lat="47.61292" lon="-2.83167">
        <ele>7</ele>
        <time>2014-03-29T07:27:06Z</time>
      </trkpt>
      <trkpt lat="47.61289" lon="-2.83173">
        <ele>7</ele>
        <time>2014-03-29T07:27:11Z</time>
      </trkpt>
      <trkpt lat="47.61286" lon="-2.83179">
        <ele>7</ele>
        <time>2014-03-29T07:27:16Z</time>
      </trkpt>
      <trkpt lat="47.61283" lon="-2.83185">
        <ele>7</ele>
        <time>2014-03-29T07:27:21Z</time>
      </trkpt>
      <trkpt lat="47.6128" lon="-2.83191">
        <ele>7</ele>
        <time>2014-03-29T07:27:28Z</time>
      </trkpt>
      <trkpt lat="47.61278" lon="-2.83198">
        <ele>7</ele>
        <time>2014-03-29T07:27:34Z</time>
      </trkpt>
      <trkpt lat="47.61274" lon="-2.83203">
        <ele>7</ele>
        <time>2014-03-29T07:27:42Z</time>
      </trkpt>
      <trkpt lat="47.61273" lon="-2.8321">
        <ele>7</ele>
        <time>2014-03-29T07:27:48Z</time>
      </trkpt>
      <trkpt lat="47.6127" lon="-2.83216">
        <ele>7</ele>
        <time>2014-03-29T07:27:57Z</time>
      </trkpt>
      <trkpt lat="47.61268" lon="-2.83222">
        <ele>7</ele>
        <time>2014-03-29T07:28:05Z</time>
      </trkpt>
      <trkpt lat="47.61265" lon="-2.83228">
        <ele>7</ele>
        <time>2014-03-29T07:28:13Z</time>
      </trkpt>
      <trkpt lat="47.61264" lon="-2.83235">
        <ele>7</ele>
        <time>2014-03-29T07:28:20Z</time>
      </trkpt>
      <trkpt lat="47.61262" lon="-2.83241">
        <ele>7</ele>
        <time>2014-03-29T07:28:26Z</time>
      </trkpt>
      <trkpt lat="47.6126" lon="-2.83248">
        <ele>7</ele>
        <time>2014-03-29T07:28:33Z</time>
      </trkpt>
      <trkpt lat="47.61258" lon="-2.83255">
        <ele>8</ele>
        <time>2014-03-29T07:28:39Z</time>
      </trkpt>
      <trkpt lat="47.61256" lon="-2.83261">
        <ele>8</ele>
        <time>2014-03-29T07:28:46Z</time>
      </trkpt>
      <trkpt lat="47.61253" lon="-2.83268">
        <ele>8</ele>
        <time>2014-03-29T07:28:52Z</time>
      </trkpt>
      <trkpt lat="47.61251" lon="-2.83273">
        <ele>8</ele>
        <time>2014-03-29T07:28:59Z</time>
      </trkpt>
      <trkpt lat="47.61248" lon="-2.8328">
        <time>2014-03-29T07:29:05Z</time>
      </trkpt>
      <trkpt lat="47.61246" lon="-2.83286">
        <time>2014-03-29T07:29:13Z</time>
      </trkpt>
      <trkpt lat="47.61244" lon="-2.83293">
        <time>2014-03-29T07:29:20Z</time>
      </trkpt>
      <trkpt lat="47.61243" lon="-2.83299">
        <time>2014-03-29T07:29:28Z</time>
      </trkpt>
      <trkpt lat="47.61241" lon="-2.83306">
        <time>2014-03-29T07:29:35Z</time>
      </trkpt>
      <trkpt lat="47.6124" lon="-2.83312">
        <time>2014-03-29T07:29:42Z</time>
      </trkpt>
      <trkpt lat="47.61239" lon="-2.8332">
        <time>2014-03-29T07:29:49Z</time>
      </trkpt>
      <trkpt lat="47.61237" lon="-2.83326">
        <time>2014-03-29T07:29:55Z</time>
      </trkpt>
      <trkpt lat="47.61235" lon="-2.83332">
        <time>2014-03-29T07:30:01Z</time>
      </trkpt>
      <trkpt lat="47.61233" lon="-2.83339">
        <time>2014-03-29T07:30:06Z</time>
      </trkpt>
      <trkpt lat="47.61231" lon="-2.83346">
        <time>2014-03-29T07:30:12Z</time>
      </trkpt>
      <trkpt lat="47.61228" lon="-2.83351">
        <time>2014-03-29T07:30:14Z</time>
      </trkpt>
      <trkpt lat="47.61225" lon="-2.83358">
        <time>2014-03-29T07:30:17Z</time>
      </trkpt>
      <trkpt lat="47.61222" lon="-2.83365">
        <time>2014-03-29T07:30:20Z</time>
      </trkpt>
      <trkpt lat="47.6122" lon="-2.83372">
        <time>2014-03-29T07:30:25Z</time>
      </trkpt>
      <trkpt lat="47.61218" lon="-2.83379">
        <time>2014-03-29T07:30:27Z</time>
      </trkpt>
      <trkpt lat="47.61216" lon="-2.83387">
        <time>2014-03-29T07:30:31Z</time>
      </trkpt>
      <trkpt lat="47.61214" lon="-2.83394">
        <time>2014-03-29T07:30:35Z</time>
      </trkpt>
      <trkpt lat="47.61212" lon="-2.83401">
        <time>2014-03-29T07:30:39Z</time>
      </trkpt>
      <trkpt lat="47.6121" lon="-2.83407">
        <time>2014-03-29T07:30:42Z</time>
      </trkpt>
      <trkpt lat="47.61207" lon="-2.83413">
        <time>2014-03-29T07:30:45Z</time>
      </trkpt>
      <trkpt lat="47.61205" lon="-2.8342">
        <ele>9</ele>
        <time>2014-03-29T07:30:48Z</time>
      </trkpt>
      <trkpt lat="47.61202" lon="-2.83428">
        <ele>9</ele>
        <time>2014-03-29T07:30:52Z</time>
      </trkpt>
      <trkpt lat="47.61201" lon="-2.83434">
        <ele>9</ele>
        <time>2014-03-29T07:30:55Z</time>
      </trkpt>
      <trkpt lat="47.61199" lon="-2.8344">
        <ele>9</ele>
        <time>2014-03-29T07:30:58Z</time>
      </trkpt>
      <trkpt lat="47.61197" lon="-2.83446">
        <ele>9</ele>
        <time>2014-03-29T07:31:01Z</time>
      </trkpt>
      <trkpt lat="47.61194" lon="-2.83453">
        <ele>9</ele>
        <time>2014-03-29T07:31:04Z</time>
      </trkpt>
      <trkpt lat="47.61192" lon="-2.8346">
        <ele>9</ele>
        <time>2014-03-29T07:31:07Z</time>
      </trkpt>
      <trkpt lat="47.61191" lon="-2.83467">
        <ele>9</ele>
        <time>2014-03-29T07:31:10Z</time>
      </trkpt>
      <trkpt lat="47.6119" lon="-2.83474">
        <ele>9</ele>
        <time>2014-03-29T07:31:13Z</time>
      </trkpt>
      <trkpt lat="47.61189" lon="-2.83481">
        <ele>9</ele>
        <time>2014-03-29T07:31:17Z</time>
      </trkpt>
      <trkpt lat="47.61187" lon="-2.83489">
        <ele>9</ele>
        <time>2014-03-29T07:31:20Z</time>
      </trkpt>
      <trkpt lat="47.61186" lon="-2.83497">
        <ele>9</ele>
        <time>2014-03-29T07:31:24Z</time>
      </trkpt>
      <trkpt lat="47.61185" lon="-2.83505">
        <ele>9</ele>
        <time>2014-03-29T07:31:28Z</time>
      </trkpt>
      <trkpt lat="47.61183" lon="-2.83513">
        <ele>9</ele>
        <time>2014-03-29T07:31:31Z</time>
      </trkpt>
      <trkpt lat="47.61181" lon="-2.83521">
        <ele>9</ele>
        <time>2014-03-29T07:31:34Z</time>
      </trkpt>
      <trkpt lat="47.61178" lon="-2.83529">
        <ele>9</ele>
        <time>2014-03-29T07:31:37Z</time>
      </trkpt>
      <trkpt lat="47.61177" lon="-2.83536">
        <ele>9</ele>
        <time>2014-03-29T07:31:40Z</time>
      </trkpt>
      <trkpt lat="47.61174" lon="-2.83544">
        <ele>9</ele>
        <time>2014-03-29T07:31:43Z</time>
      </trkpt>
      <trkpt lat="47.61172" lon="-2.83552">
        <ele>9</ele>
        <time>2014-03-29T07:31:46Z</time>
      </trkpt>
      <trkpt lat="47.6117" lon="-2.8356">
        <ele>9</ele>
        <time>2014-03-29T07:31:49Z</time>
      </trkpt>
      <trkpt lat="47.61168" lon="-2.83568">
        <ele>9</ele>
        <time>2014-03-29T07:31:52Z</time>
      </trkpt>
      <trkpt lat="47.61167" lon="-2.83576">
        <ele>9</ele>
        <time>2014-03-29T07:31:55Z</time>
      </trkpt>
      <trkpt lat="47.61165" lon="-2.83583">
        <time>2014-03-29T07:31:58Z</time>
      </trkpt>
      <trkpt lat="47.61164" lon="-2.8359">
        <time>2014-03-29T07:32:02Z</time>
      </trkpt>
      <trkpt lat="47.61162" lon="-2.83599">
        <time>2014-03-29T07:32:06Z</time>
      </trkpt>
      <trkpt lat="47.6116" lon="-2.83605">
        <time>2014-03-29T07:32:09Z</time>
      </trkpt>
      <trkpt lat="47.61158" lon="-2.83612">
        <time>2014-03-29T07:32:12Z</time>
      </trkpt>
      <trkpt lat="47.61157" lon="-2.83618">
        <time>2014-03-29T07:32:15Z</time>
      </trkpt>
      <trkpt lat="47.61156" lon="-2.83625">
        <time>2014-03-29T07:32:18Z</time>
      </trkpt>
      <trkpt lat="47.61155" lon="-2.83633">
        <time>2014-03-29T07:32:21Z</time>
      </trkpt>
      <trkpt lat="47.61154" lon="-2.83639">
        <time>2014-03-29T07:32:24Z</time>
      </trkpt>
      <trkpt lat="47.61153" lon="-2.83646">
        <time>2014-03-29T07:32:27Z</time>
      </trkpt>
      <trkpt lat="47.61152" lon="-2.83653">
        <time>2014-03-29T07:32:30Z</time>
      </trkpt>
      <trkpt lat="47.61152" lon="-2.8366">
        <time>2014-03-29T07:32:33Z</time>
      </trkpt>
      <trkpt lat="47.61151" lon="-2.83667">
        <time>2014-03-29T07:32:36Z</time>
      </trkpt>
      <trkpt lat="47.61149" lon="-2.83675">
        <time>2014-03-29T07:32:39Z</time>
      </trkpt>
      <trkpt lat="47.61147" lon="-2.83682">
        <time>2014-03-29T07:32:42Z</time>
      </trkpt>
      <trkpt lat="47.61146" lon="-2.83688">
        <time>2014-03-29T07:32:45Z</time>
      </trkpt>
      <trkpt lat="47.61145" lon="-2.83695">
        <time>2014-03-29T07:32:48Z</time>
      </trkpt>
      <trkpt lat="47.61144" lon="-2.83703">
        <time>2014-03-29T07:32:52Z</time>
      </trkpt>
      <trkpt lat="47.61144" lon="-2.8371">
        <time>2014-03-29T07:32:56Z</time>
      </trkpt>
      <trkpt lat="47.61143" lon="-2.83718">
        <time>2014-03-29T07:33:00Z</time>
      </trkpt>
      <trkpt lat="47.61143" lon="-2.83726">
        <time>2014-03-29T07:33:04Z</time>
      </trkpt>
      <trkpt lat="47.61141" lon="-2.83734">
        <time>2014-03-29T07:33:08Z</time>
      </trkpt>
      <trkpt lat="47.6114" lon="-2.83742">
        <time>2014-03-29T07:33:13Z</time>
      </trkpt>
      <trkpt lat="47.61139" lon="-2.83749">
        <time>2014-03-29T07:33:18Z</time>
      </trkpt>
      <trkpt lat="47.6114" lon="-2.83757">
        <time>2014-03-29T07:33:20Z</time>
      </trkpt>
      <trkpt lat="47.61143" lon="-2.83766">
        <time>2014-03-29T07:33:23Z</time>
      </trkpt>
      <trkpt lat="47.61145" lon="-2.83773">
        <time>2014-03-29T07:33:27Z</time>
      </trkpt>
      <trkpt lat="47.61146" lon="-2.83781">
        <time>2014-03-29T07:33:31Z</time>
      </trkpt>
      <trkpt lat="47.61149" lon="-2.83788">
        <time>2014-03-29T07:33:35Z</time>
      </trkpt>
      <trkpt lat="47.61154" lon="-2.8379">
        <time>2014-03-29T07:33:39Z</time>
      </trkpt>
      <trkpt lat="47.61158" lon="-2.83785">
        <time>2014-03-29T07:33:44Z</time>
      </trkpt>
      <trkpt lat="47.61159" lon="-2.83778">
        <time>2014-03-29T07:33:49Z</time>
      </trkpt>
      <trkpt lat="47.61161" lon="-2.83772">
        <time>2014-03-29T07:33:55Z</time>
      </trkpt>
      <trkpt lat="47.61162" lon="-2.83764">
        <time>2014-03-29T07:34:00Z</time>
      </trkpt>
      <trkpt lat="47.61163" lon="-2.83757">
        <time>2014-03-29T07:34:05Z</time>
      </trkpt>
      <trkpt lat="47.61163" lon="-2.83749">
        <time>2014-03-29T07:34:10Z</time>
      </trkpt>
      <trkpt lat="47.61164" lon="-2.83742">
        <time>2014-03-29T07:34:14Z</time>
      </trkpt>
      <trkpt lat="47.61167" lon="-2.83736">
        <time>2014-03-29T07:34:19Z</time>
      </trkpt>
      <trkpt lat="47.61172" lon="-2.83734">
        <time>2014-03-29T07:34:22Z</time>
      </trkpt>
      <trkpt lat="47.61177" lon="-2.83732">
        <time>2014-03-29T07:34:25Z</time>
      </trkpt>
      <trkpt lat="47.61182" lon="-2.83731">
        <time>2014-03-29T07:34:28Z</time>
      </trkpt>
      <trkpt lat="47.61189" lon="-2.83731">
        <time>2014-03-29T07:34:31Z</time>
      </trkpt>
      <trkpt lat="47.61195" lon="-2.8373">
        <time>2014-03-29T07:34:34Z</time>
      </trkpt>
      <trkpt lat="47.61201" lon="-2.83729">
        <time>2014-03-29T07:34:37Z</time>
      </trkpt>
      <trkpt lat="47.61206" lon="-2.83728">
        <time>2014-03-29T07:34:40Z</time>
      </trkpt>
      <trkpt lat="47.61212" lon="-2.83728">
        <time>2014-03-29T07:34:43Z</time>
      </trkpt>
      <trkpt lat="47.61217" lon="-2.83727">
        <time>2014-03-29T07:34:46Z</time>
      </trkpt>
      <trkpt lat="47.61223" lon="-2.83725">
        <time>2014-03-29T07:34:50Z</time>
      </trkpt>
      <trkpt lat="47.61227" lon="-2.83721">
        <time>2014-03-29T07:34:56Z</time>
      </trkpt>
      <trkpt lat="47.61226" lon="-2.83714">
        <time>2014-03-29T07:35:05Z</time>
      </trkpt>
      <trkpt lat="47.6122" lon="-2.83713">
        <time>2014-03-29T07:35:09Z</time>
      </trkpt>
      <trkpt lat="47.61215" lon="-2.83715">
        <time>2014-03-29T07:35:12Z</time>
      </trkpt>
      <trkpt lat="47.61209" lon="-2.8372">
        <time>2014-03-29T07:35:15Z</time>
      </trkpt>
      <trkpt lat="47.61206" lon="-2.83725">
        <time>2014-03-29T07:35:17Z</time>
      </trkpt>
      <trkpt lat="47.61202" lon="-2.8373">
        <time>2014-03-29T07:35:19Z</time>
      </trkpt>
      <trkpt lat="47.61199" lon="-2.83735">
        <time>2014-03-29T07:35:21Z</time>
      </trkpt>
      <trkpt lat="47.61194" lon="-2.83741">
        <time>2014-03-29T07:35:24Z</time>
      </trkpt>
      <trkpt lat="47.6119" lon="-2.83746">
        <time>2014-03-29T07:35:27Z</time>
      </trkpt>
      <trkpt lat="47.61187" lon="-2.83753">
        <time>2014-03-29T07:35:30Z</time>
      </trkpt>
      <trkpt lat="47.61185" lon="-2.83762">
        <time>2014-03-29T07:35:33Z</time>
      </trkpt>
      <trkpt lat="47.61184" lon="-2.83769">
        <time>2014-03-29T07:35:35Z</time>
      </trkpt>
      <trkpt lat="47.61184" lon="-2.83778">
        <time>2014-03-29T07:35:37Z</time>
      </trkpt>
      <trkpt lat="47.61184" lon="-2.83788">
        <time>2014-03-29T07:35:39Z</time>
      </trkpt>
      <trkpt lat="47.61184" lon="-2.83798">
        <time>2014-03-29T07:35:41Z</time>
      </trkpt>
      <trkpt lat="47.61184" lon="-2.83808">
        <time>2014-03-29T07:35:43Z</time>
      </trkpt>
      <trkpt lat="47.61183" lon="-2.83818">
        <time>2014-03-29T07:35:45Z</time>
      </trkpt>
      <trkpt lat="47.61182" lon="-2.83827">
        <time>2014-03-29T07:35:47Z</time>
      </trkpt>
      <trkpt lat="47.6118" lon="-2.83836">
        <time>2014-03-29T07:35:49Z</time>
      </trkpt>
      <trkpt lat="47.61179" lon="-2.83844">
        <time>2014-03-29T07:35:51Z</time>
      </trkpt>
      <trkpt lat="47.61177" lon="-2.83852">
        <time>2014-03-29T07:35:53Z</time>
      </trkpt>
      <trkpt lat="47.61175" lon="-2.83859">
        <time>2014-03-29T07:35:55Z</time>
      </trkpt>
      <trkpt lat="47.61172" lon="-2.83866">
        <time>2014-03-29T07:35:57Z</time>
      </trkpt>
      <trkpt lat="47.61169" lon="-2.83871">
        <time>2014-03-29T07:35:59Z</time>
      </trkpt>
      <trkpt lat="47.61166" lon="-2.83876">
        <time>2014-03-29T07:36:01Z</time>
      </trkpt>
      <trkpt lat="47.61163" lon="-2.83881">
        <time>2014-03-29T07:36:03Z</time>
      </trkpt>
      <trkpt lat="47.6116" lon="-2.83887">
        <time>2014-03-29T07:36:05Z</time>
      </trkpt>
      <trkpt lat="47.61156" lon="-2.83892">
        <time>2014-03-29T07:36:07Z</time>
      </trkpt>
      <trkpt lat="47.61151" lon="-2.83899">
        <time>2014-03-29T07:36:11Z</time>
      </trkpt>
      <trkpt lat="47.61149" lon="-2.83904">
        <time>2014-03-29T07:36:13Z</time>
      </trkpt>
      <trkpt lat="47.61147" lon="-2.83911">
        <time>2014-03-29T07:36:15Z</time>
      </trkpt>
      <trkpt lat="47.61145" lon="-2.83919">
        <time>2014-03-29T07:36:17Z</time>
      </trkpt>
      <trkpt lat="47.61143" lon="-2.83927">
        <time>2014-03-29T07:36:19Z</time>
      </trkpt>
      <trkpt lat="47.6114" lon="-2.83935">
        <time>2014-03-29T07:36:20Z</time>
      </trkpt>
      <trkpt lat="47.61138" lon="-2.83943">
        <time>2014-03-29T07:36:22Z</time>
      </trkpt>
      <trkpt lat="47.61135" lon="-2.83951">
        <time>2014-03-29T07:36:25Z</time>
      </trkpt>
      <trkpt lat="47.61133" lon="-2.83958">
        <time>2014-03-29T07:36:27Z</time>
      </trkpt>
      <trkpt lat="47.6113" lon="-2.83965">
        <time>2014-03-29T07:36:29Z</time>
      </trkpt>
      <trkpt lat="47.61127" lon="-2.83973">
        <time>2014-03-29T07:36:31Z</time>
      </trkpt>
      <trkpt lat="47.61124" lon="-2.83981">
        <time>2014-03-29T07:36:33Z</time>
      </trkpt>
      <trkpt lat="47.61121" lon="-2.83988">
        <time>2014-03-29T07:36:35Z</time>
      </trkpt>
      <trkpt lat="47.61119" lon="-2.83996">
        <time>2014-03-29T07:36:36Z</time>
      </trkpt>
      <trkpt lat="47.61116" lon="-2.84003">
        <time>2014-03-29T07:36:38Z</time>
      </trkpt>
      <trkpt lat="47.61112" lon="-2.84011">
        <time>2014-03-29T07:36:40Z</time>
      </trkpt>
      <trkpt lat="47.61109" lon="-2.84018">
        <time>2014-03-29T07:36:43Z</time>
      </trkpt>
      <trkpt lat="47.61105" lon="-2.84024">
        <time>2014-03-29T07:36:45Z</time>
      </trkpt>
      <trkpt lat="47.61101" lon="-2.8403">
        <time>2014-03-29T07:36:47Z</time>
      </trkpt>
      <trkpt lat="47.61097" lon="-2.84037">
        <time>2014-03-29T07:36:49Z</time>
      </trkpt>
      <trkpt lat="47.61093" lon="-2.84044">
        <time>2014-03-29T07:36:51Z</time>
      </trkpt>
      <trkpt lat="47.6109" lon="-2.84052">
        <time>2014-03-29T07:36:52Z</time>
      </trkpt>
      <trkpt lat="47.61086" lon="-2.84059">
        <time>2014-03-29T07:36:54Z</time>
      </trkpt>
      <trkpt lat="47.61083" lon="-2.84066">
        <time>2014-03-29T07:36:56Z</time>
      </trkpt>
      <trkpt lat="47.6108" lon="-2.84075">
        <time>2014-03-29T07:36:59Z</time>
      </trkpt>
      <trkpt lat="47.61077" lon="-2.84083">
        <time>2014-03-29T07:37:01Z</time>
      </trkpt>
      <trkpt lat="47.61074" lon="-2.84091">
        <time>2014-03-29T07:37:03Z</time>
      </trkpt>
      <trkpt lat="47.61071" lon="-2.84099">
        <time>2014-03-29T07:37:05Z</time>
      </trkpt>
      <trkpt lat="47.61068" lon="-2.84106">
        <time>2014-03-29T07:37:07Z</time>
      </trkpt>
      <trkpt lat="47.61064" lon="-2.84114">
        <time>2014-03-29T07:37:08Z</time>
      </trkpt>
      <trkpt lat="47.6106" lon="-2.84121">
        <time>2014-03-29T07:37:10Z</time>
      </trkpt>
      <trkpt lat="47.61056" lon="-2.84129">
        <time>2014-03-29T07:37:12Z</time>
      </trkpt>
      <trkpt lat="47.61052" lon="-2.84136">
        <time>2014-03-29T07:37:15Z</time>
      </trkpt>
      <trkpt lat="47.61048" lon="-2.84143">
        <time>2014-03-29T07:37:17Z</time>
      </trkpt>
      <trkpt lat="47.61045" lon="-2.8415">
        <time>2014-03-29T07:37:19Z</time>
      </trkpt>
      <trkpt lat="47.61041" lon="-2.84157">
        <time>2014-03-29T07:37:21Z</time>
      </trkpt>
      <trkpt lat="47.61038" lon="-2.84164">
        <time>2014-03-29T07:37:23Z</time>
      </trkpt>
      <trkpt lat="47.61034" lon="-2.84171">
        <time>2014-03-29T07:37:24Z</time>
      </trkpt>
      <trkpt lat="47.6103" lon="-2.84178">
        <time>2014-03-29T07:37:26Z</time>
      </trkpt>
      <trkpt lat="47.61026" lon="-2.84185">
        <time>2014-03-29T07:37:28Z</time>
      </trkpt>
      <trkpt lat="47.61022" lon="-2.84192">
        <time>2014-03-29T07:37:31Z</time>
      </trkpt>
      <trkpt lat="47.61018" lon="-2.84199">
        <time>2014-03-29T07:37:32Z</time>
      </trkpt>
      <trkpt lat="47.61015" lon="-2.84207">
        <time>2014-03-29T07:37:35Z</time>
      </trkpt>
      <trkpt lat="47.61011" lon="-2.84214">
        <time>2014-03-29T07:37:37Z</time>
      </trkpt>
      <trkpt lat="47.61008" lon="-2.84222">
        <time>2014-03-29T07:37:39Z</time>
      </trkpt>
      <trkpt lat="47.61005" lon="-2.84231">
        <time>2014-03-29T07:37:40Z</time>
      </trkpt>
      <trkpt lat="47.61002" lon="-2.84239">
        <time>2014-03-29T07:37:42Z</time>
      </trkpt>
      <trkpt lat="47.60999" lon="-2.84246">
        <time>2014-03-29T07:37:44Z</time>
      </trkpt>
      <trkpt lat="47.60996" lon="-2.84254">
        <time>2014-03-29T07:37:47Z</time>
      </trkpt>
      <trkpt lat="47.60993" lon="-2.84261">
        <time>2014-03-29T07:37:49Z</time>
      </trkpt>
      <trkpt lat="47.60989" lon="-2.84268">
        <time>2014-03-29T07:37:51Z</time>
      </trkpt>
      <trkpt lat="47.60985" lon="-2.84275">
        <time>2014-03-29T07:37:53Z</time>
      </trkpt>
      <trkpt lat="47.60981" lon="-2.84281">
        <time>2014-03-29T07:37:55Z</time>
      </trkpt>
      <trkpt lat="47.60978" lon="-2.84288">
        <time>2014-03-29T07:37:56Z</time>
      </trkpt>
      <trkpt lat="47.60974" lon="-2.84294">
        <time>2014-03-29T07:37:58Z</time>
      </trkpt>
      <trkpt lat="47.60971" lon="-2.84302">
        <time>2014-03-29T07:38:00Z</time>
      </trkpt>
      <trkpt lat="47.60968" lon="-2.84309">
        <time>2014-03-29T07:38:03Z</time>
      </trkpt>
      <trkpt lat="47.60965" lon="-2.84316">
        <time>2014-03-29T07:38:04Z</time>
      </trkpt>
      <trkpt lat="47.60962" lon="-2.84324">
        <time>2014-03-29T07:38:07Z</time>
      </trkpt>
      <trkpt lat="47.60958" lon="-2.8433">
        <time>2014-03-29T07:38:09Z</time>
      </trkpt>
      <trkpt lat="47.60955" lon="-2.84338">
        <time>2014-03-29T07:38:11Z</time>
      </trkpt>
      <trkpt lat="47.60952" lon="-2.84345">
        <time>2014-03-29T07:38:12Z</time>
      </trkpt>
      <trkpt lat="47.60949" lon="-2.84351">
        <time>2014-03-29T07:38:14Z</time>
      </trkpt>
      <trkpt lat="47.60945" lon="-2.84358">
        <time>2014-03-29T07:38:16Z</time>
      </trkpt>
      <trkpt lat="47.60941" lon="-2.84364">
        <time>2014-03-29T07:38:18Z</time>
      </trkpt>
      <trkpt lat="47.60938" lon="-2.8437">
        <time>2014-03-29T07:38:21Z</time>
      </trkpt>
      <trkpt lat="47.60934" lon="-2.84376">
        <time>2014-03-29T07:38:23Z</time>
      </trkpt>
      <trkpt lat="47.6093" lon="-2.84382">
        <time>2014-03-29T07:38:25Z</time>
      </trkpt>
      <trkpt lat="47.60926" lon="-2.84387">
        <time>2014-03-29T07:38:26Z</time>
      </trkpt>
      <trkpt lat="47.60922" lon="-2.84392">
        <time>2014-03-29T07:38:28Z</time>
      </trkpt>
      <trkpt lat="47.60917" lon="-2.84397">
        <time>2014-03-29T07:38:30Z</time>
      </trkpt>
      <trkpt lat="47.60913" lon="-2.84402">
        <time>2014-03-29T07:38:32Z</time>
      </trkpt>
      <trkpt lat="47.6091" lon="-2.84408">
        <time>2014-03-29T07:38:34Z</time>
      </trkpt>
      <trkpt lat="47.60906" lon="-2.84414">
        <time>2014-03-29T07:38:37Z</time>
      </trkpt>
      <trkpt lat="47.60903" lon="-2.8442">
        <time>2014-03-29T07:38:39Z</time>
      </trkpt>
      <trkpt lat="47.609" lon="-2.84425">
        <time>2014-03-29T07:38:41Z</time>
      </trkpt>
      <trkpt lat="47.60897" lon="-2.84431">
        <time>2014-03-29T07:38:43Z</time>
      </trkpt>
      <trkpt lat="47.60893" lon="-2.84437">
        <time>2014-03-29T07:38:44Z</time>
      </trkpt>
      <trkpt lat="47.6089" lon="-2.84443">
        <time>2014-03-29T07:38:46Z</time>
      </trkpt>
      <trkpt lat="47.60887" lon="-2.84449">
        <time>2014-03-29T07:38:48Z</time>
      </trkpt>
      <trkpt lat="47.60885" lon="-2.84455">
        <time>2014-03-29T07:38:51Z</time>
      </trkpt>
      <trkpt lat="47.60882" lon="-2.84461">
        <time>2014-03-29T07:38:53Z</time>
      </trkpt>
      <trkpt lat="47.6088" lon="-2.84468">
        <time>2014-03-29T07:38:55Z</time>
      </trkpt>
      <trkpt lat="47.60877" lon="-2.84475">
        <time>2014-03-29T07:38:57Z</time>
      </trkpt>
      <trkpt lat="47.60875" lon="-2.84481">
        <time>2014-03-29T07:38:59Z</time>
      </trkpt>
      <trkpt lat="47.60872" lon="-2.84488">
        <time>2014-03-29T07:39:00Z</time>
      </trkpt>
      <trkpt lat="47.6087" lon="-2.84494">
        <time>2014-03-29T07:39:02Z</time>
      </trkpt>
      <trkpt lat="47.60867" lon="-2.845">
        <time>2014-03-29T07:39:05Z</time>
      </trkpt>
      <trkpt lat="47.60864" lon="-2.84506">
        <time>2014-03-29T07:39:07Z</time>
      </trkpt>
      <trkpt lat="47.60861" lon="-2.84511">
        <time>2014-03-29T07:39:09Z</time>
      </trkpt>
      <trkpt lat="47.60857" lon="-2.84517">
        <time>2014-03-29T07:39:11Z</time>
      </trkpt>
      <trkpt lat="47.60854" lon="-2.84522">
        <time>2014-03-29T07:39:13Z</time>
      </trkpt>
      <trkpt lat="47.60852" lon="-2.84528">
        <time>2014-03-29T07:39:15Z</time>
      </trkpt>
      <trkpt lat="47.60849" lon="-2.84535">
        <time>2014-03-29T07:39:16Z</time>
      </trkpt>
      <trkpt lat="47.60846" lon="-2.84542">
        <time>2014-03-29T07:39:18Z</time>
      </trkpt>
      <trkpt lat="47.60843" lon="-2.84548">
        <time>2014-03-29T07:39:20Z</time>
      </trkpt>
      <trkpt lat="47.6084" lon="-2.84555">
        <time>2014-03-29T07:39:23Z</time>
      </trkpt>
      <trkpt lat="47.60838" lon="-2.84562">
        <time>2014-03-29T07:39:25Z</time>
      </trkpt>
      <trkpt lat="47.60835" lon="-2.84568">
        <time>2014-03-29T07:39:27Z</time>
      </trkpt>
      <trkpt lat="47.60831" lon="-2.84574">
        <time>2014-03-29T07:39:29Z</time>
      </trkpt>
      <trkpt lat="47.60827" lon="-2.84581">
        <time>2014-03-29T07:39:30Z</time>
      </trkpt>
      <trkpt lat="47.60824" lon="-2.84588">
        <time>2014-03-29T07:39:32Z</time>
      </trkpt>
      <trkpt lat="47.60821" lon="-2.84595">
        <time>2014-03-29T07:39:34Z</time>
      </trkpt>
      <trkpt lat="47.60818" lon="-2.84603">
        <time>2014-03-29T07:39:36Z</time>
      </trkpt>
      <trkpt lat="47.60816" lon="-2.84612">
        <time>2014-03-29T07:39:39Z</time>
      </trkpt>
      <trkpt lat="47.60814" lon="-2.8462">
        <time>2014-03-29T07:39:41Z</time>
      </trkpt>
      <trkpt lat="47.60812" lon="-2.84628">
        <time>2014-03-29T07:39:42Z</time>
      </trkpt>
      <trkpt lat="47.60809" lon="-2.84636">
        <time>2014-03-29T07:39:45Z</time>
      </trkpt>
      <trkpt lat="47.60807" lon="-2.84644">
        <time>2014-03-29T07:39:47Z</time>
      </trkpt>
      <trkpt lat="47.60804" lon="-2.84652">
        <time>2014-03-29T07:39:48Z</time>
      </trkpt>
      <trkpt lat="47.608" lon="-2.8466">
        <time>2014-03-29T07:39:50Z</time>
      </trkpt>
      <trkpt lat="47.60797" lon="-2.84668">
        <time>2014-03-29T07:39:52Z</time>
      </trkpt>
      <trkpt lat="47.60793" lon="-2.84675">
        <time>2014-03-29T07:39:55Z</time>
      </trkpt>
      <trkpt lat="47.6079" lon="-2.84682">
        <time>2014-03-29T07:39:57Z</time>
      </trkpt>
      <trkpt lat="47.60786" lon="-2.84689">
        <time>2014-03-29T07:39:59Z</time>
      </trkpt>
      <trkpt lat="47.60782" lon="-2.84696">
        <time>2014-03-29T07:40:01Z</time>
      </trkpt>
      <trkpt lat="47.60778" lon="-2.84703">
        <time>2014-03-29T07:40:02Z</time>
      </trkpt>
      <trkpt lat="47.60774" lon="-2.84709">
        <time>2014-03-29T07:40:04Z</time>
      </trkpt>
      <trkpt lat="47.6077" lon="-2.84716">
        <time>2014-03-29T07:40:06Z</time>
      </trkpt>
      <trkpt lat="47.60766" lon="-2.84722">
        <time>2014-03-29T07:40:08Z</time>
      </trkpt>
      <trkpt lat="47.60762" lon="-2.84729">
        <time>2014-03-29T07:40:11Z</time>
      </trkpt>
      <trkpt lat="47.60759" lon="-2.84737">
        <time>2014-03-29T07:40:13Z</time>
      </trkpt>
      <trkpt lat="47.60755" lon="-2.84744">
        <time>2014-03-29T07:40:14Z</time>
      </trkpt>
      <trkpt lat="47.60752" lon="-2.84752">
        <time>2014-03-29T07:40:16Z</time>
      </trkpt>
      <trkpt lat="47.60749" lon="-2.8476">
        <time>2014-03-29T07:40:18Z</time>
      </trkpt>
      <trkpt lat="47.60746" lon="-2.84767">
        <time>2014-03-29T07:40:20Z</time>
      </trkpt>
      <trkpt lat="47.60742" lon="-2.84774">
        <time>2014-03-29T07:40:22Z</time>
      </trkpt>
      <trkpt lat="47.60738" lon="-2.84781">
        <time>2014-03-29T07:40:25Z</time>
      </trkpt>
      <trkpt lat="47.60734" lon="-2.84788">
        <time>2014-03-29T07:40:27Z</time>
      </trkpt>
      <trkpt lat="47.6073" lon="-2.84795">
        <time>2014-03-29T07:40:29Z</time>
      </trkpt>
      <trkpt lat="47.60726" lon="-2.84803">
        <time>2014-03-29T07:40:31Z</time>
      </trkpt>
      <trkpt lat="47.60722" lon="-2.84811">
        <time>2014-03-29T07:40:33Z</time>
      </trkpt>
      <trkpt lat="47.60718" lon="-2.84818">
        <time>2014-03-29T07:40:35Z</time>
      </trkpt>
      <trkpt lat="47.60714" lon="-2.84825">
        <time>2014-03-29T07:40:37Z</time>
      </trkpt>
      <trkpt lat="47.6071" lon="-2.84832">
        <time>2014-03-29T07:40:39Z</time>
      </trkpt>
      <trkpt lat="47.60706" lon="-2.84839">
        <time>2014-03-29T07:40:41Z</time>
      </trkpt>
      <trkpt lat="47.60703" lon="-2.84846">
        <time>2014-03-29T07:40:43Z</time>
      </trkpt>
      <trkpt lat="47.60699" lon="-2.84852">
        <time>2014-03-29T07:40:45Z</time>
      </trkpt>
      <trkpt lat="47.60695" lon="-2.84858">
        <time>2014-03-29T07:40:47Z</time>
      </trkpt>
      <trkpt lat="47.60691" lon="-2.84863">
        <time>2014-03-29T07:40:49Z</time>
      </trkpt>
      <trkpt lat="47.60687" lon="-2.84869">
        <time>2014-03-29T07:40:51Z</time>
      </trkpt>
      <trkpt lat="47.60683" lon="-2.84875">
        <time>2014-03-29T07:40:53Z</time>
      </trkpt>
      <trkpt lat="47.6068" lon="-2.84881">
        <time>2014-03-29T07:40:55Z</time>
      </trkpt>
      <trkpt lat="47.60676" lon="-2.84887">
        <time>2014-03-29T07:40:57Z</time>
      </trkpt>
      <trkpt lat="47.60672" lon="-2.84893">
        <time>2014-03-29T07:40:59Z</time>
      </trkpt>
      <trkpt lat="47.60669" lon="-2.84898">
        <time>2014-03-29T07:41:01Z</time>
      </trkpt>
      <trkpt lat="47.60665" lon="-2.84904">
        <time>2014-03-29T07:41:03Z</time>
      </trkpt>
      <trkpt lat="47.6066" lon="-2.84909">
        <time>2014-03-29T07:41:05Z</time>
      </trkpt>
      <trkpt lat="47.60656" lon="-2.84915">
        <time>2014-03-29T07:41:07Z</time>
      </trkpt>
      <trkpt lat="47.60651" lon="-2.84922">
        <time>2014-03-29T07:41:09Z</time>
      </trkpt>
      <trkpt lat="47.60647" lon="-2.84929">
        <time>2014-03-29T07:41:11Z</time>
      </trkpt>
      <trkpt lat="47.60643" lon="-2.84935">
        <time>2014-03-29T07:41:13Z</time>
      </trkpt>
      <trkpt lat="47.60639" lon="-2.84942">
        <time>2014-03-29T07:41:15Z</time>
      </trkpt>
      <trkpt lat="47.60635" lon="-2.84949">
        <time>2014-03-29T07:41:17Z</time>
      </trkpt>
      <trkpt lat="47.60632" lon="-2.84955">
        <time>2014-03-29T07:41:19Z</time>
      </trkpt>
      <trkpt lat="47.60629" lon="-2.84962">
        <time>2014-03-29T07:41:21Z</time>
      </trkpt>
      <trkpt lat="47.60625" lon="-2.84968">
        <time>2014-03-29T07:41:23Z</time>
      </trkpt>
      <trkpt lat="47.60622" lon="-2.84975">
        <time>2014-03-29T07:41:25Z</time>
      </trkpt>
      <trkpt lat="47.60618" lon="-2.84981">
        <time>2014-03-29T07:41:27Z</time>
      </trkpt>
      <trkpt lat="47.60615" lon="-2.84987">
        <time>2014-03-29T07:41:29Z</time>
      </trkpt>
      <trkpt lat="47.60611" lon="-2.84994">
        <time>2014-03-29T07:41:31Z</time>
      </trkpt>
      <trkpt lat="47.60607" lon="-2.85001">
        <time>2014-03-29T07:41:33Z</time>
      </trkpt>
      <trkpt lat="47.60602" lon="-2.85012">
        <time>2014-03-29T07:41:36Z</time>
      </trkpt>
      <trkpt lat="47.60599" lon="-2.85018">
        <time>2014-03-29T07:41:38Z</time>
      </trkpt>
      <trkpt lat="47.60596" lon="-2.85026">
        <time>2014-03-29T07:41:40Z</time>
      </trkpt>
      <trkpt lat="47.60593" lon="-2.85033">
        <time>2014-03-29T07:41:42Z</time>
      </trkpt>
      <trkpt lat="47.60589" lon="-2.85041">
        <time>2014-03-29T07:41:44Z</time>
      </trkpt>
      <trkpt lat="47.60586" lon="-2.85048">
        <time>2014-03-29T07:41:46Z</time>
      </trkpt>
      <trkpt lat="47.60583" lon="-2.85056">
        <time>2014-03-29T07:41:48Z</time>
      </trkpt>
      <trkpt lat="47.6058" lon="-2.85063">
        <time>2014-03-29T07:41:50Z</time>
      </trkpt>
      <trkpt lat="47.60576" lon="-2.8507">
        <time>2014-03-29T07:41:52Z</time>
      </trkpt>
      <trkpt lat="47.60572" lon="-2.85076">
        <time>2014-03-29T07:41:54Z</time>
      </trkpt>
      <trkpt lat="47.60569" lon="-2.85083">
        <time>2014-03-29T07:41:56Z</time>
      </trkpt>
      <trkpt lat="47.60565" lon="-2.85089">
        <time>2014-03-29T07:41:58Z</time>
      </trkpt>
      <trkpt lat="47.60562" lon="-2.85096">
        <time>2014-03-29T07:42:00Z</time>
      </trkpt>
      <trkpt lat="47.60559" lon="-2.85103">
        <time>2014-03-29T07:42:02Z</time>
      </trkpt>
      <trkpt lat="47.60555" lon="-2.8511">
        <time>2014-03-29T07:42:04Z</time>
      </trkpt>
      <trkpt lat="47.60551" lon="-2.85117">
        <time>2014-03-29T07:42:06Z</time>
      </trkpt>
      <trkpt lat="47.60547" lon="-2.85123">
        <time>2014-03-29T07:42:08Z</time>
      </trkpt>
      <trkpt lat="47.60543" lon="-2.8513">
        <time>2014-03-29T07:42:10Z</time>
      </trkpt>
      <trkpt lat="47.60539" lon="-2.85138">
        <time>2014-03-29T07:42:12Z</time>
      </trkpt>
      <trkpt lat="47.60536" lon="-2.85145">
        <time>2014-03-29T07:42:14Z</time>
      </trkpt>
      <trkpt lat="47.60533" lon="-2.85152">
        <time>2014-03-29T07:42:16Z</time>
      </trkpt>
      <trkpt lat="47.60529" lon="-2.85159">
        <time>2014-03-29T07:42:18Z</time>
      </trkpt>
      <trkpt lat="47.60525" lon="-2.85166">
        <time>2014-03-29T07:42:20Z</time>
      </trkpt>
      <trkpt lat="47.60521" lon="-2.85173">
        <time>2014-03-29T07:42:22Z</time>
      </trkpt>
      <trkpt lat="47.60518" lon="-2.8518">
        <time>2014-03-29T07:42:24Z</time>
      </trkpt>
      <trkpt lat="47.60514" lon="-2.85186">
        <time>2014-03-29T07:42:26Z</time>
      </trkpt>
      <trkpt lat="47.60511" lon="-2.85192">
        <time>2014-03-29T07:42:28Z</time>
      </trkpt>
      <trkpt lat="47.60507" lon="-2.85198">
        <time>2014-03-29T07:42:30Z</time>
      </trkpt>
      <trkpt lat="47.60504" lon="-2.85205">
        <time>2014-03-29T07:42:32Z</time>
      </trkpt>
      <trkpt lat="47.605" lon="-2.85211">
        <time>2014-03-29T07:42:34Z</time>
      </trkpt>
      <trkpt lat="47.60497" lon="-2.85218">
        <time>2014-03-29T07:42:36Z</time>
      </trkpt>
      <trkpt lat="47.60494" lon="-2.85225">
        <time>2014-03-29T07:42:38Z</time>
      </trkpt>
      <trkpt lat="47.6049" lon="-2.85231">
        <time>2014-03-29T07:42:40Z</time>
      </trkpt>
      <trkpt lat="47.60487" lon="-2.85238">
        <time>2014-03-29T07:42:42Z</time>
      </trkpt>
      <trkpt lat="47.60484" lon="-2.85244">
        <time>2014-03-29T07:42:44Z</time>
      </trkpt>
      <trkpt lat="47.6048" lon="-2.8525">
        <time>2014-03-29T07:42:46Z</time>
      </trkpt>
      <trkpt lat="47.60477" lon="-2.85256">
        <time>2014-03-29T07:42:48Z</time>
      </trkpt>
      <trkpt lat="47.60473" lon="-2.85262">
        <time>2014-03-29T07:42:50Z</time>
      </trkpt>
      <trkpt lat="47.60469" lon="-2.85268">
        <time>2014-03-29T07:42:52Z</time>
      </trkpt>
      <trkpt lat="47.60465" lon="-2.85274">
        <time>2014-03-29T07:42:54Z</time>
      </trkpt>
      <trkpt lat="47.60461" lon="-2.8528">
        <time>2014-03-29T07:42:56Z</time>
      </trkpt>
      <trkpt lat="47.60458" lon="-2.85286">
        <time>2014-03-29T07:42:58Z</time>
      </trkpt>
      <trkpt lat="47.60454" lon="-2.85291">
        <time>2014-03-29T07:43:00Z</time>
      </trkpt>
      <trkpt lat="47.6045" lon="-2.85297">
        <time>2014-03-29T07:43:02Z</time>
      </trkpt>
      <trkpt lat="47.60446" lon="-2.85302">
        <time>2014-03-29T07:43:04Z</time>
      </trkpt>
      <trkpt lat="47.60442" lon="-2.85308">
        <time>2014-03-29T07:43:06Z</time>
      </trkpt>
      <trkpt lat="47.60438" lon="-2.85313">
        <time>2014-03-29T07:43:08Z</time>
      </trkpt>
      <trkpt lat="47.60434" lon="-2.85318">
        <time>2014-03-29T07:43:10Z</time>
      </trkpt>
      <trkpt lat="47.6043" lon="-2.85323">
        <time>2014-03-29T07:43:12Z</time>
      </trkpt>
      <trkpt lat="47.60426" lon="-2.85328">
        <time>2014-03-29T07:43:14Z</time>
      </trkpt>
      <trkpt lat="47.60422" lon="-2.85333">
        <time>2014-03-29T07:43:16Z</time>
      </trkpt>
      <trkpt lat="47.60419" lon="-2.85339">
        <time>2014-03-29T07:43:18Z</time>
      </trkpt>
      <trkpt lat="47.60415" lon="-2.85345">
        <time>2014-03-29T07:43:20Z</time>
      </trkpt>
      <trkpt lat="47.60411" lon="-2.8535">
        <time>2014-03-29T07:43:22Z</time>
      </trkpt>
      <trkpt lat="47.60408" lon="-2.85356">
        <time>2014-03-29T07:43:24Z</time>
      </trkpt>
      <trkpt lat="47.60404" lon="-2.85361">
        <time>2014-03-29T07:43:26Z</time>
      </trkpt>
      <trkpt lat="47.60399" lon="-2.85365">
        <time>2014-03-29T07:43:28Z</time>
      </trkpt>
      <trkpt lat="47.60395" lon="-2.85369">
        <time>2014-03-29T07:43:30Z</time>
      </trkpt>
      <trkpt lat="47.60391" lon="-2.85373">
        <time>2014-03-29T07:43:32Z</time>
      </trkpt>
      <trkpt lat="47.60387" lon="-2.85376">
        <time>2014-03-29T07:43:34Z</time>
      </trkpt>
      <trkpt lat="47.60383" lon="-2.8538">
        <time>2014-03-29T07:43:36Z</time>
      </trkpt>
      <trkpt lat="47.60377" lon="-2.85385">
        <time>2014-03-29T07:43:39Z</time>
      </trkpt>
      <trkpt lat="47.60373" lon="-2.85392">
        <time>2014-03-29T07:43:42Z</time>
      </trkpt>
      <trkpt lat="47.6037" lon="-2.85397">
        <time>2014-03-29T07:43:44Z</time>
      </trkpt>
      <trkpt lat="47.60367" lon="-2.85404">
        <time>2014-03-29T07:43:46Z</time>
      </trkpt>
      <trkpt lat="47.60365" lon="-2.85412">
        <time>2014-03-29T07:43:48Z</time>
      </trkpt>
      <trkpt lat="47.60362" lon="-2.8542">
        <time>2014-03-29T07:43:50Z</time>
      </trkpt>
      <trkpt lat="47.6036" lon="-2.85428">
        <time>2014-03-29T07:43:52Z</time>
      </trkpt>
      <trkpt lat="47.60357" lon="-2.85435">
        <time>2014-03-29T07:43:54Z</time>
      </trkpt>
      <trkpt lat="47.60352" lon="-2.8544">
        <time>2014-03-29T07:43:57Z</time>
      </trkpt>
      <trkpt lat="47.60348" lon="-2.85439">
        <time>2014-03-29T07:44:00Z</time>
      </trkpt>
      <trkpt lat="47.60342" lon="-2.8544">
        <time>2014-03-29T07:44:04Z</time>
      </trkpt>
      <trkpt lat="47.60338" lon="-2.85445">
        <time>2014-03-29T07:44:07Z</time>
      </trkpt>
      <trkpt lat="47.60335" lon="-2.85452">
        <time>2014-03-29T07:44:10Z</time>
      </trkpt>
      <trkpt lat="47.60331" lon="-2.85456">
        <time>2014-03-29T07:44:13Z</time>
      </trkpt>
      <trkpt lat="47.60326" lon="-2.85459">
        <time>2014-03-29T07:44:16Z</time>
      </trkpt>
      <trkpt lat="47.60321" lon="-2.85462">
        <time>2014-03-29T07:44:19Z</time>
      </trkpt>
      <trkpt lat="47.60316" lon="-2.85465">
        <time>2014-03-29T07:44:22Z</time>
      </trkpt>
      <trkpt lat="47.60311" lon="-2.85467">
        <time>2014-03-29T07:44:25Z</time>
      </trkpt>
      <trkpt lat="47.60306" lon="-2.8547">
        <time>2014-03-29T07:44:28Z</time>
      </trkpt>
      <trkpt lat="47.60301" lon="-2.85473">
        <time>2014-03-29T07:44:31Z</time>
      </trkpt>
      <trkpt lat="47.60295" lon="-2.85478">
        <time>2014-03-29T07:44:34Z</time>
      </trkpt>
      <trkpt lat="47.60289" lon="-2.85483">
        <time>2014-03-29T07:44:37Z</time>
      </trkpt>
      <trkpt lat="47.60285" lon="-2.85487">
        <time>2014-03-29T07:44:39Z</time>
      </trkpt>
      <trkpt lat="47.60281" lon="-2.85492">
        <time>2014-03-29T07:44:41Z</time>
      </trkpt>
      <trkpt lat="47.60277" lon="-2.85496">
        <time>2014-03-29T07:44:43Z</time>
      </trkpt>
      <trkpt lat="47.60273" lon="-2.855">
        <time>2014-03-29T07:44:45Z</time>
      </trkpt>
      <trkpt lat="47.60269" lon="-2.85505">
        <time>2014-03-29T07:44:47Z</time>
      </trkpt>
      <trkpt lat="47.60265" lon="-2.85509">
        <time>2014-03-29T07:44:49Z</time>
      </trkpt>
      <trkpt lat="47.60261" lon="-2.85514">
        <time>2014-03-29T07:44:51Z</time>
      </trkpt>
      <trkpt lat="47.60256" lon="-2.85518">
        <time>2014-03-29T07:44:53Z</time>
      </trkpt>
      <trkpt lat="47.60252" lon="-2.85523">
        <time>2014-03-29T07:44:55Z</time>
      </trkpt>
      <trkpt lat="47.60248" lon="-2.85528">
        <time>2014-03-29T07:44:57Z</time>
      </trkpt>
      <trkpt lat="47.60243" lon="-2.85533">
        <time>2014-03-29T07:44:59Z</time>
      </trkpt>
      <trkpt lat="47.60239" lon="-2.85537">
        <time>2014-03-29T07:45:01Z</time>
      </trkpt>
      <trkpt lat="47.60234" lon="-2.85542">
        <time>2014-03-29T07:45:03Z</time>
      </trkpt>
      <trkpt lat="47.60229" lon="-2.85547">
        <time>2014-03-29T07:45:05Z</time>
      </trkpt>
      <trkpt lat="47.60225" lon="-2.85552">
        <time>2014-03-29T07:45:07Z</time>
      </trkpt>
      <trkpt lat="47.6022" lon="-2.85557">
        <time>2014-03-29T07:45:09Z</time>
      </trkpt>
      <trkpt lat="47.60215" lon="-2.85562">
        <time>2014-03-29T07:45:11Z</time>
      </trkpt>
      <trkpt lat="47.6021" lon="-2.85567">
        <time>2014-03-29T07:45:13Z</time>
      </trkpt>
      <trkpt lat="47.60205" lon="-2.85572">
        <time>2014-03-29T07:45:15Z</time>
      </trkpt>
      <trkpt lat="47.602" lon="-2.85577">
        <time>2014-03-29T07:45:17Z</time>
      </trkpt>
      <trkpt lat="47.60194" lon="-2.85582">
        <time>2014-03-29T07:45:19Z</time>
      </trkpt>
      <trkpt lat="47.60189" lon="-2.85587">
        <time>2014-03-29T07:45:21Z</time>
      </trkpt>
      <trkpt lat="47.60183" lon="-2.85593">
        <time>2014-03-29T07:45:23Z</time>
      </trkpt>
      <trkpt lat="47.60178" lon="-2.85598">
        <time>2014-03-29T07:45:25Z</time>
      </trkpt>
      <trkpt lat="47.60172" lon="-2.85603">
        <time>2014-03-29T07:45:27Z</time>
      </trkpt>
      <trkpt lat="47.60166" lon="-2.85608">
        <time>2014-03-29T07:45:29Z</time>
      </trkpt>
      <trkpt lat="47.60159" lon="-2.85613">
        <time>2014-03-29T07:45:31Z</time>
      </trkpt>
      <trkpt lat="47.60153" lon="-2.85617">
        <time>2014-03-29T07:45:33Z</time>
      </trkpt>
      <trkpt lat="47.60146" lon="-2.85622">
        <time>2014-03-29T07:45:35Z</time>
      </trkpt>
      <trkpt lat="47.60138" lon="-2.85627">
        <time>2014-03-29T07:45:37Z</time>
      </trkpt>
      <trkpt lat="47.60131" lon="-2.85632">
        <time>2014-03-29T07:45:39Z</time>
      </trkpt>
      <trkpt lat="47.60124" lon="-2.85636">
        <time>2014-03-29T07:45:41Z</time>
      </trkpt>
      <trkpt lat="47.60116" lon="-2.8564">
        <time>2014-03-29T07:45:43Z</time>
      </trkpt>
      <trkpt lat="47.60108" lon="-2.85644">
        <time>2014-03-29T07:45:45Z</time>
      </trkpt>
      <trkpt lat="47.601" lon="-2.85649">
        <time>2014-03-29T07:45:47Z</time>
      </trkpt>
      <trkpt lat="47.60093" lon="-2.85653">
        <time>2014-03-29T07:45:49Z</time>
      </trkpt>
      <trkpt lat="47.60085" lon="-2.85657">
        <time>2014-03-29T07:45:51Z</time>
      </trkpt>
      <trkpt lat="47.60078" lon="-2.85661">
        <time>2014-03-29T07:45:53Z</time>
      </trkpt>
      <trkpt lat="47.6007" lon="-2.85664">
        <time>2014-03-29T07:45:55Z</time>
      </trkpt>
      <trkpt lat="47.60063" lon="-2.85668">
        <time>2014-03-29T07:45:57Z</time>
      </trkpt>
      <trkpt lat="47.60056" lon="-2.85672">
        <time>2014-03-29T07:45:59Z</time>
      </trkpt>
      <trkpt lat="47.60049" lon="-2.85677">
        <time>2014-03-29T07:46:01Z</time>
      </trkpt>
      <trkpt lat="47.60042" lon="-2.85681">
        <time>2014-03-29T07:46:03Z</time>
      </trkpt>
      <trkpt lat="47.60034" lon="-2.85684">
        <time>2014-03-29T07:46:05Z</time>
      </trkpt>
      <trkpt lat="47.60027" lon="-2.85688">
        <time>2014-03-29T07:46:07Z</time>
      </trkpt>
      <trkpt lat="47.6002" lon="-2.85692">
        <time>2014-03-29T07:46:09Z</time>
      </trkpt>
      <trkpt lat="47.60013" lon="-2.85696">
        <time>2014-03-29T07:46:11Z</time>
      </trkpt>
      <trkpt lat="47.60006" lon="-2.857">
        <time>2014-03-29T07:46:13Z</time>
      </trkpt>
      <trkpt lat="47.59999" lon="-2.85705">
        <time>2014-03-29T07:46:15Z</time>
      </trkpt>
      <trkpt lat="47.59992" lon="-2.85709">
        <time>2014-03-29T07:46:17Z</time>
      </trkpt>
      <trkpt lat="47.59985" lon="-2.85714">
        <time>2014-03-29T07:46:19Z</time>
      </trkpt>
      <trkpt lat="47.59979" lon="-2.85719">
        <time>2014-03-29T07:46:21Z</time>
      </trkpt>
      <trkpt lat="47.59972" lon="-2.85724">
        <time>2014-03-29T07:46:23Z</time>
      </trkpt>
      <trkpt lat="47.59965" lon="-2.85728">
        <time>2014-03-29T07:46:25Z</time>
      </trkpt>
      <trkpt lat="47.59954" lon="-2.85734">
        <time>2014-03-29T07:46:28Z</time>
      </trkpt>
      <trkpt lat="47.59948" lon="-2.85737">
        <time>2014-03-29T07:46:30Z</time>
      </trkpt>
      <trkpt lat="47.5994" lon="-2.85741">
        <time>2014-03-29T07:46:32Z</time>
      </trkpt>
      <trkpt lat="47.59934" lon="-2.85744">
        <time>2014-03-29T07:46:34Z</time>
      </trkpt>
      <trkpt lat="47.59927" lon="-2.85748">
        <time>2014-03-29T07:46:36Z</time>
      </trkpt>
      <trkpt lat="47.59919" lon="-2.85752">
        <time>2014-03-29T07:46:38Z</time>
      </trkpt>
      <trkpt lat="47.59912" lon="-2.85756">
        <time>2014-03-29T07:46:40Z</time>
      </trkpt>
      <trkpt lat="47.59905" lon="-2.8576">
        <time>2014-03-29T07:46:42Z</time>
      </trkpt>
      <trkpt lat="47.59898" lon="-2.85763">
        <time>2014-03-29T07:46:44Z</time>
      </trkpt>
      <trkpt lat="47.5989" lon="-2.85767">
        <time>2014-03-29T07:46:46Z</time>
      </trkpt>
      <trkpt lat="47.59883" lon="-2.8577">
        <time>2014-03-29T07:46:48Z</time>
      </trkpt>
      <trkpt lat="47.59876" lon="-2.85774">
        <time>2014-03-29T07:46:50Z</time>
      </trkpt>
      <trkpt lat="47.59869" lon="-2.85778">
        <time>2014-03-29T07:46:52Z</time>
      </trkpt>
      <trkpt lat="47.59862" lon="-2.85783">
        <time>2014-03-29T07:46:54Z</time>
      </trkpt>
      <trkpt lat="47.59855" lon="-2.85788">
        <time>2014-03-29T07:46:56Z</time>
      </trkpt>
      <trkpt lat="47.59848" lon="-2.85794">
        <time>2014-03-29T07:46:58Z</time>
      </trkpt>
      <trkpt lat="47.59841" lon="-2.85799">
        <time>2014-03-29T07:47:00Z</time>
      </trkpt>
      <trkpt lat="47.59834" lon="-2.85803">
        <time>2014-03-29T07:47:02Z</time>
      </trkpt>
      <trkpt lat="47.59826" lon="-2.85808">
        <time>2014-03-29T07:47:04Z</time>
      </trkpt>
      <trkpt lat="47.59819" lon="-2.85812">
        <time>2014-03-29T07:47:07Z</time>
      </trkpt>
      <trkpt lat="47.59812" lon="-2.85816">
        <time>2014-03-29T07:47:08Z</time>
      </trkpt>
      <trkpt lat="47.59804" lon="-2.85821">
        <time>2014-03-29T07:47:10Z</time>
      </trkpt>
      <trkpt lat="47.59797" lon="-2.85825">
        <time>2014-03-29T07:47:12Z</time>
      </trkpt>
      <trkpt lat="47.5979" lon="-2.8583">
        <time>2014-03-29T07:47:14Z</time>
      </trkpt>
      <trkpt lat="47.59782" lon="-2.85834">
        <time>2014-03-29T07:47:16Z</time>
      </trkpt>
      <trkpt lat="47.59775" lon="-2.85838">
        <time>2014-03-29T07:47:18Z</time>
      </trkpt>
      <trkpt lat="47.59768" lon="-2.85841">
        <time>2014-03-29T07:47:20Z</time>
      </trkpt>
      <trkpt lat="47.5976" lon="-2.85844">
        <time>2014-03-29T07:47:22Z</time>
      </trkpt>
      <trkpt lat="47.59753" lon="-2.85847">
        <time>2014-03-29T07:47:24Z</time>
      </trkpt>
      <trkpt lat="47.59746" lon="-2.85851">
        <time>2014-03-29T07:47:26Z</time>
      </trkpt>
      <trkpt lat="47.59738" lon="-2.85855">
        <time>2014-03-29T07:47:28Z</time>
      </trkpt>
      <trkpt lat="47.59731" lon="-2.85859">
        <time>2014-03-29T07:47:30Z</time>
      </trkpt>
      <trkpt lat="47.59724" lon="-2.85863">
        <time>2014-03-29T07:47:32Z</time>
      </trkpt>
      <trkpt lat="47.59716" lon="-2.85867">
        <time>2014-03-29T07:47:34Z</time>
      </trkpt>
      <trkpt lat="47.59709" lon="-2.85872">
        <time>2014-03-29T07:47:36Z</time>
      </trkpt>
      <trkpt lat="47.59702" lon="-2.85876">
        <time>2014-03-29T07:47:38Z</time>
      </trkpt>
      <trkpt lat="47.59694" lon="-2.85881">
        <time>2014-03-29T07:47:40Z</time>
      </trkpt>
      <trkpt lat="47.59687" lon="-2.85887">
        <time>2014-03-29T07:47:42Z</time>
      </trkpt>
      <trkpt lat="47.59681" lon="-2.85893">
        <time>2014-03-29T07:47:44Z</time>
      </trkpt>
      <trkpt lat="47.59674" lon="-2.85899">
        <time>2014-03-29T07:47:46Z</time>
      </trkpt>
      <trkpt lat="47.59667" lon="-2.85905">
        <time>2014-03-29T07:47:48Z</time>
      </trkpt>
      <trkpt lat="47.5966" lon="-2.8591">
        <time>2014-03-29T07:47:50Z</time>
      </trkpt>
      <trkpt lat="47.59653" lon="-2.85916">
        <time>2014-03-29T07:47:52Z</time>
      </trkpt>
      <trkpt lat="47.59646" lon="-2.85921">
        <time>2014-03-29T07:47:54Z</time>
      </trkpt>
      <trkpt lat="47.59639" lon="-2.85926">
        <time>2014-03-29T07:47:56Z</time>
      </trkpt>
      <trkpt lat="47.59632" lon="-2.85931">
        <time>2014-03-29T07:47:58Z</time>
      </trkpt>
      <trkpt lat="47.59625" lon="-2.85935">
        <time>2014-03-29T07:48:00Z</time>
      </trkpt>
      <trkpt lat="47.59618" lon="-2.8594">
        <time>2014-03-29T07:48:02Z</time>
      </trkpt>
      <trkpt lat="47.5961" lon="-2.85945">
        <time>2014-03-29T07:48:04Z</time>
      </trkpt>
      <trkpt lat="47.59603" lon="-2.8595">
        <time>2014-03-29T07:48:06Z</time>
      </trkpt>
      <trkpt lat="47.59596" lon="-2.85956">
        <time>2014-03-29T07:48:08Z</time>
      </trkpt>
      <trkpt lat="47.59589" lon="-2.85962">
        <time>2014-03-29T07:48:10Z</time>
      </trkpt>
      <trkpt lat="47.59582" lon="-2.85967">
        <time>2014-03-29T07:48:12Z</time>
      </trkpt>
      <trkpt lat="47.59575" lon="-2.85972">
        <time>2014-03-29T07:48:14Z</time>
      </trkpt>
      <trkpt lat="47.59568" lon="-2.85977">
        <time>2014-03-29T07:48:16Z</time>
      </trkpt>
      <trkpt lat="47.59561" lon="-2.85982">
        <time>2014-03-29T07:48:18Z</time>
      </trkpt>
      <trkpt lat="47.59554" lon="-2.85987">
        <time>2014-03-29T07:48:20Z</time>
      </trkpt>
      <trkpt lat="47.59547" lon="-2.85991">
        <time>2014-03-29T07:48:22Z</time>
      </trkpt>
      <trkpt lat="47.5954" lon="-2.85996">
        <time>2014-03-29T07:48:24Z</time>
      </trkpt>
      <trkpt lat="47.59534" lon="-2.86">
        <time>2014-03-29T07:48:26Z</time>
      </trkpt>
      <trkpt lat="47.59527" lon="-2.86006">
        <time>2014-03-29T07:48:28Z</time>
      </trkpt>
      <trkpt lat="47.5952" lon="-2.86011">
        <time>2014-03-29T07:48:30Z</time>
      </trkpt>
      <trkpt lat="47.59514" lon="-2.86017">
        <time>2014-03-29T07:48:32Z</time>
      </trkpt>
      <trkpt lat="47.59507" lon="-2.86024">
        <time>2014-03-29T07:48:34Z</time>
      </trkpt>
      <trkpt lat="47.59501" lon="-2.8603">
        <time>2014-03-29T07:48:36Z</time>
      </trkpt>
      <trkpt lat="47.59494" lon="-2.86036">
        <time>2014-03-29T07:48:38Z</time>
      </trkpt>
      <trkpt lat="47.59488" lon="-2.86042">
        <time>2014-03-29T07:48:40Z</time>
      </trkpt>
      <trkpt lat="47.59481" lon="-2.86047">
        <time>2014-03-29T07:48:42Z</time>
      </trkpt>
      <trkpt lat="47.59475" lon="-2.86051">
        <time>2014-03-29T07:48:44Z</time>
      </trkpt>
      <trkpt lat="47.59469" lon="-2.86054">
        <time>2014-03-29T07:48:46Z</time>
      </trkpt>
      <trkpt lat="47.59462" lon="-2.86057">
        <time>2014-03-29T07:48:48Z</time>
      </trkpt>
      <trkpt lat="47.59456" lon="-2.8606">
        <time>2014-03-29T07:48:50Z</time>
      </trkpt>
      <trkpt lat="47.59449" lon="-2.86064">
        <time>2014-03-29T07:48:52Z</time>
      </trkpt>
      <trkpt lat="47.59443" lon="-2.86068">
        <time>2014-03-29T07:48:54Z</time>
      </trkpt>
      <trkpt lat="47.59437" lon="-2.86073">
        <time>2014-03-29T07:48:56Z</time>
      </trkpt>
      <trkpt lat="47.59431" lon="-2.86078">
        <time>2014-03-29T07:48:58Z</time>
      </trkpt>
      <trkpt lat="47.59424" lon="-2.86082">
        <time>2014-03-29T07:49:00Z</time>
      </trkpt>
      <trkpt lat="47.59418" lon="-2.86086">
        <time>2014-03-29T07:49:02Z</time>
      </trkpt>
      <trkpt lat="47.59411" lon="-2.86089">
        <time>2014-03-29T07:49:04Z</time>
      </trkpt>
      <trkpt lat="47.59404" lon="-2.86093">
        <time>2014-03-29T07:49:06Z</time>
      </trkpt>
      <trkpt lat="47.59398" lon="-2.86097">
        <time>2014-03-29T07:49:08Z</time>
      </trkpt>
      <trkpt lat="47.59392" lon="-2.86101">
        <time>2014-03-29T07:49:10Z</time>
      </trkpt>
      <trkpt lat="47.59385" lon="-2.86106">
        <time>2014-03-29T07:49:12Z</time>
      </trkpt>
      <trkpt lat="47.59379" lon="-2.86111">
        <time>2014-03-29T07:49:14Z</time>
      </trkpt>
      <trkpt lat="47.59373" lon="-2.86115">
        <time>2014-03-29T07:49:16Z</time>
      </trkpt>
      <trkpt lat="47.59367" lon="-2.8612">
        <time>2014-03-29T07:49:18Z</time>
      </trkpt>
      <trkpt lat="47.59361" lon="-2.86124">
        <time>2014-03-29T07:49:20Z</time>
      </trkpt>
      <trkpt lat="47.59355" lon="-2.86128">
        <time>2014-03-29T07:49:22Z</time>
      </trkpt>
      <trkpt lat="47.59349" lon="-2.86131">
        <time>2014-03-29T07:49:24Z</time>
      </trkpt>
      <trkpt lat="47.59342" lon="-2.86135">
        <time>2014-03-29T07:49:26Z</time>
      </trkpt>
      <trkpt lat="47.59335" lon="-2.86138">
        <time>2014-03-29T07:49:28Z</time>
      </trkpt>
      <trkpt lat="47.59329" lon="-2.86141">
        <time>2014-03-29T07:49:30Z</time>
      </trkpt>
      <trkpt lat="47.59323" lon="-2.86144">
        <time>2014-03-29T07:49:32Z</time>
      </trkpt>
      <trkpt lat="47.59317" lon="-2.86148">
        <time>2014-03-29T07:49:34Z</time>
      </trkpt>
      <trkpt lat="47.5931" lon="-2.86152">
        <time>2014-03-29T07:49:36Z</time>
      </trkpt>
      <trkpt lat="47.59305" lon="-2.86156">
        <time>2014-03-29T07:49:38Z</time>
      </trkpt>
      <trkpt lat="47.59299" lon="-2.8616">
        <time>2014-03-29T07:49:40Z</time>
      </trkpt>
      <trkpt lat="47.59293" lon="-2.86164">
        <time>2014-03-29T07:49:42Z</time>
      </trkpt>
      <trkpt lat="47.59287" lon="-2.86169">
        <time>2014-03-29T07:49:44Z</time>
      </trkpt>
      <trkpt lat="47.59282" lon="-2.86173">
        <time>2014-03-29T07:49:46Z</time>
      </trkpt>
      <trkpt lat="47.59276" lon="-2.86178">
        <time>2014-03-29T07:49:48Z</time>
      </trkpt>
      <trkpt lat="47.5927" lon="-2.86183">
        <time>2014-03-29T07:49:50Z</time>
      </trkpt>
      <trkpt lat="47.59264" lon="-2.86187">
        <time>2014-03-29T07:49:52Z</time>
      </trkpt>
      <trkpt lat="47.59258" lon="-2.86191">
        <time>2014-03-29T07:49:54Z</time>
      </trkpt>
      <trkpt lat="47.59252" lon="-2.86195">
        <time>2014-03-29T07:49:56Z</time>
      </trkpt>
      <trkpt lat="47.59246" lon="-2.86199">
        <time>2014-03-29T07:49:58Z</time>
      </trkpt>
      <trkpt lat="47.5924" lon="-2.86203">
        <time>2014-03-29T07:50:00Z</time>
      </trkpt>
      <trkpt lat="47.59234" lon="-2.86207">
        <time>2014-03-29T07:50:02Z</time>
      </trkpt>
      <trkpt lat="47.59228" lon="-2.86211">
        <time>2014-03-29T07:50:04Z</time>
      </trkpt>
      <trkpt lat="47.59222" lon="-2.86215">
        <time>2014-03-29T07:50:06Z</time>
      </trkpt>
      <trkpt lat="47.59216" lon="-2.86219">
        <time>2014-03-29T07:50:08Z</time>
      </trkpt>
      <trkpt lat="47.59209" lon="-2.86223">
        <time>2014-03-29T07:50:10Z</time>
      </trkpt>
      <trkpt lat="47.59203" lon="-2.86227">
        <time>2014-03-29T07:50:12Z</time>
      </trkpt>
      <trkpt lat="47.59197" lon="-2.86231">
        <time>2014-03-29T07:50:14Z</time>
      </trkpt>
      <trkpt lat="47.59191" lon="-2.86235">
        <time>2014-03-29T07:50:16Z</time>
      </trkpt>
      <trkpt lat="47.59186" lon="-2.8624">
        <time>2014-03-29T07:50:18Z</time>
      </trkpt>
      <trkpt lat="47.5918" lon="-2.86243">
        <time>2014-03-29T07:50:20Z</time>
      </trkpt>
      <trkpt lat="47.59174" lon="-2.86247">
        <time>2014-03-29T07:50:22Z</time>
      </trkpt>
      <trkpt lat="47.59168" lon="-2.86252">
        <time>2014-03-29T07:50:24Z</time>
      </trkpt>
      <trkpt lat="47.59162" lon="-2.86257">
        <time>2014-03-29T07:50:26Z</time>
      </trkpt>
      <trkpt lat="47.59156" lon="-2.86261">
        <time>2014-03-29T07:50:28Z</time>
      </trkpt>
      <trkpt lat="47.5915" lon="-2.86266">
        <time>2014-03-29T07:50:30Z</time>
      </trkpt>
      <trkpt lat="47.59144" lon="-2.8627">
        <time>2014-03-29T07:50:32Z</time>
      </trkpt>
      <trkpt lat="47.59139" lon="-2.86274">
        <time>2014-03-29T07:50:34Z</time>
      </trkpt>
      <trkpt lat="47.59133" lon="-2.86278">
        <time>2014-03-29T07:50:36Z</time>
      </trkpt>
      <trkpt lat="47.59127" lon="-2.86283">
        <time>2014-03-29T07:50:38Z</time>
      </trkpt>
      <trkpt lat="47.59122" lon="-2.86287">
        <time>2014-03-29T07:50:40Z</time>
      </trkpt>
      <trkpt lat="47.59116" lon="-2.86292">
        <time>2014-03-29T07:50:42Z</time>
      </trkpt>
      <trkpt lat="47.5911" lon="-2.86295">
        <time>2014-03-29T07:50:44Z</time>
      </trkpt>
      <trkpt lat="47.59104" lon="-2.86299">
        <time>2014-03-29T07:50:46Z</time>
      </trkpt>
      <trkpt lat="47.59098" lon="-2.86303">
        <time>2014-03-29T07:50:48Z</time>
      </trkpt>
      <trkpt lat="47.59092" lon="-2.86306">
        <time>2014-03-29T07:50:50Z</time>
      </trkpt>
      <trkpt lat="47.59086" lon="-2.8631">
        <time>2014-03-29T07:50:52Z</time>
      </trkpt>
      <trkpt lat="47.59079" lon="-2.86314">
        <time>2014-03-29T07:50:54Z</time>
      </trkpt>
      <trkpt lat="47.59073" lon="-2.86318">
        <time>2014-03-29T07:50:56Z</time>
      </trkpt>
      <trkpt lat="47.59066" lon="-2.86322">
        <time>2014-03-29T07:50:58Z</time>
      </trkpt>
      <trkpt lat="47.5906" lon="-2.86326">
        <time>2014-03-29T07:51:00Z</time>
      </trkpt>
      <trkpt lat="47.59054" lon="-2.8633">
        <time>2014-03-29T07:51:02Z</time>
      </trkpt>
      <trkpt lat="47.59048" lon="-2.86334">
        <time>2014-03-29T07:51:04Z</time>
      </trkpt>
      <trkpt lat="47.59041" lon="-2.86337">
        <time>2014-03-29T07:51:06Z</time>
      </trkpt>
      <trkpt lat="47.59035" lon="-2.86341">
        <time>2014-03-29T07:51:08Z</time>
      </trkpt>
      <trkpt lat="47.59029" lon="-2.86345">
        <time>2014-03-29T07:51:10Z</time>
      </trkpt>
      <trkpt lat="47.59023" lon="-2.86348">
        <time>2014-03-29T07:51:12Z</time>
      </trkpt>
      <trkpt lat="47.59017" lon="-2.86351">
        <time>2014-03-29T07:51:14Z</time>
      </trkpt>
      <trkpt lat="47.59011" lon="-2.86354">
        <time>2014-03-29T07:51:16Z</time>
      </trkpt>
      <trkpt lat="47.59006" lon="-2.86356">
        <time>2014-03-29T07:51:18Z</time>
      </trkpt>
      <trkpt lat="47.59" lon="-2.8636">
        <time>2014-03-29T07:51:20Z</time>
      </trkpt>
      <trkpt lat="47.58994" lon="-2.86364">
        <time>2014-03-29T07:51:22Z</time>
      </trkpt>
      <trkpt lat="47.58989" lon="-2.86368">
        <time>2014-03-29T07:51:24Z</time>
      </trkpt>
      <trkpt lat="47.58983" lon="-2.86372">
        <time>2014-03-29T07:51:26Z</time>
      </trkpt>
      <trkpt lat="47.58977" lon="-2.86376">
        <time>2014-03-29T07:51:28Z</time>
      </trkpt>
      <trkpt lat="47.58971" lon="-2.8638">
        <time>2014-03-29T07:51:30Z</time>
      </trkpt>
      <trkpt lat="47.58965" lon="-2.86384">
        <time>2014-03-29T07:51:32Z</time>
      </trkpt>
      <trkpt lat="47.5896" lon="-2.86388">
        <time>2014-03-29T07:51:34Z</time>
      </trkpt>
      <trkpt lat="47.58954" lon="-2.86392">
        <time>2014-03-29T07:51:36Z</time>
      </trkpt>
      <trkpt lat="47.58949" lon="-2.86396">
        <time>2014-03-29T07:51:38Z</time>
      </trkpt>
      <trkpt lat="47.58943" lon="-2.864">
        <time>2014-03-29T07:51:40Z</time>
      </trkpt>
      <trkpt lat="47.58939" lon="-2.86404">
        <time>2014-03-29T07:51:42Z</time>
      </trkpt>
      <trkpt lat="47.58934" lon="-2.86409">
        <time>2014-03-29T07:51:44Z</time>
      </trkpt>
      <trkpt lat="47.58929" lon="-2.86413">
        <time>2014-03-29T07:51:46Z</time>
      </trkpt>
      <trkpt lat="47.58924" lon="-2.86418">
        <time>2014-03-29T07:51:48Z</time>
      </trkpt>
      <trkpt lat="47.58918" lon="-2.86422">
        <time>2014-03-29T07:51:50Z</time>
      </trkpt>
      <trkpt lat="47.58913" lon="-2.86427">
        <time>2014-03-29T07:51:52Z</time>
      </trkpt>
      <trkpt lat="47.58908" lon="-2.86432">
        <time>2014-03-29T07:51:54Z</time>
      </trkpt>
      <trkpt lat="47.58902" lon="-2.86436">
        <time>2014-03-29T07:51:56Z</time>
      </trkpt>
      <trkpt lat="47.58896" lon="-2.86441">
        <time>2014-03-29T07:51:58Z</time>
      </trkpt>
      <trkpt lat="47.58891" lon="-2.86445">
        <time>2014-03-29T07:52:00Z</time>
      </trkpt>
      <trkpt lat="47.58886" lon="-2.86448">
        <time>2014-03-29T07:52:02Z</time>
      </trkpt>
      <trkpt lat="47.5888" lon="-2.86452">
        <time>2014-03-29T07:52:04Z</time>
      </trkpt>
      <trkpt lat="47.58875" lon="-2.86456">
        <time>2014-03-29T07:52:06Z</time>
      </trkpt>
      <trkpt lat="47.58869" lon="-2.8646">
        <time>2014-03-29T07:52:08Z</time>
      </trkpt>
      <trkpt lat="47.58864" lon="-2.86464">
        <time>2014-03-29T07:52:10Z</time>
      </trkpt>
      <trkpt lat="47.58859" lon="-2.86469">
        <time>2014-03-29T07:52:12Z</time>
      </trkpt>
      <trkpt lat="47.58854" lon="-2.86474">
        <time>2014-03-29T07:52:14Z</time>
      </trkpt>
      <trkpt lat="47.5885" lon="-2.86479">
        <time>2014-03-29T07:52:16Z</time>
      </trkpt>
      <trkpt lat="47.58845" lon="-2.86485">
        <time>2014-03-29T07:52:18Z</time>
      </trkpt>
      <trkpt lat="47.58841" lon="-2.86491">
        <time>2014-03-29T07:52:20Z</time>
      </trkpt>
      <trkpt lat="47.58836" lon="-2.86496">
        <time>2014-03-29T07:52:22Z</time>
      </trkpt>
      <trkpt lat="47.58832" lon="-2.86501">
        <time>2014-03-29T07:52:24Z</time>
      </trkpt>
      <trkpt lat="47.58827" lon="-2.86506">
        <time>2014-03-29T07:52:26Z</time>
      </trkpt>
      <trkpt lat="47.58822" lon="-2.86511">
        <time>2014-03-29T07:52:28Z</time>
      </trkpt>
      <trkpt lat="47.58817" lon="-2.86517">
        <time>2014-03-29T07:52:30Z</time>
      </trkpt>
      <trkpt lat="47.58812" lon="-2.86523">
        <time>2014-03-29T07:52:32Z</time>
      </trkpt>
      <trkpt lat="47.58807" lon="-2.86528">
        <time>2014-03-29T07:52:34Z</time>
      </trkpt>
      <trkpt lat="47.58802" lon="-2.86533">
        <time>2014-03-29T07:52:36Z</time>
      </trkpt>
      <trkpt lat="47.58797" lon="-2.86539">
        <time>2014-03-29T07:52:39Z</time>
      </trkpt>
      <trkpt lat="47.58793" lon="-2.86545">
        <time>2014-03-29T07:52:40Z</time>
      </trkpt>
      <trkpt lat="47.58788" lon="-2.8655">
        <time>2014-03-29T07:52:43Z</time>
      </trkpt>
      <trkpt lat="47.58784" lon="-2.86556">
        <time>2014-03-29T07:52:44Z</time>
      </trkpt>
      <trkpt lat="47.58779" lon="-2.86561">
        <time>2014-03-29T07:52:46Z</time>
      </trkpt>
      <trkpt lat="47.58775" lon="-2.86567">
        <time>2014-03-29T07:52:48Z</time>
      </trkpt>
      <trkpt lat="47.5877" lon="-2.86573">
        <time>2014-03-29T07:52:50Z</time>
      </trkpt>
      <trkpt lat="47.58765" lon="-2.86578">
        <time>2014-03-29T07:52:53Z</time>
      </trkpt>
      <trkpt lat="47.58761" lon="-2.86584">
        <time>2014-03-29T07:52:54Z</time>
      </trkpt>
      <trkpt lat="47.58756" lon="-2.86589">
        <time>2014-03-29T07:52:57Z</time>
      </trkpt>
      <trkpt lat="47.58751" lon="-2.86595">
        <time>2014-03-29T07:52:58Z</time>
      </trkpt>
      <trkpt lat="47.58746" lon="-2.86601">
        <time>2014-03-29T07:53:00Z</time>
      </trkpt>
      <trkpt lat="47.58741" lon="-2.86607">
        <time>2014-03-29T07:53:02Z</time>
      </trkpt>
      <trkpt lat="47.58737" lon="-2.86612">
        <time>2014-03-29T07:53:04Z</time>
      </trkpt>
      <trkpt lat="47.58732" lon="-2.86617">
        <time>2014-03-29T07:53:06Z</time>
      </trkpt>
      <trkpt lat="47.58727" lon="-2.86622">
        <time>2014-03-29T07:53:08Z</time>
      </trkpt>
      <trkpt lat="47.58722" lon="-2.86627">
        <time>2014-03-29T07:53:11Z</time>
      </trkpt>
      <trkpt lat="47.58718" lon="-2.86632">
        <time>2014-03-29T07:53:12Z</time>
      </trkpt>
      <trkpt lat="47.58713" lon="-2.86638">
        <time>2014-03-29T07:53:14Z</time>
      </trkpt>
      <trkpt lat="47.58708" lon="-2.86644">
        <time>2014-03-29T07:53:16Z</time>
      </trkpt>
      <trkpt lat="47.58703" lon="-2.86651">
        <time>2014-03-29T07:53:18Z</time>
      </trkpt>
      <trkpt lat="47.58698" lon="-2.86657">
        <time>2014-03-29T07:53:20Z</time>
      </trkpt>
      <trkpt lat="47.58694" lon="-2.86663">
        <time>2014-03-29T07:53:22Z</time>
      </trkpt>
      <trkpt lat="47.58689" lon="-2.8667">
        <time>2014-03-29T07:53:24Z</time>
      </trkpt>
      <trkpt lat="47.58685" lon="-2.86676">
        <time>2014-03-29T07:53:26Z</time>
      </trkpt>
      <trkpt lat="47.5868" lon="-2.86681">
        <time>2014-03-29T07:53:28Z</time>
      </trkpt>
      <trkpt lat="47.58676" lon="-2.86687">
        <time>2014-03-29T07:53:30Z</time>
      </trkpt>
      <trkpt lat="47.58671" lon="-2.86693">
        <time>2014-03-29T07:53:32Z</time>
      </trkpt>
      <trkpt lat="47.58667" lon="-2.86699">
        <time>2014-03-29T07:53:34Z</time>
      </trkpt>
      <trkpt lat="47.58662" lon="-2.86705">
        <time>2014-03-29T07:53:36Z</time>
      </trkpt>
      <trkpt lat="47.58658" lon="-2.8671">
        <time>2014-03-29T07:53:38Z</time>
      </trkpt>
      <trkpt lat="47.58653" lon="-2.86716">
        <time>2014-03-29T07:53:40Z</time>
      </trkpt>
      <trkpt lat="47.58649" lon="-2.86721">
        <time>2014-03-29T07:53:42Z</time>
      </trkpt>
      <trkpt lat="47.58645" lon="-2.86726">
        <time>2014-03-29T07:53:44Z</time>
      </trkpt>
      <trkpt lat="47.5864" lon="-2.86731">
        <time>2014-03-29T07:53:46Z</time>
      </trkpt>
      <trkpt lat="47.58635" lon="-2.86736">
        <time>2014-03-29T07:53:48Z</time>
      </trkpt>
      <trkpt lat="47.58631" lon="-2.86741">
        <time>2014-03-29T07:53:50Z</time>
      </trkpt>
      <trkpt lat="47.58626" lon="-2.86746">
        <time>2014-03-29T07:53:52Z</time>
      </trkpt>
      <trkpt lat="47.58622" lon="-2.8675">
        <time>2014-03-29T07:53:54Z</time>
      </trkpt>
      <trkpt lat="47.58617" lon="-2.86755">
        <time>2014-03-29T07:53:56Z</time>
      </trkpt>
      <trkpt lat="47.58613" lon="-2.8676">
        <time>2014-03-29T07:53:58Z</time>
      </trkpt>
      <trkpt lat="47.58609" lon="-2.86765">
        <time>2014-03-29T07:54:00Z</time>
      </trkpt>
      <trkpt lat="47.58605" lon="-2.8677">
        <time>2014-03-29T07:54:02Z</time>
      </trkpt>
      <trkpt lat="47.58601" lon="-2.86775">
        <time>2014-03-29T07:54:04Z</time>
      </trkpt>
      <trkpt lat="47.58596" lon="-2.8678">
        <time>2014-03-29T07:54:06Z</time>
      </trkpt>
      <trkpt lat="47.58592" lon="-2.86786">
        <time>2014-03-29T07:54:08Z</time>
      </trkpt>
      <trkpt lat="47.58588" lon="-2.86791">
        <time>2014-03-29T07:54:10Z</time>
      </trkpt>
      <trkpt lat="47.58584" lon="-2.86797">
        <time>2014-03-29T07:54:12Z</time>
      </trkpt>
      <trkpt lat="47.5858" lon="-2.86802">
        <time>2014-03-29T07:54:14Z</time>
      </trkpt>
      <trkpt lat="47.58575" lon="-2.86807">
        <time>2014-03-29T07:54:16Z</time>
      </trkpt>
      <trkpt lat="47.58571" lon="-2.86812">
        <time>2014-03-29T07:54:18Z</time>
      </trkpt>
      <trkpt lat="47.58567" lon="-2.86817">
        <time>2014-03-29T07:54:20Z</time>
      </trkpt>
      <trkpt lat="47.58563" lon="-2.86822">
        <time>2014-03-29T07:54:22Z</time>
      </trkpt>
      <trkpt lat="47.58559" lon="-2.86826">
        <time>2014-03-29T07:54:24Z</time>
      </trkpt>
      <trkpt lat="47.58556" lon="-2.86831">
        <time>2014-03-29T07:54:26Z</time>
      </trkpt>
      <trkpt lat="47.58552" lon="-2.86836">
        <time>2014-03-29T07:54:28Z</time>
      </trkpt>
      <trkpt lat="47.58548" lon="-2.8684">
        <time>2014-03-29T07:54:30Z</time>
      </trkpt>
      <trkpt lat="47.58544" lon="-2.86845">
        <time>2014-03-29T07:54:32Z</time>
      </trkpt>
      <trkpt lat="47.5854" lon="-2.86849">
        <time>2014-03-29T07:54:34Z</time>
      </trkpt>
      <trkpt lat="47.58536" lon="-2.86854">
        <time>2014-03-29T07:54:36Z</time>
      </trkpt>
      <trkpt lat="47.58532" lon="-2.86859">
        <time>2014-03-29T07:54:38Z</time>
      </trkpt>
      <trkpt lat="47.58528" lon="-2.86864">
        <time>2014-03-29T07:54:40Z</time>
      </trkpt>
      <trkpt lat="47.58525" lon="-2.86869">
        <time>2014-03-29T07:54:42Z</time>
      </trkpt>
      <trkpt lat="47.58521" lon="-2.86875">
        <time>2014-03-29T07:54:44Z</time>
      </trkpt>
      <trkpt lat="47.58517" lon="-2.8688">
        <time>2014-03-29T07:54:46Z</time>
      </trkpt>
      <trkpt lat="47.58513" lon="-2.86886">
        <time>2014-03-29T07:54:49Z</time>
      </trkpt>
      <trkpt lat="47.58509" lon="-2.86891">
        <time>2014-03-29T07:54:50Z</time>
      </trkpt>
      <trkpt lat="47.58505" lon="-2.86897">
        <time>2014-03-29T07:54:52Z</time>
      </trkpt>
      <trkpt lat="47.58501" lon="-2.86901">
        <time>2014-03-29T07:54:54Z</time>
      </trkpt>
      <trkpt lat="47.58497" lon="-2.86906">
        <time>2014-03-29T07:54:56Z</time>
      </trkpt>
      <trkpt lat="47.58493" lon="-2.86911">
        <time>2014-03-29T07:54:58Z</time>
      </trkpt>
      <trkpt lat="47.58488" lon="-2.86917">
        <time>2014-03-29T07:55:01Z</time>
      </trkpt>
      <trkpt lat="47.58484" lon="-2.86922">
        <time>2014-03-29T07:55:02Z</time>
      </trkpt>
      <trkpt lat="47.5848" lon="-2.86927">
        <time>2014-03-29T07:55:04Z</time>
      </trkpt>
      <trkpt lat="47.58476" lon="-2.86933">
        <time>2014-03-29T07:55:06Z</time>
      </trkpt>
      <trkpt lat="47.58472" lon="-2.86938">
        <time>2014-03-29T07:55:08Z</time>
      </trkpt>
      <trkpt lat="47.58468" lon="-2.86943">
        <time>2014-03-29T07:55:10Z</time>
      </trkpt>
      <trkpt lat="47.58464" lon="-2.86949">
        <time>2014-03-29T07:55:12Z</time>
      </trkpt>
      <trkpt lat="47.58461" lon="-2.86954">
        <time>2014-03-29T07:55:14Z</time>
      </trkpt>
      <trkpt lat="47.58457" lon="-2.8696">
        <time>2014-03-29T07:55:16Z</time>
      </trkpt>
      <trkpt lat="47.58453" lon="-2.86967">
        <time>2014-03-29T07:55:19Z</time>
      </trkpt>
      <trkpt lat="47.5845" lon="-2.86973">
        <time>2014-03-29T07:55:20Z</time>
      </trkpt>
      <trkpt lat="47.58446" lon="-2.86979">
        <time>2014-03-29T07:55:23Z</time>
      </trkpt>
      <trkpt lat="47.58443" lon="-2.86986">
        <time>2014-03-29T07:55:24Z</time>
      </trkpt>
      <trkpt lat="47.58439" lon="-2.86992">
        <time>2014-03-29T07:55:27Z</time>
      </trkpt>
      <trkpt lat="47.58436" lon="-2.86999">
        <time>2014-03-29T07:55:28Z</time>
      </trkpt>
      <trkpt lat="47.58433" lon="-2.87005">
        <time>2014-03-29T07:55:30Z</time>
      </trkpt>
      <trkpt lat="47.58429" lon="-2.87012">
        <time>2014-03-29T07:55:33Z</time>
      </trkpt>
      <trkpt lat="47.58425" lon="-2.87018">
        <time>2014-03-29T07:55:34Z</time>
      </trkpt>
      <trkpt lat="47.58422" lon="-2.87025">
        <time>2014-03-29T07:55:37Z</time>
      </trkpt>
      <trkpt lat="47.58418" lon="-2.87033">
        <time>2014-03-29T07:55:38Z</time>
      </trkpt>
      <trkpt lat="47.58414" lon="-2.8704">
        <time>2014-03-29T07:55:40Z</time>
      </trkpt>
      <trkpt lat="47.5841" lon="-2.87047">
        <time>2014-03-29T07:55:42Z</time>
      </trkpt>
      <trkpt lat="47.58407" lon="-2.87053">
        <time>2014-03-29T07:55:45Z</time>
      </trkpt>
      <trkpt lat="47.58403" lon="-2.8706">
        <time>2014-03-29T07:55:46Z</time>
      </trkpt>
      <trkpt lat="47.58399" lon="-2.87066">
        <time>2014-03-29T07:55:48Z</time>
      </trkpt>
      <trkpt lat="47.58395" lon="-2.87072">
        <time>2014-03-29T07:55:51Z</time>
      </trkpt>
      <trkpt lat="47.58391" lon="-2.87079">
        <time>2014-03-29T07:55:52Z</time>
      </trkpt>
      <trkpt lat="47.58387" lon="-2.87085">
        <time>2014-03-29T07:55:55Z</time>
      </trkpt>
      <trkpt lat="47.58382" lon="-2.87092">
        <time>2014-03-29T07:55:56Z</time>
      </trkpt>
      <trkpt lat="47.58378" lon="-2.87098">
        <time>2014-03-29T07:55:59Z</time>
      </trkpt>
      <trkpt lat="47.58373" lon="-2.87104">
        <time>2014-03-29T07:56:00Z</time>
      </trkpt>
      <trkpt lat="47.58369" lon="-2.87109">
        <time>2014-03-29T07:56:02Z</time>
      </trkpt>
      <trkpt lat="47.58364" lon="-2.87115">
        <time>2014-03-29T07:56:04Z</time>
      </trkpt>
      <trkpt lat="47.5836" lon="-2.87121">
        <time>2014-03-29T07:56:06Z</time>
      </trkpt>
      <trkpt lat="47.58356" lon="-2.87128">
        <time>2014-03-29T07:56:09Z</time>
      </trkpt>
      <trkpt lat="47.58351" lon="-2.87134">
        <time>2014-03-29T07:56:10Z</time>
      </trkpt>
      <trkpt lat="47.58347" lon="-2.8714">
        <time>2014-03-29T07:56:13Z</time>
      </trkpt>
      <trkpt lat="47.58343" lon="-2.87145">
        <time>2014-03-29T07:56:14Z</time>
      </trkpt>
      <trkpt lat="47.58339" lon="-2.87151">
        <time>2014-03-29T07:56:16Z</time>
      </trkpt>
      <trkpt lat="47.58336" lon="-2.87157">
        <time>2014-03-29T07:56:18Z</time>
      </trkpt>
      <trkpt lat="47.58333" lon="-2.87164">
        <time>2014-03-29T07:56:20Z</time>
      </trkpt>
      <trkpt lat="47.5833" lon="-2.8717">
        <time>2014-03-29T07:56:22Z</time>
      </trkpt>
      <trkpt lat="47.58327" lon="-2.87177">
        <time>2014-03-29T07:56:24Z</time>
      </trkpt>
      <trkpt lat="47.58324" lon="-2.87183">
        <time>2014-03-29T07:56:26Z</time>
      </trkpt>
      <trkpt lat="47.58321" lon="-2.8719">
        <time>2014-03-29T07:56:28Z</time>
      </trkpt>
      <trkpt lat="47.58318" lon="-2.87196">
        <time>2014-03-29T07:56:30Z</time>
      </trkpt>
      <trkpt lat="47.58315" lon="-2.87203">
        <time>2014-03-29T07:56:32Z</time>
      </trkpt>
      <trkpt lat="47.58311" lon="-2.8721">
        <time>2014-03-29T07:56:34Z</time>
      </trkpt>
      <trkpt lat="47.58308" lon="-2.87217">
        <time>2014-03-29T07:56:36Z</time>
      </trkpt>
      <trkpt lat="47.58305" lon="-2.87225">
        <time>2014-03-29T07:56:38Z</time>
      </trkpt>
      <trkpt lat="47.58302" lon="-2.87233">
        <time>2014-03-29T07:56:40Z</time>
      </trkpt>
      <trkpt lat="47.58299" lon="-2.8724">
        <time>2014-03-29T07:56:42Z</time>
      </trkpt>
      <trkpt lat="47.58296" lon="-2.87247">
        <time>2014-03-29T07:56:44Z</time>
      </trkpt>
      <trkpt lat="47.58293" lon="-2.87254">
        <time>2014-03-29T07:56:46Z</time>
      </trkpt>
      <trkpt lat="47.5829" lon="-2.87261">
        <time>2014-03-29T07:56:48Z</time>
      </trkpt>
      <trkpt lat="47.58287" lon="-2.87268">
        <time>2014-03-29T07:56:50Z</time>
      </trkpt>
      <trkpt lat="47.58284" lon="-2.87275">
        <time>2014-03-29T07:56:52Z</time>
      </trkpt>
      <trkpt lat="47.58282" lon="-2.87281">
        <time>2014-03-29T07:56:54Z</time>
      </trkpt>
      <trkpt lat="47.58278" lon="-2.87288">
        <time>2014-03-29T07:56:56Z</time>
      </trkpt>
      <trkpt lat="47.58275" lon="-2.87295">
        <time>2014-03-29T07:56:58Z</time>
      </trkpt>
      <trkpt lat="47.58272" lon="-2.87301">
        <time>2014-03-29T07:57:00Z</time>
      </trkpt>
      <trkpt lat="47.58269" lon="-2.87308">
        <time>2014-03-29T07:57:02Z</time>
      </trkpt>
      <trkpt lat="47.58265" lon="-2.87315">
        <time>2014-03-29T07:57:04Z</time>
      </trkpt>
      <trkpt lat="47.58262" lon="-2.87321">
        <time>2014-03-29T07:57:06Z</time>
      </trkpt>
      <trkpt lat="47.58259" lon="-2.87328">
        <time>2014-03-29T07:57:09Z</time>
      </trkpt>
      <trkpt lat="47.58255" lon="-2.87334">
        <time>2014-03-29T07:57:10Z</time>
      </trkpt>
      <trkpt lat="47.58252" lon="-2.87341">
        <time>2014-03-29T07:57:12Z</time>
      </trkpt>
      <trkpt lat="47.58248" lon="-2.87348">
        <time>2014-03-29T07:57:14Z</time>
      </trkpt>
      <trkpt lat="47.58245" lon="-2.87355">
        <time>2014-03-29T07:57:16Z</time>
      </trkpt>
      <trkpt lat="47.58241" lon="-2.87362">
        <time>2014-03-29T07:57:18Z</time>
      </trkpt>
      <trkpt lat="47.58238" lon="-2.8737">
        <time>2014-03-29T07:57:20Z</time>
      </trkpt>
      <trkpt lat="47.58234" lon="-2.87377">
        <time>2014-03-29T07:57:22Z</time>
      </trkpt>
      <trkpt lat="47.58231" lon="-2.87385">
        <time>2014-03-29T07:57:24Z</time>
      </trkpt>
      <trkpt lat="47.58227" lon="-2.87392">
        <time>2014-03-29T07:57:26Z</time>
      </trkpt>
      <trkpt lat="47.58224" lon="-2.87399">
        <time>2014-03-29T07:57:28Z</time>
      </trkpt>
      <trkpt lat="47.58221" lon="-2.87406">
        <time>2014-03-29T07:57:30Z</time>
      </trkpt>
      <trkpt lat="47.58218" lon="-2.87414">
        <time>2014-03-29T07:57:32Z</time>
      </trkpt>
      <trkpt lat="47.58215" lon="-2.87421">
        <time>2014-03-29T07:57:35Z</time>
      </trkpt>
      <trkpt lat="47.58212" lon="-2.87429">
        <time>2014-03-29T07:57:36Z</time>
      </trkpt>
      <trkpt lat="47.58208" lon="-2.87437">
        <time>2014-03-29T07:57:38Z</time>
      </trkpt>
      <trkpt lat="47.58205" lon="-2.87444">
        <time>2014-03-29T07:57:40Z</time>
      </trkpt>
      <trkpt lat="47.58202" lon="-2.87452">
        <time>2014-03-29T07:57:42Z</time>
      </trkpt>
      <trkpt lat="47.58199" lon="-2.87459">
        <time>2014-03-29T07:57:44Z</time>
      </trkpt>
      <trkpt lat="47.58196" lon="-2.87466">
        <time>2014-03-29T07:57:46Z</time>
      </trkpt>
      <trkpt lat="47.58193" lon="-2.87473">
        <time>2014-03-29T07:57:48Z</time>
      </trkpt>
      <trkpt lat="47.58191" lon="-2.87481">
        <time>2014-03-29T07:57:50Z</time>
      </trkpt>
      <trkpt lat="47.58188" lon="-2.87488">
        <time>2014-03-29T07:57:52Z</time>
      </trkpt>
      <trkpt lat="47.58186" lon="-2.87495">
        <time>2014-03-29T07:57:54Z</time>
      </trkpt>
      <trkpt lat="47.58184" lon="-2.87502">
        <time>2014-03-29T07:57:56Z</time>
      </trkpt>
      <trkpt lat="47.58181" lon="-2.87509">
        <time>2014-03-29T07:57:58Z</time>
      </trkpt>
      <trkpt lat="47.58178" lon="-2.87516">
        <time>2014-03-29T07:58:00Z</time>
      </trkpt>
      <trkpt lat="47.58175" lon="-2.87523">
        <time>2014-03-29T07:58:02Z</time>
      </trkpt>
      <trkpt lat="47.58172" lon="-2.8753">
        <time>2014-03-29T07:58:04Z</time>
      </trkpt>
      <trkpt lat="47.5817" lon="-2.87538">
        <time>2014-03-29T07:58:06Z</time>
      </trkpt>
      <trkpt lat="47.58167" lon="-2.87545">
        <time>2014-03-29T07:58:08Z</time>
      </trkpt>
      <trkpt lat="47.58164" lon="-2.87552">
        <time>2014-03-29T07:58:10Z</time>
      </trkpt>
      <trkpt lat="47.58161" lon="-2.87559">
        <time>2014-03-29T07:58:12Z</time>
      </trkpt>
      <trkpt lat="47.58158" lon="-2.87566">
        <time>2014-03-29T07:58:15Z</time>
      </trkpt>
      <trkpt lat="47.58155" lon="-2.87573">
        <time>2014-03-29T07:58:16Z</time>
      </trkpt>
      <trkpt lat="47.58152" lon="-2.8758">
        <time>2014-03-29T07:58:18Z</time>
      </trkpt>
      <trkpt lat="47.58149" lon="-2.87587">
        <time>2014-03-29T07:58:20Z</time>
      </trkpt>
      <trkpt lat="47.58146" lon="-2.87594">
        <time>2014-03-29T07:58:22Z</time>
      </trkpt>
      <trkpt lat="47.58143" lon="-2.87602">
        <time>2014-03-29T07:58:24Z</time>
      </trkpt>
      <trkpt lat="47.5814" lon="-2.87609">
        <time>2014-03-29T07:58:26Z</time>
      </trkpt>
      <trkpt lat="47.58136" lon="-2.87616">
        <time>2014-03-29T07:58:28Z</time>
      </trkpt>
      <trkpt lat="47.58133" lon="-2.87623">
        <time>2014-03-29T07:58:30Z</time>
      </trkpt>
      <trkpt lat="47.5813" lon="-2.8763">
        <time>2014-03-29T07:58:32Z</time>
      </trkpt>
      <trkpt lat="47.58127" lon="-2.87637">
        <time>2014-03-29T07:58:34Z</time>
      </trkpt>
      <trkpt lat="47.58124" lon="-2.87645">
        <time>2014-03-29T07:58:36Z</time>
      </trkpt>
      <trkpt lat="47.58121" lon="-2.87652">
        <time>2014-03-29T07:58:38Z</time>
      </trkpt>
      <trkpt lat="47.58118" lon="-2.87659">
        <time>2014-03-29T07:58:40Z</time>
      </trkpt>
      <trkpt lat="47.58115" lon="-2.87666">
        <time>2014-03-29T07:58:42Z</time>
      </trkpt>
      <trkpt lat="47.58112" lon="-2.87673">
        <time>2014-03-29T07:58:44Z</time>
      </trkpt>
      <trkpt lat="47.58109" lon="-2.87679">
        <time>2014-03-29T07:58:46Z</time>
      </trkpt>
      <trkpt lat="47.58105" lon="-2.87687">
        <time>2014-03-29T07:58:48Z</time>
      </trkpt>
      <trkpt lat="47.58102" lon="-2.87694">
        <time>2014-03-29T07:58:50Z</time>
      </trkpt>
      <trkpt lat="47.58099" lon="-2.87701">
        <time>2014-03-29T07:58:52Z</time>
      </trkpt>
      <trkpt lat="47.58096" lon="-2.87707">
        <time>2014-03-29T07:58:54Z</time>
      </trkpt>
      <trkpt lat="47.58093" lon="-2.87715">
        <time>2014-03-29T07:58:56Z</time>
      </trkpt>
      <trkpt lat="47.5809" lon="-2.87722">
        <time>2014-03-29T07:58:58Z</time>
      </trkpt>
      <trkpt lat="47.58087" lon="-2.87729">
        <time>2014-03-29T07:59:00Z</time>
      </trkpt>
      <trkpt lat="47.58084" lon="-2.87736">
        <time>2014-03-29T07:59:02Z</time>
      </trkpt>
      <trkpt lat="47.58081" lon="-2.87743">
        <time>2014-03-29T07:59:04Z</time>
      </trkpt>
      <trkpt lat="47.58077" lon="-2.8775">
        <time>2014-03-29T07:59:06Z</time>
      </trkpt>
      <trkpt lat="47.58073" lon="-2.87756">
        <time>2014-03-29T07:59:08Z</time>
      </trkpt>
      <trkpt lat="47.58069" lon="-2.87762">
        <time>2014-03-29T07:59:10Z</time>
      </trkpt>
      <trkpt lat="47.58065" lon="-2.87769">
        <time>2014-03-29T07:59:12Z</time>
      </trkpt>
      <trkpt lat="47.58062" lon="-2.87774">
        <time>2014-03-29T07:59:14Z</time>
      </trkpt>
      <trkpt lat="47.58058" lon="-2.8778">
        <time>2014-03-29T07:59:16Z</time>
      </trkpt>
      <trkpt lat="47.58054" lon="-2.87785">
        <time>2014-03-29T07:59:18Z</time>
      </trkpt>
      <trkpt lat="47.5805" lon="-2.87791">
        <time>2014-03-29T07:59:20Z</time>
      </trkpt>
      <trkpt lat="47.58045" lon="-2.87796">
        <time>2014-03-29T07:59:22Z</time>
      </trkpt>
      <trkpt lat="47.58041" lon="-2.87801">
        <time>2014-03-29T07:59:24Z</time>
      </trkpt>
      <trkpt lat="47.58037" lon="-2.87807">
        <time>2014-03-29T07:59:26Z</time>
      </trkpt>
      <trkpt lat="47.58033" lon="-2.87813">
        <time>2014-03-29T07:59:28Z</time>
      </trkpt>
      <trkpt lat="47.58029" lon="-2.87819">
        <time>2014-03-29T07:59:30Z</time>
      </trkpt>
      <trkpt lat="47.58025" lon="-2.87825">
        <time>2014-03-29T07:59:32Z</time>
      </trkpt>
      <trkpt lat="47.58021" lon="-2.87831">
        <time>2014-03-29T07:59:34Z</time>
      </trkpt>
      <trkpt lat="47.58017" lon="-2.87837">
        <time>2014-03-29T07:59:36Z</time>
      </trkpt>
      <trkpt lat="47.58013" lon="-2.87842">
        <time>2014-03-29T07:59:38Z</time>
      </trkpt>
      <trkpt lat="47.5801" lon="-2.87848">
        <time>2014-03-29T07:59:40Z</time>
      </trkpt>
      <trkpt lat="47.58006" lon="-2.87854">
        <time>2014-03-29T07:59:42Z</time>
      </trkpt>
      <trkpt lat="47.58002" lon="-2.87859">
        <time>2014-03-29T07:59:44Z</time>
      </trkpt>
      <trkpt lat="47.57999" lon="-2.87865">
        <time>2014-03-29T07:59:47Z</time>
      </trkpt>
      <trkpt lat="47.57995" lon="-2.87871">
        <time>2014-03-29T07:59:48Z</time>
      </trkpt>
      <trkpt lat="47.57991" lon="-2.87877">
        <time>2014-03-29T07:59:50Z</time>
      </trkpt>
      <trkpt lat="47.57987" lon="-2.87883">
        <time>2014-03-29T07:59:52Z</time>
      </trkpt>
      <trkpt lat="47.57984" lon="-2.87889">
        <time>2014-03-29T07:59:54Z</time>
      </trkpt>
      <trkpt lat="47.5798" lon="-2.87895">
        <time>2014-03-29T07:59:56Z</time>
      </trkpt>
      <trkpt lat="47.57976" lon="-2.87901">
        <time>2014-03-29T07:59:58Z</time>
      </trkpt>
      <trkpt lat="47.57973" lon="-2.87907">
        <time>2014-03-29T08:00:01Z</time>
      </trkpt>
      <trkpt lat="47.57969" lon="-2.87913">
        <time>2014-03-29T08:00:02Z</time>
      </trkpt>
      <trkpt lat="47.57965" lon="-2.87919">
        <time>2014-03-29T08:00:04Z</time>
      </trkpt>
      <trkpt lat="47.57962" lon="-2.87926">
        <time>2014-03-29T08:00:07Z</time>
      </trkpt>
      <trkpt lat="47.57958" lon="-2.87932">
        <time>2014-03-29T08:00:08Z</time>
      </trkpt>
      <trkpt lat="47.57954" lon="-2.87938">
        <time>2014-03-29T08:00:10Z</time>
      </trkpt>
      <trkpt lat="47.5795" lon="-2.87944">
        <time>2014-03-29T08:00:12Z</time>
      </trkpt>
      <trkpt lat="47.57946" lon="-2.87949">
        <time>2014-03-29T08:00:14Z</time>
      </trkpt>
      <trkpt lat="47.57941" lon="-2.87954">
        <time>2014-03-29T08:00:16Z</time>
      </trkpt>
      <trkpt lat="47.57937" lon="-2.87959">
        <time>2014-03-29T08:00:18Z</time>
      </trkpt>
      <trkpt lat="47.57933" lon="-2.87964">
        <time>2014-03-29T08:00:21Z</time>
      </trkpt>
      <trkpt lat="47.57928" lon="-2.87969">
        <time>2014-03-29T08:00:22Z</time>
      </trkpt>
      <trkpt lat="47.57924" lon="-2.87973">
        <time>2014-03-29T08:00:24Z</time>
      </trkpt>
      <trkpt lat="47.57919" lon="-2.87978">
        <time>2014-03-29T08:00:27Z</time>
      </trkpt>
      <trkpt lat="47.57915" lon="-2.87982">
        <time>2014-03-29T08:00:28Z</time>
      </trkpt>
      <trkpt lat="47.57911" lon="-2.87987">
        <time>2014-03-29T08:00:30Z</time>
      </trkpt>
      <trkpt lat="47.57906" lon="-2.87992">
        <time>2014-03-29T08:00:32Z</time>
      </trkpt>
      <trkpt lat="47.57902" lon="-2.87997">
        <time>2014-03-29T08:00:34Z</time>
      </trkpt>
      <trkpt lat="47.57898" lon="-2.88003">
        <time>2014-03-29T08:00:36Z</time>
      </trkpt>
      <trkpt lat="47.57894" lon="-2.8801">
        <time>2014-03-29T08:00:38Z</time>
      </trkpt>
      <trkpt lat="47.5789" lon="-2.88017">
        <time>2014-03-29T08:00:41Z</time>
      </trkpt>
      <trkpt lat="47.57886" lon="-2.88023">
        <time>2014-03-29T08:00:42Z</time>
      </trkpt>
      <trkpt lat="47.57882" lon="-2.88029">
        <time>2014-03-29T08:00:44Z</time>
      </trkpt>
      <trkpt lat="47.57878" lon="-2.88035">
        <time>2014-03-29T08:00:46Z</time>
      </trkpt>
      <trkpt lat="47.57874" lon="-2.88041">
        <time>2014-03-29T08:00:48Z</time>
      </trkpt>
      <trkpt lat="47.57871" lon="-2.88048">
        <time>2014-03-29T08:00:50Z</time>
      </trkpt>
      <trkpt lat="47.57867" lon="-2.88053">
        <time>2014-03-29T08:00:52Z</time>
      </trkpt>
      <trkpt lat="47.57863" lon="-2.88059">
        <time>2014-03-29T08:00:54Z</time>
      </trkpt>
      <trkpt lat="47.57859" lon="-2.88066">
        <time>2014-03-29T08:00:56Z</time>
      </trkpt>
      <trkpt lat="47.57855" lon="-2.88073">
        <time>2014-03-29T08:00:58Z</time>
      </trkpt>
      <trkpt lat="47.57851" lon="-2.88079">
        <time>2014-03-29T08:01:00Z</time>
      </trkpt>
      <trkpt lat="47.57847" lon="-2.88085">
        <time>2014-03-29T08:01:02Z</time>
      </trkpt>
      <trkpt lat="47.57844" lon="-2.88092">
        <time>2014-03-29T08:01:04Z</time>
      </trkpt>
      <trkpt lat="47.5784" lon="-2.88098">
        <time>2014-03-29T08:01:06Z</time>
      </trkpt>
      <trkpt lat="47.57836" lon="-2.88104">
        <time>2014-03-29T08:01:08Z</time>
      </trkpt>
      <trkpt lat="47.57833" lon="-2.88111">
        <time>2014-03-29T08:01:10Z</time>
      </trkpt>
      <trkpt lat="47.57829" lon="-2.88117">
        <time>2014-03-29T08:01:13Z</time>
      </trkpt>
      <trkpt lat="47.57825" lon="-2.88123">
        <time>2014-03-29T08:01:14Z</time>
      </trkpt>
      <trkpt lat="47.57821" lon="-2.88129">
        <time>2014-03-29T08:01:16Z</time>
      </trkpt>
      <trkpt lat="47.57817" lon="-2.88135">
        <time>2014-03-29T08:01:19Z</time>
      </trkpt>
      <trkpt lat="47.57813" lon="-2.88141">
        <time>2014-03-29T08:01:20Z</time>
      </trkpt>
      <trkpt lat="47.57809" lon="-2.88146">
        <time>2014-03-29T08:01:22Z</time>
      </trkpt>
      <trkpt lat="47.57806" lon="-2.88152">
        <time>2014-03-29T08:01:24Z</time>
      </trkpt>
      <trkpt lat="47.57802" lon="-2.88158">
        <time>2014-03-29T08:01:27Z</time>
      </trkpt>
      <trkpt lat="47.57799" lon="-2.88164">
        <time>2014-03-29T08:01:28Z</time>
      </trkpt>
      <trkpt lat="47.57795" lon="-2.8817">
        <time>2014-03-29T08:01:30Z</time>
      </trkpt>
      <trkpt lat="47.57791" lon="-2.88176">
        <time>2014-03-29T08:01:32Z</time>
      </trkpt>
      <trkpt lat="47.57788" lon="-2.88182">
        <time>2014-03-29T08:01:34Z</time>
      </trkpt>
      <trkpt lat="47.57784" lon="-2.88189">
        <time>2014-03-29T08:01:36Z</time>
      </trkpt>
      <trkpt lat="47.57781" lon="-2.88195">
        <time>2014-03-29T08:01:39Z</time>
      </trkpt>
      <trkpt lat="47.57777" lon="-2.88201">
        <time>2014-03-29T08:01:41Z</time>
      </trkpt>
      <trkpt lat="47.57773" lon="-2.88208">
        <time>2014-03-29T08:01:42Z</time>
      </trkpt>
      <trkpt lat="47.5777" lon="-2.88214">
        <time>2014-03-29T08:01:45Z</time>
      </trkpt>
      <trkpt lat="47.57766" lon="-2.88221">
        <time>2014-03-29T08:01:47Z</time>
      </trkpt>
      <trkpt lat="47.57763" lon="-2.88228">
        <time>2014-03-29T08:01:48Z</time>
      </trkpt>
      <trkpt lat="47.57759" lon="-2.88236">
        <time>2014-03-29T08:01:50Z</time>
      </trkpt>
      <trkpt lat="47.57756" lon="-2.88243">
        <time>2014-03-29T08:01:53Z</time>
      </trkpt>
      <trkpt lat="47.57752" lon="-2.8825">
        <time>2014-03-29T08:01:54Z</time>
      </trkpt>
      <trkpt lat="47.57749" lon="-2.88256">
        <time>2014-03-29T08:01:56Z</time>
      </trkpt>
      <trkpt lat="47.57745" lon="-2.88263">
        <time>2014-03-29T08:01:59Z</time>
      </trkpt>
      <trkpt lat="47.57741" lon="-2.88269">
        <time>2014-03-29T08:02:01Z</time>
      </trkpt>
      <trkpt lat="47.57738" lon="-2.88276">
        <time>2014-03-29T08:02:02Z</time>
      </trkpt>
      <trkpt lat="47.57734" lon="-2.88282">
        <time>2014-03-29T08:02:05Z</time>
      </trkpt>
      <trkpt lat="47.5773" lon="-2.88288">
        <time>2014-03-29T08:02:07Z</time>
      </trkpt>
      <trkpt lat="47.57726" lon="-2.88295">
        <time>2014-03-29T08:02:08Z</time>
      </trkpt>
      <trkpt lat="47.57723" lon="-2.88301">
        <time>2014-03-29T08:02:10Z</time>
      </trkpt>
      <trkpt lat="47.57719" lon="-2.88308">
        <time>2014-03-29T08:02:12Z</time>
      </trkpt>
      <trkpt lat="47.57716" lon="-2.88314">
        <time>2014-03-29T08:02:14Z</time>
      </trkpt>
      <trkpt lat="47.57712" lon="-2.88321">
        <time>2014-03-29T08:02:16Z</time>
      </trkpt>
      <trkpt lat="47.57709" lon="-2.88327">
        <time>2014-03-29T08:02:19Z</time>
      </trkpt>
      <trkpt lat="47.57706" lon="-2.88333">
        <time>2014-03-29T08:02:20Z</time>
      </trkpt>
      <trkpt lat="47.57702" lon="-2.8834">
        <time>2014-03-29T08:02:22Z</time>
      </trkpt>
      <trkpt lat="47.57698" lon="-2.88346">
        <time>2014-03-29T08:02:25Z</time>
      </trkpt>
      <trkpt lat="47.57695" lon="-2.88353">
        <time>2014-03-29T08:02:27Z</time>
      </trkpt>
      <trkpt lat="47.57691" lon="-2.88359">
        <time>2014-03-29T08:02:28Z</time>
      </trkpt>
      <trkpt lat="47.57688" lon="-2.88366">
        <time>2014-03-29T08:02:30Z</time>
      </trkpt>
      <trkpt lat="47.57684" lon="-2.88373">
        <time>2014-03-29T08:02:33Z</time>
      </trkpt>
      <trkpt lat="47.57681" lon="-2.88379">
        <time>2014-03-29T08:02:34Z</time>
      </trkpt>
      <trkpt lat="47.57677" lon="-2.88386">
        <time>2014-03-29T08:02:36Z</time>
      </trkpt>
      <trkpt lat="47.57673" lon="-2.88392">
        <time>2014-03-29T08:02:39Z</time>
      </trkpt>
      <trkpt lat="47.5767" lon="-2.88398">
        <time>2014-03-29T08:02:40Z</time>
      </trkpt>
      <trkpt lat="47.57666" lon="-2.88405">
        <time>2014-03-29T08:02:42Z</time>
      </trkpt>
      <trkpt lat="47.57663" lon="-2.88411">
        <time>2014-03-29T08:02:45Z</time>
      </trkpt>
      <trkpt lat="47.57659" lon="-2.88417">
        <time>2014-03-29T08:02:46Z</time>
      </trkpt>
      <trkpt lat="47.57656" lon="-2.88424">
        <time>2014-03-29T08:02:48Z</time>
      </trkpt>
      <trkpt lat="47.57652" lon="-2.88431">
        <time>2014-03-29T08:02:50Z</time>
      </trkpt>
      <trkpt lat="47.57649" lon="-2.88437">
        <time>2014-03-29T08:02:53Z</time>
      </trkpt>
      <trkpt lat="47.57645" lon="-2.88444">
        <time>2014-03-29T08:02:54Z</time>
      </trkpt>
      <trkpt lat="47.57642" lon="-2.88451">
        <time>2014-03-29T08:02:56Z</time>
      </trkpt>
      <trkpt lat="47.57638" lon="-2.88458">
        <time>2014-03-29T08:02:59Z</time>
      </trkpt>
      <trkpt lat="47.57635" lon="-2.88465">
        <time>2014-03-29T08:03:00Z</time>
      </trkpt>
      <trkpt lat="47.57632" lon="-2.88472">
        <time>2014-03-29T08:03:02Z</time>
      </trkpt>
      <trkpt lat="47.57628" lon="-2.8848">
        <time>2014-03-29T08:03:05Z</time>
      </trkpt>
      <trkpt lat="47.57625" lon="-2.88487">
        <time>2014-03-29T08:03:07Z</time>
      </trkpt>
      <trkpt lat="47.57622" lon="-2.88494">
        <time>2014-03-29T08:03:08Z</time>
      </trkpt>
      <trkpt lat="47.57618" lon="-2.88501">
        <time>2014-03-29T08:03:10Z</time>
      </trkpt>
      <trkpt lat="47.57615" lon="-2.88508">
        <time>2014-03-29T08:03:13Z</time>
      </trkpt>
      <trkpt lat="47.57609" lon="-2.88519">
        <time>2014-03-29T08:03:15Z</time>
      </trkpt>
      <trkpt lat="47.57606" lon="-2.88526">
        <time>2014-03-29T08:03:18Z</time>
      </trkpt>
      <trkpt lat="47.57602" lon="-2.88533">
        <time>2014-03-29T08:03:20Z</time>
      </trkpt>
      <trkpt lat="47.57598" lon="-2.8854">
        <time>2014-03-29T08:03:21Z</time>
      </trkpt>
      <trkpt lat="47.57593" lon="-2.88548">
        <time>2014-03-29T08:03:23Z</time>
      </trkpt>
      <trkpt lat="47.57589" lon="-2.88555">
        <time>2014-03-29T08:03:25Z</time>
      </trkpt>
      <trkpt lat="47.57585" lon="-2.88563">
        <time>2014-03-29T08:03:27Z</time>
      </trkpt>
      <trkpt lat="47.57581" lon="-2.8857">
        <time>2014-03-29T08:03:29Z</time>
      </trkpt>
      <trkpt lat="47.57578" lon="-2.88578">
        <time>2014-03-29T08:03:32Z</time>
      </trkpt>
      <trkpt lat="47.57574" lon="-2.88584">
        <time>2014-03-29T08:03:33Z</time>
      </trkpt>
      <trkpt lat="47.57571" lon="-2.88591">
        <time>2014-03-29T08:03:35Z</time>
      </trkpt>
      <trkpt lat="47.57567" lon="-2.88598">
        <time>2014-03-29T08:03:37Z</time>
      </trkpt>
      <trkpt lat="47.57562" lon="-2.88606">
        <time>2014-03-29T08:03:39Z</time>
      </trkpt>
      <trkpt lat="47.57558" lon="-2.88613">
        <time>2014-03-29T08:03:41Z</time>
      </trkpt>
      <trkpt lat="47.57555" lon="-2.8862">
        <time>2014-03-29T08:03:43Z</time>
      </trkpt>
      <trkpt lat="47.57551" lon="-2.88628">
        <time>2014-03-29T08:03:45Z</time>
      </trkpt>
      <trkpt lat="47.57547" lon="-2.88635">
        <time>2014-03-29T08:03:47Z</time>
      </trkpt>
      <trkpt lat="47.57543" lon="-2.88643">
        <time>2014-03-29T08:03:49Z</time>
      </trkpt>
      <trkpt lat="47.57539" lon="-2.8865">
        <time>2014-03-29T08:03:52Z</time>
      </trkpt>
      <trkpt lat="47.57535" lon="-2.88657">
        <time>2014-03-29T08:03:54Z</time>
      </trkpt>
      <trkpt lat="47.5753" lon="-2.88665">
        <time>2014-03-29T08:03:55Z</time>
      </trkpt>
      <trkpt lat="47.57525" lon="-2.88672">
        <time>2014-03-29T08:03:58Z</time>
      </trkpt>
      <trkpt lat="47.57521" lon="-2.8868">
        <time>2014-03-29T08:04:00Z</time>
      </trkpt>
      <trkpt lat="47.57516" lon="-2.88688">
        <time>2014-03-29T08:04:01Z</time>
      </trkpt>
      <trkpt lat="47.57512" lon="-2.88697">
        <time>2014-03-29T08:04:03Z</time>
      </trkpt>
      <trkpt lat="47.57508" lon="-2.88705">
        <time>2014-03-29T08:04:05Z</time>
      </trkpt>
      <trkpt lat="47.57503" lon="-2.88713">
        <time>2014-03-29T08:04:07Z</time>
      </trkpt>
      <trkpt lat="47.57499" lon="-2.88722">
        <time>2014-03-29T08:04:09Z</time>
      </trkpt>
      <trkpt lat="47.57494" lon="-2.8873">
        <time>2014-03-29T08:04:12Z</time>
      </trkpt>
      <trkpt lat="47.5749" lon="-2.88739">
        <time>2014-03-29T08:04:14Z</time>
      </trkpt>
      <trkpt lat="47.57485" lon="-2.88747">
        <time>2014-03-29T08:04:15Z</time>
      </trkpt>
      <trkpt lat="47.57481" lon="-2.88756">
        <time>2014-03-29T08:04:18Z</time>
      </trkpt>
      <trkpt lat="47.57476" lon="-2.88764">
        <time>2014-03-29T08:04:19Z</time>
      </trkpt>
      <trkpt lat="47.57471" lon="-2.88772">
        <time>2014-03-29T08:04:21Z</time>
      </trkpt>
      <trkpt lat="47.57467" lon="-2.88781">
        <time>2014-03-29T08:04:23Z</time>
      </trkpt>
      <trkpt lat="47.57462" lon="-2.88789">
        <time>2014-03-29T08:04:25Z</time>
      </trkpt>
      <trkpt lat="47.57457" lon="-2.88797">
        <time>2014-03-29T08:04:27Z</time>
      </trkpt>
      <trkpt lat="47.57452" lon="-2.88806">
        <time>2014-03-29T08:04:29Z</time>
      </trkpt>
      <trkpt lat="47.57447" lon="-2.88814">
        <time>2014-03-29T08:04:31Z</time>
      </trkpt>
      <trkpt lat="47.57442" lon="-2.88823">
        <time>2014-03-29T08:04:33Z</time>
      </trkpt>
      <trkpt lat="47.57437" lon="-2.88832">
        <time>2014-03-29T08:04:35Z</time>
      </trkpt>
      <trkpt lat="47.57431" lon="-2.88842">
        <ele>9</ele>
        <time>2014-03-29T08:04:37Z</time>
      </trkpt>
      <trkpt lat="47.57426" lon="-2.88852">
        <ele>9</ele>
        <time>2014-03-29T08:04:39Z</time>
      </trkpt>
      <trkpt lat="47.57424" lon="-2.88857">
        <ele>9</ele>
        <time>2014-03-29T08:04:40Z</time>
      </trkpt>
      <trkpt lat="47.57418" lon="-2.88867">
        <ele>9</ele>
        <time>2014-03-29T08:04:42Z</time>
      </trkpt>
      <trkpt lat="47.57413" lon="-2.88878">
        <time>2014-03-29T08:04:44Z</time>
      </trkpt>
      <trkpt lat="47.5741" lon="-2.88884">
        <time>2014-03-29T08:04:45Z</time>
      </trkpt>
      <trkpt lat="47.57404" lon="-2.88896">
        <time>2014-03-29T08:04:47Z</time>
      </trkpt>
      <trkpt lat="47.57401" lon="-2.88903">
        <time>2014-03-29T08:04:48Z</time>
      </trkpt>
      <trkpt lat="47.57398" lon="-2.8891">
        <time>2014-03-29T08:04:49Z</time>
      </trkpt>
      <trkpt lat="47.57395" lon="-2.88916">
        <time>2014-03-29T08:04:50Z</time>
      </trkpt>
      <trkpt lat="47.5739" lon="-2.88929">
        <time>2014-03-29T08:04:53Z</time>
      </trkpt>
      <trkpt lat="47.57387" lon="-2.88935">
        <time>2014-03-29T08:04:54Z</time>
      </trkpt>
      <trkpt lat="47.57383" lon="-2.88947">
        <time>2014-03-29T08:04:55Z</time>
      </trkpt>
      <trkpt lat="47.57381" lon="-2.88953">
        <time>2014-03-29T08:04:56Z</time>
      </trkpt>
      <trkpt lat="47.57377" lon="-2.88965">
        <time>2014-03-29T08:04:59Z</time>
      </trkpt>
      <trkpt lat="47.57376" lon="-2.88973">
        <time>2014-03-29T08:05:00Z</time>
      </trkpt>
      <trkpt lat="47.57372" lon="-2.88984">
        <time>2014-03-29T08:05:01Z</time>
      </trkpt>
      <trkpt lat="47.57367" lon="-2.88995">
        <time>2014-03-29T08:05:03Z</time>
      </trkpt>
      <trkpt lat="47.57365" lon="-2.89006">
        <time>2014-03-29T08:05:06Z</time>
      </trkpt>
      <trkpt lat="47.57361" lon="-2.89018">
        <time>2014-03-29T08:05:08Z</time>
      </trkpt>
      <trkpt lat="47.57359" lon="-2.89029">
        <time>2014-03-29T08:05:09Z</time>
      </trkpt>
      <trkpt lat="47.57356" lon="-2.89041">
        <time>2014-03-29T08:05:11Z</time>
      </trkpt>
      <trkpt lat="47.57353" lon="-2.89052">
        <time>2014-03-29T08:05:14Z</time>
      </trkpt>
      <trkpt lat="47.5735" lon="-2.89063">
        <time>2014-03-29T08:05:15Z</time>
      </trkpt>
      <trkpt lat="47.57348" lon="-2.89074">
        <time>2014-03-29T08:05:17Z</time>
      </trkpt>
      <trkpt lat="47.57345" lon="-2.89085">
        <time>2014-03-29T08:05:20Z</time>
      </trkpt>
      <trkpt lat="47.57342" lon="-2.89096">
        <time>2014-03-29T08:05:21Z</time>
      </trkpt>
      <trkpt lat="47.57339" lon="-2.89108">
        <time>2014-03-29T08:05:23Z</time>
      </trkpt>
      <trkpt lat="47.57336" lon="-2.89119">
        <time>2014-03-29T08:05:25Z</time>
      </trkpt>
      <trkpt lat="47.57333" lon="-2.89131">
        <time>2014-03-29T08:05:27Z</time>
      </trkpt>
      <trkpt lat="47.5733" lon="-2.89143">
        <time>2014-03-29T08:05:29Z</time>
      </trkpt>
      <trkpt lat="47.57328" lon="-2.89149">
        <time>2014-03-29T08:05:30Z</time>
      </trkpt>
      <trkpt lat="47.57325" lon="-2.89161">
        <time>2014-03-29T08:05:33Z</time>
      </trkpt>
      <trkpt lat="47.57321" lon="-2.89172">
        <time>2014-03-29T08:05:34Z</time>
      </trkpt>
      <trkpt lat="47.5732" lon="-2.89178">
        <time>2014-03-29T08:05:35Z</time>
      </trkpt>
      <trkpt lat="47.57318" lon="-2.89185">
        <time>2014-03-29T08:05:36Z</time>
      </trkpt>
      <trkpt lat="47.57316" lon="-2.89191">
        <time>2014-03-29T08:05:37Z</time>
      </trkpt>
      <trkpt lat="47.57313" lon="-2.89203">
        <time>2014-03-29T08:05:39Z</time>
      </trkpt>
      <trkpt lat="47.57311" lon="-2.89215">
        <time>2014-03-29T08:05:41Z</time>
      </trkpt>
      <trkpt lat="47.57307" lon="-2.89225">
        <time>2014-03-29T08:05:44Z</time>
      </trkpt>
      <trkpt lat="47.57305" lon="-2.89232">
        <time>2014-03-29T08:05:45Z</time>
      </trkpt>
      <trkpt lat="47.57302" lon="-2.89243">
        <time>2014-03-29T08:05:46Z</time>
      </trkpt>
      <trkpt lat="47.57299" lon="-2.89254">
        <time>2014-03-29T08:05:48Z</time>
      </trkpt>
      <trkpt lat="47.57296" lon="-2.89266">
        <time>2014-03-29T08:05:51Z</time>
      </trkpt>
      <trkpt lat="47.57293" lon="-2.89276">
        <time>2014-03-29T08:05:53Z</time>
      </trkpt>
      <trkpt lat="47.5729" lon="-2.89287">
        <time>2014-03-29T08:05:54Z</time>
      </trkpt>
      <trkpt lat="47.57287" lon="-2.89298">
        <time>2014-03-29T08:05:56Z</time>
      </trkpt>
      <trkpt lat="47.57284" lon="-2.89309">
        <time>2014-03-29T08:05:59Z</time>
      </trkpt>
      <trkpt lat="47.57281" lon="-2.89319">
        <time>2014-03-29T08:06:00Z</time>
      </trkpt>
      <trkpt lat="47.57277" lon="-2.89335">
        <time>2014-03-29T08:06:03Z</time>
      </trkpt>
      <trkpt lat="47.57275" lon="-2.89345">
        <time>2014-03-29T08:06:05Z</time>
      </trkpt>
      <trkpt lat="47.57272" lon="-2.89356">
        <time>2014-03-29T08:06:07Z</time>
      </trkpt>
      <trkpt lat="47.5727" lon="-2.89366">
        <time>2014-03-29T08:06:09Z</time>
      </trkpt>
      <trkpt lat="47.57268" lon="-2.89376">
        <time>2014-03-29T08:06:11Z</time>
      </trkpt>
      <trkpt lat="47.57266" lon="-2.89385">
        <time>2014-03-29T08:06:13Z</time>
      </trkpt>
      <trkpt lat="47.57264" lon="-2.89394">
        <time>2014-03-29T08:06:15Z</time>
      </trkpt>
      <trkpt lat="47.57263" lon="-2.89402">
        <time>2014-03-29T08:06:18Z</time>
      </trkpt>
      <trkpt lat="47.57261" lon="-2.89409">
        <time>2014-03-29T08:06:20Z</time>
      </trkpt>
      <trkpt lat="47.5726" lon="-2.89417">
        <time>2014-03-29T08:06:22Z</time>
      </trkpt>
      <trkpt lat="47.57259" lon="-2.89425">
        <time>2014-03-29T08:06:26Z</time>
      </trkpt>
      <trkpt lat="47.57258" lon="-2.89433">
        <time>2014-03-29T08:06:28Z</time>
      </trkpt>
      <trkpt lat="47.57256" lon="-2.89442">
        <time>2014-03-29T08:06:32Z</time>
      </trkpt>
      <trkpt lat="47.57254" lon="-2.89452">
        <time>2014-03-29T08:06:34Z</time>
      </trkpt>
      <trkpt lat="47.57253" lon="-2.89458">
        <time>2014-03-29T08:06:36Z</time>
      </trkpt>
      <trkpt lat="47.57251" lon="-2.89465">
        <time>2014-03-29T08:06:39Z</time>
      </trkpt>
      <trkpt lat="47.57248" lon="-2.89473">
        <time>2014-03-29T08:06:40Z</time>
      </trkpt>
      <trkpt lat="47.57246" lon="-2.8948">
        <time>2014-03-29T08:06:42Z</time>
      </trkpt>
      <trkpt lat="47.57243" lon="-2.89488">
        <time>2014-03-29T08:06:45Z</time>
      </trkpt>
      <trkpt lat="47.5724" lon="-2.89495">
        <time>2014-03-29T08:06:46Z</time>
      </trkpt>
      <trkpt lat="47.57237" lon="-2.89503">
        <ele>8</ele>
        <time>2014-03-29T08:06:48Z</time>
      </trkpt>
      <trkpt lat="47.57234" lon="-2.89509">
        <ele>8</ele>
        <time>2014-03-29T08:06:51Z</time>
      </trkpt>
      <trkpt lat="47.5723" lon="-2.89517">
        <ele>8</ele>
        <time>2014-03-29T08:06:52Z</time>
      </trkpt>
      <trkpt lat="47.57227" lon="-2.89524">
        <ele>8</ele>
        <time>2014-03-29T08:06:54Z</time>
      </trkpt>
      <trkpt lat="47.57223" lon="-2.89531">
        <ele>8</ele>
        <time>2014-03-29T08:06:56Z</time>
      </trkpt>
      <trkpt lat="47.5722" lon="-2.89539">
        <ele>8</ele>
        <time>2014-03-29T08:06:58Z</time>
      </trkpt>
      <trkpt lat="47.57216" lon="-2.89546">
        <ele>8</ele>
        <time>2014-03-29T08:07:00Z</time>
      </trkpt>
      <trkpt lat="47.57212" lon="-2.89554">
        <ele>8</ele>
        <time>2014-03-29T08:07:02Z</time>
      </trkpt>
      <trkpt lat="47.57207" lon="-2.89562">
        <ele>8</ele>
        <time>2014-03-29T08:07:04Z</time>
      </trkpt>
      <trkpt lat="47.57201" lon="-2.89569">
        <ele>8</ele>
        <time>2014-03-29T08:07:06Z</time>
      </trkpt>
      <trkpt lat="47.57195" lon="-2.89577">
        <ele>8</ele>
        <time>2014-03-29T08:07:08Z</time>
      </trkpt>
      <trkpt lat="47.5719" lon="-2.8958">
        <ele>8</ele>
        <time>2014-03-29T08:07:09Z</time>
      </trkpt>
      <trkpt lat="47.57184" lon="-2.89588">
        <ele>9</ele>
        <time>2014-03-29T08:07:12Z</time>
      </trkpt>
      <trkpt lat="47.57178" lon="-2.89596">
        <ele>9</ele>
        <time>2014-03-29T08:07:13Z</time>
      </trkpt>
      <trkpt lat="47.57172" lon="-2.89604">
        <ele>9</ele>
        <time>2014-03-29T08:07:15Z</time>
      </trkpt>
      <trkpt lat="47.57168" lon="-2.89609">
        <ele>9</ele>
        <time>2014-03-29T08:07:16Z</time>
      </trkpt>
      <trkpt lat="47.57161" lon="-2.89616">
        <time>2014-03-29T08:07:19Z</time>
      </trkpt>
      <trkpt lat="47.57154" lon="-2.89624">
        <time>2014-03-29T08:07:20Z</time>
      </trkpt>
      <trkpt lat="47.57147" lon="-2.89631">
        <time>2014-03-29T08:07:22Z</time>
      </trkpt>
      <trkpt lat="47.57144" lon="-2.89635">
        <time>2014-03-29T08:07:24Z</time>
      </trkpt>
      <trkpt lat="47.57137" lon="-2.89643">
        <time>2014-03-29T08:07:25Z</time>
      </trkpt>
      <trkpt lat="47.5713" lon="-2.8965">
        <time>2014-03-29T08:07:27Z</time>
      </trkpt>
      <trkpt lat="47.57126" lon="-2.89656">
        <time>2014-03-29T08:07:28Z</time>
      </trkpt>
      <trkpt lat="47.57123" lon="-2.89661">
        <time>2014-03-29T08:07:29Z</time>
      </trkpt>
      <trkpt lat="47.57115" lon="-2.89672">
        <ele>6</ele>
        <time>2014-03-29T08:07:31Z</time>
      </trkpt>
      <trkpt lat="47.57107" lon="-2.89683">
        <ele>6</ele>
        <time>2014-03-29T08:07:33Z</time>
      </trkpt>
      <trkpt lat="47.571" lon="-2.89693">
        <ele>6</ele>
        <time>2014-03-29T08:07:35Z</time>
      </trkpt>
      <trkpt lat="47.57093" lon="-2.89704">
        <ele>6</ele>
        <time>2014-03-29T08:07:37Z</time>
      </trkpt>
      <trkpt lat="47.57089" lon="-2.89708">
        <ele>6</ele>
        <time>2014-03-29T08:07:38Z</time>
      </trkpt>
      <trkpt lat="47.57085" lon="-2.89713">
        <ele>6</ele>
        <time>2014-03-29T08:07:39Z</time>
      </trkpt>
      <trkpt lat="47.57079" lon="-2.89724">
        <time>2014-03-29T08:07:41Z</time>
      </trkpt>
      <trkpt lat="47.57072" lon="-2.89734">
        <time>2014-03-29T08:07:43Z</time>
      </trkpt>
      <trkpt lat="47.57065" lon="-2.89744">
        <time>2014-03-29T08:07:45Z</time>
      </trkpt>
      <trkpt lat="47.5706" lon="-2.89755">
        <time>2014-03-29T08:07:48Z</time>
      </trkpt>
      <trkpt lat="47.5705" lon="-2.89769">
        <time>2014-03-29T08:07:50Z</time>
      </trkpt>
      <trkpt lat="47.57046" lon="-2.89774">
        <time>2014-03-29T08:07:52Z</time>
      </trkpt>
      <trkpt lat="47.57038" lon="-2.8979">
        <time>2014-03-29T08:07:54Z</time>
      </trkpt>
      <trkpt lat="47.57034" lon="-2.89795">
        <time>2014-03-29T08:07:55Z</time>
      </trkpt>
      <trkpt lat="47.57029" lon="-2.89805">
        <time>2014-03-29T08:07:58Z</time>
      </trkpt>
      <trkpt lat="47.57023" lon="-2.89815">
        <time>2014-03-29T08:07:59Z</time>
      </trkpt>
      <trkpt lat="47.5702" lon="-2.89821">
        <time>2014-03-29T08:08:01Z</time>
      </trkpt>
      <trkpt lat="47.57016" lon="-2.89832">
        <time>2014-03-29T08:08:03Z</time>
      </trkpt>
      <trkpt lat="47.57012" lon="-2.89843">
        <time>2014-03-29T08:08:04Z</time>
      </trkpt>
      <trkpt lat="47.57007" lon="-2.89854">
        <time>2014-03-29T08:08:06Z</time>
      </trkpt>
      <trkpt lat="47.57003" lon="-2.89865">
        <time>2014-03-29T08:08:08Z</time>
      </trkpt>
      <trkpt lat="47.56998" lon="-2.89876">
        <time>2014-03-29T08:08:11Z</time>
      </trkpt>
      <trkpt lat="47.56992" lon="-2.89888">
        <time>2014-03-29T08:08:12Z</time>
      </trkpt>
      <trkpt lat="47.56988" lon="-2.899">
        <time>2014-03-29T08:08:14Z</time>
      </trkpt>
      <trkpt lat="47.56984" lon="-2.8991">
        <time>2014-03-29T08:08:16Z</time>
      </trkpt>
      <trkpt lat="47.56979" lon="-2.89921">
        <time>2014-03-29T08:08:18Z</time>
      </trkpt>
      <trkpt lat="47.56974" lon="-2.89931">
        <time>2014-03-29T08:08:20Z</time>
      </trkpt>
      <trkpt lat="47.56969" lon="-2.89941">
        <time>2014-03-29T08:08:22Z</time>
      </trkpt>
      <trkpt lat="47.56965" lon="-2.89954">
        <time>2014-03-29T08:08:24Z</time>
      </trkpt>
      <trkpt lat="47.5696" lon="-2.89965">
        <time>2014-03-29T08:08:26Z</time>
      </trkpt>
      <trkpt lat="47.56957" lon="-2.89971">
        <time>2014-03-29T08:08:27Z</time>
      </trkpt>
      <trkpt lat="47.56953" lon="-2.89983">
        <time>2014-03-29T08:08:29Z</time>
      </trkpt>
      <trkpt lat="47.5695" lon="-2.89989">
        <time>2014-03-29T08:08:31Z</time>
      </trkpt>
      <trkpt lat="47.56948" lon="-2.89995">
        <time>2014-03-29T08:08:32Z</time>
      </trkpt>
      <trkpt lat="47.56945" lon="-2.90008">
        <time>2014-03-29T08:08:33Z</time>
      </trkpt>
      <trkpt lat="47.56942" lon="-2.90015">
        <time>2014-03-29T08:08:34Z</time>
      </trkpt>
      <trkpt lat="47.5694" lon="-2.90021">
        <time>2014-03-29T08:08:35Z</time>
      </trkpt>
      <trkpt lat="47.56935" lon="-2.90035">
        <time>2014-03-29T08:08:37Z</time>
      </trkpt>
      <trkpt lat="47.56933" lon="-2.90042">
        <time>2014-03-29T08:08:38Z</time>
      </trkpt>
      <trkpt lat="47.5693" lon="-2.90057">
        <time>2014-03-29T08:08:40Z</time>
      </trkpt>
      <trkpt lat="47.56928" lon="-2.90064">
        <time>2014-03-29T08:08:41Z</time>
      </trkpt>
      <trkpt lat="47.56924" lon="-2.90079">
        <time>2014-03-29T08:08:43Z</time>
      </trkpt>
      <trkpt lat="47.56922" lon="-2.90086">
        <time>2014-03-29T08:08:45Z</time>
      </trkpt>
      <trkpt lat="47.56918" lon="-2.90099">
        <time>2014-03-29T08:08:46Z</time>
      </trkpt>
      <trkpt lat="47.56916" lon="-2.90106">
        <time>2014-03-29T08:08:47Z</time>
      </trkpt>
      <trkpt lat="47.56913" lon="-2.90113">
        <time>2014-03-29T08:08:48Z</time>
      </trkpt>
      <trkpt lat="47.56911" lon="-2.9012">
        <time>2014-03-29T08:08:49Z</time>
      </trkpt>
      <trkpt lat="47.56908" lon="-2.90125">
        <time>2014-03-29T08:08:51Z</time>
      </trkpt>
      <trkpt lat="47.56902" lon="-2.90137">
        <time>2014-03-29T08:08:52Z</time>
      </trkpt>
      <trkpt lat="47.56896" lon="-2.9015">
        <time>2014-03-29T08:08:54Z</time>
      </trkpt>
      <trkpt lat="47.56891" lon="-2.90161">
        <time>2014-03-29T08:08:57Z</time>
      </trkpt>
      <trkpt lat="47.56886" lon="-2.90171">
        <time>2014-03-29T08:08:58Z</time>
      </trkpt>
      <trkpt lat="47.56882" lon="-2.90179">
        <time>2014-03-29T08:09:00Z</time>
      </trkpt>
      <trkpt lat="47.56877" lon="-2.90187">
        <time>2014-03-29T08:09:02Z</time>
      </trkpt>
      <trkpt lat="47.56871" lon="-2.90195">
        <time>2014-03-29T08:09:04Z</time>
      </trkpt>
      <trkpt lat="47.56865" lon="-2.90203">
        <time>2014-03-29T08:09:06Z</time>
      </trkpt>
      <trkpt lat="47.56859" lon="-2.90212">
        <time>2014-03-29T08:09:08Z</time>
      </trkpt>
      <trkpt lat="47.56853" lon="-2.90221">
        <time>2014-03-29T08:09:10Z</time>
      </trkpt>
      <trkpt lat="47.56847" lon="-2.9023">
        <time>2014-03-29T08:09:12Z</time>
      </trkpt>
      <trkpt lat="47.5684" lon="-2.9024">
        <time>2014-03-29T08:09:14Z</time>
      </trkpt>
      <trkpt lat="47.56832" lon="-2.90257">
        <time>2014-03-29T08:09:17Z</time>
      </trkpt>
      <trkpt lat="47.56825" lon="-2.90266">
        <time>2014-03-29T08:09:19Z</time>
      </trkpt>
      <trkpt lat="47.56819" lon="-2.90272">
        <time>2014-03-29T08:09:21Z</time>
      </trkpt>
      <trkpt lat="47.56813" lon="-2.90278">
        <time>2014-03-29T08:09:23Z</time>
      </trkpt>
      <trkpt lat="47.56808" lon="-2.90285">
        <time>2014-03-29T08:09:26Z</time>
      </trkpt>
      <trkpt lat="47.56803" lon="-2.9029">
        <time>2014-03-29T08:09:27Z</time>
      </trkpt>
      <trkpt lat="47.56798" lon="-2.90295">
        <time>2014-03-29T08:09:30Z</time>
      </trkpt>
      <trkpt lat="47.56794" lon="-2.90301">
        <time>2014-03-29T08:09:31Z</time>
      </trkpt>
      <trkpt lat="47.56789" lon="-2.90308">
        <time>2014-03-29T08:09:34Z</time>
      </trkpt>
      <trkpt lat="47.56787" lon="-2.90314">
        <time>2014-03-29T08:09:37Z</time>
      </trkpt>
      <trkpt lat="47.56783" lon="-2.90322">
        <time>2014-03-29T08:09:39Z</time>
      </trkpt>
      <trkpt lat="47.5678" lon="-2.90331">
        <time>2014-03-29T08:09:42Z</time>
      </trkpt>
      <trkpt lat="47.56778" lon="-2.90338">
        <time>2014-03-29T08:09:44Z</time>
      </trkpt>
      <trkpt lat="47.56776" lon="-2.90344">
        <time>2014-03-29T08:09:46Z</time>
      </trkpt>
      <trkpt lat="47.56775" lon="-2.90351">
        <time>2014-03-29T08:09:48Z</time>
      </trkpt>
      <trkpt lat="47.56773" lon="-2.90357">
        <time>2014-03-29T08:09:51Z</time>
      </trkpt>
      <trkpt lat="47.56772" lon="-2.90364">
        <time>2014-03-29T08:09:52Z</time>
      </trkpt>
      <trkpt lat="47.56769" lon="-2.90373">
        <time>2014-03-29T08:09:55Z</time>
      </trkpt>
      <trkpt lat="47.56766" lon="-2.90382">
        <time>2014-03-29T08:09:58Z</time>
      </trkpt>
      <trkpt lat="47.56763" lon="-2.90388">
        <time>2014-03-29T08:10:00Z</time>
      </trkpt>
      <trkpt lat="47.56761" lon="-2.90393">
        <time>2014-03-29T08:10:02Z</time>
      </trkpt>
      <trkpt lat="47.56758" lon="-2.90399">
        <time>2014-03-29T08:10:05Z</time>
      </trkpt>
      <trkpt lat="47.56755" lon="-2.90404">
        <time>2014-03-29T08:10:06Z</time>
      </trkpt>
      <trkpt lat="47.56751" lon="-2.90412">
        <time>2014-03-29T08:10:09Z</time>
      </trkpt>
      <trkpt lat="47.56747" lon="-2.9042">
        <time>2014-03-29T08:10:12Z</time>
      </trkpt>
      <trkpt lat="47.56744" lon="-2.90426">
        <time>2014-03-29T08:10:14Z</time>
      </trkpt>
      <trkpt lat="47.5674" lon="-2.90433">
        <time>2014-03-29T08:10:16Z</time>
      </trkpt>
      <trkpt lat="47.56735" lon="-2.9044">
        <time>2014-03-29T08:10:19Z</time>
      </trkpt>
      <trkpt lat="47.56731" lon="-2.90448">
        <time>2014-03-29T08:10:20Z</time>
      </trkpt>
      <trkpt lat="47.56726" lon="-2.90456">
        <time>2014-03-29T08:10:22Z</time>
      </trkpt>
      <trkpt lat="47.56721" lon="-2.90465">
        <time>2014-03-29T08:10:24Z</time>
      </trkpt>
      <trkpt lat="47.56716" lon="-2.90473">
        <time>2014-03-29T08:10:26Z</time>
      </trkpt>
      <trkpt lat="47.56711" lon="-2.90482">
        <time>2014-03-29T08:10:28Z</time>
      </trkpt>
      <trkpt lat="47.56707" lon="-2.9049">
        <time>2014-03-29T08:10:30Z</time>
      </trkpt>
      <trkpt lat="47.56702" lon="-2.90499">
        <time>2014-03-29T08:10:32Z</time>
      </trkpt>
      <trkpt lat="47.56698" lon="-2.90507">
        <time>2014-03-29T08:10:34Z</time>
      </trkpt>
      <trkpt lat="47.56694" lon="-2.90515">
        <time>2014-03-29T08:10:36Z</time>
      </trkpt>
      <trkpt lat="47.5669" lon="-2.90523">
        <time>2014-03-29T08:10:38Z</time>
      </trkpt>
      <trkpt lat="47.56685" lon="-2.90531">
        <time>2014-03-29T08:10:40Z</time>
      </trkpt>
      <trkpt lat="47.56681" lon="-2.90538">
        <time>2014-03-29T08:10:42Z</time>
      </trkpt>
      <trkpt lat="47.56677" lon="-2.90544">
        <time>2014-03-29T08:10:44Z</time>
      </trkpt>
      <trkpt lat="47.56673" lon="-2.9055">
        <time>2014-03-29T08:10:46Z</time>
      </trkpt>
      <trkpt lat="47.56669" lon="-2.90555">
        <time>2014-03-29T08:10:48Z</time>
      </trkpt>
      <trkpt lat="47.56665" lon="-2.90561">
        <time>2014-03-29T08:10:50Z</time>
      </trkpt>
      <trkpt lat="47.56662" lon="-2.90566">
        <time>2014-03-29T08:10:52Z</time>
      </trkpt>
      <trkpt lat="47.56659" lon="-2.90572">
        <time>2014-03-29T08:10:55Z</time>
      </trkpt>
      <trkpt lat="47.56655" lon="-2.90579">
        <time>2014-03-29T08:10:56Z</time>
      </trkpt>
      <trkpt lat="47.56651" lon="-2.90585">
        <time>2014-03-29T08:10:59Z</time>
      </trkpt>
      <trkpt lat="47.56647" lon="-2.90591">
        <time>2014-03-29T08:11:01Z</time>
      </trkpt>
      <trkpt lat="47.56643" lon="-2.90598">
        <time>2014-03-29T08:11:02Z</time>
      </trkpt>
      <trkpt lat="47.56638" lon="-2.90604">
        <time>2014-03-29T08:11:05Z</time>
      </trkpt>
      <trkpt lat="47.56634" lon="-2.9061">
        <time>2014-03-29T08:11:06Z</time>
      </trkpt>
      <trkpt lat="47.5663" lon="-2.90617">
        <time>2014-03-29T08:11:09Z</time>
      </trkpt>
      <trkpt lat="47.56626" lon="-2.90625">
        <time>2014-03-29T08:11:10Z</time>
      </trkpt>
      <trkpt lat="47.56622" lon="-2.90634">
        <time>2014-03-29T08:11:13Z</time>
      </trkpt>
      <trkpt lat="47.56617" lon="-2.90644">
        <time>2014-03-29T08:11:15Z</time>
      </trkpt>
      <trkpt lat="47.56612" lon="-2.90655">
        <time>2014-03-29T08:11:16Z</time>
      </trkpt>
      <trkpt lat="47.56608" lon="-2.90666">
        <time>2014-03-29T08:11:18Z</time>
      </trkpt>
      <trkpt lat="47.56606" lon="-2.90671">
        <time>2014-03-29T08:11:19Z</time>
      </trkpt>
      <trkpt lat="47.56602" lon="-2.90682">
        <time>2014-03-29T08:11:22Z</time>
      </trkpt>
      <trkpt lat="47.56598" lon="-2.90691">
        <time>2014-03-29T08:11:23Z</time>
      </trkpt>
      <trkpt lat="47.56595" lon="-2.907">
        <time>2014-03-29T08:11:25Z</time>
      </trkpt>
      <trkpt lat="47.56593" lon="-2.9071">
        <time>2014-03-29T08:11:28Z</time>
      </trkpt>
      <trkpt lat="47.5659" lon="-2.90727">
        <time>2014-03-29T08:11:30Z</time>
      </trkpt>
      <trkpt lat="47.56588" lon="-2.90739">
        <time>2014-03-29T08:11:33Z</time>
      </trkpt>
      <trkpt lat="47.56585" lon="-2.90751">
        <time>2014-03-29T08:11:34Z</time>
      </trkpt>
      <trkpt lat="47.56583" lon="-2.90763">
        <time>2014-03-29T08:11:37Z</time>
      </trkpt>
      <trkpt lat="47.56579" lon="-2.90774">
        <time>2014-03-29T08:11:38Z</time>
      </trkpt>
      <trkpt lat="47.56577" lon="-2.9078">
        <time>2014-03-29T08:11:39Z</time>
      </trkpt>
      <trkpt lat="47.56573" lon="-2.90792">
        <time>2014-03-29T08:11:42Z</time>
      </trkpt>
      <trkpt lat="47.56567" lon="-2.90805">
        <time>2014-03-29T08:11:43Z</time>
      </trkpt>
      <trkpt lat="47.56563" lon="-2.90818">
        <time>2014-03-29T08:11:46Z</time>
      </trkpt>
      <trkpt lat="47.56562" lon="-2.90825">
        <time>2014-03-29T08:11:47Z</time>
      </trkpt>
      <trkpt lat="47.56559" lon="-2.90838">
        <time>2014-03-29T08:11:48Z</time>
      </trkpt>
      <trkpt lat="47.56557" lon="-2.90845">
        <time>2014-03-29T08:11:50Z</time>
      </trkpt>
      <trkpt lat="47.56554" lon="-2.90858">
        <time>2014-03-29T08:11:51Z</time>
      </trkpt>
      <trkpt lat="47.56552" lon="-2.90865">
        <time>2014-03-29T08:11:52Z</time>
      </trkpt>
      <trkpt lat="47.56551" lon="-2.90872">
        <time>2014-03-29T08:11:54Z</time>
      </trkpt>
      <trkpt lat="47.5655" lon="-2.90879">
        <time>2014-03-29T08:11:55Z</time>
      </trkpt>
      <trkpt lat="47.56549" lon="-2.90894">
        <time>2014-03-29T08:11:56Z</time>
      </trkpt>
      <trkpt lat="47.56548" lon="-2.90901">
        <time>2014-03-29T08:11:57Z</time>
      </trkpt>
      <trkpt lat="47.56546" lon="-2.90909">
        <time>2014-03-29T08:11:59Z</time>
      </trkpt>
      <trkpt lat="47.56544" lon="-2.90924">
        <time>2014-03-29T08:12:00Z</time>
      </trkpt>
      <trkpt lat="47.56542" lon="-2.90932">
        <time>2014-03-29T08:12:01Z</time>
      </trkpt>
      <trkpt lat="47.56541" lon="-2.90939">
        <time>2014-03-29T08:12:03Z</time>
      </trkpt>
      <trkpt lat="47.5654" lon="-2.90947">
        <time>2014-03-29T08:12:04Z</time>
      </trkpt>
      <trkpt lat="47.56538" lon="-2.90955">
        <time>2014-03-29T08:12:05Z</time>
      </trkpt>
      <trkpt lat="47.56535" lon="-2.90969">
        <time>2014-03-29T08:12:06Z</time>
      </trkpt>
      <trkpt lat="47.56533" lon="-2.90977">
        <time>2014-03-29T08:12:07Z</time>
      </trkpt>
      <trkpt lat="47.56532" lon="-2.90985">
        <time>2014-03-29T08:12:08Z</time>
      </trkpt>
      <trkpt lat="47.56531" lon="-2.90992">
        <time>2014-03-29T08:12:09Z</time>
      </trkpt>
      <trkpt lat="47.5653" lon="-2.90999">
        <time>2014-03-29T08:12:10Z</time>
      </trkpt>
      <trkpt lat="47.5653" lon="-2.91007">
        <time>2014-03-29T08:12:11Z</time>
      </trkpt>
      <trkpt lat="47.56528" lon="-2.9102">
        <time>2014-03-29T08:12:14Z</time>
      </trkpt>
      <trkpt lat="47.56526" lon="-2.91034">
        <time>2014-03-29T08:12:15Z</time>
      </trkpt>
      <trkpt lat="47.56522" lon="-2.91047">
        <time>2014-03-29T08:12:17Z</time>
      </trkpt>
      <trkpt lat="47.56518" lon="-2.9106">
        <time>2014-03-29T08:12:19Z</time>
      </trkpt>
      <trkpt lat="47.56517" lon="-2.91071">
        <time>2014-03-29T08:12:21Z</time>
      </trkpt>
      <trkpt lat="47.56515" lon="-2.91083">
        <time>2014-03-29T08:12:23Z</time>
      </trkpt>
      <trkpt lat="47.56513" lon="-2.91094">
        <time>2014-03-29T08:12:25Z</time>
      </trkpt>
      <trkpt lat="47.56511" lon="-2.911">
        <time>2014-03-29T08:12:26Z</time>
      </trkpt>
      <trkpt lat="47.56507" lon="-2.91111">
        <time>2014-03-29T08:12:28Z</time>
      </trkpt>
      <trkpt lat="47.56504" lon="-2.91122">
        <time>2014-03-29T08:12:30Z</time>
      </trkpt>
      <trkpt lat="47.56501" lon="-2.91134">
        <time>2014-03-29T08:12:32Z</time>
      </trkpt>
      <trkpt lat="47.56498" lon="-2.91145">
        <time>2014-03-29T08:12:34Z</time>
      </trkpt>
      <trkpt lat="47.56496" lon="-2.91156">
        <time>2014-03-29T08:12:36Z</time>
      </trkpt>
      <trkpt lat="47.56495" lon="-2.91168">
        <time>2014-03-29T08:12:38Z</time>
      </trkpt>
      <trkpt lat="47.56494" lon="-2.9118">
        <time>2014-03-29T08:12:40Z</time>
      </trkpt>
      <trkpt lat="47.56493" lon="-2.91192">
        <time>2014-03-29T08:12:42Z</time>
      </trkpt>
      <trkpt lat="47.56491" lon="-2.91204">
        <time>2014-03-29T08:12:44Z</time>
      </trkpt>
      <trkpt lat="47.56489" lon="-2.91215">
        <time>2014-03-29T08:12:46Z</time>
      </trkpt>
      <trkpt lat="47.56487" lon="-2.91226">
        <time>2014-03-29T08:12:48Z</time>
      </trkpt>
      <trkpt lat="47.56486" lon="-2.91237">
        <time>2014-03-29T08:12:50Z</time>
      </trkpt>
      <trkpt lat="47.56483" lon="-2.91249">
        <time>2014-03-29T08:12:52Z</time>
      </trkpt>
      <trkpt lat="47.56481" lon="-2.91256">
        <time>2014-03-29T08:12:54Z</time>
      </trkpt>
      <trkpt lat="47.56476" lon="-2.91275">
        <time>2014-03-29T08:12:56Z</time>
      </trkpt>
      <trkpt lat="47.56473" lon="-2.91286">
        <time>2014-03-29T08:12:59Z</time>
      </trkpt>
      <trkpt lat="47.56471" lon="-2.913">
        <time>2014-03-29T08:13:00Z</time>
      </trkpt>
      <trkpt lat="47.5647" lon="-2.91308">
        <time>2014-03-29T08:13:01Z</time>
      </trkpt>
      <trkpt lat="47.56469" lon="-2.91316">
        <time>2014-03-29T08:13:03Z</time>
      </trkpt>
      <trkpt lat="47.56467" lon="-2.91322">
        <time>2014-03-29T08:13:04Z</time>
      </trkpt>
      <trkpt lat="47.56466" lon="-2.91335">
        <time>2014-03-29T08:13:05Z</time>
      </trkpt>
      <trkpt lat="47.56463" lon="-2.91347">
        <time>2014-03-29T08:13:07Z</time>
      </trkpt>
      <trkpt lat="47.56461" lon="-2.91358">
        <time>2014-03-29T08:13:09Z</time>
      </trkpt>
      <trkpt lat="47.56459" lon="-2.91369">
        <time>2014-03-29T08:13:12Z</time>
      </trkpt>
      <trkpt lat="47.56456" lon="-2.91382">
        <time>2014-03-29T08:13:13Z</time>
      </trkpt>
      <trkpt lat="47.56454" lon="-2.91389">
        <time>2014-03-29T08:13:14Z</time>
      </trkpt>
      <trkpt lat="47.5645" lon="-2.91401">
        <time>2014-03-29T08:13:17Z</time>
      </trkpt>
      <trkpt lat="47.56448" lon="-2.91407">
        <time>2014-03-29T08:13:18Z</time>
      </trkpt>
      <trkpt lat="47.56443" lon="-2.91418">
        <time>2014-03-29T08:13:19Z</time>
      </trkpt>
      <trkpt lat="47.56441" lon="-2.91423">
        <time>2014-03-29T08:13:21Z</time>
      </trkpt>
      <trkpt lat="47.56436" lon="-2.91433">
        <time>2014-03-29T08:13:22Z</time>
      </trkpt>
      <trkpt lat="47.56432" lon="-2.91443">
        <time>2014-03-29T08:13:24Z</time>
      </trkpt>
      <trkpt lat="47.56426" lon="-2.91452">
        <time>2014-03-29T08:13:27Z</time>
      </trkpt>
      <trkpt lat="47.56421" lon="-2.91461">
        <time>2014-03-29T08:13:28Z</time>
      </trkpt>
      <trkpt lat="47.56416" lon="-2.9147">
        <time>2014-03-29T08:13:30Z</time>
      </trkpt>
      <trkpt lat="47.56412" lon="-2.91481">
        <time>2014-03-29T08:13:32Z</time>
      </trkpt>
      <trkpt lat="47.5641" lon="-2.91488">
        <time>2014-03-29T08:13:33Z</time>
      </trkpt>
      <trkpt lat="47.56408" lon="-2.91499">
        <time>2014-03-29T08:13:35Z</time>
      </trkpt>
      <trkpt lat="47.56406" lon="-2.91506">
        <time>2014-03-29T08:13:36Z</time>
      </trkpt>
      <trkpt lat="47.56404" lon="-2.91519">
        <time>2014-03-29T08:13:38Z</time>
      </trkpt>
      <trkpt lat="47.56399" lon="-2.9153">
        <time>2014-03-29T08:13:41Z</time>
      </trkpt>
      <trkpt lat="47.56394" lon="-2.91541">
        <time>2014-03-29T08:13:42Z</time>
      </trkpt>
      <trkpt lat="47.56388" lon="-2.91552">
        <time>2014-03-29T08:13:45Z</time>
      </trkpt>
      <trkpt lat="47.56382" lon="-2.91563">
        <time>2014-03-29T08:13:46Z</time>
      </trkpt>
      <trkpt lat="47.56379" lon="-2.91569">
        <time>2014-03-29T08:13:47Z</time>
      </trkpt>
      <trkpt lat="47.56376" lon="-2.91574">
        <time>2014-03-29T08:13:49Z</time>
      </trkpt>
      <trkpt lat="47.5637" lon="-2.91582">
        <time>2014-03-29T08:13:50Z</time>
      </trkpt>
      <trkpt lat="47.56366" lon="-2.91587">
        <time>2014-03-29T08:13:51Z</time>
      </trkpt>
      <trkpt lat="47.56362" lon="-2.91591">
        <time>2014-03-29T08:13:53Z</time>
      </trkpt>
      <trkpt lat="47.56356" lon="-2.91598">
        <time>2014-03-29T08:13:54Z</time>
      </trkpt>
      <trkpt lat="47.56351" lon="-2.91606">
        <time>2014-03-29T08:13:56Z</time>
      </trkpt>
      <trkpt lat="47.56346" lon="-2.91615">
        <time>2014-03-29T08:13:59Z</time>
      </trkpt>
      <trkpt lat="47.56342" lon="-2.91624">
        <time>2014-03-29T08:14:00Z</time>
      </trkpt>
      <trkpt lat="47.56337" lon="-2.91633">
        <time>2014-03-29T08:14:03Z</time>
      </trkpt>
      <trkpt lat="47.56333" lon="-2.91641">
        <time>2014-03-29T08:14:04Z</time>
      </trkpt>
      <trkpt lat="47.56327" lon="-2.91648">
        <time>2014-03-29T08:14:07Z</time>
      </trkpt>
      <trkpt lat="47.56322" lon="-2.91656">
        <time>2014-03-29T08:14:08Z</time>
      </trkpt>
      <trkpt lat="47.56317" lon="-2.91664">
        <time>2014-03-29T08:14:11Z</time>
      </trkpt>
      <trkpt lat="47.56313" lon="-2.91672">
        <time>2014-03-29T08:14:13Z</time>
      </trkpt>
      <trkpt lat="47.56308" lon="-2.91681">
        <time>2014-03-29T08:14:14Z</time>
      </trkpt>
      <trkpt lat="47.56302" lon="-2.9169">
        <time>2014-03-29T08:14:17Z</time>
      </trkpt>
      <trkpt lat="47.56297" lon="-2.91699">
        <time>2014-03-29T08:14:18Z</time>
      </trkpt>
      <trkpt lat="47.56293" lon="-2.91708">
        <time>2014-03-29T08:14:21Z</time>
      </trkpt>
      <trkpt lat="47.56288" lon="-2.91717">
        <time>2014-03-29T08:14:22Z</time>
      </trkpt>
      <trkpt lat="47.56283" lon="-2.91726">
        <time>2014-03-29T08:14:25Z</time>
      </trkpt>
      <trkpt lat="47.56278" lon="-2.91735">
        <time>2014-03-29T08:14:26Z</time>
      </trkpt>
      <trkpt lat="47.56274" lon="-2.91744">
        <time>2014-03-29T08:14:28Z</time>
      </trkpt>
      <trkpt lat="47.56269" lon="-2.91751">
        <time>2014-03-29T08:14:31Z</time>
      </trkpt>
      <trkpt lat="47.56264" lon="-2.91759">
        <time>2014-03-29T08:14:32Z</time>
      </trkpt>
      <trkpt lat="47.5626" lon="-2.91765">
        <time>2014-03-29T08:14:35Z</time>
      </trkpt>
      <trkpt lat="47.56255" lon="-2.91772">
        <time>2014-03-29T08:14:36Z</time>
      </trkpt>
      <trkpt lat="47.56249" lon="-2.91777">
        <time>2014-03-29T08:14:39Z</time>
      </trkpt>
      <trkpt lat="47.56244" lon="-2.91782">
        <time>2014-03-29T08:14:40Z</time>
      </trkpt>
      <trkpt lat="47.56238" lon="-2.91787">
        <time>2014-03-29T08:14:43Z</time>
      </trkpt>
      <trkpt lat="47.56233" lon="-2.91793">
        <time>2014-03-29T08:14:45Z</time>
      </trkpt>
      <trkpt lat="47.56228" lon="-2.91801">
        <time>2014-03-29T08:14:46Z</time>
      </trkpt>
      <trkpt lat="47.56224" lon="-2.91809">
        <time>2014-03-29T08:14:49Z</time>
      </trkpt>
      <trkpt lat="47.5622" lon="-2.91817">
        <time>2014-03-29T08:14:50Z</time>
      </trkpt>
      <trkpt lat="47.56217" lon="-2.91826">
        <time>2014-03-29T08:14:53Z</time>
      </trkpt>
      <trkpt lat="47.56213" lon="-2.91835">
        <time>2014-03-29T08:14:54Z</time>
      </trkpt>
      <trkpt lat="47.56209" lon="-2.91844">
        <time>2014-03-29T08:14:57Z</time>
      </trkpt>
      <trkpt lat="47.56205" lon="-2.91851">
        <time>2014-03-29T08:14:59Z</time>
      </trkpt>
      <trkpt lat="47.562" lon="-2.91857">
        <time>2014-03-29T08:15:00Z</time>
      </trkpt>
      <trkpt lat="47.56196" lon="-2.91864">
        <time>2014-03-29T08:15:03Z</time>
      </trkpt>
      <trkpt lat="47.5619" lon="-2.91872">
        <time>2014-03-29T08:15:04Z</time>
      </trkpt>
      <trkpt lat="47.56185" lon="-2.91879">
        <time>2014-03-29T08:15:06Z</time>
      </trkpt>
      <trkpt lat="47.5618" lon="-2.91886">
        <time>2014-03-29T08:15:08Z</time>
      </trkpt>
      <trkpt lat="47.56174" lon="-2.91893">
        <time>2014-03-29T08:15:11Z</time>
      </trkpt>
      <trkpt lat="47.56169" lon="-2.919">
        <time>2014-03-29T08:15:12Z</time>
      </trkpt>
      <trkpt lat="47.56164" lon="-2.91907">
        <time>2014-03-29T08:15:15Z</time>
      </trkpt>
      <trkpt lat="47.5616" lon="-2.91914">
        <time>2014-03-29T08:15:16Z</time>
      </trkpt>
      <trkpt lat="47.56155" lon="-2.91921">
        <time>2014-03-29T08:15:18Z</time>
      </trkpt>
      <trkpt lat="47.5615" lon="-2.91927">
        <time>2014-03-29T08:15:21Z</time>
      </trkpt>
      <trkpt lat="47.56144" lon="-2.91932">
        <time>2014-03-29T08:15:22Z</time>
      </trkpt>
      <trkpt lat="47.56138" lon="-2.91937">
        <time>2014-03-29T08:15:25Z</time>
      </trkpt>
      <trkpt lat="47.56132" lon="-2.91941">
        <time>2014-03-29T08:15:26Z</time>
      </trkpt>
      <trkpt lat="47.56126" lon="-2.91946">
        <time>2014-03-29T08:15:29Z</time>
      </trkpt>
      <trkpt lat="47.56121" lon="-2.91951">
        <time>2014-03-29T08:15:31Z</time>
      </trkpt>
      <trkpt lat="47.56116" lon="-2.91957">
        <time>2014-03-29T08:15:32Z</time>
      </trkpt>
      <trkpt lat="47.56112" lon="-2.91962">
        <time>2014-03-29T08:15:35Z</time>
      </trkpt>
      <trkpt lat="47.56107" lon="-2.91966">
        <time>2014-03-29T08:15:36Z</time>
      </trkpt>
      <trkpt lat="47.56102" lon="-2.91969">
        <time>2014-03-29T08:15:39Z</time>
      </trkpt>
      <trkpt lat="47.56097" lon="-2.91973">
        <time>2014-03-29T08:15:40Z</time>
      </trkpt>
      <trkpt lat="47.56093" lon="-2.91976">
        <time>2014-03-29T08:15:43Z</time>
      </trkpt>
      <trkpt lat="47.56088" lon="-2.91979">
        <time>2014-03-29T08:15:44Z</time>
      </trkpt>
      <trkpt lat="47.56084" lon="-2.91982">
        <time>2014-03-29T08:15:47Z</time>
      </trkpt>
      <trkpt lat="47.5608" lon="-2.91985">
        <time>2014-03-29T08:15:49Z</time>
      </trkpt>
      <trkpt lat="47.56075" lon="-2.91988">
        <time>2014-03-29T08:15:50Z</time>
      </trkpt>
      <trkpt lat="47.56071" lon="-2.91991">
        <time>2014-03-29T08:15:53Z</time>
      </trkpt>
      <trkpt lat="47.56067" lon="-2.91994">
        <time>2014-03-29T08:15:54Z</time>
      </trkpt>
      <trkpt lat="47.5606" lon="-2.91997">
        <time>2014-03-29T08:15:58Z</time>
      </trkpt>
      <trkpt lat="47.56054" lon="-2.91999">
        <time>2014-03-29T08:16:01Z</time>
      </trkpt>
      <trkpt lat="47.56049" lon="-2.92">
        <time>2014-03-29T08:16:03Z</time>
      </trkpt>
      <trkpt lat="47.56044" lon="-2.92002">
        <time>2014-03-29T08:16:04Z</time>
      </trkpt>
      <trkpt lat="47.56039" lon="-2.92003">
        <time>2014-03-29T08:16:07Z</time>
      </trkpt>
      <trkpt lat="47.56034" lon="-2.92005">
        <time>2014-03-29T08:16:08Z</time>
      </trkpt>
      <trkpt lat="47.5603" lon="-2.92006">
        <time>2014-03-29T08:16:11Z</time>
      </trkpt>
      <trkpt lat="47.56025" lon="-2.92007">
        <time>2014-03-29T08:16:12Z</time>
      </trkpt>
      <trkpt lat="47.56021" lon="-2.92008">
        <time>2014-03-29T08:16:15Z</time>
      </trkpt>
      <trkpt lat="47.56016" lon="-2.92009">
        <time>2014-03-29T08:16:16Z</time>
      </trkpt>
      <trkpt lat="47.56011" lon="-2.9201">
        <time>2014-03-29T08:16:19Z</time>
      </trkpt>
      <trkpt lat="47.56006" lon="-2.92011">
        <time>2014-03-29T08:16:21Z</time>
      </trkpt>
      <trkpt lat="47.55998" lon="-2.92011">
        <time>2014-03-29T08:16:23Z</time>
      </trkpt>
      <trkpt lat="47.55993" lon="-2.92011">
        <time>2014-03-29T08:16:25Z</time>
      </trkpt>
      <trkpt lat="47.55988" lon="-2.92012">
        <time>2014-03-29T08:16:27Z</time>
      </trkpt>
      <trkpt lat="47.55983" lon="-2.92012">
        <time>2014-03-29T08:16:29Z</time>
      </trkpt>
      <trkpt lat="47.55979" lon="-2.92012">
        <time>2014-03-29T08:16:31Z</time>
      </trkpt>
      <trkpt lat="47.55974" lon="-2.92013">
        <time>2014-03-29T08:16:34Z</time>
      </trkpt>
      <trkpt lat="47.55969" lon="-2.92013">
        <time>2014-03-29T08:16:35Z</time>
      </trkpt>
      <trkpt lat="47.55964" lon="-2.92013">
        <time>2014-03-29T08:16:38Z</time>
      </trkpt>
      <trkpt lat="47.5596" lon="-2.92013">
        <time>2014-03-29T08:16:39Z</time>
      </trkpt>
      <trkpt lat="47.55955" lon="-2.92013">
        <time>2014-03-29T08:16:41Z</time>
      </trkpt>
      <trkpt lat="47.5595" lon="-2.92013">
        <time>2014-03-29T08:16:44Z</time>
      </trkpt>
      <trkpt lat="47.55945" lon="-2.92013">
        <time>2014-03-29T08:16:45Z</time>
      </trkpt>
      <trkpt lat="47.5594" lon="-2.92013">
        <time>2014-03-29T08:16:48Z</time>
      </trkpt>
      <trkpt lat="47.55935" lon="-2.92013">
        <time>2014-03-29T08:16:49Z</time>
      </trkpt>
      <trkpt lat="47.5593" lon="-2.92012">
        <time>2014-03-29T08:16:52Z</time>
      </trkpt>
      <trkpt lat="47.55925" lon="-2.92012">
        <time>2014-03-29T08:16:53Z</time>
      </trkpt>
      <trkpt lat="47.5592" lon="-2.92012">
        <time>2014-03-29T08:16:56Z</time>
      </trkpt>
      <trkpt lat="47.55915" lon="-2.92012">
        <time>2014-03-29T08:16:57Z</time>
      </trkpt>
      <trkpt lat="47.5591" lon="-2.92013">
        <time>2014-03-29T08:16:59Z</time>
      </trkpt>
      <trkpt lat="47.55905" lon="-2.92013">
        <time>2014-03-29T08:17:02Z</time>
      </trkpt>
      <trkpt lat="47.55901" lon="-2.92013">
        <time>2014-03-29T08:17:03Z</time>
      </trkpt>
      <trkpt lat="47.55896" lon="-2.92015">
        <time>2014-03-29T08:17:06Z</time>
      </trkpt>
      <trkpt lat="47.5589" lon="-2.92017">
        <time>2014-03-29T08:17:07Z</time>
      </trkpt>
      <trkpt lat="47.55885" lon="-2.92018">
        <time>2014-03-29T08:17:10Z</time>
      </trkpt>
      <trkpt lat="47.55876" lon="-2.9202">
        <time>2014-03-29T08:17:12Z</time>
      </trkpt>
      <trkpt lat="47.55871" lon="-2.92021">
        <time>2014-03-29T08:17:15Z</time>
      </trkpt>
      <trkpt lat="47.55866" lon="-2.92021">
        <time>2014-03-29T08:17:16Z</time>
      </trkpt>
      <trkpt lat="47.5586" lon="-2.92022">
        <time>2014-03-29T08:17:19Z</time>
      </trkpt>
      <trkpt lat="47.55854" lon="-2.92022">
        <time>2014-03-29T08:17:20Z</time>
      </trkpt>
      <trkpt lat="47.55848" lon="-2.92023">
        <time>2014-03-29T08:17:23Z</time>
      </trkpt>
      <trkpt lat="47.55843" lon="-2.92025">
        <time>2014-03-29T08:17:24Z</time>
      </trkpt>
      <trkpt lat="47.55837" lon="-2.92027">
        <time>2014-03-29T08:17:27Z</time>
      </trkpt>
      <trkpt lat="47.55833" lon="-2.92029">
        <time>2014-03-29T08:17:30Z</time>
      </trkpt>
      <trkpt lat="47.55828" lon="-2.92032">
        <time>2014-03-29T08:17:33Z</time>
      </trkpt>
      <trkpt lat="47.55823" lon="-2.92035">
        <time>2014-03-29T08:17:36Z</time>
      </trkpt>
      <trkpt lat="47.55818" lon="-2.92038">
        <time>2014-03-29T08:17:39Z</time>
      </trkpt>
      <trkpt lat="47.55814" lon="-2.92041">
        <time>2014-03-29T08:17:42Z</time>
      </trkpt>
      <trkpt lat="47.55809" lon="-2.92045">
        <time>2014-03-29T08:17:45Z</time>
      </trkpt>
      <trkpt lat="47.55804" lon="-2.92049">
        <time>2014-03-29T08:17:48Z</time>
      </trkpt>
      <trkpt lat="47.55799" lon="-2.92053">
        <time>2014-03-29T08:17:50Z</time>
      </trkpt>
      <trkpt lat="47.55795" lon="-2.92056">
        <time>2014-03-29T08:17:52Z</time>
      </trkpt>
      <trkpt lat="47.55789" lon="-2.92059">
        <time>2014-03-29T08:17:53Z</time>
      </trkpt>
      <trkpt lat="47.55786" lon="-2.92063">
        <time>2014-03-29T08:17:55Z</time>
      </trkpt>
      <trkpt lat="47.55781" lon="-2.92067">
        <time>2014-03-29T08:17:57Z</time>
      </trkpt>
      <trkpt lat="47.55777" lon="-2.92071">
        <time>2014-03-29T08:17:59Z</time>
      </trkpt>
      <trkpt lat="47.55771" lon="-2.92077">
        <time>2014-03-29T08:18:02Z</time>
      </trkpt>
      <trkpt lat="47.55766" lon="-2.92082">
        <time>2014-03-29T08:18:06Z</time>
      </trkpt>
      <trkpt lat="47.55761" lon="-2.92088">
        <time>2014-03-29T08:18:08Z</time>
      </trkpt>
      <trkpt lat="47.55756" lon="-2.92093">
        <time>2014-03-29T08:18:11Z</time>
      </trkpt>
      <trkpt lat="47.5575" lon="-2.92098">
        <time>2014-03-29T08:18:15Z</time>
      </trkpt>
      <trkpt lat="47.55745" lon="-2.92105">
        <time>2014-03-29T08:18:17Z</time>
      </trkpt>
      <trkpt lat="47.55742" lon="-2.9211">
        <time>2014-03-29T08:18:19Z</time>
      </trkpt>
      <trkpt lat="47.55739" lon="-2.92115">
        <time>2014-03-29T08:18:21Z</time>
      </trkpt>
      <trkpt lat="47.55735" lon="-2.92121">
        <time>2014-03-29T08:18:23Z</time>
      </trkpt>
      <trkpt lat="47.55732" lon="-2.92127">
        <time>2014-03-29T08:18:25Z</time>
      </trkpt>
      <trkpt lat="47.55728" lon="-2.92133">
        <time>2014-03-29T08:18:27Z</time>
      </trkpt>
      <trkpt lat="47.55724" lon="-2.92138">
        <time>2014-03-29T08:18:29Z</time>
      </trkpt>
      <trkpt lat="47.5572" lon="-2.92143">
        <time>2014-03-29T08:18:31Z</time>
      </trkpt>
      <trkpt lat="47.55716" lon="-2.92148">
        <time>2014-03-29T08:18:33Z</time>
      </trkpt>
      <trkpt lat="47.55711" lon="-2.92153">
        <time>2014-03-29T08:18:36Z</time>
      </trkpt>
      <trkpt lat="47.55706" lon="-2.92158">
        <time>2014-03-29T08:18:38Z</time>
      </trkpt>
      <trkpt lat="47.55701" lon="-2.92164">
        <time>2014-03-29T08:18:39Z</time>
      </trkpt>
      <trkpt lat="47.55697" lon="-2.9217">
        <time>2014-03-29T08:18:41Z</time>
      </trkpt>
      <trkpt lat="47.55693" lon="-2.92176">
        <time>2014-03-29T08:18:43Z</time>
      </trkpt>
      <trkpt lat="47.55689" lon="-2.92181">
        <time>2014-03-29T08:18:45Z</time>
      </trkpt>
      <trkpt lat="47.55684" lon="-2.92187">
        <time>2014-03-29T08:18:47Z</time>
      </trkpt>
      <trkpt lat="47.55679" lon="-2.92192">
        <time>2014-03-29T08:18:50Z</time>
      </trkpt>
      <trkpt lat="47.55674" lon="-2.92197">
        <time>2014-03-29T08:18:51Z</time>
      </trkpt>
      <trkpt lat="47.5567" lon="-2.92202">
        <time>2014-03-29T08:18:53Z</time>
      </trkpt>
      <trkpt lat="47.55664" lon="-2.92208">
        <time>2014-03-29T08:18:55Z</time>
      </trkpt>
      <trkpt lat="47.55659" lon="-2.92213">
        <time>2014-03-29T08:18:57Z</time>
      </trkpt>
      <trkpt lat="47.55654" lon="-2.92217">
        <time>2014-03-29T08:18:59Z</time>
      </trkpt>
      <trkpt lat="47.55649" lon="-2.92222">
        <time>2014-03-29T08:19:01Z</time>
      </trkpt>
      <trkpt lat="47.55644" lon="-2.92227">
        <time>2014-03-29T08:19:03Z</time>
      </trkpt>
      <trkpt lat="47.55639" lon="-2.92233">
        <time>2014-03-29T08:19:05Z</time>
      </trkpt>
      <trkpt lat="47.55635" lon="-2.92239">
        <time>2014-03-29T08:19:07Z</time>
      </trkpt>
      <trkpt lat="47.55631" lon="-2.92245">
        <time>2014-03-29T08:19:10Z</time>
      </trkpt>
      <trkpt lat="47.55628" lon="-2.92251">
        <time>2014-03-29T08:19:11Z</time>
      </trkpt>
      <trkpt lat="47.55625" lon="-2.92257">
        <time>2014-03-29T08:19:13Z</time>
      </trkpt>
      <trkpt lat="47.55621" lon="-2.92263">
        <time>2014-03-29T08:19:16Z</time>
      </trkpt>
      <trkpt lat="47.55618" lon="-2.92269">
        <time>2014-03-29T08:19:17Z</time>
      </trkpt>
      <trkpt lat="47.55615" lon="-2.92275">
        <time>2014-03-29T08:19:19Z</time>
      </trkpt>
      <trkpt lat="47.55612" lon="-2.92282">
        <time>2014-03-29T08:19:21Z</time>
      </trkpt>
      <trkpt lat="47.55608" lon="-2.92288">
        <time>2014-03-29T08:19:23Z</time>
      </trkpt>
      <trkpt lat="47.55605" lon="-2.92294">
        <time>2014-03-29T08:19:25Z</time>
      </trkpt>
      <trkpt lat="47.55601" lon="-2.923">
        <time>2014-03-29T08:19:27Z</time>
      </trkpt>
      <trkpt lat="47.55598" lon="-2.92306">
        <time>2014-03-29T08:19:30Z</time>
      </trkpt>
      <trkpt lat="47.55594" lon="-2.92312">
        <time>2014-03-29T08:19:31Z</time>
      </trkpt>
      <trkpt lat="47.55591" lon="-2.92319">
        <time>2014-03-29T08:19:33Z</time>
      </trkpt>
      <trkpt lat="47.55587" lon="-2.92325">
        <time>2014-03-29T08:19:36Z</time>
      </trkpt>
      <trkpt lat="47.55583" lon="-2.92332">
        <time>2014-03-29T08:19:38Z</time>
      </trkpt>
      <trkpt lat="47.55579" lon="-2.92339">
        <time>2014-03-29T08:19:39Z</time>
      </trkpt>
      <trkpt lat="47.55575" lon="-2.92346">
        <time>2014-03-29T08:19:41Z</time>
      </trkpt>
      <trkpt lat="47.55571" lon="-2.92353">
        <time>2014-03-29T08:19:44Z</time>
      </trkpt>
      <trkpt lat="47.55567" lon="-2.9236">
        <time>2014-03-29T08:19:45Z</time>
      </trkpt>
      <trkpt lat="47.55563" lon="-2.92367">
        <time>2014-03-29T08:19:47Z</time>
      </trkpt>
      <trkpt lat="47.5556" lon="-2.92374">
        <time>2014-03-29T08:19:50Z</time>
      </trkpt>
      <trkpt lat="47.55556" lon="-2.92381">
        <time>2014-03-29T08:19:51Z</time>
      </trkpt>
      <trkpt lat="47.55552" lon="-2.92388">
        <time>2014-03-29T08:19:53Z</time>
      </trkpt>
      <trkpt lat="47.55548" lon="-2.92395">
        <time>2014-03-29T08:19:55Z</time>
      </trkpt>
      <trkpt lat="47.55544" lon="-2.92402">
        <time>2014-03-29T08:19:57Z</time>
      </trkpt>
      <trkpt lat="47.5554" lon="-2.92409">
        <time>2014-03-29T08:19:59Z</time>
      </trkpt>
      <trkpt lat="47.55536" lon="-2.92416">
        <time>2014-03-29T08:20:01Z</time>
      </trkpt>
      <trkpt lat="47.55532" lon="-2.92424">
        <time>2014-03-29T08:20:04Z</time>
      </trkpt>
      <trkpt lat="47.55529" lon="-2.92432">
        <time>2014-03-29T08:20:05Z</time>
      </trkpt>
      <trkpt lat="47.55525" lon="-2.92439">
        <time>2014-03-29T08:20:07Z</time>
      </trkpt>
      <trkpt lat="47.55522" lon="-2.92446">
        <time>2014-03-29T08:20:10Z</time>
      </trkpt>
      <trkpt lat="47.55518" lon="-2.92454">
        <time>2014-03-29T08:20:11Z</time>
      </trkpt>
      <trkpt lat="47.55516" lon="-2.92461">
        <time>2014-03-29T08:20:13Z</time>
      </trkpt>
      <trkpt lat="47.55513" lon="-2.92468">
        <time>2014-03-29T08:20:15Z</time>
      </trkpt>
      <trkpt lat="47.5551" lon="-2.92475">
        <time>2014-03-29T08:20:17Z</time>
      </trkpt>
      <trkpt lat="47.55507" lon="-2.92483">
        <time>2014-03-29T08:20:19Z</time>
      </trkpt>
      <trkpt lat="47.55503" lon="-2.92489">
        <time>2014-03-29T08:20:22Z</time>
      </trkpt>
      <trkpt lat="47.555" lon="-2.92494">
        <time>2014-03-29T08:20:24Z</time>
      </trkpt>
      <trkpt lat="47.55497" lon="-2.92499">
        <time>2014-03-29T08:20:25Z</time>
      </trkpt>
      <trkpt lat="47.55492" lon="-2.92505">
        <time>2014-03-29T08:20:29Z</time>
      </trkpt>
      <trkpt lat="47.55488" lon="-2.92511">
        <time>2014-03-29T08:20:31Z</time>
      </trkpt>
      <trkpt lat="47.55484" lon="-2.92519">
        <time>2014-03-29T08:20:35Z</time>
      </trkpt>
      <trkpt lat="47.55482" lon="-2.92525">
        <time>2014-03-29T08:20:37Z</time>
      </trkpt>
      <trkpt lat="47.55479" lon="-2.92531">
        <time>2014-03-29T08:20:38Z</time>
      </trkpt>
      <trkpt lat="47.55477" lon="-2.92537">
        <time>2014-03-29T08:20:40Z</time>
      </trkpt>
      <trkpt lat="47.55474" lon="-2.92543">
        <time>2014-03-29T08:20:43Z</time>
      </trkpt>
      <trkpt lat="47.55472" lon="-2.92552">
        <time>2014-03-29T08:20:45Z</time>
      </trkpt>
      <trkpt lat="47.5547" lon="-2.92559">
        <time>2014-03-29T08:20:48Z</time>
      </trkpt>
      <trkpt lat="47.55469" lon="-2.92566">
        <time>2014-03-29T08:20:51Z</time>
      </trkpt>
      <trkpt lat="47.55467" lon="-2.92573">
        <time>2014-03-29T08:20:55Z</time>
      </trkpt>
      <trkpt lat="47.55465" lon="-2.92581">
        <time>2014-03-29T08:20:58Z</time>
      </trkpt>
      <trkpt lat="47.55463" lon="-2.92589">
        <time>2014-03-29T08:21:00Z</time>
      </trkpt>
      <trkpt lat="47.55461" lon="-2.92597">
        <time>2014-03-29T08:21:04Z</time>
      </trkpt>
      <trkpt lat="47.55459" lon="-2.92606">
        <time>2014-03-29T08:21:06Z</time>
      </trkpt>
      <trkpt lat="47.55457" lon="-2.92614">
        <time>2014-03-29T08:21:10Z</time>
      </trkpt>
      <trkpt lat="47.55455" lon="-2.92622">
        <time>2014-03-29T08:21:12Z</time>
      </trkpt>
      <trkpt lat="47.55454" lon="-2.9263">
        <time>2014-03-29T08:21:16Z</time>
      </trkpt>
      <trkpt lat="47.55454" lon="-2.92638">
        <time>2014-03-29T08:21:18Z</time>
      </trkpt>
      <trkpt lat="47.55454" lon="-2.92645">
        <time>2014-03-29T08:21:22Z</time>
      </trkpt>
      <trkpt lat="47.55455" lon="-2.92653">
        <time>2014-03-29T08:21:24Z</time>
      </trkpt>
      <trkpt lat="47.55456" lon="-2.92661">
        <time>2014-03-29T08:21:27Z</time>
      </trkpt>
      <trkpt lat="47.55456" lon="-2.92668">
        <time>2014-03-29T08:21:31Z</time>
      </trkpt>
      <trkpt lat="47.55455" lon="-2.92676">
        <time>2014-03-29T08:21:35Z</time>
      </trkpt>
      <trkpt lat="47.55454" lon="-2.92684">
        <time>2014-03-29T08:21:38Z</time>
      </trkpt>
      <trkpt lat="47.55453" lon="-2.92692">
        <time>2014-03-29T08:21:42Z</time>
      </trkpt>
      <trkpt lat="47.5545" lon="-2.92698">
        <time>2014-03-29T08:21:46Z</time>
      </trkpt>
      <trkpt lat="47.5545" lon="-2.92705">
        <time>2014-03-29T08:21:50Z</time>
      </trkpt>
      <trkpt lat="47.5545" lon="-2.92712">
        <time>2014-03-29T08:21:54Z</time>
      </trkpt>
      <trkpt lat="47.55452" lon="-2.9272">
        <time>2014-03-29T08:21:59Z</time>
      </trkpt>
      <trkpt lat="47.55455" lon="-2.92727">
        <time>2014-03-29T08:22:05Z</time>
      </trkpt>
      <trkpt lat="47.55458" lon="-2.92733">
        <time>2014-03-29T08:22:17Z</time>
      </trkpt>
      <trkpt lat="47.55459" lon="-2.9274">
        <time>2014-03-29T08:22:28Z</time>
      </trkpt>
      <trkpt lat="47.55461" lon="-2.92746">
        <time>2014-03-29T08:22:42Z</time>
      </trkpt>
      <trkpt lat="47.55466" lon="-2.92751">
        <ele>3</ele>
        <time>2014-03-29T08:22:48Z</time>
      </trkpt>
      <trkpt lat="47.55471" lon="-2.92755">
        <ele>3</ele>
        <time>2014-03-29T08:22:52Z</time>
      </trkpt>
      <trkpt lat="47.55476" lon="-2.92758">
        <ele>3</ele>
        <time>2014-03-29T08:22:57Z</time>
      </trkpt>
      <trkpt lat="47.5548" lon="-2.92761">
        <ele>3</ele>
        <time>2014-03-29T08:23:06Z</time>
      </trkpt>
      <trkpt lat="47.55485" lon="-2.92763">
        <ele>3</ele>
        <time>2014-03-29T08:23:11Z</time>
      </trkpt>
      <trkpt lat="47.55481" lon="-2.92764">
        <ele>3</ele>
        <time>2014-03-29T08:27:48Z</time>
      </trkpt>
      <trkpt lat="47.55476" lon="-2.92763">
        <ele>3</ele>
        <time>2014-03-29T08:28:00Z</time>
      </trkpt>
      <trkpt lat="47.55475" lon="-2.92755">
        <ele>3</ele>
        <time>2014-03-29T08:28:26Z</time>
      </trkpt>
      <trkpt lat="47.55477" lon="-2.92748">
        <time>2014-03-29T08:28:30Z</time>
      </trkpt>
      <trkpt lat="47.55478" lon="-2.9274">
        <time>2014-03-29T08:28:35Z</time>
      </trkpt>
      <trkpt lat="47.5548" lon="-2.92734">
        <time>2014-03-29T08:28:39Z</time>
      </trkpt>
      <trkpt lat="47.55482" lon="-2.92726">
        <time>2014-03-29T08:28:43Z</time>
      </trkpt>
      <trkpt lat="47.55485" lon="-2.92719">
        <time>2014-03-29T08:28:48Z</time>
      </trkpt>
      <trkpt lat="47.55486" lon="-2.92713">
        <time>2014-03-29T08:28:52Z</time>
      </trkpt>
      <trkpt lat="47.55489" lon="-2.92706">
        <time>2014-03-29T08:28:57Z</time>
      </trkpt>
      <trkpt lat="47.55492" lon="-2.927">
        <time>2014-03-29T08:29:01Z</time>
      </trkpt>
      <trkpt lat="47.55495" lon="-2.92692">
        <time>2014-03-29T08:29:05Z</time>
      </trkpt>
      <trkpt lat="47.55498" lon="-2.92685">
        <time>2014-03-29T08:29:09Z</time>
      </trkpt>
      <trkpt lat="47.55501" lon="-2.92679">
        <time>2014-03-29T08:29:11Z</time>
      </trkpt>
      <trkpt lat="47.55503" lon="-2.92674">
        <time>2014-03-29T08:29:14Z</time>
      </trkpt>
      <trkpt lat="47.55506" lon="-2.92666">
        <time>2014-03-29T08:29:18Z</time>
      </trkpt>
      <trkpt lat="47.55508" lon="-2.9266">
        <time>2014-03-29T08:29:22Z</time>
      </trkpt>
      <trkpt lat="47.55511" lon="-2.92653">
        <time>2014-03-29T08:29:26Z</time>
      </trkpt>
      <trkpt lat="47.55512" lon="-2.92646">
        <time>2014-03-29T08:29:31Z</time>
      </trkpt>
      <trkpt lat="47.55512" lon="-2.92638">
        <time>2014-03-29T08:29:36Z</time>
      </trkpt>
      <trkpt lat="47.55511" lon="-2.92631">
        <time>2014-03-29T08:29:39Z</time>
      </trkpt>
      <trkpt lat="47.55509" lon="-2.92624">
        <time>2014-03-29T08:29:44Z</time>
      </trkpt>
      <trkpt lat="47.55507" lon="-2.92616">
        <time>2014-03-29T08:29:48Z</time>
      </trkpt>
      <trkpt lat="47.55506" lon="-2.92609">
        <time>2014-03-29T08:29:51Z</time>
      </trkpt>
      <trkpt lat="47.55505" lon="-2.92601">
        <time>2014-03-29T08:29:55Z</time>
      </trkpt>
      <trkpt lat="47.55504" lon="-2.92592">
        <time>2014-03-29T08:29:59Z</time>
      </trkpt>
      <trkpt lat="47.55502" lon="-2.92585">
        <time>2014-03-29T08:30:04Z</time>
      </trkpt>
      <trkpt lat="47.555" lon="-2.92577">
        <time>2014-03-29T08:30:09Z</time>
      </trkpt>
      <trkpt lat="47.55497" lon="-2.92571">
        <time>2014-03-29T08:30:12Z</time>
      </trkpt>
      <trkpt lat="47.55495" lon="-2.92565">
        <time>2014-03-29T08:30:17Z</time>
      </trkpt>
      <trkpt lat="47.55493" lon="-2.92557">
        <time>2014-03-29T08:30:21Z</time>
      </trkpt>
      <trkpt lat="47.55491" lon="-2.92549">
        <time>2014-03-29T08:30:24Z</time>
      </trkpt>
      <trkpt lat="47.55489" lon="-2.92542">
        <time>2014-03-29T08:30:29Z</time>
      </trkpt>
      <trkpt lat="47.55487" lon="-2.92535">
        <time>2014-03-29T08:30:31Z</time>
      </trkpt>
      <trkpt lat="47.55485" lon="-2.92527">
        <time>2014-03-29T08:30:36Z</time>
      </trkpt>
      <trkpt lat="47.55482" lon="-2.92522">
        <time>2014-03-29T08:30:38Z</time>
      </trkpt>
      <trkpt lat="47.55479" lon="-2.92516">
        <time>2014-03-29T08:30:42Z</time>
      </trkpt>
      <trkpt lat="47.55475" lon="-2.9251">
        <time>2014-03-29T08:30:44Z</time>
      </trkpt>
      <trkpt lat="47.55471" lon="-2.92504">
        <time>2014-03-29T08:30:48Z</time>
      </trkpt>
      <trkpt lat="47.55468" lon="-2.92498">
        <time>2014-03-29T08:30:51Z</time>
      </trkpt>
      <trkpt lat="47.55464" lon="-2.92492">
        <time>2014-03-29T08:30:53Z</time>
      </trkpt>
      <trkpt lat="47.55461" lon="-2.92487">
        <time>2014-03-29T08:30:57Z</time>
      </trkpt>
      <trkpt lat="47.55458" lon="-2.9248">
        <time>2014-03-29T08:31:01Z</time>
      </trkpt>
      <trkpt lat="47.55456" lon="-2.92472">
        <time>2014-03-29T08:31:04Z</time>
      </trkpt>
      <trkpt lat="47.55453" lon="-2.92465">
        <time>2014-03-29T08:31:08Z</time>
      </trkpt>
      <trkpt lat="47.55451" lon="-2.92459">
        <time>2014-03-29T08:31:12Z</time>
      </trkpt>
      <trkpt lat="47.55449" lon="-2.92451">
        <time>2014-03-29T08:31:16Z</time>
      </trkpt>
      <trkpt lat="47.55446" lon="-2.92444">
        <time>2014-03-29T08:31:21Z</time>
      </trkpt>
      <trkpt lat="47.55443" lon="-2.92439">
        <time>2014-03-29T08:31:23Z</time>
      </trkpt>
      <trkpt lat="47.5544" lon="-2.92433">
        <time>2014-03-29T08:31:28Z</time>
      </trkpt>
      <trkpt lat="47.55437" lon="-2.92426">
        <time>2014-03-29T08:31:31Z</time>
      </trkpt>
      <trkpt lat="47.55433" lon="-2.9242">
        <time>2014-03-29T08:31:36Z</time>
      </trkpt>
      <trkpt lat="47.55429" lon="-2.92415">
        <time>2014-03-29T08:31:39Z</time>
      </trkpt>
      <trkpt lat="47.55426" lon="-2.92409">
        <time>2014-03-29T08:31:43Z</time>
      </trkpt>
      <trkpt lat="47.55423" lon="-2.92404">
        <time>2014-03-29T08:31:48Z</time>
      </trkpt>
      <trkpt lat="47.5542" lon="-2.92398">
        <time>2014-03-29T08:31:53Z</time>
      </trkpt>
      <trkpt lat="47.55417" lon="-2.92393">
        <time>2014-03-29T08:31:57Z</time>
      </trkpt>
      <trkpt lat="47.55413" lon="-2.9239">
        <time>2014-03-29T08:32:00Z</time>
      </trkpt>
      <trkpt lat="47.55409" lon="-2.92384">
        <time>2014-03-29T08:32:06Z</time>
      </trkpt>
      <trkpt lat="47.55404" lon="-2.92381">
        <time>2014-03-29T08:32:10Z</time>
      </trkpt>
      <trkpt lat="47.55399" lon="-2.92379">
        <time>2014-03-29T08:32:13Z</time>
      </trkpt>
      <trkpt lat="47.55395" lon="-2.92376">
        <time>2014-03-29T08:32:17Z</time>
      </trkpt>
      <trkpt lat="47.55391" lon="-2.92372">
        <time>2014-03-29T08:32:23Z</time>
      </trkpt>
      <trkpt lat="47.55386" lon="-2.92367">
        <time>2014-03-29T08:32:28Z</time>
      </trkpt>
      <trkpt lat="47.55382" lon="-2.92363">
        <time>2014-03-29T08:32:31Z</time>
      </trkpt>
      <trkpt lat="47.55379" lon="-2.92358">
        <time>2014-03-29T08:32:37Z</time>
      </trkpt>
      <trkpt lat="47.55375" lon="-2.92353">
        <time>2014-03-29T08:32:42Z</time>
      </trkpt>
      <trkpt lat="47.55371" lon="-2.9235">
        <time>2014-03-29T08:32:45Z</time>
      </trkpt>
      <trkpt lat="47.55367" lon="-2.92346">
        <time>2014-03-29T08:32:50Z</time>
      </trkpt>
      <trkpt lat="47.55362" lon="-2.92342">
        <time>2014-03-29T08:32:56Z</time>
      </trkpt>
      <trkpt lat="47.55359" lon="-2.92338">
        <time>2014-03-29T08:33:00Z</time>
      </trkpt>
      <trkpt lat="47.55355" lon="-2.92334">
        <time>2014-03-29T08:33:06Z</time>
      </trkpt>
      <trkpt lat="47.55351" lon="-2.9233">
        <time>2014-03-29T08:33:11Z</time>
      </trkpt>
      <trkpt lat="47.55346" lon="-2.92327">
        <time>2014-03-29T08:33:17Z</time>
      </trkpt>
      <trkpt lat="47.55341" lon="-2.92324">
        <time>2014-03-29T08:33:22Z</time>
      </trkpt>
      <trkpt lat="47.55336" lon="-2.92321">
        <time>2014-03-29T08:33:28Z</time>
      </trkpt>
      <trkpt lat="47.55332" lon="-2.92318">
        <time>2014-03-29T08:33:31Z</time>
      </trkpt>
      <trkpt lat="47.55328" lon="-2.92315">
        <time>2014-03-29T08:33:36Z</time>
      </trkpt>
      <trkpt lat="47.55323" lon="-2.92311">
        <time>2014-03-29T08:33:39Z</time>
      </trkpt>
      <trkpt lat="47.55319" lon="-2.92307">
        <time>2014-03-29T08:33:42Z</time>
      </trkpt>
      <trkpt lat="47.55314" lon="-2.92304">
        <time>2014-03-29T08:33:45Z</time>
      </trkpt>
      <trkpt lat="47.55309" lon="-2.92301">
        <time>2014-03-29T08:33:49Z</time>
      </trkpt>
      <trkpt lat="47.55302" lon="-2.92297">
        <time>2014-03-29T08:33:52Z</time>
      </trkpt>
      <trkpt lat="47.55297" lon="-2.92294">
        <time>2014-03-29T08:33:55Z</time>
      </trkpt>
      <trkpt lat="47.55292" lon="-2.92292">
        <time>2014-03-29T08:33:58Z</time>
      </trkpt>
      <trkpt lat="47.55287" lon="-2.9229">
        <time>2014-03-29T08:34:02Z</time>
      </trkpt>
      <trkpt lat="47.55282" lon="-2.92287">
        <time>2014-03-29T08:34:04Z</time>
      </trkpt>
      <trkpt lat="47.55276" lon="-2.92285">
        <time>2014-03-29T08:34:08Z</time>
      </trkpt>
      <trkpt lat="47.55269" lon="-2.92283">
        <time>2014-03-29T08:34:10Z</time>
      </trkpt>
      <trkpt lat="47.55263" lon="-2.92281">
        <time>2014-03-29T08:34:13Z</time>
      </trkpt>
      <trkpt lat="47.55257" lon="-2.92279">
        <time>2014-03-29T08:34:17Z</time>
      </trkpt>
      <trkpt lat="47.55252" lon="-2.92278">
        <time>2014-03-29T08:34:18Z</time>
      </trkpt>
      <trkpt lat="47.55248" lon="-2.92276">
        <time>2014-03-29T08:34:21Z</time>
      </trkpt>
      <trkpt lat="47.55241" lon="-2.92274">
        <time>2014-03-29T08:34:24Z</time>
      </trkpt>
      <trkpt lat="47.55235" lon="-2.92272">
        <time>2014-03-29T08:34:27Z</time>
      </trkpt>
      <trkpt lat="47.5523" lon="-2.9227">
        <time>2014-03-29T08:34:29Z</time>
      </trkpt>
      <trkpt lat="47.55225" lon="-2.92269">
        <time>2014-03-29T08:34:30Z</time>
      </trkpt>
      <trkpt lat="47.5522" lon="-2.92267">
        <time>2014-03-29T08:34:32Z</time>
      </trkpt>
      <trkpt lat="47.55215" lon="-2.92264">
        <time>2014-03-29T08:34:36Z</time>
      </trkpt>
      <trkpt lat="47.55209" lon="-2.92261">
        <time>2014-03-29T08:34:38Z</time>
      </trkpt>
      <trkpt lat="47.55204" lon="-2.9226">
        <time>2014-03-29T08:34:40Z</time>
      </trkpt>
      <trkpt lat="47.552" lon="-2.92258">
        <time>2014-03-29T08:34:42Z</time>
      </trkpt>
      <trkpt lat="47.55195" lon="-2.92256">
        <time>2014-03-29T08:34:44Z</time>
      </trkpt>
      <trkpt lat="47.5519" lon="-2.92253">
        <time>2014-03-29T08:34:46Z</time>
      </trkpt>
      <trkpt lat="47.55186" lon="-2.92251">
        <time>2014-03-29T08:34:48Z</time>
      </trkpt>
      <trkpt lat="47.55181" lon="-2.9225">
        <time>2014-03-29T08:34:50Z</time>
      </trkpt>
      <trkpt lat="47.55177" lon="-2.92248">
        <time>2014-03-29T08:34:52Z</time>
      </trkpt>
      <trkpt lat="47.55172" lon="-2.92246">
        <time>2014-03-29T08:34:55Z</time>
      </trkpt>
      <trkpt lat="47.55167" lon="-2.92244">
        <time>2014-03-29T08:34:56Z</time>
      </trkpt>
      <trkpt lat="47.55161" lon="-2.92242">
        <time>2014-03-29T08:35:00Z</time>
      </trkpt>
      <trkpt lat="47.55155" lon="-2.92239">
        <time>2014-03-29T08:35:03Z</time>
      </trkpt>
      <trkpt lat="47.55148" lon="-2.92236">
        <time>2014-03-29T08:35:05Z</time>
      </trkpt>
      <trkpt lat="47.55144" lon="-2.92234">
        <time>2014-03-29T08:35:07Z</time>
      </trkpt>
      <trkpt lat="47.55139" lon="-2.92232">
        <time>2014-03-29T08:35:10Z</time>
      </trkpt>
      <trkpt lat="47.55135" lon="-2.9223">
        <time>2014-03-29T08:35:11Z</time>
      </trkpt>
      <trkpt lat="47.55129" lon="-2.92228">
        <time>2014-03-29T08:35:14Z</time>
      </trkpt>
      <trkpt lat="47.55124" lon="-2.92226">
        <time>2014-03-29T08:35:18Z</time>
      </trkpt>
      <trkpt lat="47.55119" lon="-2.92223">
        <time>2014-03-29T08:35:20Z</time>
      </trkpt>
      <trkpt lat="47.55114" lon="-2.92221">
        <time>2014-03-29T08:35:24Z</time>
      </trkpt>
      <trkpt lat="47.5511" lon="-2.92218">
        <time>2014-03-29T08:35:27Z</time>
      </trkpt>
      <trkpt lat="47.55104" lon="-2.92215">
        <time>2014-03-29T08:35:31Z</time>
      </trkpt>
      <trkpt lat="47.55099" lon="-2.92213">
        <time>2014-03-29T08:35:33Z</time>
      </trkpt>
      <trkpt lat="47.55094" lon="-2.9221">
        <time>2014-03-29T08:35:37Z</time>
      </trkpt>
      <trkpt lat="47.55088" lon="-2.92208">
        <time>2014-03-29T08:35:40Z</time>
      </trkpt>
      <trkpt lat="47.55083" lon="-2.92205">
        <time>2014-03-29T08:35:43Z</time>
      </trkpt>
      <trkpt lat="47.55077" lon="-2.92202">
        <time>2014-03-29T08:35:47Z</time>
      </trkpt>
      <trkpt lat="47.55072" lon="-2.92199">
        <time>2014-03-29T08:35:50Z</time>
      </trkpt>
      <trkpt lat="47.55067" lon="-2.92197">
        <time>2014-03-29T08:35:53Z</time>
      </trkpt>
      <trkpt lat="47.55062" lon="-2.92195">
        <time>2014-03-29T08:35:56Z</time>
      </trkpt>
      <trkpt lat="47.55056" lon="-2.92192">
        <time>2014-03-29T08:35:59Z</time>
      </trkpt>
      <trkpt lat="47.55051" lon="-2.92191">
        <time>2014-03-29T08:36:03Z</time>
      </trkpt>
      <trkpt lat="47.55047" lon="-2.9219">
        <time>2014-03-29T08:36:06Z</time>
      </trkpt>
      <trkpt lat="47.55042" lon="-2.92189">
        <time>2014-03-29T08:36:10Z</time>
      </trkpt>
      <trkpt lat="47.55037" lon="-2.92188">
        <time>2014-03-29T08:36:14Z</time>
      </trkpt>
      <trkpt lat="47.55033" lon="-2.92186">
        <time>2014-03-29T08:36:21Z</time>
      </trkpt>
      <trkpt lat="47.55028" lon="-2.92183">
        <time>2014-03-29T08:36:24Z</time>
      </trkpt>
      <trkpt lat="47.55023" lon="-2.92181">
        <time>2014-03-29T08:36:28Z</time>
      </trkpt>
      <trkpt lat="47.55017" lon="-2.92178">
        <time>2014-03-29T08:36:31Z</time>
      </trkpt>
      <trkpt lat="47.55011" lon="-2.92175">
        <time>2014-03-29T08:36:33Z</time>
      </trkpt>
      <trkpt lat="47.55005" lon="-2.92171">
        <time>2014-03-29T08:36:37Z</time>
      </trkpt>
      <trkpt lat="47.55" lon="-2.92168">
        <time>2014-03-29T08:36:40Z</time>
      </trkpt>
      <trkpt lat="47.54995" lon="-2.92165">
        <time>2014-03-29T08:36:42Z</time>
      </trkpt>
      <trkpt lat="47.5499" lon="-2.92161">
        <time>2014-03-29T08:36:46Z</time>
      </trkpt>
      <trkpt lat="47.54985" lon="-2.92156">
        <time>2014-03-29T08:36:49Z</time>
      </trkpt>
      <trkpt lat="47.5498" lon="-2.92152">
        <time>2014-03-29T08:36:51Z</time>
      </trkpt>
      <trkpt lat="47.54976" lon="-2.92148">
        <time>2014-03-29T08:36:55Z</time>
      </trkpt>
      <trkpt lat="47.54972" lon="-2.92145">
        <time>2014-03-29T08:36:58Z</time>
      </trkpt>
      <trkpt lat="47.54967" lon="-2.92141">
        <time>2014-03-29T08:37:00Z</time>
      </trkpt>
      <trkpt lat="47.54963" lon="-2.92139">
        <time>2014-03-29T08:37:04Z</time>
      </trkpt>
      <trkpt lat="47.54958" lon="-2.92135">
        <time>2014-03-29T08:37:08Z</time>
      </trkpt>
      <trkpt lat="47.54954" lon="-2.92132">
        <time>2014-03-29T08:37:11Z</time>
      </trkpt>
      <trkpt lat="47.5495" lon="-2.92128">
        <time>2014-03-29T08:37:13Z</time>
      </trkpt>
      <trkpt lat="47.54945" lon="-2.92124">
        <time>2014-03-29T08:37:18Z</time>
      </trkpt>
      <trkpt lat="47.5494" lon="-2.92121">
        <time>2014-03-29T08:37:21Z</time>
      </trkpt>
      <trkpt lat="47.54935" lon="-2.92118">
        <time>2014-03-29T08:37:23Z</time>
      </trkpt>
      <trkpt lat="47.5493" lon="-2.92115">
        <time>2014-03-29T08:37:26Z</time>
      </trkpt>
      <trkpt lat="47.54924" lon="-2.92111">
        <time>2014-03-29T08:37:30Z</time>
      </trkpt>
      <trkpt lat="47.54919" lon="-2.92109">
        <time>2014-03-29T08:37:32Z</time>
      </trkpt>
      <trkpt lat="47.54914" lon="-2.92107">
        <time>2014-03-29T08:37:35Z</time>
      </trkpt>
      <trkpt lat="47.54909" lon="-2.92104">
        <time>2014-03-29T08:37:40Z</time>
      </trkpt>
      <trkpt lat="47.54904" lon="-2.92101">
        <time>2014-03-29T08:37:45Z</time>
      </trkpt>
      <trkpt lat="47.54899" lon="-2.92098">
        <time>2014-03-29T08:37:48Z</time>
      </trkpt>
      <trkpt lat="47.54894" lon="-2.92096">
        <time>2014-03-29T08:37:52Z</time>
      </trkpt>
      <trkpt lat="47.54889" lon="-2.92093">
        <time>2014-03-29T08:37:57Z</time>
      </trkpt>
      <trkpt lat="47.54885" lon="-2.9209">
        <time>2014-03-29T08:38:00Z</time>
      </trkpt>
      <trkpt lat="47.5488" lon="-2.92088">
        <time>2014-03-29T08:38:04Z</time>
      </trkpt>
      <trkpt lat="47.54874" lon="-2.92086">
        <time>2014-03-29T08:38:08Z</time>
      </trkpt>
      <trkpt lat="47.5487" lon="-2.92086">
        <time>2014-03-29T08:38:12Z</time>
      </trkpt>
      <trkpt lat="47.54864" lon="-2.92084">
        <time>2014-03-29T08:38:16Z</time>
      </trkpt>
      <trkpt lat="47.54859" lon="-2.92082">
        <time>2014-03-29T08:38:20Z</time>
      </trkpt>
      <trkpt lat="47.54854" lon="-2.9208">
        <time>2014-03-29T08:38:25Z</time>
      </trkpt>
      <trkpt lat="47.5485" lon="-2.92078">
        <time>2014-03-29T08:38:30Z</time>
      </trkpt>
      <trkpt lat="47.54845" lon="-2.92075">
        <time>2014-03-29T08:38:37Z</time>
      </trkpt>
      <trkpt lat="47.54844" lon="-2.92069">
        <time>2014-03-29T08:38:47Z</time>
      </trkpt>
      <trkpt lat="47.54843" lon="-2.92062">
        <time>2014-03-29T08:39:02Z</time>
      </trkpt>
      <trkpt lat="47.54847" lon="-2.92059">
        <time>2014-03-29T08:39:08Z</time>
      </trkpt>
      <trkpt lat="47.54852" lon="-2.92059">
        <time>2014-03-29T08:39:15Z</time>
      </trkpt>
      <trkpt lat="47.54852" lon="-2.92053">
        <time>2014-03-29T08:40:02Z</time>
      </trkpt>
      <trkpt lat="47.5485" lon="-2.92046">
        <time>2014-03-29T08:40:12Z</time>
      </trkpt>
      <trkpt lat="47.54851" lon="-2.9204">
        <time>2014-03-29T08:40:23Z</time>
      </trkpt>
      <trkpt lat="47.54849" lon="-2.92033">
        <time>2014-03-29T08:40:30Z</time>
      </trkpt>
      <trkpt lat="47.54848" lon="-2.92025">
        <time>2014-03-29T08:40:35Z</time>
      </trkpt>
      <trkpt lat="47.54848" lon="-2.92018">
        <time>2014-03-29T08:40:40Z</time>
      </trkpt>
      <trkpt lat="47.54847" lon="-2.92011">
        <time>2014-03-29T08:40:44Z</time>
      </trkpt>
      <trkpt lat="47.54845" lon="-2.92004">
        <time>2014-03-29T08:40:48Z</time>
      </trkpt>
      <trkpt lat="47.54844" lon="-2.91997">
        <ele>6</ele>
        <time>2014-03-29T08:40:52Z</time>
      </trkpt>
      <trkpt lat="47.54843" lon="-2.91988">
        <ele>6</ele>
        <time>2014-03-29T08:40:56Z</time>
      </trkpt>
      <trkpt lat="47.54843" lon="-2.91982">
        <ele>6</ele>
        <time>2014-03-29T08:41:00Z</time>
      </trkpt>
      <trkpt lat="47.54845" lon="-2.91975">
        <ele>6</ele>
        <time>2014-03-29T08:41:07Z</time>
      </trkpt>
      <trkpt lat="47.54849" lon="-2.91971">
        <ele>6</ele>
        <time>2014-03-29T08:41:22Z</time>
      </trkpt>
      <trkpt lat="47.54852" lon="-2.91964">
        <ele>6</ele>
        <time>2014-03-29T08:41:26Z</time>
      </trkpt>
      <trkpt lat="47.54856" lon="-2.91956">
        <ele>6</ele>
        <time>2014-03-29T08:41:29Z</time>
      </trkpt>
      <trkpt lat="47.5486" lon="-2.91948">
        <ele>6</ele>
        <time>2014-03-29T08:41:32Z</time>
      </trkpt>
      <trkpt lat="47.54863" lon="-2.91942">
        <ele>6</ele>
        <time>2014-03-29T08:41:36Z</time>
      </trkpt>
      <trkpt lat="47.54867" lon="-2.91937">
        <ele>6</ele>
        <time>2014-03-29T08:41:40Z</time>
      </trkpt>
      <trkpt lat="47.54871" lon="-2.91933">
        <ele>6</ele>
        <time>2014-03-29T08:41:44Z</time>
      </trkpt>
      <trkpt lat="47.54873" lon="-2.91927">
        <ele>6</ele>
        <time>2014-03-29T08:41:53Z</time>
      </trkpt>
      <trkpt lat="47.54876" lon="-2.91921">
        <ele>6</ele>
        <time>2014-03-29T08:42:00Z</time>
      </trkpt>
      <trkpt lat="47.54879" lon="-2.91915">
        <ele>8</ele>
        <time>2014-03-29T08:42:04Z</time>
      </trkpt>
      <trkpt lat="47.54882" lon="-2.91908">
        <ele>8</ele>
        <time>2014-03-29T08:42:09Z</time>
      </trkpt>
      <trkpt lat="47.54883" lon="-2.91901">
        <ele>8</ele>
        <time>2014-03-29T08:42:16Z</time>
      </trkpt>
      <trkpt lat="47.54884" lon="-2.91894">
        <ele>8</ele>
        <time>2014-03-29T08:42:21Z</time>
      </trkpt>
      <trkpt lat="47.54885" lon="-2.91887">
        <ele>8</ele>
        <time>2014-03-29T08:42:26Z</time>
      </trkpt>
      <trkpt lat="47.54887" lon="-2.9188">
        <ele>8</ele>
        <time>2014-03-29T08:42:32Z</time>
      </trkpt>
      <trkpt lat="47.54891" lon="-2.91875">
        <ele>8</ele>
        <time>2014-03-29T08:42:38Z</time>
      </trkpt>
      <trkpt lat="47.54893" lon="-2.91868">
        <ele>9</ele>
        <time>2014-03-29T08:42:45Z</time>
      </trkpt>
      <trkpt lat="47.54896" lon="-2.91862">
        <ele>9</ele>
        <time>2014-03-29T08:42:49Z</time>
      </trkpt>
      <trkpt lat="47.54899" lon="-2.91856">
        <ele>9</ele>
        <time>2014-03-29T08:42:55Z</time>
      </trkpt>
      <trkpt lat="47.54902" lon="-2.9185">
        <ele>9</ele>
        <time>2014-03-29T08:43:00Z</time>
      </trkpt>
      <trkpt lat="47.54905" lon="-2.91844">
        <ele>9</ele>
        <time>2014-03-29T08:43:08Z</time>
      </trkpt>
      <trkpt lat="47.54908" lon="-2.91839">
        <ele>9</ele>
        <time>2014-03-29T08:43:18Z</time>
      </trkpt>
      <trkpt lat="47.54912" lon="-2.91839">
        <ele>9</ele>
        <time>2014-03-29T08:44:00Z</time>
      </trkpt>
      <trkpt lat="47.54916" lon="-2.91834">
        <ele>9</ele>
        <time>2014-03-29T08:44:05Z</time>
      </trkpt>
      <trkpt lat="47.5492" lon="-2.91829">
        <time>2014-03-29T08:44:09Z</time>
      </trkpt>
      <trkpt lat="47.54924" lon="-2.91824">
        <time>2014-03-29T08:44:14Z</time>
      </trkpt>
      <trkpt lat="47.54929" lon="-2.91821">
        <time>2014-03-29T08:44:21Z</time>
      </trkpt>
      <trkpt lat="47.54933" lon="-2.9182">
        <time>2014-03-29T08:44:29Z</time>
      </trkpt>
      <trkpt lat="47.54938" lon="-2.91817">
        <time>2014-03-29T08:44:38Z</time>
      </trkpt>
      <trkpt lat="47.54943" lon="-2.91812">
        <time>2014-03-29T08:44:46Z</time>
      </trkpt>
      <trkpt lat="47.54947" lon="-2.9181">
        <time>2014-03-29T08:44:52Z</time>
      </trkpt>
      <trkpt lat="47.54952" lon="-2.91806">
        <time>2014-03-29T08:44:59Z</time>
      </trkpt>
      <trkpt lat="47.54956" lon="-2.91801">
        <time>2014-03-29T08:45:04Z</time>
      </trkpt>
      <trkpt lat="47.54959" lon="-2.91797">
        <time>2014-03-29T08:45:07Z</time>
      </trkpt>
      <trkpt lat="47.54962" lon="-2.91792">
        <time>2014-03-29T08:45:12Z</time>
      </trkpt>
      <trkpt lat="47.54965" lon="-2.91786">
        <time>2014-03-29T08:45:17Z</time>
      </trkpt>
      <trkpt lat="47.54968" lon="-2.91779">
        <time>2014-03-29T08:45:22Z</time>
      </trkpt>
      <trkpt lat="47.5497" lon="-2.91773">
        <time>2014-03-29T08:45:27Z</time>
      </trkpt>
      <trkpt lat="47.54977" lon="-2.9177">
        <time>2014-03-29T08:45:34Z</time>
      </trkpt>
      <trkpt lat="47.5498" lon="-2.91764">
        <time>2014-03-29T08:45:38Z</time>
      </trkpt>
      <trkpt lat="47.54984" lon="-2.9176">
        <time>2014-03-29T08:45:44Z</time>
      </trkpt>
      <trkpt lat="47.54989" lon="-2.91758">
        <time>2014-03-29T08:45:50Z</time>
      </trkpt>
      <trkpt lat="47.54995" lon="-2.91754">
        <time>2014-03-29T08:45:56Z</time>
      </trkpt>
      <trkpt lat="47.54999" lon="-2.91749">
        <ele>2</ele>
        <time>2014-03-29T08:46:00Z</time>
      </trkpt>
      <trkpt lat="47.55003" lon="-2.91744">
        <time>2014-03-29T08:46:04Z</time>
      </trkpt>
      <trkpt lat="47.55007" lon="-2.9174">
        <time>2014-03-29T08:46:08Z</time>
      </trkpt>
      <trkpt lat="47.55011" lon="-2.91736">
        <time>2014-03-29T08:46:13Z</time>
      </trkpt>
      <trkpt lat="47.55015" lon="-2.91732">
        <time>2014-03-29T08:46:17Z</time>
      </trkpt>
      <trkpt lat="47.55019" lon="-2.91728">
        <time>2014-03-29T08:46:20Z</time>
      </trkpt>
      <trkpt lat="47.55024" lon="-2.91723">
        <time>2014-03-29T08:46:25Z</time>
      </trkpt>
      <trkpt lat="47.55028" lon="-2.91718">
        <time>2014-03-29T08:46:27Z</time>
      </trkpt>
      <trkpt lat="47.55032" lon="-2.91714">
        <time>2014-03-29T08:46:30Z</time>
      </trkpt>
      <trkpt lat="47.55036" lon="-2.9171">
        <time>2014-03-29T08:46:34Z</time>
      </trkpt>
      <trkpt lat="47.55042" lon="-2.91706">
        <time>2014-03-29T08:46:36Z</time>
      </trkpt>
      <trkpt lat="47.55048" lon="-2.91701">
        <time>2014-03-29T08:46:40Z</time>
      </trkpt>
      <trkpt lat="47.55054" lon="-2.91697">
        <time>2014-03-29T08:46:43Z</time>
      </trkpt>
      <trkpt lat="47.55059" lon="-2.91692">
        <time>2014-03-29T08:46:45Z</time>
      </trkpt>
      <trkpt lat="47.55064" lon="-2.91687">
        <time>2014-03-29T08:46:49Z</time>
      </trkpt>
      <trkpt lat="47.55069" lon="-2.91682">
        <time>2014-03-29T08:46:51Z</time>
      </trkpt>
      <trkpt lat="47.55075" lon="-2.91676">
        <time>2014-03-29T08:46:56Z</time>
      </trkpt>
      <trkpt lat="47.55079" lon="-2.91672">
        <time>2014-03-29T08:46:59Z</time>
      </trkpt>
      <trkpt lat="47.55084" lon="-2.91667">
        <time>2014-03-29T08:47:03Z</time>
      </trkpt>
      <trkpt lat="47.55089" lon="-2.91664">
        <time>2014-03-29T08:47:07Z</time>
      </trkpt>
      <trkpt lat="47.55094" lon="-2.9166">
        <time>2014-03-29T08:47:10Z</time>
      </trkpt>
      <trkpt lat="47.55098" lon="-2.91656">
        <time>2014-03-29T08:47:12Z</time>
      </trkpt>
      <trkpt lat="47.55104" lon="-2.91651">
        <time>2014-03-29T08:47:15Z</time>
      </trkpt>
      <trkpt lat="47.5511" lon="-2.91646">
        <time>2014-03-29T08:47:17Z</time>
      </trkpt>
      <trkpt lat="47.55115" lon="-2.9164">
        <time>2014-03-29T08:47:21Z</time>
      </trkpt>
      <trkpt lat="47.5512" lon="-2.91634">
        <time>2014-03-29T08:47:24Z</time>
      </trkpt>
      <trkpt lat="47.55124" lon="-2.91629">
        <time>2014-03-29T08:47:26Z</time>
      </trkpt>
      <trkpt lat="47.55129" lon="-2.91624">
        <time>2014-03-29T08:47:30Z</time>
      </trkpt>
      <trkpt lat="47.55134" lon="-2.91619">
        <time>2014-03-29T08:47:33Z</time>
      </trkpt>
      <trkpt lat="47.55138" lon="-2.91614">
        <time>2014-03-29T08:47:35Z</time>
      </trkpt>
      <trkpt lat="47.55142" lon="-2.91609">
        <time>2014-03-29T08:47:39Z</time>
      </trkpt>
      <trkpt lat="47.55147" lon="-2.91603">
        <time>2014-03-29T08:47:41Z</time>
      </trkpt>
      <trkpt lat="47.55151" lon="-2.91597">
        <time>2014-03-29T08:47:45Z</time>
      </trkpt>
      <trkpt lat="47.55155" lon="-2.91593">
        <time>2014-03-29T08:47:48Z</time>
      </trkpt>
      <trkpt lat="47.55159" lon="-2.91588">
        <time>2014-03-29T08:47:51Z</time>
      </trkpt>
      <trkpt lat="47.55163" lon="-2.91583">
        <time>2014-03-29T08:47:54Z</time>
      </trkpt>
      <trkpt lat="47.55167" lon="-2.91578">
        <time>2014-03-29T08:47:58Z</time>
      </trkpt>
      <trkpt lat="47.5517" lon="-2.91574">
        <time>2014-03-29T08:48:01Z</time>
      </trkpt>
      <trkpt lat="47.55174" lon="-2.9157">
        <time>2014-03-29T08:48:03Z</time>
      </trkpt>
      <trkpt lat="47.55178" lon="-2.91566">
        <time>2014-03-29T08:48:06Z</time>
      </trkpt>
      <trkpt lat="47.55183" lon="-2.91564">
        <time>2014-03-29T08:48:09Z</time>
      </trkpt>
      <trkpt lat="47.55187" lon="-2.9156">
        <time>2014-03-29T08:48:12Z</time>
      </trkpt>
      <trkpt lat="47.55192" lon="-2.91557">
        <time>2014-03-29T08:48:15Z</time>
      </trkpt>
      <trkpt lat="47.55197" lon="-2.91554">
        <time>2014-03-29T08:48:18Z</time>
      </trkpt>
      <trkpt lat="47.55201" lon="-2.9155">
        <time>2014-03-29T08:48:21Z</time>
      </trkpt>
      <trkpt lat="47.55205" lon="-2.91547">
        <time>2014-03-29T08:48:25Z</time>
      </trkpt>
      <trkpt lat="47.55208" lon="-2.91543">
        <time>2014-03-29T08:48:27Z</time>
      </trkpt>
      <trkpt lat="47.55212" lon="-2.91539">
        <time>2014-03-29T08:48:30Z</time>
      </trkpt>
      <trkpt lat="47.55216" lon="-2.91535">
        <time>2014-03-29T08:48:33Z</time>
      </trkpt>
      <trkpt lat="47.5522" lon="-2.91531">
        <time>2014-03-29T08:48:36Z</time>
      </trkpt>
      <trkpt lat="47.55224" lon="-2.91528">
        <time>2014-03-29T08:48:39Z</time>
      </trkpt>
      <trkpt lat="47.55228" lon="-2.91525">
        <time>2014-03-29T08:48:43Z</time>
      </trkpt>
      <trkpt lat="47.55232" lon="-2.91522">
        <time>2014-03-29T08:48:46Z</time>
      </trkpt>
      <trkpt lat="47.55237" lon="-2.91517">
        <time>2014-03-29T08:48:49Z</time>
      </trkpt>
      <trkpt lat="47.55241" lon="-2.91512">
        <time>2014-03-29T08:48:52Z</time>
      </trkpt>
      <trkpt lat="47.55246" lon="-2.91511">
        <time>2014-03-29T08:48:56Z</time>
      </trkpt>
      <trkpt lat="47.5525" lon="-2.91508">
        <time>2014-03-29T08:48:58Z</time>
      </trkpt>
      <trkpt lat="47.55253" lon="-2.91503">
        <time>2014-03-29T08:49:01Z</time>
      </trkpt>
      <trkpt lat="47.55257" lon="-2.91497">
        <time>2014-03-29T08:49:04Z</time>
      </trkpt>
      <trkpt lat="47.5526" lon="-2.91493">
        <time>2014-03-29T08:49:07Z</time>
      </trkpt>
      <trkpt lat="47.55263" lon="-2.91486">
        <time>2014-03-29T08:49:11Z</time>
      </trkpt>
      <trkpt lat="47.55265" lon="-2.91478">
        <time>2014-03-29T08:49:15Z</time>
      </trkpt>
      <trkpt lat="47.55265" lon="-2.91472">
        <time>2014-03-29T08:49:20Z</time>
      </trkpt>
      <trkpt lat="47.55261" lon="-2.91469">
        <time>2014-03-29T08:50:08Z</time>
      </trkpt>
      <trkpt lat="47.55256" lon="-2.91468">
        <time>2014-03-29T08:50:20Z</time>
      </trkpt>
      <trkpt lat="47.55252" lon="-2.91472">
        <time>2014-03-29T08:50:35Z</time>
      </trkpt>
      <trkpt lat="47.55248" lon="-2.91475">
        <time>2014-03-29T08:50:43Z</time>
      </trkpt>
      <trkpt lat="47.55252" lon="-2.91479">
        <time>2014-03-29T08:51:01Z</time>
      </trkpt>
      <trkpt lat="47.55256" lon="-2.91478">
        <time>2014-03-29T08:51:04Z</time>
      </trkpt>
      <trkpt lat="47.55262" lon="-2.91477">
        <time>2014-03-29T08:51:07Z</time>
      </trkpt>
      <trkpt lat="47.55268" lon="-2.91476">
        <time>2014-03-29T08:51:10Z</time>
      </trkpt>
      <trkpt lat="47.55274" lon="-2.91474">
        <time>2014-03-29T08:51:14Z</time>
      </trkpt>
      <trkpt lat="47.55279" lon="-2.91472">
        <time>2014-03-29T08:51:17Z</time>
      </trkpt>
      <trkpt lat="47.55284" lon="-2.91469">
        <time>2014-03-29T08:51:19Z</time>
      </trkpt>
      <trkpt lat="47.55287" lon="-2.91464">
        <time>2014-03-29T08:51:24Z</time>
      </trkpt>
      <trkpt lat="47.55289" lon="-2.91458">
        <time>2014-03-29T08:51:31Z</time>
      </trkpt>
      <trkpt lat="47.55294" lon="-2.91456">
        <time>2014-03-29T08:51:36Z</time>
      </trkpt>
      <trkpt lat="47.55299" lon="-2.91456">
        <time>2014-03-29T08:51:41Z</time>
      </trkpt>
      <trkpt lat="47.55304" lon="-2.91455">
        <time>2014-03-29T08:51:46Z</time>
      </trkpt>
      <trkpt lat="47.55309" lon="-2.91456">
        <time>2014-03-29T08:51:51Z</time>
      </trkpt>
      <trkpt lat="47.55314" lon="-2.91458">
        <time>2014-03-29T08:51:54Z</time>
      </trkpt>
      <trkpt lat="47.55319" lon="-2.91459">
        <time>2014-03-29T08:51:58Z</time>
      </trkpt>
      <trkpt lat="47.55325" lon="-2.91461">
        <time>2014-03-29T08:52:04Z</time>
      </trkpt>
      <trkpt lat="47.5533" lon="-2.91464">
        <time>2014-03-29T08:52:08Z</time>
      </trkpt>
      <trkpt lat="47.55334" lon="-2.91467">
        <ele>6</ele>
        <time>2014-03-29T08:52:10Z</time>
      </trkpt>
      <trkpt lat="47.55338" lon="-2.91469">
        <ele>6</ele>
        <time>2014-03-29T08:52:14Z</time>
      </trkpt>
      <trkpt lat="47.55343" lon="-2.91473">
        <ele>6</ele>
        <time>2014-03-29T08:52:17Z</time>
      </trkpt>
      <trkpt lat="47.55347" lon="-2.91477">
        <ele>6</ele>
        <time>2014-03-29T08:52:21Z</time>
      </trkpt>
      <trkpt lat="47.55352" lon="-2.91482">
        <ele>6</ele>
        <time>2014-03-29T08:52:27Z</time>
      </trkpt>
      <trkpt lat="47.55358" lon="-2.91484">
        <ele>6</ele>
        <time>2014-03-29T08:52:31Z</time>
      </trkpt>
      <trkpt lat="47.55362" lon="-2.91484">
        <ele>6</ele>
        <time>2014-03-29T08:52:34Z</time>
      </trkpt>
      <trkpt lat="47.55368" lon="-2.91486">
        <ele>6</ele>
        <time>2014-03-29T08:52:40Z</time>
      </trkpt>
      <trkpt lat="47.55372" lon="-2.91489">
        <ele>6</ele>
        <time>2014-03-29T08:52:46Z</time>
      </trkpt>
      <trkpt lat="47.55376" lon="-2.91494">
        <ele>6</ele>
        <time>2014-03-29T08:52:52Z</time>
      </trkpt>
      <trkpt lat="47.55381" lon="-2.91497">
        <ele>6</ele>
        <time>2014-03-29T08:52:57Z</time>
      </trkpt>
      <trkpt lat="47.55386" lon="-2.91501">
        <time>2014-03-29T08:53:00Z</time>
      </trkpt>
      <trkpt lat="47.5539" lon="-2.91504">
        <time>2014-03-29T08:53:03Z</time>
      </trkpt>
      <trkpt lat="47.55394" lon="-2.91507">
        <time>2014-03-29T08:53:07Z</time>
      </trkpt>
      <trkpt lat="47.55399" lon="-2.9151">
        <time>2014-03-29T08:53:09Z</time>
      </trkpt>
      <trkpt lat="47.55404" lon="-2.91512">
        <time>2014-03-29T08:53:12Z</time>
      </trkpt>
      <trkpt lat="47.55408" lon="-2.91515">
        <time>2014-03-29T08:53:15Z</time>
      </trkpt>
      <trkpt lat="47.55412" lon="-2.91517">
        <time>2014-03-29T08:53:18Z</time>
      </trkpt>
      <trkpt lat="47.55418" lon="-2.9152">
        <time>2014-03-29T08:53:21Z</time>
      </trkpt>
      <trkpt lat="47.55423" lon="-2.91522">
        <time>2014-03-29T08:53:24Z</time>
      </trkpt>
      <trkpt lat="47.5543" lon="-2.91524">
        <time>2014-03-29T08:53:28Z</time>
      </trkpt>
      <trkpt lat="47.55436" lon="-2.91527">
        <time>2014-03-29T08:53:32Z</time>
      </trkpt>
      <trkpt lat="47.55441" lon="-2.9153">
        <time>2014-03-29T08:53:35Z</time>
      </trkpt>
      <trkpt lat="47.55445" lon="-2.91533">
        <time>2014-03-29T08:53:38Z</time>
      </trkpt>
      <trkpt lat="47.55451" lon="-2.91535">
        <time>2014-03-29T08:53:40Z</time>
      </trkpt>
      <trkpt lat="47.55456" lon="-2.91537">
        <time>2014-03-29T08:53:44Z</time>
      </trkpt>
      <trkpt lat="47.55462" lon="-2.9154">
        <time>2014-03-29T08:53:46Z</time>
      </trkpt>
      <trkpt lat="47.55466" lon="-2.91541">
        <time>2014-03-29T08:53:49Z</time>
      </trkpt>
      <trkpt lat="47.55471" lon="-2.91543">
        <time>2014-03-29T08:53:50Z</time>
      </trkpt>
      <trkpt lat="47.55477" lon="-2.91545">
        <time>2014-03-29T08:53:53Z</time>
      </trkpt>
      <trkpt lat="47.55483" lon="-2.91546">
        <time>2014-03-29T08:53:57Z</time>
      </trkpt>
      <trkpt lat="47.55489" lon="-2.91548">
        <time>2014-03-29T08:53:59Z</time>
      </trkpt>
      <trkpt lat="47.55495" lon="-2.91549">
        <time>2014-03-29T08:54:02Z</time>
      </trkpt>
      <trkpt lat="47.55501" lon="-2.9155">
        <time>2014-03-29T08:54:05Z</time>
      </trkpt>
      <trkpt lat="47.55508" lon="-2.91551">
        <time>2014-03-29T08:54:08Z</time>
      </trkpt>
      <trkpt lat="47.55514" lon="-2.91552">
        <time>2014-03-29T08:54:11Z</time>
      </trkpt>
      <trkpt lat="47.55521" lon="-2.91553">
        <time>2014-03-29T08:54:15Z</time>
      </trkpt>
      <trkpt lat="47.5553" lon="-2.91553">
        <time>2014-03-29T08:54:18Z</time>
      </trkpt>
      <trkpt lat="47.55536" lon="-2.91553">
        <time>2014-03-29T08:54:21Z</time>
      </trkpt>
      <trkpt lat="47.55542" lon="-2.91553">
        <time>2014-03-29T08:54:24Z</time>
      </trkpt>
      <trkpt lat="47.55549" lon="-2.91553">
        <time>2014-03-29T08:54:26Z</time>
      </trkpt>
      <trkpt lat="47.55555" lon="-2.91553">
        <time>2014-03-29T08:54:29Z</time>
      </trkpt>
      <trkpt lat="47.55562" lon="-2.91553">
        <time>2014-03-29T08:54:32Z</time>
      </trkpt>
      <trkpt lat="47.55568" lon="-2.91552">
        <time>2014-03-29T08:54:35Z</time>
      </trkpt>
      <trkpt lat="47.55573" lon="-2.91551">
        <time>2014-03-29T08:54:37Z</time>
      </trkpt>
      <trkpt lat="47.55577" lon="-2.9155">
        <time>2014-03-29T08:54:39Z</time>
      </trkpt>
      <trkpt lat="47.55582" lon="-2.91549">
        <time>2014-03-29T08:54:41Z</time>
      </trkpt>
      <trkpt lat="47.55587" lon="-2.91548">
        <time>2014-03-29T08:54:43Z</time>
      </trkpt>
      <trkpt lat="47.55593" lon="-2.91547">
        <time>2014-03-29T08:54:46Z</time>
      </trkpt>
      <trkpt lat="47.55597" lon="-2.91546">
        <time>2014-03-29T08:54:49Z</time>
      </trkpt>
      <trkpt lat="47.55603" lon="-2.91545">
        <time>2014-03-29T08:54:51Z</time>
      </trkpt>
      <trkpt lat="47.55609" lon="-2.91543">
        <time>2014-03-29T08:54:55Z</time>
      </trkpt>
      <trkpt lat="47.55614" lon="-2.91541">
        <time>2014-03-29T08:54:57Z</time>
      </trkpt>
      <trkpt lat="47.55619" lon="-2.91539">
        <time>2014-03-29T08:55:01Z</time>
      </trkpt>
      <trkpt lat="47.55624" lon="-2.91537">
        <time>2014-03-29T08:55:04Z</time>
      </trkpt>
      <trkpt lat="47.55629" lon="-2.91534">
        <time>2014-03-29T08:55:06Z</time>
      </trkpt>
      <trkpt lat="47.55634" lon="-2.9153">
        <time>2014-03-29T08:55:10Z</time>
      </trkpt>
      <trkpt lat="47.55639" lon="-2.91526">
        <time>2014-03-29T08:55:13Z</time>
      </trkpt>
      <trkpt lat="47.55644" lon="-2.91523">
        <time>2014-03-29T08:55:15Z</time>
      </trkpt>
      <trkpt lat="47.55648" lon="-2.9152">
        <time>2014-03-29T08:55:18Z</time>
      </trkpt>
      <trkpt lat="47.55654" lon="-2.91518">
        <time>2014-03-29T08:55:22Z</time>
      </trkpt>
      <trkpt lat="47.55659" lon="-2.91516">
        <time>2014-03-29T08:55:24Z</time>
      </trkpt>
      <trkpt lat="47.55665" lon="-2.91514">
        <time>2014-03-29T08:55:28Z</time>
      </trkpt>
      <trkpt lat="47.55671" lon="-2.91512">
        <time>2014-03-29T08:55:30Z</time>
      </trkpt>
      <trkpt lat="47.55677" lon="-2.9151">
        <time>2014-03-29T08:55:33Z</time>
      </trkpt>
      <trkpt lat="47.55683" lon="-2.91508">
        <time>2014-03-29T08:55:36Z</time>
      </trkpt>
      <trkpt lat="47.55689" lon="-2.91506">
        <time>2014-03-29T08:55:39Z</time>
      </trkpt>
      <trkpt lat="47.55695" lon="-2.91505">
        <time>2014-03-29T08:55:42Z</time>
      </trkpt>
      <trkpt lat="47.55701" lon="-2.91504">
        <time>2014-03-29T08:55:46Z</time>
      </trkpt>
      <trkpt lat="47.55707" lon="-2.91503">
        <time>2014-03-29T08:55:49Z</time>
      </trkpt>
      <trkpt lat="47.55713" lon="-2.91502">
        <time>2014-03-29T08:55:51Z</time>
      </trkpt>
      <trkpt lat="47.55719" lon="-2.91501">
        <time>2014-03-29T08:55:55Z</time>
      </trkpt>
      <trkpt lat="47.55727" lon="-2.915">
        <ele>9</ele>
        <time>2014-03-29T08:55:58Z</time>
      </trkpt>
      <trkpt lat="47.55733" lon="-2.91499">
        <ele>9</ele>
        <time>2014-03-29T08:56:02Z</time>
      </trkpt>
      <trkpt lat="47.55739" lon="-2.91497">
        <ele>9</ele>
        <time>2014-03-29T08:56:04Z</time>
      </trkpt>
      <trkpt lat="47.55745" lon="-2.91495">
        <ele>9</ele>
        <time>2014-03-29T08:56:08Z</time>
      </trkpt>
      <trkpt lat="47.55752" lon="-2.91493">
        <time>2014-03-29T08:56:10Z</time>
      </trkpt>
      <trkpt lat="47.55758" lon="-2.91491">
        <time>2014-03-29T08:56:13Z</time>
      </trkpt>
      <trkpt lat="47.55764" lon="-2.91489">
        <time>2014-03-29T08:56:16Z</time>
      </trkpt>
      <trkpt lat="47.5577" lon="-2.91488">
        <time>2014-03-29T08:56:20Z</time>
      </trkpt>
      <trkpt lat="47.55776" lon="-2.91486">
        <time>2014-03-29T08:56:22Z</time>
      </trkpt>
      <trkpt lat="47.55781" lon="-2.91485">
        <time>2014-03-29T08:56:24Z</time>
      </trkpt>
      <trkpt lat="47.55785" lon="-2.91484">
        <time>2014-03-29T08:56:26Z</time>
      </trkpt>
      <trkpt lat="47.5579" lon="-2.91483">
        <time>2014-03-29T08:56:28Z</time>
      </trkpt>
      <trkpt lat="47.55795" lon="-2.91482">
        <time>2014-03-29T08:56:30Z</time>
      </trkpt>
      <trkpt lat="47.558" lon="-2.91481">
        <time>2014-03-29T08:56:33Z</time>
      </trkpt>
      <trkpt lat="47.55805" lon="-2.9148">
        <time>2014-03-29T08:56:35Z</time>
      </trkpt>
      <trkpt lat="47.5581" lon="-2.9148">
        <time>2014-03-29T08:56:37Z</time>
      </trkpt>
      <trkpt lat="47.55815" lon="-2.91479">
        <time>2014-03-29T08:56:38Z</time>
      </trkpt>
      <trkpt lat="47.55823" lon="-2.91478">
        <time>2014-03-29T08:56:42Z</time>
      </trkpt>
      <trkpt lat="47.55828" lon="-2.91478">
        <time>2014-03-29T08:56:43Z</time>
      </trkpt>
      <trkpt lat="47.55833" lon="-2.91477">
        <time>2014-03-29T08:56:46Z</time>
      </trkpt>
      <trkpt lat="47.55838" lon="-2.91476">
        <time>2014-03-29T08:56:48Z</time>
      </trkpt>
      <trkpt lat="47.55844" lon="-2.91475">
        <time>2014-03-29T08:56:50Z</time>
      </trkpt>
      <trkpt lat="47.5585" lon="-2.91474">
        <time>2014-03-29T08:56:54Z</time>
      </trkpt>
      <trkpt lat="47.55855" lon="-2.91472">
        <time>2014-03-29T08:56:57Z</time>
      </trkpt>
      <trkpt lat="47.55858" lon="-2.91469">
        <time>2014-03-29T08:57:01Z</time>
      </trkpt>
      <trkpt lat="47.55863" lon="-2.91466">
        <time>2014-03-29T08:57:06Z</time>
      </trkpt>
      <trkpt lat="47.55868" lon="-2.91464">
        <time>2014-03-29T08:57:10Z</time>
      </trkpt>
      <trkpt lat="47.55872" lon="-2.91461">
        <time>2014-03-29T08:57:14Z</time>
      </trkpt>
      <trkpt lat="47.55877" lon="-2.91458">
        <time>2014-03-29T08:57:17Z</time>
      </trkpt>
      <trkpt lat="47.55881" lon="-2.91455">
        <time>2014-03-29T08:57:23Z</time>
      </trkpt>
      <trkpt lat="47.55883" lon="-2.91446">
        <time>2014-03-29T08:57:29Z</time>
      </trkpt>
      <trkpt lat="47.55885" lon="-2.91439">
        <time>2014-03-29T08:57:31Z</time>
      </trkpt>
      <trkpt lat="47.55887" lon="-2.91431">
        <time>2014-03-29T08:57:35Z</time>
      </trkpt>
      <trkpt lat="47.55888" lon="-2.91423">
        <time>2014-03-29T08:57:37Z</time>
      </trkpt>
      <trkpt lat="47.5589" lon="-2.91414">
        <time>2014-03-29T08:57:40Z</time>
      </trkpt>
      <trkpt lat="47.5589" lon="-2.91405">
        <time>2014-03-29T08:57:43Z</time>
      </trkpt>
      <trkpt lat="47.5589" lon="-2.91397">
        <time>2014-03-29T08:57:47Z</time>
      </trkpt>
      <trkpt lat="47.55892" lon="-2.9139">
        <time>2014-03-29T08:57:50Z</time>
      </trkpt>
      <trkpt lat="47.55894" lon="-2.91384">
        <time>2014-03-29T08:57:57Z</time>
      </trkpt>
      <trkpt lat="47.55894" lon="-2.91377">
        <time>2014-03-29T08:58:07Z</time>
      </trkpt>
      <trkpt lat="47.55893" lon="-2.91369">
        <time>2014-03-29T08:58:45Z</time>
      </trkpt>
      <trkpt lat="47.55893" lon="-2.91361">
        <time>2014-03-29T08:58:50Z</time>
      </trkpt>
      <trkpt lat="47.55893" lon="-2.91354">
        <time>2014-03-29T08:58:54Z</time>
      </trkpt>
      <trkpt lat="47.55891" lon="-2.91347">
        <time>2014-03-29T08:58:59Z</time>
      </trkpt>
      <trkpt lat="47.5589" lon="-2.91341">
        <time>2014-03-29T08:59:04Z</time>
      </trkpt>
      <trkpt lat="47.5589" lon="-2.91333">
        <time>2014-03-29T08:59:10Z</time>
      </trkpt>
      <trkpt lat="47.55892" lon="-2.91327">
        <time>2014-03-29T08:59:15Z</time>
      </trkpt>
      <trkpt lat="47.55893" lon="-2.91319">
        <time>2014-03-29T08:59:20Z</time>
      </trkpt>
      <trkpt lat="47.55893" lon="-2.91312">
        <time>2014-03-29T08:59:25Z</time>
      </trkpt>
      <trkpt lat="47.55892" lon="-2.91304">
        <time>2014-03-29T08:59:32Z</time>
      </trkpt>
      <trkpt lat="47.55892" lon="-2.91297">
        <time>2014-03-29T08:59:37Z</time>
      </trkpt>
      <trkpt lat="47.55891" lon="-2.91289">
        <time>2014-03-29T08:59:41Z</time>
      </trkpt>
      <trkpt lat="47.55892" lon="-2.91281">
        <time>2014-03-29T08:59:46Z</time>
      </trkpt>
      <trkpt lat="47.55892" lon="-2.91274">
        <time>2014-03-29T08:59:50Z</time>
      </trkpt>
      <trkpt lat="47.55893" lon="-2.91265">
        <time>2014-03-29T08:59:55Z</time>
      </trkpt>
      <trkpt lat="47.55895" lon="-2.91258">
        <time>2014-03-29T08:59:59Z</time>
      </trkpt>
      <trkpt lat="47.55896" lon="-2.91249">
        <time>2014-03-29T09:00:04Z</time>
      </trkpt>
      <trkpt lat="47.55898" lon="-2.91243">
        <time>2014-03-29T09:00:07Z</time>
      </trkpt>
      <trkpt lat="47.55899" lon="-2.91236">
        <time>2014-03-29T09:00:09Z</time>
      </trkpt>
      <trkpt lat="47.55901" lon="-2.91228">
        <time>2014-03-29T09:00:12Z</time>
      </trkpt>
      <trkpt lat="47.55903" lon="-2.91221">
        <time>2014-03-29T09:00:15Z</time>
      </trkpt>
      <trkpt lat="47.55904" lon="-2.91213">
        <time>2014-03-29T09:00:18Z</time>
      </trkpt>
      <trkpt lat="47.55906" lon="-2.91206">
        <time>2014-03-29T09:00:21Z</time>
      </trkpt>
      <trkpt lat="47.55907" lon="-2.91198">
        <time>2014-03-29T09:00:24Z</time>
      </trkpt>
      <trkpt lat="47.55908" lon="-2.9119">
        <time>2014-03-29T09:00:27Z</time>
      </trkpt>
      <trkpt lat="47.55909" lon="-2.91183">
        <time>2014-03-29T09:00:30Z</time>
      </trkpt>
      <trkpt lat="47.5591" lon="-2.91175">
        <time>2014-03-29T09:00:33Z</time>
      </trkpt>
      <trkpt lat="47.55911" lon="-2.91168">
        <time>2014-03-29T09:00:36Z</time>
      </trkpt>
      <trkpt lat="47.55913" lon="-2.9116">
        <time>2014-03-29T09:00:39Z</time>
      </trkpt>
      <trkpt lat="47.55915" lon="-2.91153">
        <time>2014-03-29T09:00:42Z</time>
      </trkpt>
      <trkpt lat="47.55917" lon="-2.91145">
        <time>2014-03-29T09:00:46Z</time>
      </trkpt>
      <trkpt lat="47.55919" lon="-2.91138">
        <time>2014-03-29T09:00:49Z</time>
      </trkpt>
      <trkpt lat="47.55921" lon="-2.9113">
        <time>2014-03-29T09:00:51Z</time>
      </trkpt>
      <trkpt lat="47.55924" lon="-2.91122">
        <time>2014-03-29T09:00:54Z</time>
      </trkpt>
      <trkpt lat="47.55927" lon="-2.91114">
        <time>2014-03-29T09:00:58Z</time>
      </trkpt>
      <trkpt lat="47.55932" lon="-2.91104">
        <time>2014-03-29T09:01:02Z</time>
      </trkpt>
      <trkpt lat="47.55936" lon="-2.91097">
        <time>2014-03-29T09:01:04Z</time>
      </trkpt>
      <trkpt lat="47.5594" lon="-2.91091">
        <time>2014-03-29T09:01:08Z</time>
      </trkpt>
      <trkpt lat="47.55945" lon="-2.91084">
        <time>2014-03-29T09:01:10Z</time>
      </trkpt>
      <trkpt lat="47.55949" lon="-2.91077">
        <time>2014-03-29T09:01:13Z</time>
      </trkpt>
      <trkpt lat="47.55953" lon="-2.91072">
        <time>2014-03-29T09:01:17Z</time>
      </trkpt>
      <trkpt lat="47.55958" lon="-2.91068">
        <time>2014-03-29T09:01:20Z</time>
      </trkpt>
      <trkpt lat="47.55962" lon="-2.91063">
        <time>2014-03-29T09:01:23Z</time>
      </trkpt>
      <trkpt lat="47.55966" lon="-2.91059">
        <time>2014-03-29T09:01:26Z</time>
      </trkpt>
      <trkpt lat="47.5597" lon="-2.91054">
        <time>2014-03-29T09:01:29Z</time>
      </trkpt>
      <trkpt lat="47.55975" lon="-2.91048">
        <time>2014-03-29T09:01:32Z</time>
      </trkpt>
      <trkpt lat="47.55979" lon="-2.91043">
        <time>2014-03-29T09:01:35Z</time>
      </trkpt>
      <trkpt lat="47.55984" lon="-2.91038">
        <time>2014-03-29T09:01:37Z</time>
      </trkpt>
      <trkpt lat="47.55989" lon="-2.91034">
        <time>2014-03-29T09:01:40Z</time>
      </trkpt>
      <trkpt lat="47.55994" lon="-2.91028">
        <time>2014-03-29T09:01:43Z</time>
      </trkpt>
      <trkpt lat="47.55998" lon="-2.91023">
        <time>2014-03-29T09:01:46Z</time>
      </trkpt>
      <trkpt lat="47.56003" lon="-2.91018">
        <time>2014-03-29T09:01:50Z</time>
      </trkpt>
      <trkpt lat="47.56008" lon="-2.91013">
        <time>2014-03-29T09:01:53Z</time>
      </trkpt>
      <trkpt lat="47.56013" lon="-2.91008">
        <time>2014-03-29T09:01:56Z</time>
      </trkpt>
      <trkpt lat="47.56018" lon="-2.91003">
        <time>2014-03-29T09:01:58Z</time>
      </trkpt>
      <trkpt lat="47.56024" lon="-2.90998">
        <time>2014-03-29T09:02:01Z</time>
      </trkpt>
      <trkpt lat="47.56028" lon="-2.90994">
        <time>2014-03-29T09:02:03Z</time>
      </trkpt>
      <trkpt lat="47.56034" lon="-2.9099">
        <time>2014-03-29T09:02:07Z</time>
      </trkpt>
      <trkpt lat="47.56038" lon="-2.90987">
        <time>2014-03-29T09:02:08Z</time>
      </trkpt>
      <trkpt lat="47.56043" lon="-2.90984">
        <time>2014-03-29T09:02:11Z</time>
      </trkpt>
      <trkpt lat="47.56047" lon="-2.90981">
        <time>2014-03-29T09:02:13Z</time>
      </trkpt>
      <trkpt lat="47.56052" lon="-2.90978">
        <time>2014-03-29T09:02:15Z</time>
      </trkpt>
      <trkpt lat="47.56056" lon="-2.90975">
        <time>2014-03-29T09:02:17Z</time>
      </trkpt>
      <trkpt lat="47.5606" lon="-2.90972">
        <time>2014-03-29T09:02:18Z</time>
      </trkpt>
      <trkpt lat="47.56065" lon="-2.9097">
        <time>2014-03-29T09:02:20Z</time>
      </trkpt>
      <trkpt lat="47.5607" lon="-2.90968">
        <time>2014-03-29T09:02:22Z</time>
      </trkpt>
      <trkpt lat="47.56074" lon="-2.90966">
        <time>2014-03-29T09:02:25Z</time>
      </trkpt>
      <trkpt lat="47.56078" lon="-2.90964">
        <time>2014-03-29T09:02:27Z</time>
      </trkpt>
      <trkpt lat="47.56083" lon="-2.90962">
        <time>2014-03-29T09:02:29Z</time>
      </trkpt>
      <trkpt lat="47.56087" lon="-2.9096">
        <time>2014-03-29T09:02:31Z</time>
      </trkpt>
      <trkpt lat="47.56092" lon="-2.90958">
        <time>2014-03-29T09:02:32Z</time>
      </trkpt>
      <trkpt lat="47.56096" lon="-2.90957">
        <time>2014-03-29T09:02:34Z</time>
      </trkpt>
      <trkpt lat="47.56101" lon="-2.90955">
        <time>2014-03-29T09:02:36Z</time>
      </trkpt>
      <trkpt lat="47.56105" lon="-2.90952">
        <time>2014-03-29T09:02:38Z</time>
      </trkpt>
      <trkpt lat="47.5611" lon="-2.9095">
        <time>2014-03-29T09:02:40Z</time>
      </trkpt>
      <trkpt lat="47.56116" lon="-2.90947">
        <time>2014-03-29T09:02:44Z</time>
      </trkpt>
      <trkpt lat="47.56124" lon="-2.90944">
        <time>2014-03-29T09:02:47Z</time>
      </trkpt>
      <trkpt lat="47.56129" lon="-2.90941">
        <time>2014-03-29T09:02:49Z</time>
      </trkpt>
      <trkpt lat="47.56134" lon="-2.90939">
        <time>2014-03-29T09:02:51Z</time>
      </trkpt>
      <trkpt lat="47.56138" lon="-2.90936">
        <time>2014-03-29T09:02:53Z</time>
      </trkpt>
      <trkpt lat="47.56142" lon="-2.90934">
        <time>2014-03-29T09:02:54Z</time>
      </trkpt>
      <trkpt lat="47.56147" lon="-2.90931">
        <time>2014-03-29T09:02:56Z</time>
      </trkpt>
      <trkpt lat="47.56152" lon="-2.90929">
        <time>2014-03-29T09:02:58Z</time>
      </trkpt>
      <trkpt lat="47.56156" lon="-2.90927">
        <time>2014-03-29T09:03:00Z</time>
      </trkpt>
      <trkpt lat="47.56161" lon="-2.90925">
        <time>2014-03-29T09:03:02Z</time>
      </trkpt>
      <trkpt lat="47.56166" lon="-2.90922">
        <time>2014-03-29T09:03:04Z</time>
      </trkpt>
      <trkpt lat="47.56171" lon="-2.9092">
        <time>2014-03-29T09:03:07Z</time>
      </trkpt>
      <trkpt lat="47.56175" lon="-2.90918">
        <time>2014-03-29T09:03:08Z</time>
      </trkpt>
      <trkpt lat="47.5618" lon="-2.90915">
        <ele>5</ele>
        <time>2014-03-29T09:03:11Z</time>
      </trkpt>
      <trkpt lat="47.56185" lon="-2.90912">
        <ele>5</ele>
        <time>2014-03-29T09:03:12Z</time>
      </trkpt>
      <trkpt lat="47.56189" lon="-2.90908">
        <ele>5</ele>
        <time>2014-03-29T09:03:15Z</time>
      </trkpt>
      <trkpt lat="47.56193" lon="-2.90905">
        <ele>5</ele>
        <time>2014-03-29T09:03:16Z</time>
      </trkpt>
      <trkpt lat="47.56199" lon="-2.909">
        <ele>5</ele>
        <time>2014-03-29T09:03:20Z</time>
      </trkpt>
      <trkpt lat="47.56204" lon="-2.90898">
        <ele>5</ele>
        <time>2014-03-29T09:03:21Z</time>
      </trkpt>
      <trkpt lat="47.56208" lon="-2.90895">
        <ele>5</ele>
        <time>2014-03-29T09:03:23Z</time>
      </trkpt>
      <trkpt lat="47.56212" lon="-2.90893">
        <ele>5</ele>
        <time>2014-03-29T09:03:25Z</time>
      </trkpt>
      <trkpt lat="47.56217" lon="-2.90891">
        <ele>5</ele>
        <time>2014-03-29T09:03:27Z</time>
      </trkpt>
      <trkpt lat="47.56221" lon="-2.9089">
        <ele>5</ele>
        <time>2014-03-29T09:03:29Z</time>
      </trkpt>
      <trkpt lat="47.56228" lon="-2.90887">
        <ele>5</ele>
        <time>2014-03-29T09:03:32Z</time>
      </trkpt>
      <trkpt lat="47.56233" lon="-2.90885">
        <ele>5</ele>
        <time>2014-03-29T09:03:34Z</time>
      </trkpt>
      <trkpt lat="47.56237" lon="-2.90883">
        <ele>5</ele>
        <time>2014-03-29T09:03:36Z</time>
      </trkpt>
      <trkpt lat="47.56242" lon="-2.9088">
        <ele>5</ele>
        <time>2014-03-29T09:03:38Z</time>
      </trkpt>
      <trkpt lat="47.56246" lon="-2.90878">
        <ele>5</ele>
        <time>2014-03-29T09:03:40Z</time>
      </trkpt>
      <trkpt lat="47.56251" lon="-2.90876">
        <time>2014-03-29T09:03:43Z</time>
      </trkpt>
      <trkpt lat="47.56255" lon="-2.90874">
        <time>2014-03-29T09:03:44Z</time>
      </trkpt>
      <trkpt lat="47.56262" lon="-2.9087">
        <time>2014-03-29T09:03:48Z</time>
      </trkpt>
      <trkpt lat="47.56267" lon="-2.90868">
        <time>2014-03-29T09:03:49Z</time>
      </trkpt>
      <trkpt lat="47.56271" lon="-2.90866">
        <time>2014-03-29T09:03:51Z</time>
      </trkpt>
      <trkpt lat="47.56275" lon="-2.90864">
        <time>2014-03-29T09:03:53Z</time>
      </trkpt>
      <trkpt lat="47.5628" lon="-2.90862">
        <time>2014-03-29T09:03:56Z</time>
      </trkpt>
      <trkpt lat="47.56284" lon="-2.9086">
        <time>2014-03-29T09:03:58Z</time>
      </trkpt>
      <trkpt lat="47.56289" lon="-2.90858">
        <time>2014-03-29T09:04:00Z</time>
      </trkpt>
      <trkpt lat="47.56293" lon="-2.90855">
        <time>2014-03-29T09:04:01Z</time>
      </trkpt>
      <trkpt lat="47.56298" lon="-2.90853">
        <time>2014-03-29T09:04:03Z</time>
      </trkpt>
      <trkpt lat="47.56302" lon="-2.90851">
        <time>2014-03-29T09:04:05Z</time>
      </trkpt>
      <trkpt lat="47.56308" lon="-2.90848">
        <time>2014-03-29T09:04:08Z</time>
      </trkpt>
      <trkpt lat="47.56313" lon="-2.90844">
        <time>2014-03-29T09:04:12Z</time>
      </trkpt>
      <trkpt lat="47.56318" lon="-2.9084">
        <time>2014-03-29T09:04:14Z</time>
      </trkpt>
      <trkpt lat="47.56323" lon="-2.90838">
        <time>2014-03-29T09:04:18Z</time>
      </trkpt>
      <trkpt lat="47.56328" lon="-2.90835">
        <time>2014-03-29T09:04:21Z</time>
      </trkpt>
      <trkpt lat="47.56332" lon="-2.90832">
        <ele>5</ele>
        <time>2014-03-29T09:04:24Z</time>
      </trkpt>
      <trkpt lat="47.56336" lon="-2.90829">
        <time>2014-03-29T09:04:26Z</time>
      </trkpt>
      <trkpt lat="47.56341" lon="-2.90824">
        <time>2014-03-29T09:04:30Z</time>
      </trkpt>
      <trkpt lat="47.56345" lon="-2.90818">
        <time>2014-03-29T09:04:34Z</time>
      </trkpt>
      <trkpt lat="47.56348" lon="-2.90811">
        <time>2014-03-29T09:04:38Z</time>
      </trkpt>
      <trkpt lat="47.5635" lon="-2.90803">
        <time>2014-03-29T09:04:42Z</time>
      </trkpt>
      <trkpt lat="47.56352" lon="-2.90795">
        <time>2014-03-29T09:04:46Z</time>
      </trkpt>
      <trkpt lat="47.56353" lon="-2.90787">
        <time>2014-03-29T09:04:50Z</time>
      </trkpt>
      <trkpt lat="47.56354" lon="-2.9078">
        <time>2014-03-29T09:04:53Z</time>
      </trkpt>
      <trkpt lat="47.56355" lon="-2.90773">
        <time>2014-03-29T09:04:57Z</time>
      </trkpt>
      <trkpt lat="47.56353" lon="-2.90767">
        <time>2014-03-29T09:05:05Z</time>
      </trkpt>
      <trkpt lat="47.56352" lon="-2.9076">
        <time>2014-03-29T09:05:11Z</time>
      </trkpt>
      <trkpt lat="47.5635" lon="-2.90754">
        <time>2014-03-29T09:05:19Z</time>
      </trkpt>
      <trkpt lat="47.56349" lon="-2.90747">
        <time>2014-03-29T09:05:28Z</time>
      </trkpt>
      <trkpt lat="47.56348" lon="-2.90741">
        <time>2014-03-29T09:05:54Z</time>
      </trkpt>
      <trkpt lat="47.56344" lon="-2.90735">
        <time>2014-03-29T09:06:01Z</time>
      </trkpt>
      <trkpt lat="47.56341" lon="-2.90729">
        <time>2014-03-29T09:06:06Z</time>
      </trkpt>
      <trkpt lat="47.56339" lon="-2.90721">
        <time>2014-03-29T09:06:11Z</time>
      </trkpt>
      <trkpt lat="47.56338" lon="-2.90715">
        <time>2014-03-29T09:06:15Z</time>
      </trkpt>
      <trkpt lat="47.56336" lon="-2.90708">
        <time>2014-03-29T09:06:20Z</time>
      </trkpt>
      <trkpt lat="47.56333" lon="-2.90702">
        <ele>4</ele>
        <time>2014-03-29T09:06:26Z</time>
      </trkpt>
      <trkpt lat="47.56329" lon="-2.90698">
        <ele>4</ele>
        <time>2014-03-29T09:06:29Z</time>
      </trkpt>
      <trkpt lat="47.56325" lon="-2.90694">
        <ele>4</ele>
        <time>2014-03-29T09:06:33Z</time>
      </trkpt>
      <trkpt lat="47.56321" lon="-2.90689">
        <ele>4</ele>
        <time>2014-03-29T09:06:38Z</time>
      </trkpt>
      <trkpt lat="47.56318" lon="-2.90684">
        <ele>4</ele>
        <time>2014-03-29T09:06:43Z</time>
      </trkpt>
      <trkpt lat="47.56314" lon="-2.90678">
        <ele>4</ele>
        <time>2014-03-29T09:07:15Z</time>
      </trkpt>
      <trkpt lat="47.5631" lon="-2.90673">
        <ele>4</ele>
        <time>2014-03-29T09:07:19Z</time>
      </trkpt>
      <trkpt lat="47.56308" lon="-2.90667">
        <ele>4</ele>
        <time>2014-03-29T09:07:24Z</time>
      </trkpt>
      <trkpt lat="47.56304" lon="-2.90661">
        <ele>4</ele>
        <time>2014-03-29T09:07:29Z</time>
      </trkpt>
      <trkpt lat="47.563" lon="-2.90656">
        <ele>4</ele>
        <time>2014-03-29T09:07:33Z</time>
      </trkpt>
      <trkpt lat="47.56297" lon="-2.90653">
        <ele>4</ele>
        <time>2014-03-29T09:07:37Z</time>
      </trkpt>
      <trkpt lat="47.56293" lon="-2.90649">
        <ele>4</ele>
        <time>2014-03-29T09:07:39Z</time>
      </trkpt>
      <trkpt lat="47.56288" lon="-2.90644">
        <ele>4</ele>
        <time>2014-03-29T09:07:43Z</time>
      </trkpt>
      <trkpt lat="47.56284" lon="-2.90638">
        <ele>4</ele>
        <time>2014-03-29T09:07:48Z</time>
      </trkpt>
      <trkpt lat="47.56284" lon="-2.90645">
        <ele>4</ele>
        <time>2014-03-29T09:09:16Z</time>
      </trkpt>
      <trkpt lat="47.56282" lon="-2.90639">
        <ele>4</ele>
        <time>2014-03-29T09:09:41Z</time>
      </trkpt>
      <trkpt lat="47.56285" lon="-2.90635">
        <ele>4</ele>
        <time>2014-03-29T09:09:57Z</time>
      </trkpt>
      <trkpt lat="47.56289" lon="-2.90628">
        <ele>4</ele>
        <time>2014-03-29T09:10:02Z</time>
      </trkpt>
      <trkpt lat="47.56292" lon="-2.90622">
        <ele>4</ele>
        <time>2014-03-29T09:10:04Z</time>
      </trkpt>
      <trkpt lat="47.56294" lon="-2.90616">
        <ele>4</ele>
        <time>2014-03-29T09:10:07Z</time>
      </trkpt>
      <trkpt lat="47.56298" lon="-2.9061">
        <ele>4</ele>
        <time>2014-03-29T09:10:10Z</time>
      </trkpt>
      <trkpt lat="47.56301" lon="-2.90604">
        <ele>4</ele>
        <time>2014-03-29T09:10:13Z</time>
      </trkpt>
      <trkpt lat="47.56304" lon="-2.90597">
        <ele>4</ele>
        <time>2014-03-29T09:10:17Z</time>
      </trkpt>
      <trkpt lat="47.56307" lon="-2.9059">
        <ele>4</ele>
        <time>2014-03-29T09:10:20Z</time>
      </trkpt>
      <trkpt lat="47.56309" lon="-2.90583">
        <time>2014-03-29T09:10:22Z</time>
      </trkpt>
      <trkpt lat="47.56312" lon="-2.90576">
        <time>2014-03-29T09:10:26Z</time>
      </trkpt>
      <trkpt lat="47.56314" lon="-2.90569">
        <time>2014-03-29T09:10:29Z</time>
      </trkpt>
      <trkpt lat="47.56316" lon="-2.90563">
        <time>2014-03-29T09:10:31Z</time>
      </trkpt>
      <trkpt lat="47.56318" lon="-2.90556">
        <time>2014-03-29T09:10:34Z</time>
      </trkpt>
      <trkpt lat="47.5632" lon="-2.9055">
        <time>2014-03-29T09:10:38Z</time>
      </trkpt>
      <trkpt lat="47.56323" lon="-2.90543">
        <time>2014-03-29T09:10:41Z</time>
      </trkpt>
      <trkpt lat="47.56326" lon="-2.90535">
        <time>2014-03-29T09:10:46Z</time>
      </trkpt>
      <trkpt lat="47.56328" lon="-2.90528">
        <time>2014-03-29T09:10:49Z</time>
      </trkpt>
      <trkpt lat="47.5633" lon="-2.90521">
        <time>2014-03-29T09:10:54Z</time>
      </trkpt>
      <trkpt lat="47.56332" lon="-2.90514">
        <time>2014-03-29T09:10:57Z</time>
      </trkpt>
      <trkpt lat="47.56334" lon="-2.90508">
        <time>2014-03-29T09:11:01Z</time>
      </trkpt>
      <trkpt lat="47.56336" lon="-2.90501">
        <time>2014-03-29T09:11:05Z</time>
      </trkpt>
      <trkpt lat="47.56338" lon="-2.90493">
        <time>2014-03-29T09:11:09Z</time>
      </trkpt>
      <trkpt lat="47.56339" lon="-2.90486">
        <time>2014-03-29T09:11:13Z</time>
      </trkpt>
      <trkpt lat="47.5634" lon="-2.90478">
        <time>2014-03-29T09:11:17Z</time>
      </trkpt>
      <trkpt lat="47.56341" lon="-2.90471">
        <time>2014-03-29T09:11:21Z</time>
      </trkpt>
      <trkpt lat="47.56343" lon="-2.90463">
        <time>2014-03-29T09:11:25Z</time>
      </trkpt>
      <trkpt lat="47.56343" lon="-2.90455">
        <time>2014-03-29T09:11:29Z</time>
      </trkpt>
      <trkpt lat="47.56345" lon="-2.90447">
        <time>2014-03-29T09:11:33Z</time>
      </trkpt>
      <trkpt lat="47.56346" lon="-2.9044">
        <time>2014-03-29T09:11:36Z</time>
      </trkpt>
      <trkpt lat="47.56347" lon="-2.90433">
        <time>2014-03-29T09:11:39Z</time>
      </trkpt>
      <trkpt lat="47.56348" lon="-2.90425">
        <time>2014-03-29T09:11:44Z</time>
      </trkpt>
      <trkpt lat="47.56349" lon="-2.90417">
        <time>2014-03-29T09:11:48Z</time>
      </trkpt>
      <trkpt lat="47.5635" lon="-2.90409">
        <time>2014-03-29T09:11:52Z</time>
      </trkpt>
      <trkpt lat="47.5635" lon="-2.904">
        <time>2014-03-29T09:11:56Z</time>
      </trkpt>
      <trkpt lat="47.56351" lon="-2.90392">
        <time>2014-03-29T09:11:59Z</time>
      </trkpt>
      <trkpt lat="47.56351" lon="-2.90385">
        <time>2014-03-29T09:12:02Z</time>
      </trkpt>
      <trkpt lat="47.56351" lon="-2.90378">
        <time>2014-03-29T09:12:06Z</time>
      </trkpt>
      <trkpt lat="47.56351" lon="-2.90371">
        <time>2014-03-29T09:12:09Z</time>
      </trkpt>
      <trkpt lat="47.56352" lon="-2.90364">
        <time>2014-03-29T09:12:12Z</time>
      </trkpt>
      <trkpt lat="47.56353" lon="-2.90357">
        <time>2014-03-29T09:12:16Z</time>
      </trkpt>
      <trkpt lat="47.56354" lon="-2.90349">
        <time>2014-03-29T09:12:19Z</time>
      </trkpt>
      <trkpt lat="47.56354" lon="-2.90341">
        <time>2014-03-29T09:12:21Z</time>
      </trkpt>
      <trkpt lat="47.56355" lon="-2.90332">
        <time>2014-03-29T09:12:25Z</time>
      </trkpt>
      <trkpt lat="47.56356" lon="-2.90324">
        <time>2014-03-29T09:12:28Z</time>
      </trkpt>
      <trkpt lat="47.56357" lon="-2.90316">
        <time>2014-03-29T09:12:30Z</time>
      </trkpt>
      <trkpt lat="47.56358" lon="-2.90308">
        <time>2014-03-29T09:12:33Z</time>
      </trkpt>
      <trkpt lat="47.56359" lon="-2.90299">
        <time>2014-03-29T09:12:36Z</time>
      </trkpt>
      <trkpt lat="47.5636" lon="-2.90291">
        <time>2014-03-29T09:12:39Z</time>
      </trkpt>
      <trkpt lat="47.56361" lon="-2.90282">
        <time>2014-03-29T09:12:43Z</time>
      </trkpt>
      <trkpt lat="47.56362" lon="-2.90274">
        <time>2014-03-29T09:12:45Z</time>
      </trkpt>
      <trkpt lat="47.56363" lon="-2.90265">
        <time>2014-03-29T09:12:48Z</time>
      </trkpt>
      <trkpt lat="47.56365" lon="-2.90257">
        <time>2014-03-29T09:12:51Z</time>
      </trkpt>
      <trkpt lat="47.56366" lon="-2.9025">
        <time>2014-03-29T09:12:54Z</time>
      </trkpt>
      <trkpt lat="47.56368" lon="-2.90241">
        <time>2014-03-29T09:12:56Z</time>
      </trkpt>
      <trkpt lat="47.5637" lon="-2.90232">
        <time>2014-03-29T09:12:59Z</time>
      </trkpt>
      <trkpt lat="47.56373" lon="-2.90224">
        <time>2014-03-29T09:13:02Z</time>
      </trkpt>
      <trkpt lat="47.56374" lon="-2.90216">
        <time>2014-03-29T09:13:06Z</time>
      </trkpt>
      <trkpt lat="47.56376" lon="-2.90207">
        <time>2014-03-29T09:13:09Z</time>
      </trkpt>
      <trkpt lat="47.56378" lon="-2.90199">
        <time>2014-03-29T09:13:11Z</time>
      </trkpt>
      <trkpt lat="47.56379" lon="-2.9019">
        <time>2014-03-29T09:13:15Z</time>
      </trkpt>
      <trkpt lat="47.56381" lon="-2.90181">
        <time>2014-03-29T09:13:18Z</time>
      </trkpt>
      <trkpt lat="47.56382" lon="-2.90172">
        <time>2014-03-29T09:13:20Z</time>
      </trkpt>
      <trkpt lat="47.56384" lon="-2.90165">
        <time>2014-03-29T09:13:24Z</time>
      </trkpt>
      <trkpt lat="47.56386" lon="-2.90158">
        <time>2014-03-29T09:13:27Z</time>
      </trkpt>
      <trkpt lat="47.56388" lon="-2.90151">
        <time>2014-03-29T09:13:29Z</time>
      </trkpt>
      <trkpt lat="47.56389" lon="-2.90144">
        <time>2014-03-29T09:13:33Z</time>
      </trkpt>
      <trkpt lat="47.5639" lon="-2.90137">
        <time>2014-03-29T09:13:36Z</time>
      </trkpt>
      <trkpt lat="47.56391" lon="-2.90131">
        <time>2014-03-29T09:13:38Z</time>
      </trkpt>
      <trkpt lat="47.56392" lon="-2.90123">
        <time>2014-03-29T09:13:42Z</time>
      </trkpt>
      <trkpt lat="47.56394" lon="-2.90115">
        <time>2014-03-29T09:13:47Z</time>
      </trkpt>
      <trkpt lat="47.56395" lon="-2.90106">
        <time>2014-03-29T09:13:51Z</time>
      </trkpt>
      <trkpt lat="47.56397" lon="-2.90098">
        <time>2014-03-29T09:13:55Z</time>
      </trkpt>
      <trkpt lat="47.56399" lon="-2.90092">
        <time>2014-03-29T09:13:57Z</time>
      </trkpt>
      <trkpt lat="47.564" lon="-2.90085">
        <time>2014-03-29T09:14:01Z</time>
      </trkpt>
      <trkpt lat="47.56401" lon="-2.90077">
        <time>2014-03-29T09:14:04Z</time>
      </trkpt>
      <trkpt lat="47.56403" lon="-2.9007">
        <time>2014-03-29T09:14:06Z</time>
      </trkpt>
      <trkpt lat="47.56404" lon="-2.90064">
        <time>2014-03-29T09:14:09Z</time>
      </trkpt>
      <trkpt lat="47.56405" lon="-2.90057">
        <time>2014-03-29T09:14:12Z</time>
      </trkpt>
      <trkpt lat="47.56406" lon="-2.9005">
        <time>2014-03-29T09:14:15Z</time>
      </trkpt>
      <trkpt lat="47.56406" lon="-2.90043">
        <time>2014-03-29T09:14:18Z</time>
      </trkpt>
      <trkpt lat="47.56407" lon="-2.90036">
        <time>2014-03-29T09:14:22Z</time>
      </trkpt>
      <trkpt lat="47.56408" lon="-2.90029">
        <time>2014-03-29T09:14:24Z</time>
      </trkpt>
      <trkpt lat="47.56409" lon="-2.90023">
        <time>2014-03-29T09:14:28Z</time>
      </trkpt>
      <trkpt lat="47.5641" lon="-2.90015">
        <time>2014-03-29T09:14:32Z</time>
      </trkpt>
      <trkpt lat="47.56411" lon="-2.90006">
        <time>2014-03-29T09:14:36Z</time>
      </trkpt>
      <trkpt lat="47.56412" lon="-2.89999">
        <time>2014-03-29T09:14:38Z</time>
      </trkpt>
      <trkpt lat="47.56412" lon="-2.89992">
        <time>2014-03-29T09:14:42Z</time>
      </trkpt>
      <trkpt lat="47.56413" lon="-2.89984">
        <time>2014-03-29T09:14:46Z</time>
      </trkpt>
      <trkpt lat="47.56414" lon="-2.89977">
        <time>2014-03-29T09:14:49Z</time>
      </trkpt>
      <trkpt lat="47.56415" lon="-2.8997">
        <time>2014-03-29T09:14:51Z</time>
      </trkpt>
      <trkpt lat="47.56415" lon="-2.89963">
        <time>2014-03-29T09:14:54Z</time>
      </trkpt>
      <trkpt lat="47.56416" lon="-2.89957">
        <time>2014-03-29T09:14:57Z</time>
      </trkpt>
      <trkpt lat="47.56417" lon="-2.8995">
        <time>2014-03-29T09:15:00Z</time>
      </trkpt>
      <trkpt lat="47.56417" lon="-2.89943">
        <time>2014-03-29T09:15:03Z</time>
      </trkpt>
      <trkpt lat="47.56419" lon="-2.89936">
        <time>2014-03-29T09:15:06Z</time>
      </trkpt>
      <trkpt lat="47.56419" lon="-2.8993">
        <time>2014-03-29T09:15:10Z</time>
      </trkpt>
      <trkpt lat="47.56419" lon="-2.89923">
        <time>2014-03-29T09:15:13Z</time>
      </trkpt>
      <trkpt lat="47.5642" lon="-2.89914">
        <time>2014-03-29T09:15:17Z</time>
      </trkpt>
      <trkpt lat="47.56421" lon="-2.89907">
        <time>2014-03-29T09:15:19Z</time>
      </trkpt>
      <trkpt lat="47.56422" lon="-2.899">
        <time>2014-03-29T09:15:23Z</time>
      </trkpt>
      <trkpt lat="47.56422" lon="-2.89893">
        <time>2014-03-29T09:15:26Z</time>
      </trkpt>
      <trkpt lat="47.56422" lon="-2.89886">
        <time>2014-03-29T09:15:28Z</time>
      </trkpt>
      <trkpt lat="47.56422" lon="-2.8988">
        <time>2014-03-29T09:15:32Z</time>
      </trkpt>
      <trkpt lat="47.56422" lon="-2.89872">
        <time>2014-03-29T09:15:34Z</time>
      </trkpt>
      <trkpt lat="47.56422" lon="-2.89865">
        <time>2014-03-29T09:15:37Z</time>
      </trkpt>
      <trkpt lat="47.56422" lon="-2.89857">
        <time>2014-03-29T09:15:41Z</time>
      </trkpt>
      <trkpt lat="47.56421" lon="-2.8985">
        <time>2014-03-29T09:15:46Z</time>
      </trkpt>
      <trkpt lat="47.56421" lon="-2.89843">
        <time>2014-03-29T09:15:49Z</time>
      </trkpt>
      <trkpt lat="47.5642" lon="-2.89836">
        <time>2014-03-29T09:15:53Z</time>
      </trkpt>
      <trkpt lat="47.56417" lon="-2.8983">
        <time>2014-03-29T09:15:57Z</time>
      </trkpt>
      <trkpt lat="47.56415" lon="-2.89824">
        <ele>1</ele>
        <time>2014-03-29T09:16:01Z</time>
      </trkpt>
      <trkpt lat="47.56412" lon="-2.89818">
        <ele>1</ele>
        <time>2014-03-29T09:16:05Z</time>
      </trkpt>
      <trkpt lat="47.56409" lon="-2.8981">
        <ele>1</ele>
        <time>2014-03-29T09:16:09Z</time>
      </trkpt>
      <trkpt lat="47.56406" lon="-2.89803">
        <ele>1</ele>
        <time>2014-03-29T09:16:14Z</time>
      </trkpt>
      <trkpt lat="47.56404" lon="-2.89796">
        <ele>1</ele>
        <time>2014-03-29T09:16:18Z</time>
      </trkpt>
      <trkpt lat="47.56402" lon="-2.8979">
        <ele>1</ele>
        <time>2014-03-29T09:16:23Z</time>
      </trkpt>
      <trkpt lat="47.564" lon="-2.89783">
        <ele>1</ele>
        <time>2014-03-29T09:16:27Z</time>
      </trkpt>
      <trkpt lat="47.56397" lon="-2.89778">
        <ele>1</ele>
        <time>2014-03-29T09:17:26Z</time>
      </trkpt>
      <trkpt lat="47.56397" lon="-2.89771">
        <ele>1</ele>
        <time>2014-03-29T09:17:33Z</time>
      </trkpt>
      <trkpt lat="47.56398" lon="-2.89764">
        <ele>1</ele>
        <time>2014-03-29T09:17:40Z</time>
      </trkpt>
      <trkpt lat="47.56399" lon="-2.89757">
        <ele>1</ele>
        <time>2014-03-29T09:17:49Z</time>
      </trkpt>
      <trkpt lat="47.56398" lon="-2.89751">
        <ele>1</ele>
        <time>2014-03-29T09:18:04Z</time>
      </trkpt>
      <trkpt lat="47.56394" lon="-2.89747">
        <ele>1</ele>
        <time>2014-03-29T09:19:13Z</time>
      </trkpt>
      <trkpt lat="47.56391" lon="-2.89742">
        <ele>1</ele>
        <time>2014-03-29T09:21:26Z</time>
      </trkpt>
      <trkpt lat="47.56389" lon="-2.89736">
        <ele>1</ele>
        <time>2014-03-29T09:21:36Z</time>
      </trkpt>
      <trkpt lat="47.56387" lon="-2.8973">
        <ele>1</ele>
        <time>2014-03-29T09:21:40Z</time>
      </trkpt>
      <trkpt lat="47.56385" lon="-2.89724">
        <ele>1</ele>
        <time>2014-03-29T09:21:45Z</time>
      </trkpt>
      <trkpt lat="47.56384" lon="-2.89717">
        <ele>1</ele>
        <time>2014-03-29T09:21:57Z</time>
      </trkpt>
      <trkpt lat="47.56384" lon="-2.89709">
        <ele>1</ele>
        <time>2014-03-29T09:22:13Z</time>
      </trkpt>
      <trkpt lat="47.56382" lon="-2.89703">
        <ele>1</ele>
        <time>2014-03-29T09:22:40Z</time>
      </trkpt>
      <trkpt lat="47.56387" lon="-2.89703">
        <ele>1</ele>
        <time>2014-03-29T09:22:51Z</time>
      </trkpt>
      <trkpt lat="47.56391" lon="-2.89708">
        <ele>1</ele>
        <time>2014-03-29T09:22:53Z</time>
      </trkpt>
      <trkpt lat="47.56395" lon="-2.89711">
        <ele>1</ele>
        <time>2014-03-29T09:22:57Z</time>
      </trkpt>
      <trkpt lat="47.564" lon="-2.89712">
        <ele>1</ele>
        <time>2014-03-29T09:23:00Z</time>
      </trkpt>
      <trkpt lat="47.56406" lon="-2.89714">
        <ele>1</ele>
        <time>2014-03-29T09:23:03Z</time>
      </trkpt>
      <trkpt lat="47.56411" lon="-2.89716">
        <ele>1</ele>
        <time>2014-03-29T09:23:05Z</time>
      </trkpt>
      <trkpt lat="47.56414" lon="-2.89721">
        <ele>1</ele>
        <time>2014-03-29T09:23:10Z</time>
      </trkpt>
      <trkpt lat="47.56416" lon="-2.89728">
        <ele>1</ele>
        <time>2014-03-29T09:23:15Z</time>
      </trkpt>
      <trkpt lat="47.56416" lon="-2.89736">
        <ele>1</ele>
        <time>2014-03-29T09:23:19Z</time>
      </trkpt>
      <trkpt lat="47.56416" lon="-2.89744">
        <ele>1</ele>
        <time>2014-03-29T09:23:24Z</time>
      </trkpt>
      <trkpt lat="47.56413" lon="-2.89751">
        <ele>1</ele>
        <time>2014-03-29T09:23:28Z</time>
      </trkpt>
      <trkpt lat="47.5641" lon="-2.89756">
        <ele>1</ele>
        <time>2014-03-29T09:23:34Z</time>
      </trkpt>
      <trkpt lat="47.56405" lon="-2.89755">
        <ele>1</ele>
        <time>2014-03-29T09:23:40Z</time>
      </trkpt>
      <trkpt lat="47.56401" lon="-2.89752">
        <ele>1</ele>
        <time>2014-03-29T09:23:46Z</time>
      </trkpt>
      <trkpt lat="47.56397" lon="-2.89748">
        <ele>1</ele>
        <time>2014-03-29T09:23:53Z</time>
      </trkpt>
      <trkpt lat="47.56392" lon="-2.89747">
        <ele>1</ele>
        <time>2014-03-29T09:24:25Z</time>
      </trkpt>
      <trkpt lat="47.56393" lon="-2.8974">
        <ele>1</ele>
        <time>2014-03-29T09:25:24Z</time>
      </trkpt>
      <trkpt lat="47.5639" lon="-2.89734">
        <ele>1</ele>
        <time>2014-03-29T09:25:28Z</time>
      </trkpt>
      <trkpt lat="47.56388" lon="-2.89728">
        <ele>1</ele>
        <time>2014-03-29T09:25:32Z</time>
      </trkpt>
      <trkpt lat="47.56386" lon="-2.89722">
        <ele>1</ele>
        <time>2014-03-29T09:25:40Z</time>
      </trkpt>
      <trkpt lat="47.56383" lon="-2.89716">
        <ele>1</ele>
        <time>2014-03-29T09:25:49Z</time>
      </trkpt>
      <trkpt lat="47.56382" lon="-2.89709">
        <ele>1</ele>
        <time>2014-03-29T09:26:12Z</time>
      </trkpt>
      <trkpt lat="47.56379" lon="-2.89703">
        <ele>1</ele>
        <time>2014-03-29T09:26:18Z</time>
      </trkpt>
      <trkpt lat="47.56375" lon="-2.89698">
        <ele>1</ele>
        <time>2014-03-29T09:26:28Z</time>
      </trkpt>
      <trkpt lat="47.56371" lon="-2.89695">
        <ele>1</ele>
        <time>2014-03-29T09:26:36Z</time>
      </trkpt>
      <trkpt lat="47.56366" lon="-2.89695">
        <ele>1</ele>
        <time>2014-03-29T09:26:44Z</time>
      </trkpt>
      <trkpt lat="47.56361" lon="-2.89695">
        <ele>1</ele>
        <time>2014-03-29T09:26:49Z</time>
      </trkpt>
      <trkpt lat="47.56356" lon="-2.89694">
        <ele>1</ele>
        <time>2014-03-29T09:26:53Z</time>
      </trkpt>
      <trkpt lat="47.56351" lon="-2.89692">
        <ele>1</ele>
        <time>2014-03-29T09:27:08Z</time>
      </trkpt>
      <trkpt lat="47.56346" lon="-2.89691">
        <ele>1</ele>
        <time>2014-03-29T09:27:13Z</time>
      </trkpt>
      <trkpt lat="47.56341" lon="-2.89689">
        <ele>1</ele>
        <time>2014-03-29T09:27:18Z</time>
      </trkpt>
      <trkpt lat="47.56337" lon="-2.89687">
        <ele>1</ele>
        <time>2014-03-29T09:27:22Z</time>
      </trkpt>
      <trkpt lat="47.56332" lon="-2.89686">
        <ele>3</ele>
        <time>2014-03-29T09:27:28Z</time>
      </trkpt>
      <trkpt lat="47.56327" lon="-2.89685">
        <ele>3</ele>
        <time>2014-03-29T09:27:33Z</time>
      </trkpt>
      <trkpt lat="47.56322" lon="-2.89685">
        <ele>3</ele>
        <time>2014-03-29T09:27:37Z</time>
      </trkpt>
      <trkpt lat="47.56318" lon="-2.89686">
        <ele>3</ele>
        <time>2014-03-29T09:27:41Z</time>
      </trkpt>
      <trkpt lat="47.56313" lon="-2.89687">
        <ele>3</ele>
        <time>2014-03-29T09:27:45Z</time>
      </trkpt>
      <trkpt lat="47.56308" lon="-2.89687">
        <ele>3</ele>
        <time>2014-03-29T09:27:49Z</time>
      </trkpt>
      <trkpt lat="47.56302" lon="-2.89686">
        <ele>3</ele>
        <time>2014-03-29T09:27:53Z</time>
      </trkpt>
      <trkpt lat="47.56297" lon="-2.89687">
        <ele>3</ele>
        <time>2014-03-29T09:27:57Z</time>
      </trkpt>
      <trkpt lat="47.56292" lon="-2.89687">
        <ele>3</ele>
        <time>2014-03-29T09:28:01Z</time>
      </trkpt>
      <trkpt lat="47.56286" lon="-2.89688">
        <ele>3</ele>
        <time>2014-03-29T09:28:05Z</time>
      </trkpt>
      <trkpt lat="47.56282" lon="-2.89688">
        <ele>3</ele>
        <time>2014-03-29T09:28:10Z</time>
      </trkpt>
      <trkpt lat="47.56276" lon="-2.89689">
        <ele>3</ele>
        <time>2014-03-29T09:28:17Z</time>
      </trkpt>
      <trkpt lat="47.56272" lon="-2.8969">
        <ele>3</ele>
        <time>2014-03-29T09:28:22Z</time>
      </trkpt>
      <trkpt lat="47.56269" lon="-2.89684">
        <ele>3</ele>
        <time>2014-03-29T09:29:43Z</time>
      </trkpt>
      <trkpt lat="47.5627" lon="-2.89677">
        <ele>3</ele>
        <time>2014-03-29T09:29:51Z</time>
      </trkpt>
      <trkpt lat="47.56274" lon="-2.89674">
        <ele>3</ele>
        <time>2014-03-29T09:29:58Z</time>
      </trkpt>
      <trkpt lat="47.56279" lon="-2.89672">
        <ele>3</ele>
        <time>2014-03-29T09:30:08Z</time>
      </trkpt>
      <trkpt lat="47.56283" lon="-2.89669">
        <ele>3</ele>
        <time>2014-03-29T09:30:20Z</time>
      </trkpt>
      <trkpt lat="47.56288" lon="-2.89665">
        <time>2014-03-29T09:30:25Z</time>
      </trkpt>
      <trkpt lat="47.56291" lon="-2.89659">
        <time>2014-03-29T09:30:31Z</time>
      </trkpt>
      <trkpt lat="47.56293" lon="-2.89653">
        <time>2014-03-29T09:30:35Z</time>
      </trkpt>
      <trkpt lat="47.56294" lon="-2.89647">
        <time>2014-03-29T09:30:41Z</time>
      </trkpt>
      <trkpt lat="47.56294" lon="-2.8964">
        <time>2014-03-29T09:30:49Z</time>
      </trkpt>
      <trkpt lat="47.56294" lon="-2.89633">
        <time>2014-03-29T09:30:53Z</time>
      </trkpt>
      <trkpt lat="47.56295" lon="-2.89625">
        <time>2014-03-29T09:30:57Z</time>
      </trkpt>
      <trkpt lat="47.56294" lon="-2.89616">
        <time>2014-03-29T09:31:01Z</time>
      </trkpt>
      <trkpt lat="47.56293" lon="-2.89609">
        <time>2014-03-29T09:31:04Z</time>
      </trkpt>
      <trkpt lat="47.56292" lon="-2.89601">
        <time>2014-03-29T09:31:07Z</time>
      </trkpt>
      <trkpt lat="47.56291" lon="-2.89594">
        <time>2014-03-29T09:31:10Z</time>
      </trkpt>
      <trkpt lat="47.5629" lon="-2.89586">
        <time>2014-03-29T09:31:13Z</time>
      </trkpt>
      <trkpt lat="47.56287" lon="-2.8958">
        <time>2014-03-29T09:31:16Z</time>
      </trkpt>
      <trkpt lat="47.56285" lon="-2.89573">
        <time>2014-03-29T09:31:19Z</time>
      </trkpt>
      <trkpt lat="47.56282" lon="-2.89566">
        <time>2014-03-29T09:31:22Z</time>
      </trkpt>
      <trkpt lat="47.5628" lon="-2.89559">
        <time>2014-03-29T09:31:24Z</time>
      </trkpt>
      <trkpt lat="47.56278" lon="-2.89553">
        <time>2014-03-29T09:31:28Z</time>
      </trkpt>
      <trkpt lat="47.56276" lon="-2.89545">
        <time>2014-03-29T09:31:31Z</time>
      </trkpt>
      <trkpt lat="47.56275" lon="-2.89539">
        <time>2014-03-29T09:31:34Z</time>
      </trkpt>
      <trkpt lat="47.56273" lon="-2.89532">
        <time>2014-03-29T09:31:36Z</time>
      </trkpt>
      <trkpt lat="47.56271" lon="-2.89525">
        <time>2014-03-29T09:31:40Z</time>
      </trkpt>
      <trkpt lat="47.5627" lon="-2.89518">
        <time>2014-03-29T09:31:43Z</time>
      </trkpt>
      <trkpt lat="47.56268" lon="-2.89511">
        <time>2014-03-29T09:31:46Z</time>
      </trkpt>
      <trkpt lat="47.56267" lon="-2.89504">
        <time>2014-03-29T09:31:49Z</time>
      </trkpt>
      <trkpt lat="47.56265" lon="-2.89497">
        <time>2014-03-29T09:31:51Z</time>
      </trkpt>
      <trkpt lat="47.56264" lon="-2.8949">
        <time>2014-03-29T09:31:55Z</time>
      </trkpt>
      <trkpt lat="47.56262" lon="-2.89483">
        <time>2014-03-29T09:31:58Z</time>
      </trkpt>
      <trkpt lat="47.56261" lon="-2.89475">
        <time>2014-03-29T09:32:01Z</time>
      </trkpt>
      <trkpt lat="47.56259" lon="-2.89468">
        <time>2014-03-29T09:32:04Z</time>
      </trkpt>
      <trkpt lat="47.56258" lon="-2.89461">
        <time>2014-03-29T09:32:07Z</time>
      </trkpt>
      <trkpt lat="47.56256" lon="-2.89453">
        <time>2014-03-29T09:32:10Z</time>
      </trkpt>
      <trkpt lat="47.56255" lon="-2.89446">
        <time>2014-03-29T09:32:12Z</time>
      </trkpt>
      <trkpt lat="47.56253" lon="-2.89438">
        <time>2014-03-29T09:32:16Z</time>
      </trkpt>
      <trkpt lat="47.56252" lon="-2.89431">
        <time>2014-03-29T09:32:19Z</time>
      </trkpt>
      <trkpt lat="47.56251" lon="-2.89422">
        <time>2014-03-29T09:32:22Z</time>
      </trkpt>
      <trkpt lat="47.5625" lon="-2.89414">
        <time>2014-03-29T09:32:24Z</time>
      </trkpt>
      <trkpt lat="47.56249" lon="-2.89405">
        <time>2014-03-29T09:32:28Z</time>
      </trkpt>
      <trkpt lat="47.56248" lon="-2.89396">
        <time>2014-03-29T09:32:31Z</time>
      </trkpt>
      <trkpt lat="47.56247" lon="-2.89387">
        <time>2014-03-29T09:32:34Z</time>
      </trkpt>
      <trkpt lat="47.56246" lon="-2.89379">
        <time>2014-03-29T09:32:37Z</time>
      </trkpt>
      <trkpt lat="47.56245" lon="-2.89371">
        <time>2014-03-29T09:32:40Z</time>
      </trkpt>
      <trkpt lat="47.56244" lon="-2.89363">
        <time>2014-03-29T09:32:43Z</time>
      </trkpt>
      <trkpt lat="47.56243" lon="-2.89355">
        <time>2014-03-29T09:32:46Z</time>
      </trkpt>
      <trkpt lat="47.56241" lon="-2.89348">
        <time>2014-03-29T09:32:49Z</time>
      </trkpt>
      <trkpt lat="47.56239" lon="-2.8934">
        <time>2014-03-29T09:32:51Z</time>
      </trkpt>
      <trkpt lat="47.56238" lon="-2.89332">
        <time>2014-03-29T09:32:55Z</time>
      </trkpt>
      <trkpt lat="47.56237" lon="-2.89324">
        <time>2014-03-29T09:32:58Z</time>
      </trkpt>
      <trkpt lat="47.56236" lon="-2.89317">
        <time>2014-03-29T09:33:00Z</time>
      </trkpt>
      <trkpt lat="47.56236" lon="-2.8931">
        <time>2014-03-29T09:33:04Z</time>
      </trkpt>
      <trkpt lat="47.56236" lon="-2.89303">
        <time>2014-03-29T09:33:07Z</time>
      </trkpt>
      <trkpt lat="47.56236" lon="-2.89294">
        <time>2014-03-29T09:33:10Z</time>
      </trkpt>
      <trkpt lat="47.56236" lon="-2.89287">
        <time>2014-03-29T09:33:14Z</time>
      </trkpt>
      <trkpt lat="47.56235" lon="-2.8928">
        <time>2014-03-29T09:33:17Z</time>
      </trkpt>
      <trkpt lat="47.56235" lon="-2.89271">
        <time>2014-03-29T09:33:19Z</time>
      </trkpt>
      <trkpt lat="47.56235" lon="-2.89262">
        <time>2014-03-29T09:33:23Z</time>
      </trkpt>
      <trkpt lat="47.56235" lon="-2.89254">
        <time>2014-03-29T09:33:26Z</time>
      </trkpt>
      <trkpt lat="47.56235" lon="-2.89247">
        <time>2014-03-29T09:33:28Z</time>
      </trkpt>
      <trkpt lat="47.56235" lon="-2.89239">
        <time>2014-03-29T09:33:31Z</time>
      </trkpt>
      <trkpt lat="47.56237" lon="-2.89231">
        <time>2014-03-29T09:33:36Z</time>
      </trkpt>
      <trkpt lat="47.56238" lon="-2.89222">
        <time>2014-03-29T09:33:39Z</time>
      </trkpt>
      <trkpt lat="47.5624" lon="-2.89214">
        <time>2014-03-29T09:33:44Z</time>
      </trkpt>
      <trkpt lat="47.5624" lon="-2.89207">
        <time>2014-03-29T09:33:48Z</time>
      </trkpt>
      <trkpt lat="47.56241" lon="-2.892">
        <time>2014-03-29T09:33:52Z</time>
      </trkpt>
      <trkpt lat="47.56241" lon="-2.89193">
        <time>2014-03-29T09:33:56Z</time>
      </trkpt>
      <trkpt lat="47.56241" lon="-2.89186">
        <time>2014-03-29T09:34:00Z</time>
      </trkpt>
      <trkpt lat="47.56242" lon="-2.89179">
        <time>2014-03-29T09:34:04Z</time>
      </trkpt>
      <trkpt lat="47.56242" lon="-2.89172">
        <time>2014-03-29T09:34:07Z</time>
      </trkpt>
      <trkpt lat="47.56243" lon="-2.89164">
        <time>2014-03-29T09:34:12Z</time>
      </trkpt>
      <trkpt lat="47.56243" lon="-2.89156">
        <time>2014-03-29T09:34:17Z</time>
      </trkpt>
      <trkpt lat="47.56243" lon="-2.89149">
        <time>2014-03-29T09:34:22Z</time>
      </trkpt>
      <trkpt lat="47.56244" lon="-2.89142">
        <time>2014-03-29T09:34:26Z</time>
      </trkpt>
      <trkpt lat="47.56245" lon="-2.89135">
        <time>2014-03-29T09:34:30Z</time>
      </trkpt>
      <trkpt lat="47.56247" lon="-2.89129">
        <time>2014-03-29T09:34:34Z</time>
      </trkpt>
      <trkpt lat="47.56249" lon="-2.89122">
        <time>2014-03-29T09:34:39Z</time>
      </trkpt>
      <trkpt lat="47.56251" lon="-2.89115">
        <time>2014-03-29T09:34:44Z</time>
      </trkpt>
      <trkpt lat="47.56253" lon="-2.89109">
        <time>2014-03-29T09:34:50Z</time>
      </trkpt>
      <trkpt lat="47.56255" lon="-2.89104">
        <time>2014-03-29T09:34:58Z</time>
      </trkpt>
      <trkpt lat="47.56258" lon="-2.89097">
        <time>2014-03-29T09:35:07Z</time>
      </trkpt>
      <trkpt lat="47.56263" lon="-2.89095">
        <time>2014-03-29T09:35:12Z</time>
      </trkpt>
      <trkpt lat="47.56267" lon="-2.8909">
        <time>2014-03-29T09:35:18Z</time>
      </trkpt>
      <trkpt lat="47.56271" lon="-2.89086">
        <time>2014-03-29T09:35:24Z</time>
      </trkpt>
      <trkpt lat="47.56275" lon="-2.89082">
        <time>2014-03-29T09:35:31Z</time>
      </trkpt>
      <trkpt lat="47.5628" lon="-2.8908">
        <time>2014-03-29T09:35:38Z</time>
      </trkpt>
      <trkpt lat="47.56285" lon="-2.89081">
        <time>2014-03-29T09:35:44Z</time>
      </trkpt>
      <trkpt lat="47.5629" lon="-2.89082">
        <time>2014-03-29T09:35:52Z</time>
      </trkpt>
      <trkpt lat="47.56294" lon="-2.8908">
        <time>2014-03-29T09:36:05Z</time>
      </trkpt>
      <trkpt lat="47.56299" lon="-2.89079">
        <time>2014-03-29T09:36:09Z</time>
      </trkpt>
      <trkpt lat="47.56304" lon="-2.89077">
        <time>2014-03-29T09:36:16Z</time>
      </trkpt>
      <trkpt lat="47.56308" lon="-2.89075">
        <time>2014-03-29T09:36:21Z</time>
      </trkpt>
      <trkpt lat="47.56313" lon="-2.89072">
        <time>2014-03-29T09:36:25Z</time>
      </trkpt>
      <trkpt lat="47.56317" lon="-2.89068">
        <time>2014-03-29T09:36:32Z</time>
      </trkpt>
      <trkpt lat="47.56319" lon="-2.89062">
        <time>2014-03-29T09:36:38Z</time>
      </trkpt>
      <trkpt lat="47.56321" lon="-2.89056">
        <time>2014-03-29T09:36:45Z</time>
      </trkpt>
      <trkpt lat="47.56326" lon="-2.89054">
        <time>2014-03-29T09:36:48Z</time>
      </trkpt>
      <trkpt lat="47.56331" lon="-2.89051">
        <time>2014-03-29T09:36:53Z</time>
      </trkpt>
      <trkpt lat="47.56335" lon="-2.89047">
        <time>2014-03-29T09:36:57Z</time>
      </trkpt>
      <trkpt lat="47.56336" lon="-2.8904">
        <time>2014-03-29T09:37:02Z</time>
      </trkpt>
      <trkpt lat="47.56334" lon="-2.89033">
        <time>2014-03-29T09:37:07Z</time>
      </trkpt>
      <trkpt lat="47.56332" lon="-2.89027">
        <time>2014-03-29T09:37:12Z</time>
      </trkpt>
      <trkpt lat="47.56333" lon="-2.89019">
        <time>2014-03-29T09:37:17Z</time>
      </trkpt>
      <trkpt lat="47.56333" lon="-2.89012">
        <time>2014-03-29T09:37:22Z</time>
      </trkpt>
      <trkpt lat="47.56334" lon="-2.89005">
        <time>2014-03-29T09:37:26Z</time>
      </trkpt>
      <trkpt lat="47.56335" lon="-2.88997">
        <time>2014-03-29T09:37:29Z</time>
      </trkpt>
      <trkpt lat="47.56336" lon="-2.8899">
        <time>2014-03-29T09:37:33Z</time>
      </trkpt>
      <trkpt lat="47.56337" lon="-2.88983">
        <time>2014-03-29T09:37:36Z</time>
      </trkpt>
      <trkpt lat="47.56337" lon="-2.88975">
        <time>2014-03-29T09:37:39Z</time>
      </trkpt>
      <trkpt lat="47.56336" lon="-2.88967">
        <time>2014-03-29T09:37:42Z</time>
      </trkpt>
      <trkpt lat="47.56335" lon="-2.88959">
        <time>2014-03-29T09:37:45Z</time>
      </trkpt>
      <trkpt lat="47.56334" lon="-2.88952">
        <time>2014-03-29T09:37:47Z</time>
      </trkpt>
      <trkpt lat="47.56333" lon="-2.88945">
        <time>2014-03-29T09:37:51Z</time>
      </trkpt>
      <trkpt lat="47.56333" lon="-2.88937">
        <time>2014-03-29T09:37:54Z</time>
      </trkpt>
      <trkpt lat="47.56332" lon="-2.8893">
        <time>2014-03-29T09:37:57Z</time>
      </trkpt>
      <trkpt lat="47.56331" lon="-2.88923">
        <time>2014-03-29T09:38:00Z</time>
      </trkpt>
      <trkpt lat="47.56331" lon="-2.88915">
        <time>2014-03-29T09:38:02Z</time>
      </trkpt>
      <trkpt lat="47.56331" lon="-2.88907">
        <time>2014-03-29T09:38:06Z</time>
      </trkpt>
      <trkpt lat="47.56331" lon="-2.88899">
        <time>2014-03-29T09:38:09Z</time>
      </trkpt>
      <trkpt lat="47.56331" lon="-2.88891">
        <time>2014-03-29T09:38:12Z</time>
      </trkpt>
      <trkpt lat="47.56331" lon="-2.88884">
        <time>2014-03-29T09:38:15Z</time>
      </trkpt>
      <trkpt lat="47.5633" lon="-2.88877">
        <time>2014-03-29T09:38:18Z</time>
      </trkpt>
      <trkpt lat="47.56328" lon="-2.8887">
        <time>2014-03-29T09:38:21Z</time>
      </trkpt>
      <trkpt lat="47.56326" lon="-2.88863">
        <time>2014-03-29T09:38:25Z</time>
      </trkpt>
      <trkpt lat="47.56324" lon="-2.88856">
        <time>2014-03-29T09:38:31Z</time>
      </trkpt>
      <trkpt lat="47.5632" lon="-2.88852">
        <time>2014-03-29T09:38:38Z</time>
      </trkpt>
      <trkpt lat="47.56316" lon="-2.88848">
        <time>2014-03-29T09:38:43Z</time>
      </trkpt>
      <trkpt lat="47.56311" lon="-2.88845">
        <time>2014-03-29T09:38:47Z</time>
      </trkpt>
      <trkpt lat="47.56307" lon="-2.88842">
        <time>2014-03-29T09:38:53Z</time>
      </trkpt>
      <trkpt lat="47.56302" lon="-2.88843">
        <time>2014-03-29T09:39:03Z</time>
      </trkpt>
      <trkpt lat="47.56298" lon="-2.88839">
        <time>2014-03-29T09:39:08Z</time>
      </trkpt>
      <trkpt lat="47.56295" lon="-2.88834">
        <time>2014-03-29T09:39:14Z</time>
      </trkpt>
      <trkpt lat="47.56291" lon="-2.88827">
        <ele>7</ele>
        <time>2014-03-29T09:39:21Z</time>
      </trkpt>
      <trkpt lat="47.56289" lon="-2.8882">
        <ele>7</ele>
        <time>2014-03-29T09:39:26Z</time>
      </trkpt>
      <trkpt lat="47.56286" lon="-2.88813">
        <ele>7</ele>
        <time>2014-03-29T09:39:31Z</time>
      </trkpt>
      <trkpt lat="47.56284" lon="-2.88807">
        <ele>7</ele>
        <time>2014-03-29T09:39:35Z</time>
      </trkpt>
      <trkpt lat="47.56281" lon="-2.888">
        <ele>7</ele>
        <time>2014-03-29T09:39:56Z</time>
      </trkpt>
      <trkpt lat="47.5628" lon="-2.88793">
        <ele>7</ele>
        <time>2014-03-29T09:40:02Z</time>
      </trkpt>
      <trkpt lat="47.56279" lon="-2.88787">
        <ele>7</ele>
        <time>2014-03-29T09:40:09Z</time>
      </trkpt>
      <trkpt lat="47.56278" lon="-2.88793">
        <ele>7</ele>
        <time>2014-03-29T09:40:20Z</time>
      </trkpt>
      <trkpt lat="47.56279" lon="-2.888">
        <ele>7</ele>
        <time>2014-03-29T09:40:27Z</time>
      </trkpt>
      <trkpt lat="47.5628" lon="-2.88807">
        <ele>7</ele>
        <time>2014-03-29T09:40:32Z</time>
      </trkpt>
      <trkpt lat="47.56281" lon="-2.88814">
        <ele>7</ele>
        <time>2014-03-29T09:40:37Z</time>
      </trkpt>
      <trkpt lat="47.56283" lon="-2.88821">
        <ele>7</ele>
        <time>2014-03-29T09:40:43Z</time>
      </trkpt>
      <trkpt lat="47.56283" lon="-2.88828">
        <ele>7</ele>
        <time>2014-03-29T09:40:48Z</time>
      </trkpt>
      <trkpt lat="47.56286" lon="-2.88834">
        <time>2014-03-29T09:40:57Z</time>
      </trkpt>
      <trkpt lat="47.56291" lon="-2.88835">
        <time>2014-03-29T09:41:17Z</time>
      </trkpt>
      <trkpt lat="47.56295" lon="-2.88839">
        <time>2014-03-29T09:41:20Z</time>
      </trkpt>
      <trkpt lat="47.56299" lon="-2.88842">
        <time>2014-03-29T09:41:24Z</time>
      </trkpt>
      <trkpt lat="47.56305" lon="-2.88844">
        <time>2014-03-29T09:41:29Z</time>
      </trkpt>
      <trkpt lat="47.56309" lon="-2.88846">
        <time>2014-03-29T09:41:36Z</time>
      </trkpt>
      <trkpt lat="47.56314" lon="-2.88846">
        <time>2014-03-29T09:41:44Z</time>
      </trkpt>
      <trkpt lat="47.56318" lon="-2.88845">
        <time>2014-03-29T09:41:54Z</time>
      </trkpt>
      <trkpt lat="47.56323" lon="-2.88844">
        <time>2014-03-29T09:42:19Z</time>
      </trkpt>
      <trkpt lat="47.56329" lon="-2.88845">
        <time>2014-03-29T09:42:25Z</time>
      </trkpt>
      <trkpt lat="47.56333" lon="-2.88843">
        <time>2014-03-29T09:42:30Z</time>
      </trkpt>
      <trkpt lat="47.56338" lon="-2.88839">
        <time>2014-03-29T09:42:34Z</time>
      </trkpt>
      <trkpt lat="47.56343" lon="-2.88835">
        <time>2014-03-29T09:42:38Z</time>
      </trkpt>
      <trkpt lat="47.56347" lon="-2.88831">
        <ele>7</ele>
        <time>2014-03-29T09:42:40Z</time>
      </trkpt>
      <trkpt lat="47.56352" lon="-2.88826">
        <ele>7</ele>
        <time>2014-03-29T09:42:44Z</time>
      </trkpt>
      <trkpt lat="47.56357" lon="-2.88821">
        <ele>7</ele>
        <time>2014-03-29T09:42:47Z</time>
      </trkpt>
      <trkpt lat="47.56362" lon="-2.88817">
        <ele>7</ele>
        <time>2014-03-29T09:42:49Z</time>
      </trkpt>
      <trkpt lat="47.56367" lon="-2.88812">
        <ele>7</ele>
        <time>2014-03-29T09:42:53Z</time>
      </trkpt>
      <trkpt lat="47.56372" lon="-2.88807">
        <ele>7</ele>
        <time>2014-03-29T09:42:56Z</time>
      </trkpt>
      <trkpt lat="47.56377" lon="-2.88802">
        <ele>7</ele>
        <time>2014-03-29T09:42:59Z</time>
      </trkpt>
      <trkpt lat="47.56383" lon="-2.88795">
        <ele>7</ele>
        <time>2014-03-29T09:43:02Z</time>
      </trkpt>
      <trkpt lat="47.56387" lon="-2.88789">
        <ele>7</ele>
        <time>2014-03-29T09:43:05Z</time>
      </trkpt>
      <trkpt lat="47.56391" lon="-2.88783">
        <ele>7</ele>
        <time>2014-03-29T09:43:09Z</time>
      </trkpt>
      <trkpt lat="47.56395" lon="-2.88777">
        <ele>7</ele>
        <time>2014-03-29T09:43:11Z</time>
      </trkpt>
      <trkpt lat="47.56399" lon="-2.88771">
        <ele>7</ele>
        <time>2014-03-29T09:43:15Z</time>
      </trkpt>
      <trkpt lat="47.56403" lon="-2.88765">
        <ele>7</ele>
        <time>2014-03-29T09:43:18Z</time>
      </trkpt>
      <trkpt lat="47.56409" lon="-2.88758">
        <ele>7</ele>
        <time>2014-03-29T09:43:21Z</time>
      </trkpt>
      <trkpt lat="47.56415" lon="-2.88752">
        <ele>7</ele>
        <time>2014-03-29T09:43:26Z</time>
      </trkpt>
      <trkpt lat="47.56419" lon="-2.88746">
        <ele>7</ele>
        <time>2014-03-29T09:43:29Z</time>
      </trkpt>
      <trkpt lat="47.56424" lon="-2.88739">
        <ele>7</ele>
        <time>2014-03-29T09:43:32Z</time>
      </trkpt>
      <trkpt lat="47.56429" lon="-2.88735">
        <ele>7</ele>
        <time>2014-03-29T09:43:36Z</time>
      </trkpt>
      <trkpt lat="47.56435" lon="-2.8873">
        <ele>7</ele>
        <time>2014-03-29T09:43:39Z</time>
      </trkpt>
      <trkpt lat="47.56439" lon="-2.88726">
        <ele>7</ele>
        <time>2014-03-29T09:43:43Z</time>
      </trkpt>
      <trkpt lat="47.56443" lon="-2.88721">
        <ele>7</ele>
        <time>2014-03-29T09:43:45Z</time>
      </trkpt>
      <trkpt lat="47.56446" lon="-2.88716">
        <ele>7</ele>
        <time>2014-03-29T09:43:49Z</time>
      </trkpt>
      <trkpt lat="47.56449" lon="-2.88711">
        <ele>7</ele>
        <time>2014-03-29T09:43:52Z</time>
      </trkpt>
      <trkpt lat="47.56453" lon="-2.88708">
        <ele>7</ele>
        <time>2014-03-29T09:43:55Z</time>
      </trkpt>
      <trkpt lat="47.56458" lon="-2.88703">
        <ele>7</ele>
        <time>2014-03-29T09:43:58Z</time>
      </trkpt>
      <trkpt lat="47.56462" lon="-2.88698">
        <ele>7</ele>
        <time>2014-03-29T09:44:03Z</time>
      </trkpt>
      <trkpt lat="47.56467" lon="-2.88694">
        <ele>7</ele>
        <time>2014-03-29T09:44:07Z</time>
      </trkpt>
      <trkpt lat="47.56472" lon="-2.88691">
        <ele>7</ele>
        <time>2014-03-29T09:44:11Z</time>
      </trkpt>
      <trkpt lat="47.56477" lon="-2.88692">
        <ele>7</ele>
        <time>2014-03-29T09:44:15Z</time>
      </trkpt>
      <trkpt lat="47.56482" lon="-2.88694">
        <ele>7</ele>
        <time>2014-03-29T09:44:18Z</time>
      </trkpt>
      <trkpt lat="47.56486" lon="-2.88698">
        <ele>7</ele>
        <time>2014-03-29T09:44:21Z</time>
      </trkpt>
      <trkpt lat="47.56488" lon="-2.88704">
        <ele>7</ele>
        <time>2014-03-29T09:44:24Z</time>
      </trkpt>
      <trkpt lat="47.56489" lon="-2.88712">
        <ele>7</ele>
        <time>2014-03-29T09:44:27Z</time>
      </trkpt>
      <trkpt lat="47.56489" lon="-2.8872">
        <ele>7</ele>
        <time>2014-03-29T09:44:30Z</time>
      </trkpt>
      <trkpt lat="47.56487" lon="-2.88727">
        <ele>7</ele>
        <time>2014-03-29T09:44:32Z</time>
      </trkpt>
      <trkpt lat="47.56486" lon="-2.88734">
        <ele>7</ele>
        <time>2014-03-29T09:44:34Z</time>
      </trkpt>
      <trkpt lat="47.56485" lon="-2.88741">
        <ele>7</ele>
        <time>2014-03-29T09:44:36Z</time>
      </trkpt>
      <trkpt lat="47.56484" lon="-2.88749">
        <ele>7</ele>
        <time>2014-03-29T09:44:38Z</time>
      </trkpt>
      <trkpt lat="47.56482" lon="-2.88756">
        <time>2014-03-29T09:44:40Z</time>
      </trkpt>
      <trkpt lat="47.56481" lon="-2.88764">
        <time>2014-03-29T09:44:42Z</time>
      </trkpt>
      <trkpt lat="47.5648" lon="-2.88772">
        <time>2014-03-29T09:44:44Z</time>
      </trkpt>
      <trkpt lat="47.56479" lon="-2.8878">
        <time>2014-03-29T09:44:46Z</time>
      </trkpt>
      <trkpt lat="47.56477" lon="-2.88789">
        <time>2014-03-29T09:44:48Z</time>
      </trkpt>
      <trkpt lat="47.56475" lon="-2.88797">
        <time>2014-03-29T09:44:50Z</time>
      </trkpt>
      <trkpt lat="47.56473" lon="-2.88804">
        <time>2014-03-29T09:44:52Z</time>
      </trkpt>
      <trkpt lat="47.56471" lon="-2.88812">
        <time>2014-03-29T09:44:54Z</time>
      </trkpt>
      <trkpt lat="47.56468" lon="-2.88819">
        <time>2014-03-29T09:44:56Z</time>
      </trkpt>
      <trkpt lat="47.56466" lon="-2.88827">
        <time>2014-03-29T09:44:58Z</time>
      </trkpt>
      <trkpt lat="47.56464" lon="-2.88836">
        <time>2014-03-29T09:45:00Z</time>
      </trkpt>
      <trkpt lat="47.56462" lon="-2.88844">
        <time>2014-03-29T09:45:02Z</time>
      </trkpt>
      <trkpt lat="47.5646" lon="-2.88852">
        <time>2014-03-29T09:45:04Z</time>
      </trkpt>
      <trkpt lat="47.56459" lon="-2.8886">
        <time>2014-03-29T09:45:06Z</time>
      </trkpt>
      <trkpt lat="47.56459" lon="-2.88867">
        <time>2014-03-29T09:45:08Z</time>
      </trkpt>
      <trkpt lat="47.5646" lon="-2.88874">
        <time>2014-03-29T09:45:10Z</time>
      </trkpt>
      <trkpt lat="47.56461" lon="-2.88881">
        <time>2014-03-29T09:45:12Z</time>
      </trkpt>
      <trkpt lat="47.56463" lon="-2.88889">
        <time>2014-03-29T09:45:15Z</time>
      </trkpt>
      <trkpt lat="47.56467" lon="-2.88896">
        <time>2014-03-29T09:45:19Z</time>
      </trkpt>
      <trkpt lat="47.56469" lon="-2.88902">
        <time>2014-03-29T09:45:22Z</time>
      </trkpt>
      <trkpt lat="47.56472" lon="-2.88909">
        <time>2014-03-29T09:45:25Z</time>
      </trkpt>
      <trkpt lat="47.56475" lon="-2.88916">
        <time>2014-03-29T09:45:28Z</time>
      </trkpt>
      <trkpt lat="47.56478" lon="-2.88922">
        <time>2014-03-29T09:45:31Z</time>
      </trkpt>
      <trkpt lat="47.56481" lon="-2.88929">
        <time>2014-03-29T09:45:34Z</time>
      </trkpt>
      <trkpt lat="47.56483" lon="-2.88936">
        <time>2014-03-29T09:45:37Z</time>
      </trkpt>
      <trkpt lat="47.56486" lon="-2.88941">
        <time>2014-03-29T09:45:40Z</time>
      </trkpt>
      <trkpt lat="47.56489" lon="-2.88947">
        <time>2014-03-29T09:45:43Z</time>
      </trkpt>
      <trkpt lat="47.56492" lon="-2.88953">
        <time>2014-03-29T09:45:46Z</time>
      </trkpt>
      <trkpt lat="47.56494" lon="-2.88958">
        <time>2014-03-29T09:45:49Z</time>
      </trkpt>
      <trkpt lat="47.56497" lon="-2.88963">
        <time>2014-03-29T09:45:52Z</time>
      </trkpt>
      <trkpt lat="47.565" lon="-2.88969">
        <ele>9</ele>
        <time>2014-03-29T09:45:55Z</time>
      </trkpt>
      <trkpt lat="47.56503" lon="-2.88974">
        <ele>9</ele>
        <time>2014-03-29T09:45:58Z</time>
      </trkpt>
      <trkpt lat="47.56508" lon="-2.8898">
        <ele>9</ele>
        <time>2014-03-29T09:46:02Z</time>
      </trkpt>
      <trkpt lat="47.56512" lon="-2.88983">
        <ele>9</ele>
        <time>2014-03-29T09:46:05Z</time>
      </trkpt>
      <trkpt lat="47.56517" lon="-2.88988">
        <ele>9</ele>
        <time>2014-03-29T09:46:08Z</time>
      </trkpt>
      <trkpt lat="47.56522" lon="-2.88993">
        <ele>9</ele>
        <time>2014-03-29T09:46:11Z</time>
      </trkpt>
      <trkpt lat="47.56527" lon="-2.88998">
        <ele>9</ele>
        <time>2014-03-29T09:46:14Z</time>
      </trkpt>
      <trkpt lat="47.56532" lon="-2.89002">
        <time>2014-03-29T09:46:17Z</time>
      </trkpt>
      <trkpt lat="47.56537" lon="-2.89005">
        <time>2014-03-29T09:46:20Z</time>
      </trkpt>
      <trkpt lat="47.56542" lon="-2.89008">
        <time>2014-03-29T09:46:23Z</time>
      </trkpt>
      <trkpt lat="47.56547" lon="-2.8901">
        <time>2014-03-29T09:46:26Z</time>
      </trkpt>
      <trkpt lat="47.56552" lon="-2.89013">
        <time>2014-03-29T09:46:29Z</time>
      </trkpt>
      <trkpt lat="47.56557" lon="-2.89015">
        <time>2014-03-29T09:46:32Z</time>
      </trkpt>
      <trkpt lat="47.56562" lon="-2.89016">
        <time>2014-03-29T09:46:35Z</time>
      </trkpt>
      <trkpt lat="47.56568" lon="-2.89018">
        <time>2014-03-29T09:46:38Z</time>
      </trkpt>
      <trkpt lat="47.56574" lon="-2.89019">
        <time>2014-03-29T09:46:41Z</time>
      </trkpt>
      <trkpt lat="47.5658" lon="-2.8902">
        <time>2014-03-29T09:46:44Z</time>
      </trkpt>
      <trkpt lat="47.56586" lon="-2.89021">
        <time>2014-03-29T09:46:47Z</time>
      </trkpt>
      <trkpt lat="47.56592" lon="-2.89023">
        <time>2014-03-29T09:46:50Z</time>
      </trkpt>
      <trkpt lat="47.56597" lon="-2.89025">
        <time>2014-03-29T09:46:53Z</time>
      </trkpt>
      <trkpt lat="47.56603" lon="-2.89027">
        <time>2014-03-29T09:46:56Z</time>
      </trkpt>
      <trkpt lat="47.56608" lon="-2.89029">
        <time>2014-03-29T09:46:59Z</time>
      </trkpt>
      <trkpt lat="47.56613" lon="-2.8903">
        <time>2014-03-29T09:47:02Z</time>
      </trkpt>
      <trkpt lat="47.56618" lon="-2.89031">
        <time>2014-03-29T09:47:05Z</time>
      </trkpt>
      <trkpt lat="47.56622" lon="-2.89032">
        <time>2014-03-29T09:47:08Z</time>
      </trkpt>
      <trkpt lat="47.56627" lon="-2.89034">
        <time>2014-03-29T09:47:11Z</time>
      </trkpt>
      <trkpt lat="47.56632" lon="-2.89036">
        <time>2014-03-29T09:47:14Z</time>
      </trkpt>
      <trkpt lat="47.56637" lon="-2.89038">
        <time>2014-03-29T09:47:17Z</time>
      </trkpt>
      <trkpt lat="47.56642" lon="-2.89039">
        <time>2014-03-29T09:47:20Z</time>
      </trkpt>
      <trkpt lat="47.56647" lon="-2.89039">
        <time>2014-03-29T09:47:23Z</time>
      </trkpt>
      <trkpt lat="47.56653" lon="-2.89038">
        <time>2014-03-29T09:47:26Z</time>
      </trkpt>
      <trkpt lat="47.56658" lon="-2.89038">
        <time>2014-03-29T09:47:29Z</time>
      </trkpt>
      <trkpt lat="47.56663" lon="-2.89039">
        <time>2014-03-29T09:47:32Z</time>
      </trkpt>
      <trkpt lat="47.56669" lon="-2.89039">
        <time>2014-03-29T09:47:35Z</time>
      </trkpt>
      <trkpt lat="47.56674" lon="-2.89038">
        <time>2014-03-29T09:47:38Z</time>
      </trkpt>
      <trkpt lat="47.56679" lon="-2.89037">
        <time>2014-03-29T09:47:41Z</time>
      </trkpt>
      <trkpt lat="47.56684" lon="-2.89035">
        <time>2014-03-29T09:47:44Z</time>
      </trkpt>
      <trkpt lat="47.56689" lon="-2.89033">
        <time>2014-03-29T09:47:47Z</time>
      </trkpt>
      <trkpt lat="47.56694" lon="-2.8903">
        <time>2014-03-29T09:47:50Z</time>
      </trkpt>
      <trkpt lat="47.56699" lon="-2.89027">
        <time>2014-03-29T09:47:53Z</time>
      </trkpt>
      <trkpt lat="47.56704" lon="-2.89022">
        <time>2014-03-29T09:47:56Z</time>
      </trkpt>
      <trkpt lat="47.56709" lon="-2.89018">
        <time>2014-03-29T09:47:59Z</time>
      </trkpt>
      <trkpt lat="47.56714" lon="-2.89014">
        <time>2014-03-29T09:48:02Z</time>
      </trkpt>
      <trkpt lat="47.5672" lon="-2.89011">
        <time>2014-03-29T09:48:05Z</time>
      </trkpt>
      <trkpt lat="47.56726" lon="-2.89008">
        <time>2014-03-29T09:48:08Z</time>
      </trkpt>
      <trkpt lat="47.56731" lon="-2.89004">
        <time>2014-03-29T09:48:11Z</time>
      </trkpt>
      <trkpt lat="47.56737" lon="-2.89">
        <time>2014-03-29T09:48:14Z</time>
      </trkpt>
      <trkpt lat="47.56742" lon="-2.88996">
        <ele>11</ele>
        <time>2014-03-29T09:48:17Z</time>
      </trkpt>
      <trkpt lat="47.56748" lon="-2.88993">
        <ele>11</ele>
        <time>2014-03-29T09:48:20Z</time>
      </trkpt>
      <trkpt lat="47.56753" lon="-2.88989">
        <time>2014-03-29T09:48:23Z</time>
      </trkpt>
      <trkpt lat="47.56758" lon="-2.88985">
        <time>2014-03-29T09:48:26Z</time>
      </trkpt>
      <trkpt lat="47.56762" lon="-2.8898">
        <time>2014-03-29T09:48:29Z</time>
      </trkpt>
      <trkpt lat="47.56767" lon="-2.88977">
        <time>2014-03-29T09:48:32Z</time>
      </trkpt>
      <trkpt lat="47.56773" lon="-2.88974">
        <time>2014-03-29T09:48:35Z</time>
      </trkpt>
      <trkpt lat="47.56778" lon="-2.88971">
        <time>2014-03-29T09:48:38Z</time>
      </trkpt>
      <trkpt lat="47.56783" lon="-2.88968">
        <time>2014-03-29T09:48:41Z</time>
      </trkpt>
      <trkpt lat="47.56789" lon="-2.88965">
        <time>2014-03-29T09:48:44Z</time>
      </trkpt>
      <trkpt lat="47.56794" lon="-2.88961">
        <time>2014-03-29T09:48:47Z</time>
      </trkpt>
      <trkpt lat="47.56799" lon="-2.88957">
        <time>2014-03-29T09:48:50Z</time>
      </trkpt>
      <trkpt lat="47.56804" lon="-2.88952">
        <time>2014-03-29T09:48:53Z</time>
      </trkpt>
      <trkpt lat="47.56809" lon="-2.88948">
        <time>2014-03-29T09:48:56Z</time>
      </trkpt>
      <trkpt lat="47.56814" lon="-2.88945">
        <time>2014-03-29T09:48:59Z</time>
      </trkpt>
      <trkpt lat="47.5682" lon="-2.88942">
        <time>2014-03-29T09:49:02Z</time>
      </trkpt>
      <trkpt lat="47.56826" lon="-2.8894">
        <time>2014-03-29T09:49:05Z</time>
      </trkpt>
      <trkpt lat="47.56832" lon="-2.88938">
        <time>2014-03-29T09:49:08Z</time>
      </trkpt>
      <trkpt lat="47.56839" lon="-2.88936">
        <time>2014-03-29T09:49:11Z</time>
      </trkpt>
      <trkpt lat="47.56845" lon="-2.88934">
        <time>2014-03-29T09:49:14Z</time>
      </trkpt>
      <trkpt lat="47.56851" lon="-2.88932">
        <time>2014-03-29T09:49:17Z</time>
      </trkpt>
      <trkpt lat="47.56857" lon="-2.8893">
        <time>2014-03-29T09:49:20Z</time>
      </trkpt>
      <trkpt lat="47.56863" lon="-2.88928">
        <time>2014-03-29T09:49:23Z</time>
      </trkpt>
      <trkpt lat="47.5687" lon="-2.88928">
        <time>2014-03-29T09:49:26Z</time>
      </trkpt>
      <trkpt lat="47.56876" lon="-2.88928">
        <time>2014-03-29T09:49:29Z</time>
      </trkpt>
      <trkpt lat="47.56882" lon="-2.88928">
        <time>2014-03-29T09:49:32Z</time>
      </trkpt>
      <trkpt lat="47.56888" lon="-2.88927">
        <time>2014-03-29T09:49:35Z</time>
      </trkpt>
      <trkpt lat="47.56894" lon="-2.88927">
        <time>2014-03-29T09:49:38Z</time>
      </trkpt>
      <trkpt lat="47.56901" lon="-2.88927">
        <time>2014-03-29T09:49:41Z</time>
      </trkpt>
      <trkpt lat="47.56907" lon="-2.88927">
        <time>2014-03-29T09:49:44Z</time>
      </trkpt>
      <trkpt lat="47.56912" lon="-2.88926">
        <time>2014-03-29T09:49:47Z</time>
      </trkpt>
      <trkpt lat="47.56918" lon="-2.88926">
        <time>2014-03-29T09:49:50Z</time>
      </trkpt>
      <trkpt lat="47.56924" lon="-2.88926">
        <time>2014-03-29T09:49:53Z</time>
      </trkpt>
      <trkpt lat="47.5693" lon="-2.88926">
        <time>2014-03-29T09:49:56Z</time>
      </trkpt>
      <trkpt lat="47.56936" lon="-2.88926">
        <time>2014-03-29T09:49:59Z</time>
      </trkpt>
      <trkpt lat="47.56942" lon="-2.88925">
        <time>2014-03-29T09:50:02Z</time>
      </trkpt>
      <trkpt lat="47.56948" lon="-2.88925">
        <time>2014-03-29T09:50:05Z</time>
      </trkpt>
      <trkpt lat="47.56953" lon="-2.88924">
        <time>2014-03-29T09:50:08Z</time>
      </trkpt>
      <trkpt lat="47.56959" lon="-2.88924">
        <time>2014-03-29T09:50:11Z</time>
      </trkpt>
      <trkpt lat="47.56965" lon="-2.88922">
        <time>2014-03-29T09:50:14Z</time>
      </trkpt>
      <trkpt lat="47.56971" lon="-2.88921">
        <time>2014-03-29T09:50:17Z</time>
      </trkpt>
      <trkpt lat="47.56976" lon="-2.8892">
        <time>2014-03-29T09:50:20Z</time>
      </trkpt>
      <trkpt lat="47.56981" lon="-2.8892">
        <time>2014-03-29T09:50:23Z</time>
      </trkpt>
      <trkpt lat="47.56986" lon="-2.88919">
        <time>2014-03-29T09:50:26Z</time>
      </trkpt>
      <trkpt lat="47.56991" lon="-2.88918">
        <time>2014-03-29T09:50:29Z</time>
      </trkpt>
      <trkpt lat="47.56997" lon="-2.88916">
        <ele>4</ele>
        <time>2014-03-29T09:50:32Z</time>
      </trkpt>
      <trkpt lat="47.57002" lon="-2.88915">
        <ele>5</ele>
        <time>2014-03-29T09:50:35Z</time>
      </trkpt>
      <trkpt lat="47.57007" lon="-2.88913">
        <ele>5</ele>
        <time>2014-03-29T09:50:38Z</time>
      </trkpt>
      <trkpt lat="47.57012" lon="-2.88911">
        <ele>5</ele>
        <time>2014-03-29T09:50:41Z</time>
      </trkpt>
      <trkpt lat="47.57017" lon="-2.88909">
        <ele>5</ele>
        <time>2014-03-29T09:50:44Z</time>
      </trkpt>
      <trkpt lat="47.57023" lon="-2.88907">
        <ele>5</ele>
        <time>2014-03-29T09:50:47Z</time>
      </trkpt>
      <trkpt lat="47.57028" lon="-2.88905">
        <ele>5</ele>
        <time>2014-03-29T09:50:50Z</time>
      </trkpt>
      <trkpt lat="47.57034" lon="-2.88904">
        <ele>5</ele>
        <time>2014-03-29T09:50:53Z</time>
      </trkpt>
      <trkpt lat="47.5704" lon="-2.88903">
        <ele>5</ele>
        <time>2014-03-29T09:50:56Z</time>
      </trkpt>
      <trkpt lat="47.57047" lon="-2.88902">
        <ele>5</ele>
        <time>2014-03-29T09:50:59Z</time>
      </trkpt>
      <trkpt lat="47.57052" lon="-2.88901">
        <ele>5</ele>
        <time>2014-03-29T09:51:01Z</time>
      </trkpt>
      <trkpt lat="47.57058" lon="-2.88901">
        <ele>5</ele>
        <time>2014-03-29T09:51:04Z</time>
      </trkpt>
      <trkpt lat="47.57064" lon="-2.889">
        <ele>5</ele>
        <time>2014-03-29T09:51:07Z</time>
      </trkpt>
      <trkpt lat="47.57071" lon="-2.889">
        <ele>5</ele>
        <time>2014-03-29T09:51:10Z</time>
      </trkpt>
      <trkpt lat="47.57078" lon="-2.889">
        <ele>5</ele>
        <time>2014-03-29T09:51:13Z</time>
      </trkpt>
      <trkpt lat="47.57084" lon="-2.889">
        <ele>6</ele>
        <time>2014-03-29T09:51:16Z</time>
      </trkpt>
      <trkpt lat="47.5709" lon="-2.88899">
        <ele>6</ele>
        <time>2014-03-29T09:51:19Z</time>
      </trkpt>
      <trkpt lat="47.57095" lon="-2.88899">
        <ele>6</ele>
        <time>2014-03-29T09:51:22Z</time>
      </trkpt>
      <trkpt lat="47.57101" lon="-2.88899">
        <ele>6</ele>
        <time>2014-03-29T09:51:25Z</time>
      </trkpt>
      <trkpt lat="47.57106" lon="-2.88899">
        <ele>6</ele>
        <time>2014-03-29T09:51:28Z</time>
      </trkpt>
      <trkpt lat="47.5711" lon="-2.889">
        <ele>6</ele>
        <time>2014-03-29T09:51:31Z</time>
      </trkpt>
      <trkpt lat="47.57116" lon="-2.88901">
        <ele>6</ele>
        <time>2014-03-29T09:51:35Z</time>
      </trkpt>
      <trkpt lat="47.57121" lon="-2.889">
        <ele>6</ele>
        <time>2014-03-29T09:51:39Z</time>
      </trkpt>
      <trkpt lat="47.57125" lon="-2.88897">
        <ele>6</ele>
        <time>2014-03-29T09:51:43Z</time>
      </trkpt>
      <trkpt lat="47.5713" lon="-2.88897">
        <ele>6</ele>
        <time>2014-03-29T09:51:48Z</time>
      </trkpt>
      <trkpt lat="47.57135" lon="-2.88896">
        <ele>6</ele>
        <time>2014-03-29T09:51:53Z</time>
      </trkpt>
      <trkpt lat="47.5714" lon="-2.88895">
        <ele>6</ele>
        <time>2014-03-29T09:51:57Z</time>
      </trkpt>
      <trkpt lat="47.57144" lon="-2.88893">
        <ele>6</ele>
        <time>2014-03-29T09:52:01Z</time>
      </trkpt>
      <trkpt lat="47.57149" lon="-2.88891">
        <ele>6</ele>
        <time>2014-03-29T09:52:06Z</time>
      </trkpt>
      <trkpt lat="47.57154" lon="-2.88889">
        <ele>6</ele>
        <time>2014-03-29T09:52:11Z</time>
      </trkpt>
      <trkpt lat="47.57159" lon="-2.88887">
        <ele>6</ele>
        <time>2014-03-29T09:52:15Z</time>
      </trkpt>
      <trkpt lat="47.57163" lon="-2.88885">
        <ele>6</ele>
        <time>2014-03-29T09:52:18Z</time>
      </trkpt>
      <trkpt lat="47.57168" lon="-2.88882">
        <time>2014-03-29T09:52:22Z</time>
      </trkpt>
      <trkpt lat="47.57172" lon="-2.88878">
        <time>2014-03-29T09:52:27Z</time>
      </trkpt>
      <trkpt lat="47.57177" lon="-2.88873">
        <time>2014-03-29T09:52:32Z</time>
      </trkpt>
      <trkpt lat="47.5718" lon="-2.88868">
        <time>2014-03-29T09:52:36Z</time>
      </trkpt>
      <trkpt lat="47.57184" lon="-2.88863">
        <time>2014-03-29T09:52:40Z</time>
      </trkpt>
      <trkpt lat="47.57189" lon="-2.88859">
        <ele>6</ele>
        <time>2014-03-29T09:52:44Z</time>
      </trkpt>
      <trkpt lat="47.57193" lon="-2.88854">
        <ele>6</ele>
        <time>2014-03-29T09:52:48Z</time>
      </trkpt>
      <trkpt lat="47.57197" lon="-2.8885">
        <time>2014-03-29T09:52:52Z</time>
      </trkpt>
      <trkpt lat="47.57201" lon="-2.88844">
        <time>2014-03-29T09:52:56Z</time>
      </trkpt>
      <trkpt lat="47.57204" lon="-2.88838">
        <time>2014-03-29T09:52:59Z</time>
      </trkpt>
      <trkpt lat="47.57206" lon="-2.88832">
        <ele>9</ele>
        <time>2014-03-29T09:53:02Z</time>
      </trkpt>
      <trkpt lat="47.57208" lon="-2.88824">
        <ele>9</ele>
        <time>2014-03-29T09:53:06Z</time>
      </trkpt>
      <trkpt lat="47.5721" lon="-2.88818">
        <ele>9</ele>
        <time>2014-03-29T09:53:11Z</time>
      </trkpt>
      <trkpt lat="47.57208" lon="-2.88811">
        <ele>9</ele>
        <time>2014-03-29T09:53:21Z</time>
      </trkpt>
      <trkpt lat="47.57209" lon="-2.88803">
        <ele>9</ele>
        <time>2014-03-29T09:53:27Z</time>
      </trkpt>
      <trkpt lat="47.57209" lon="-2.88796">
        <ele>9</ele>
        <time>2014-03-29T09:53:32Z</time>
      </trkpt>
      <trkpt lat="47.57209" lon="-2.8879">
        <ele>9</ele>
        <time>2014-03-29T09:53:36Z</time>
      </trkpt>
      <trkpt lat="47.57208" lon="-2.88782">
        <ele>9</ele>
        <time>2014-03-29T09:53:39Z</time>
      </trkpt>
      <trkpt lat="47.57208" lon="-2.88774">
        <ele>9</ele>
        <time>2014-03-29T09:53:42Z</time>
      </trkpt>
      <trkpt lat="47.57207" lon="-2.88765">
        <ele>9</ele>
        <time>2014-03-29T09:53:45Z</time>
      </trkpt>
      <trkpt lat="47.57208" lon="-2.88755">
        <ele>9</ele>
        <time>2014-03-29T09:53:48Z</time>
      </trkpt>
      <trkpt lat="47.57208" lon="-2.88746">
        <ele>9</ele>
        <time>2014-03-29T09:53:51Z</time>
      </trkpt>
      <trkpt lat="47.57209" lon="-2.88739">
        <ele>9</ele>
        <time>2014-03-29T09:53:54Z</time>
      </trkpt>
      <trkpt lat="47.57212" lon="-2.88733">
        <ele>9</ele>
        <time>2014-03-29T09:54:06Z</time>
      </trkpt>
      <trkpt lat="47.57215" lon="-2.88728">
        <ele>9</ele>
        <time>2014-03-29T09:54:24Z</time>
      </trkpt>
      <trkpt lat="47.57212" lon="-2.88733">
        <ele>9</ele>
        <time>2014-03-29T09:55:46Z</time>
      </trkpt>
      <trkpt lat="47.57209" lon="-2.88726">
        <ele>9</ele>
        <time>2014-03-29T09:57:05Z</time>
      </trkpt>
      <trkpt lat="47.57209" lon="-2.88719">
        <ele>9</ele>
        <time>2014-03-29T09:57:09Z</time>
      </trkpt>
      <trkpt lat="47.57209" lon="-2.8871">
        <ele>9</ele>
        <time>2014-03-29T09:57:13Z</time>
      </trkpt>
      <trkpt lat="47.57207" lon="-2.88703">
        <ele>9</ele>
        <time>2014-03-29T09:57:17Z</time>
      </trkpt>
      <trkpt lat="47.57205" lon="-2.88696">
        <ele>9</ele>
        <time>2014-03-29T09:57:22Z</time>
      </trkpt>
      <trkpt lat="47.572" lon="-2.88693">
        <ele>9</ele>
        <time>2014-03-29T09:57:30Z</time>
      </trkpt>
      <trkpt lat="47.57196" lon="-2.88692">
        <ele>9</ele>
        <time>2014-03-29T09:57:33Z</time>
      </trkpt>
      <trkpt lat="47.5719" lon="-2.8869">
        <ele>9</ele>
        <time>2014-03-29T09:57:36Z</time>
      </trkpt>
      <trkpt lat="47.57185" lon="-2.88688">
        <ele>9</ele>
        <time>2014-03-29T09:57:39Z</time>
      </trkpt>
      <trkpt lat="47.5718" lon="-2.88684">
        <ele>9</ele>
        <time>2014-03-29T09:57:43Z</time>
      </trkpt>
      <trkpt lat="47.57176" lon="-2.88681">
        <ele>9</ele>
        <time>2014-03-29T09:57:52Z</time>
      </trkpt>
      <trkpt lat="47.57181" lon="-2.88682">
        <ele>9</ele>
        <time>2014-03-29T10:01:21Z</time>
      </trkpt>
      <trkpt lat="47.57185" lon="-2.8868">
        <ele>9</ele>
        <time>2014-03-29T10:01:24Z</time>
      </trkpt>
      <trkpt lat="47.57191" lon="-2.88679">
        <ele>9</ele>
        <time>2014-03-29T10:01:27Z</time>
      </trkpt>
      <trkpt lat="47.57197" lon="-2.88678">
        <ele>9</ele>
        <time>2014-03-29T10:01:30Z</time>
      </trkpt>
      <trkpt lat="47.57202" lon="-2.88677">
        <ele>9</ele>
        <time>2014-03-29T10:01:32Z</time>
      </trkpt>
      <trkpt lat="47.57208" lon="-2.88676">
        <ele>9</ele>
        <time>2014-03-29T10:01:34Z</time>
      </trkpt>
      <trkpt lat="47.57214" lon="-2.88677">
        <ele>9</ele>
        <time>2014-03-29T10:01:36Z</time>
      </trkpt>
      <trkpt lat="47.5722" lon="-2.88678">
        <ele>9</ele>
        <time>2014-03-29T10:01:38Z</time>
      </trkpt>
      <trkpt lat="47.57227" lon="-2.8868">
        <ele>9</ele>
        <time>2014-03-29T10:01:40Z</time>
      </trkpt>
      <trkpt lat="47.57232" lon="-2.88681">
        <ele>9</ele>
        <time>2014-03-29T10:01:42Z</time>
      </trkpt>
      <trkpt lat="47.57237" lon="-2.88681">
        <ele>9</ele>
        <time>2014-03-29T10:01:44Z</time>
      </trkpt>
      <trkpt lat="47.57242" lon="-2.88682">
        <ele>9</ele>
        <time>2014-03-29T10:01:46Z</time>
      </trkpt>
      <trkpt lat="47.57247" lon="-2.88682">
        <ele>9</ele>
        <time>2014-03-29T10:01:48Z</time>
      </trkpt>
      <trkpt lat="47.57253" lon="-2.88683">
        <time>2014-03-29T10:01:51Z</time>
      </trkpt>
      <trkpt lat="47.57259" lon="-2.88684">
        <time>2014-03-29T10:01:54Z</time>
      </trkpt>
      <trkpt lat="47.57265" lon="-2.88684">
        <time>2014-03-29T10:01:57Z</time>
      </trkpt>
      <trkpt lat="47.5727" lon="-2.88684">
        <time>2014-03-29T10:02:00Z</time>
      </trkpt>
      <trkpt lat="47.57275" lon="-2.88683">
        <time>2014-03-29T10:02:03Z</time>
      </trkpt>
      <trkpt lat="47.5728" lon="-2.88683">
        <time>2014-03-29T10:02:06Z</time>
      </trkpt>
      <trkpt lat="47.57286" lon="-2.88684">
        <time>2014-03-29T10:02:09Z</time>
      </trkpt>
      <trkpt lat="47.57291" lon="-2.88684">
        <time>2014-03-29T10:02:12Z</time>
      </trkpt>
      <trkpt lat="47.57296" lon="-2.88684">
        <time>2014-03-29T10:02:15Z</time>
      </trkpt>
      <trkpt lat="47.573" lon="-2.88684">
        <time>2014-03-29T10:02:18Z</time>
      </trkpt>
      <trkpt lat="47.57306" lon="-2.88683">
        <time>2014-03-29T10:02:22Z</time>
      </trkpt>
      <trkpt lat="47.57311" lon="-2.88682">
        <time>2014-03-29T10:02:26Z</time>
      </trkpt>
      <trkpt lat="47.57317" lon="-2.88681">
        <time>2014-03-29T10:02:31Z</time>
      </trkpt>
      <trkpt lat="47.57322" lon="-2.88681">
        <time>2014-03-29T10:02:35Z</time>
      </trkpt>
      <trkpt lat="47.57328" lon="-2.8868">
        <time>2014-03-29T10:02:39Z</time>
      </trkpt>
      <trkpt lat="47.57332" lon="-2.88681">
        <time>2014-03-29T10:02:42Z</time>
      </trkpt>
      <trkpt lat="47.57337" lon="-2.88682">
        <time>2014-03-29T10:02:45Z</time>
      </trkpt>
      <trkpt lat="47.57343" lon="-2.88683">
        <time>2014-03-29T10:02:48Z</time>
      </trkpt>
      <trkpt lat="47.57349" lon="-2.88685">
        <time>2014-03-29T10:02:51Z</time>
      </trkpt>
      <trkpt lat="47.57354" lon="-2.88687">
        <time>2014-03-29T10:02:54Z</time>
      </trkpt>
      <trkpt lat="47.57359" lon="-2.88688">
        <time>2014-03-29T10:02:57Z</time>
      </trkpt>
      <trkpt lat="47.57365" lon="-2.8869">
        <time>2014-03-29T10:03:00Z</time>
      </trkpt>
      <trkpt lat="47.5737" lon="-2.88692">
        <time>2014-03-29T10:03:03Z</time>
      </trkpt>
      <trkpt lat="47.57376" lon="-2.88694">
        <time>2014-03-29T10:03:06Z</time>
      </trkpt>
      <trkpt lat="47.57381" lon="-2.88695">
        <time>2014-03-29T10:03:09Z</time>
      </trkpt>
      <trkpt lat="47.57386" lon="-2.88695">
        <time>2014-03-29T10:03:12Z</time>
      </trkpt>
      <trkpt lat="47.5739" lon="-2.88696">
        <time>2014-03-29T10:03:15Z</time>
      </trkpt>
      <trkpt lat="47.57395" lon="-2.88697">
        <time>2014-03-29T10:03:19Z</time>
      </trkpt>
      <trkpt lat="47.574" lon="-2.88695">
        <time>2014-03-29T10:03:25Z</time>
      </trkpt>
      <trkpt lat="47.57405" lon="-2.88692">
        <time>2014-03-29T10:03:32Z</time>
      </trkpt>
      <trkpt lat="47.5741" lon="-2.88691">
        <time>2014-03-29T10:03:39Z</time>
      </trkpt>
      <trkpt lat="47.57415" lon="-2.88692">
        <time>2014-03-29T10:03:44Z</time>
      </trkpt>
      <trkpt lat="47.5742" lon="-2.88694">
        <time>2014-03-29T10:03:48Z</time>
      </trkpt>
      <trkpt lat="47.57424" lon="-2.88696">
        <time>2014-03-29T10:03:52Z</time>
      </trkpt>
      <trkpt lat="47.57429" lon="-2.88698">
        <time>2014-03-29T10:03:57Z</time>
      </trkpt>
      <trkpt lat="47.57433" lon="-2.887">
        <time>2014-03-29T10:04:02Z</time>
      </trkpt>
      <trkpt lat="47.57439" lon="-2.88702">
        <time>2014-03-29T10:04:07Z</time>
      </trkpt>
      <trkpt lat="47.57444" lon="-2.88706">
        <time>2014-03-29T10:04:11Z</time>
      </trkpt>
      <trkpt lat="47.57448" lon="-2.88708">
        <time>2014-03-29T10:04:15Z</time>
      </trkpt>
      <trkpt lat="47.57453" lon="-2.8871">
        <time>2014-03-29T10:04:20Z</time>
      </trkpt>
      <trkpt lat="47.57458" lon="-2.88709">
        <time>2014-03-29T10:04:25Z</time>
      </trkpt>
      <trkpt lat="47.57463" lon="-2.88708">
        <time>2014-03-29T10:04:30Z</time>
      </trkpt>
      <trkpt lat="47.57468" lon="-2.88708">
        <time>2014-03-29T10:04:36Z</time>
      </trkpt>
      <trkpt lat="47.57473" lon="-2.8871">
        <time>2014-03-29T10:04:41Z</time>
      </trkpt>
      <trkpt lat="47.57478" lon="-2.88712">
        <time>2014-03-29T10:04:45Z</time>
      </trkpt>
      <trkpt lat="47.57483" lon="-2.88715">
        <time>2014-03-29T10:04:50Z</time>
      </trkpt>
      <trkpt lat="47.57487" lon="-2.88718">
        <time>2014-03-29T10:04:56Z</time>
      </trkpt>
      <trkpt lat="47.57492" lon="-2.8872">
        <time>2014-03-29T10:05:01Z</time>
      </trkpt>
      <trkpt lat="47.57497" lon="-2.88723">
        <time>2014-03-29T10:05:06Z</time>
      </trkpt>
      <trkpt lat="47.57502" lon="-2.88726">
        <time>2014-03-29T10:05:11Z</time>
      </trkpt>
      <trkpt lat="47.57506" lon="-2.88729">
        <time>2014-03-29T10:05:15Z</time>
      </trkpt>
      <trkpt lat="47.57511" lon="-2.88732">
        <time>2014-03-29T10:05:20Z</time>
      </trkpt>
      <trkpt lat="47.57516" lon="-2.88733">
        <time>2014-03-29T10:05:25Z</time>
      </trkpt>
      <trkpt lat="47.5752" lon="-2.88733">
        <time>2014-03-29T10:05:31Z</time>
      </trkpt>
      <trkpt lat="47.57525" lon="-2.8873">
        <time>2014-03-29T10:05:38Z</time>
      </trkpt>
      <trkpt lat="47.5753" lon="-2.88728">
        <time>2014-03-29T10:05:45Z</time>
      </trkpt>
      <trkpt lat="47.57535" lon="-2.88727">
        <time>2014-03-29T10:05:52Z</time>
      </trkpt>
      <trkpt lat="47.5754" lon="-2.88729">
        <time>2014-03-29T10:05:57Z</time>
      </trkpt>
      <trkpt lat="47.57545" lon="-2.88733">
        <time>2014-03-29T10:06:02Z</time>
      </trkpt>
      <trkpt lat="47.5755" lon="-2.88736">
        <time>2014-03-29T10:06:06Z</time>
      </trkpt>
      <trkpt lat="47.57555" lon="-2.88738">
        <time>2014-03-29T10:06:11Z</time>
      </trkpt>
      <trkpt lat="47.5756" lon="-2.8874">
        <time>2014-03-29T10:06:15Z</time>
      </trkpt>
      <trkpt lat="47.57565" lon="-2.8874">
        <time>2014-03-29T10:06:20Z</time>
      </trkpt>
      <trkpt lat="47.57569" lon="-2.88739">
        <time>2014-03-29T10:06:26Z</time>
      </trkpt>
      <trkpt lat="47.57574" lon="-2.88738">
        <time>2014-03-29T10:06:31Z</time>
      </trkpt>
      <trkpt lat="47.57579" lon="-2.88736">
        <time>2014-03-29T10:06:37Z</time>
      </trkpt>
      <trkpt lat="47.57584" lon="-2.88735">
        <time>2014-03-29T10:06:42Z</time>
      </trkpt>
      <trkpt lat="47.5759" lon="-2.88735">
        <time>2014-03-29T10:06:46Z</time>
      </trkpt>
      <trkpt lat="47.57594" lon="-2.88736">
        <time>2014-03-29T10:06:50Z</time>
      </trkpt>
      <trkpt lat="47.57599" lon="-2.88736">
        <time>2014-03-29T10:06:55Z</time>
      </trkpt>
      <trkpt lat="47.57604" lon="-2.88735">
        <time>2014-03-29T10:06:59Z</time>
      </trkpt>
      <trkpt lat="47.57609" lon="-2.88735">
        <time>2014-03-29T10:07:03Z</time>
      </trkpt>
      <trkpt lat="47.57614" lon="-2.88734">
        <time>2014-03-29T10:07:07Z</time>
      </trkpt>
      <trkpt lat="47.57619" lon="-2.88733">
        <time>2014-03-29T10:07:11Z</time>
      </trkpt>
      <trkpt lat="47.57624" lon="-2.88731">
        <time>2014-03-29T10:07:15Z</time>
      </trkpt>
      <trkpt lat="47.57628" lon="-2.88728">
        <time>2014-03-29T10:07:19Z</time>
      </trkpt>
      <trkpt lat="47.57633" lon="-2.88727">
        <time>2014-03-29T10:07:23Z</time>
      </trkpt>
      <trkpt lat="47.57638" lon="-2.88728">
        <time>2014-03-29T10:07:26Z</time>
      </trkpt>
      <trkpt lat="47.57643" lon="-2.88726">
        <time>2014-03-29T10:07:30Z</time>
      </trkpt>
      <trkpt lat="47.57649" lon="-2.88724">
        <time>2014-03-29T10:07:34Z</time>
      </trkpt>
      <trkpt lat="47.57654" lon="-2.88722">
        <time>2014-03-29T10:07:37Z</time>
      </trkpt>
      <trkpt lat="47.57659" lon="-2.88719">
        <time>2014-03-29T10:07:40Z</time>
      </trkpt>
      <trkpt lat="47.57663" lon="-2.88716">
        <time>2014-03-29T10:07:43Z</time>
      </trkpt>
      <trkpt lat="47.57667" lon="-2.88712">
        <ele>8</ele>
        <time>2014-03-29T10:07:46Z</time>
      </trkpt>
      <trkpt lat="47.57671" lon="-2.88707">
        <ele>8</ele>
        <time>2014-03-29T10:07:49Z</time>
      </trkpt>
      <trkpt lat="47.57674" lon="-2.88703">
        <ele>8</ele>
        <time>2014-03-29T10:07:52Z</time>
      </trkpt>
      <trkpt lat="47.57678" lon="-2.88698">
        <ele>8</ele>
        <time>2014-03-29T10:07:55Z</time>
      </trkpt>
      <trkpt lat="47.57681" lon="-2.88693">
        <ele>8</ele>
        <time>2014-03-29T10:07:58Z</time>
      </trkpt>
      <trkpt lat="47.57685" lon="-2.88688">
        <ele>8</ele>
        <time>2014-03-29T10:08:01Z</time>
      </trkpt>
      <trkpt lat="47.57689" lon="-2.88683">
        <ele>8</ele>
        <time>2014-03-29T10:08:04Z</time>
      </trkpt>
      <trkpt lat="47.57693" lon="-2.88679">
        <ele>8</ele>
        <time>2014-03-29T10:08:07Z</time>
      </trkpt>
      <trkpt lat="47.57698" lon="-2.88676">
        <ele>8</ele>
        <time>2014-03-29T10:08:10Z</time>
      </trkpt>
      <trkpt lat="47.57703" lon="-2.88672">
        <ele>8</ele>
        <time>2014-03-29T10:08:13Z</time>
      </trkpt>
      <trkpt lat="47.57707" lon="-2.88669">
        <ele>8</ele>
        <time>2014-03-29T10:08:16Z</time>
      </trkpt>
      <trkpt lat="47.57712" lon="-2.88666">
        <time>2014-03-29T10:08:19Z</time>
      </trkpt>
      <trkpt lat="47.57716" lon="-2.88663">
        <time>2014-03-29T10:08:22Z</time>
      </trkpt>
      <trkpt lat="47.5772" lon="-2.88659">
        <time>2014-03-29T10:08:25Z</time>
      </trkpt>
      <trkpt lat="47.57724" lon="-2.88653">
        <time>2014-03-29T10:08:29Z</time>
      </trkpt>
      <trkpt lat="47.57728" lon="-2.88646">
        <time>2014-03-29T10:08:33Z</time>
      </trkpt>
      <trkpt lat="47.57731" lon="-2.8864">
        <time>2014-03-29T10:08:37Z</time>
      </trkpt>
      <trkpt lat="47.57733" lon="-2.88633">
        <time>2014-03-29T10:08:43Z</time>
      </trkpt>
      <trkpt lat="47.57737" lon="-2.88633">
        <time>2014-03-29T10:08:48Z</time>
      </trkpt>
      <trkpt lat="47.57744" lon="-2.88633">
        <time>2014-03-29T10:08:52Z</time>
      </trkpt>
      <trkpt lat="47.57748" lon="-2.88632">
        <time>2014-03-29T10:08:55Z</time>
      </trkpt>
      <trkpt lat="47.57753" lon="-2.8863">
        <ele>10</ele>
        <time>2014-03-29T10:08:58Z</time>
      </trkpt>
      <trkpt lat="47.57758" lon="-2.88628">
        <ele>10</ele>
        <time>2014-03-29T10:09:01Z</time>
      </trkpt>
      <trkpt lat="47.57763" lon="-2.88626">
        <ele>10</ele>
        <time>2014-03-29T10:09:04Z</time>
      </trkpt>
      <trkpt lat="47.57767" lon="-2.88623">
        <ele>10</ele>
        <time>2014-03-29T10:09:07Z</time>
      </trkpt>
      <trkpt lat="47.57772" lon="-2.8862">
        <ele>10</ele>
        <time>2014-03-29T10:09:10Z</time>
      </trkpt>
      <trkpt lat="47.57776" lon="-2.88617">
        <ele>10</ele>
        <time>2014-03-29T10:09:13Z</time>
      </trkpt>
      <trkpt lat="47.57781" lon="-2.88614">
        <ele>10</ele>
        <time>2014-03-29T10:09:17Z</time>
      </trkpt>
      <trkpt lat="47.57784" lon="-2.88608">
        <ele>10</ele>
        <time>2014-03-29T10:09:22Z</time>
      </trkpt>
      <trkpt lat="47.57788" lon="-2.88603">
        <ele>10</ele>
        <time>2014-03-29T10:09:27Z</time>
      </trkpt>
      <trkpt lat="47.57792" lon="-2.88599">
        <ele>10</ele>
        <time>2014-03-29T10:09:31Z</time>
      </trkpt>
      <trkpt lat="47.57797" lon="-2.88595">
        <ele>10</ele>
        <time>2014-03-29T10:09:35Z</time>
      </trkpt>
      <trkpt lat="47.57801" lon="-2.88591">
        <ele>10</ele>
        <time>2014-03-29T10:09:39Z</time>
      </trkpt>
      <trkpt lat="47.57805" lon="-2.88586">
        <ele>10</ele>
        <time>2014-03-29T10:09:44Z</time>
      </trkpt>
      <trkpt lat="47.57808" lon="-2.88582">
        <time>2014-03-29T10:09:51Z</time>
      </trkpt>
      <trkpt lat="47.57813" lon="-2.8858">
        <time>2014-03-29T10:09:57Z</time>
      </trkpt>
      <trkpt lat="47.57818" lon="-2.88578">
        <time>2014-03-29T10:10:05Z</time>
      </trkpt>
      <trkpt lat="47.5782" lon="-2.88572">
        <time>2014-03-29T10:10:50Z</time>
      </trkpt>
      <trkpt lat="47.57823" lon="-2.88567">
        <time>2014-03-29T10:14:51Z</time>
      </trkpt>
      <trkpt lat="47.57819" lon="-2.88566">
        <time>2014-03-29T10:15:15Z</time>
      </trkpt>
      <trkpt lat="47.57815" lon="-2.88561">
        <time>2014-03-29T10:15:22Z</time>
      </trkpt>
      <trkpt lat="47.57817" lon="-2.88553">
        <time>2014-03-29T10:15:50Z</time>
      </trkpt>
      <trkpt lat="47.57818" lon="-2.88546">
        <time>2014-03-29T10:15:55Z</time>
      </trkpt>
      <trkpt lat="47.57819" lon="-2.88538">
        <time>2014-03-29T10:16:00Z</time>
      </trkpt>
      <trkpt lat="47.5782" lon="-2.88531">
        <time>2014-03-29T10:16:05Z</time>
      </trkpt>
      <trkpt lat="47.57822" lon="-2.88525">
        <time>2014-03-29T10:16:13Z</time>
      </trkpt>
      <trkpt lat="47.57824" lon="-2.88518">
        <time>2014-03-29T10:17:14Z</time>
      </trkpt>
      <trkpt lat="47.57826" lon="-2.88511">
        <time>2014-03-29T10:17:26Z</time>
      </trkpt>
      <trkpt lat="47.57829" lon="-2.88506">
        <time>2014-03-29T10:17:30Z</time>
      </trkpt>
      <trkpt lat="47.57831" lon="-2.885">
        <time>2014-03-29T10:17:33Z</time>
      </trkpt>
      <trkpt lat="47.57835" lon="-2.88494">
        <ele>6</ele>
        <time>2014-03-29T10:17:36Z</time>
      </trkpt>
      <trkpt lat="47.5784" lon="-2.88489">
        <ele>6</ele>
        <time>2014-03-29T10:17:39Z</time>
      </trkpt>
      <trkpt lat="47.57844" lon="-2.88483">
        <ele>6</ele>
        <time>2014-03-29T10:17:42Z</time>
      </trkpt>
      <trkpt lat="47.57845" lon="-2.88477">
        <ele>6</ele>
        <time>2014-03-29T10:17:46Z</time>
      </trkpt>
      <trkpt lat="47.5785" lon="-2.88474">
        <ele>6</ele>
        <time>2014-03-29T10:17:51Z</time>
      </trkpt>
      <trkpt lat="47.57855" lon="-2.88473">
        <ele>6</ele>
        <time>2014-03-29T10:17:55Z</time>
      </trkpt>
      <trkpt lat="47.5786" lon="-2.88473">
        <ele>6</ele>
        <time>2014-03-29T10:17:58Z</time>
      </trkpt>
      <trkpt lat="47.57864" lon="-2.88472">
        <ele>6</ele>
        <time>2014-03-29T10:18:01Z</time>
      </trkpt>
      <trkpt lat="47.57869" lon="-2.8847">
        <ele>6</ele>
        <time>2014-03-29T10:18:04Z</time>
      </trkpt>
      <trkpt lat="47.57873" lon="-2.88469">
        <ele>6</ele>
        <time>2014-03-29T10:18:07Z</time>
      </trkpt>
      <trkpt lat="47.57878" lon="-2.88467">
        <ele>6</ele>
        <time>2014-03-29T10:18:10Z</time>
      </trkpt>
      <trkpt lat="47.57883" lon="-2.88465">
        <ele>6</ele>
        <time>2014-03-29T10:18:13Z</time>
      </trkpt>
      <trkpt lat="47.57887" lon="-2.88463">
        <ele>6</ele>
        <time>2014-03-29T10:18:16Z</time>
      </trkpt>
      <trkpt lat="47.57893" lon="-2.8846">
        <ele>6</ele>
        <time>2014-03-29T10:18:20Z</time>
      </trkpt>
      <trkpt lat="47.57898" lon="-2.88458">
        <ele>6</ele>
        <time>2014-03-29T10:18:24Z</time>
      </trkpt>
      <trkpt lat="47.57904" lon="-2.88456">
        <ele>6</ele>
        <time>2014-03-29T10:18:28Z</time>
      </trkpt>
      <trkpt lat="47.57909" lon="-2.88456">
        <ele>6</ele>
        <time>2014-03-29T10:18:32Z</time>
      </trkpt>
      <trkpt lat="47.57914" lon="-2.88456">
        <ele>6</ele>
        <time>2014-03-29T10:18:35Z</time>
      </trkpt>
      <trkpt lat="47.5792" lon="-2.88456">
        <ele>6</ele>
        <time>2014-03-29T10:18:39Z</time>
      </trkpt>
      <trkpt lat="47.57925" lon="-2.88456">
        <ele>6</ele>
        <time>2014-03-29T10:18:42Z</time>
      </trkpt>
      <trkpt lat="47.57929" lon="-2.88455">
        <ele>6</ele>
        <time>2014-03-29T10:18:45Z</time>
      </trkpt>
      <trkpt lat="47.57935" lon="-2.88453">
        <ele>6</ele>
        <time>2014-03-29T10:18:49Z</time>
      </trkpt>
      <trkpt lat="47.57941" lon="-2.88454">
        <ele>6</ele>
        <time>2014-03-29T10:18:53Z</time>
      </trkpt>
      <trkpt lat="47.57946" lon="-2.88455">
        <ele>6</ele>
        <time>2014-03-29T10:18:56Z</time>
      </trkpt>
      <trkpt lat="47.57951" lon="-2.88455">
        <ele>6</ele>
        <time>2014-03-29T10:18:59Z</time>
      </trkpt>
      <trkpt lat="47.57956" lon="-2.88455">
        <ele>6</ele>
        <time>2014-03-29T10:19:02Z</time>
      </trkpt>
      <trkpt lat="47.57961" lon="-2.88454">
        <ele>6</ele>
        <time>2014-03-29T10:19:05Z</time>
      </trkpt>
      <trkpt lat="47.57965" lon="-2.88452">
        <ele>6</ele>
        <time>2014-03-29T10:19:08Z</time>
      </trkpt>
      <trkpt lat="47.5797" lon="-2.8845">
        <ele>6</ele>
        <time>2014-03-29T10:19:11Z</time>
      </trkpt>
      <trkpt lat="47.57974" lon="-2.88447">
        <ele>6</ele>
        <time>2014-03-29T10:19:14Z</time>
      </trkpt>
      <trkpt lat="47.57979" lon="-2.88445">
        <ele>6</ele>
        <time>2014-03-29T10:19:18Z</time>
      </trkpt>
      <trkpt lat="47.57984" lon="-2.88445">
        <ele>6</ele>
        <time>2014-03-29T10:19:21Z</time>
      </trkpt>
      <trkpt lat="47.57989" lon="-2.88446">
        <ele>6</ele>
        <time>2014-03-29T10:19:24Z</time>
      </trkpt>
      <trkpt lat="47.57994" lon="-2.88447">
        <ele>6</ele>
        <time>2014-03-29T10:19:27Z</time>
      </trkpt>
      <trkpt lat="47.57999" lon="-2.88448">
        <ele>6</ele>
        <time>2014-03-29T10:19:31Z</time>
      </trkpt>
      <trkpt lat="47.58005" lon="-2.88448">
        <time>2014-03-29T10:19:35Z</time>
      </trkpt>
      <trkpt lat="47.5801" lon="-2.88448">
        <time>2014-03-29T10:19:38Z</time>
      </trkpt>
      <trkpt lat="47.58015" lon="-2.88449">
        <time>2014-03-29T10:19:41Z</time>
      </trkpt>
      <trkpt lat="47.5802" lon="-2.88449">
        <time>2014-03-29T10:19:44Z</time>
      </trkpt>
      <trkpt lat="47.58025" lon="-2.8845">
        <time>2014-03-29T10:19:47Z</time>
      </trkpt>
      <trkpt lat="47.58031" lon="-2.88449">
        <time>2014-03-29T10:19:51Z</time>
      </trkpt>
      <trkpt lat="47.58036" lon="-2.88448">
        <time>2014-03-29T10:19:55Z</time>
      </trkpt>
      <trkpt lat="47.58042" lon="-2.88446">
        <time>2014-03-29T10:19:59Z</time>
      </trkpt>
      <trkpt lat="47.58047" lon="-2.88445">
        <time>2014-03-29T10:20:02Z</time>
      </trkpt>
      <trkpt lat="47.58051" lon="-2.88445">
        <time>2014-03-29T10:20:05Z</time>
      </trkpt>
      <trkpt lat="47.58056" lon="-2.88444">
        <time>2014-03-29T10:20:08Z</time>
      </trkpt>
      <trkpt lat="47.58061" lon="-2.88443">
        <time>2014-03-29T10:20:11Z</time>
      </trkpt>
      <trkpt lat="47.58066" lon="-2.88441">
        <time>2014-03-29T10:20:14Z</time>
      </trkpt>
      <trkpt lat="47.5807" lon="-2.88438">
        <time>2014-03-29T10:20:17Z</time>
      </trkpt>
      <trkpt lat="47.58075" lon="-2.88436">
        <time>2014-03-29T10:20:20Z</time>
      </trkpt>
      <trkpt lat="47.5808" lon="-2.88434">
        <time>2014-03-29T10:20:23Z</time>
      </trkpt>
      <trkpt lat="47.58085" lon="-2.88432">
        <ele>8</ele>
        <time>2014-03-29T10:20:26Z</time>
      </trkpt>
      <trkpt lat="47.5809" lon="-2.88431">
        <ele>8</ele>
        <time>2014-03-29T10:20:29Z</time>
      </trkpt>
      <trkpt lat="47.58096" lon="-2.88431">
        <ele>8</ele>
        <time>2014-03-29T10:20:32Z</time>
      </trkpt>
      <trkpt lat="47.58102" lon="-2.8843">
        <ele>8</ele>
        <time>2014-03-29T10:20:35Z</time>
      </trkpt>
      <trkpt lat="47.58107" lon="-2.8843">
        <ele>8</ele>
        <time>2014-03-29T10:20:38Z</time>
      </trkpt>
      <trkpt lat="47.58113" lon="-2.88429">
        <ele>8</ele>
        <time>2014-03-29T10:20:41Z</time>
      </trkpt>
      <trkpt lat="47.58118" lon="-2.88428">
        <ele>8</ele>
        <time>2014-03-29T10:20:44Z</time>
      </trkpt>
      <trkpt lat="47.58124" lon="-2.88429">
        <ele>8</ele>
        <time>2014-03-29T10:20:47Z</time>
      </trkpt>
      <trkpt lat="47.5813" lon="-2.88431">
        <ele>8</ele>
        <time>2014-03-29T10:20:50Z</time>
      </trkpt>
      <trkpt lat="47.58135" lon="-2.88434">
        <ele>8</ele>
        <time>2014-03-29T10:20:53Z</time>
      </trkpt>
      <trkpt lat="47.58141" lon="-2.88435">
        <ele>8</ele>
        <time>2014-03-29T10:20:56Z</time>
      </trkpt>
      <trkpt lat="47.58148" lon="-2.88437">
        <ele>8</ele>
        <time>2014-03-29T10:20:59Z</time>
      </trkpt>
      <trkpt lat="47.58153" lon="-2.88437">
        <ele>8</ele>
        <time>2014-03-29T10:21:02Z</time>
      </trkpt>
      <trkpt lat="47.58158" lon="-2.88436">
        <ele>8</ele>
        <time>2014-03-29T10:21:05Z</time>
      </trkpt>
      <trkpt lat="47.58162" lon="-2.88434">
        <ele>8</ele>
        <time>2014-03-29T10:21:08Z</time>
      </trkpt>
      <trkpt lat="47.58168" lon="-2.88433">
        <ele>8</ele>
        <time>2014-03-29T10:21:12Z</time>
      </trkpt>
      <trkpt lat="47.58173" lon="-2.88432">
        <ele>8</ele>
        <time>2014-03-29T10:21:15Z</time>
      </trkpt>
      <trkpt lat="47.58178" lon="-2.88431">
        <ele>8</ele>
        <time>2014-03-29T10:21:18Z</time>
      </trkpt>
      <trkpt lat="47.58183" lon="-2.88431">
        <ele>8</ele>
        <time>2014-03-29T10:21:21Z</time>
      </trkpt>
      <trkpt lat="47.58189" lon="-2.88431">
        <ele>8</ele>
        <time>2014-03-29T10:21:24Z</time>
      </trkpt>
      <trkpt lat="47.58195" lon="-2.8843">
        <ele>8</ele>
        <time>2014-03-29T10:21:27Z</time>
      </trkpt>
      <trkpt lat="47.582" lon="-2.8843">
        <ele>8</ele>
        <time>2014-03-29T10:21:30Z</time>
      </trkpt>
      <trkpt lat="47.58206" lon="-2.88431">
        <ele>8</ele>
        <time>2014-03-29T10:21:33Z</time>
      </trkpt>
      <trkpt lat="47.58212" lon="-2.88431">
        <ele>8</ele>
        <time>2014-03-29T10:21:36Z</time>
      </trkpt>
      <trkpt lat="47.58217" lon="-2.88431">
        <ele>8</ele>
        <time>2014-03-29T10:21:39Z</time>
      </trkpt>
      <trkpt lat="47.58222" lon="-2.88429">
        <ele>8</ele>
        <time>2014-03-29T10:21:42Z</time>
      </trkpt>
      <trkpt lat="47.58227" lon="-2.88428">
        <ele>8</ele>
        <time>2014-03-29T10:21:45Z</time>
      </trkpt>
      <trkpt lat="47.58232" lon="-2.88426">
        <ele>8</ele>
        <time>2014-03-29T10:21:48Z</time>
      </trkpt>
      <trkpt lat="47.58237" lon="-2.88424">
        <ele>8</ele>
        <time>2014-03-29T10:21:51Z</time>
      </trkpt>
      <trkpt lat="47.58242" lon="-2.88423">
        <ele>8</ele>
        <time>2014-03-29T10:21:54Z</time>
      </trkpt>
      <trkpt lat="47.58248" lon="-2.88422">
        <ele>8</ele>
        <time>2014-03-29T10:21:57Z</time>
      </trkpt>
      <trkpt lat="47.58253" lon="-2.88421">
        <ele>1</ele>
        <time>2014-03-29T10:22:00Z</time>
      </trkpt>
      <trkpt lat="47.58258" lon="-2.8842">
        <ele>1</ele>
        <time>2014-03-29T10:22:03Z</time>
      </trkpt>
      <trkpt lat="47.58264" lon="-2.88419">
        <ele>1</ele>
        <time>2014-03-29T10:22:06Z</time>
      </trkpt>
      <trkpt lat="47.58269" lon="-2.88418">
        <ele>1</ele>
        <time>2014-03-29T10:22:09Z</time>
      </trkpt>
      <trkpt lat="47.58274" lon="-2.88417">
        <ele>1</ele>
        <time>2014-03-29T10:22:12Z</time>
      </trkpt>
      <trkpt lat="47.5828" lon="-2.88417">
        <time>2014-03-29T10:22:15Z</time>
      </trkpt>
      <trkpt lat="47.58285" lon="-2.88418">
        <time>2014-03-29T10:22:18Z</time>
      </trkpt>
      <trkpt lat="47.58291" lon="-2.88418">
        <time>2014-03-29T10:22:21Z</time>
      </trkpt>
      <trkpt lat="47.58296" lon="-2.88418">
        <time>2014-03-29T10:22:24Z</time>
      </trkpt>
      <trkpt lat="47.58302" lon="-2.88417">
        <time>2014-03-29T10:22:27Z</time>
      </trkpt>
      <trkpt lat="47.58308" lon="-2.88418">
        <time>2014-03-29T10:22:30Z</time>
      </trkpt>
      <trkpt lat="47.58314" lon="-2.88418">
        <time>2014-03-29T10:22:33Z</time>
      </trkpt>
      <trkpt lat="47.5832" lon="-2.8842">
        <time>2014-03-29T10:22:36Z</time>
      </trkpt>
      <trkpt lat="47.58326" lon="-2.88421">
        <time>2014-03-29T10:22:39Z</time>
      </trkpt>
      <trkpt lat="47.58332" lon="-2.8842">
        <time>2014-03-29T10:22:42Z</time>
      </trkpt>
      <trkpt lat="47.58337" lon="-2.88419">
        <time>2014-03-29T10:22:45Z</time>
      </trkpt>
      <trkpt lat="47.58343" lon="-2.88418">
        <time>2014-03-29T10:22:48Z</time>
      </trkpt>
      <trkpt lat="47.58349" lon="-2.88417">
        <time>2014-03-29T10:22:51Z</time>
      </trkpt>
      <trkpt lat="47.58355" lon="-2.88417">
        <time>2014-03-29T10:22:54Z</time>
      </trkpt>
      <trkpt lat="47.5836" lon="-2.88418">
        <time>2014-03-29T10:22:56Z</time>
      </trkpt>
      <trkpt lat="47.58365" lon="-2.88419">
        <time>2014-03-29T10:22:58Z</time>
      </trkpt>
      <trkpt lat="47.5837" lon="-2.8842">
        <time>2014-03-29T10:23:00Z</time>
      </trkpt>
      <trkpt lat="47.58374" lon="-2.88421">
        <time>2014-03-29T10:23:02Z</time>
      </trkpt>
      <trkpt lat="47.58381" lon="-2.88422">
        <time>2014-03-29T10:23:05Z</time>
      </trkpt>
      <trkpt lat="47.58388" lon="-2.88422">
        <time>2014-03-29T10:23:08Z</time>
      </trkpt>
      <trkpt lat="47.58392" lon="-2.88423">
        <time>2014-03-29T10:23:10Z</time>
      </trkpt>
      <trkpt lat="47.58397" lon="-2.88423">
        <time>2014-03-29T10:23:12Z</time>
      </trkpt>
      <trkpt lat="47.58401" lon="-2.88423">
        <time>2014-03-29T10:23:14Z</time>
      </trkpt>
      <trkpt lat="47.58406" lon="-2.88423">
        <time>2014-03-29T10:23:16Z</time>
      </trkpt>
      <trkpt lat="47.58413" lon="-2.88423">
        <time>2014-03-29T10:23:19Z</time>
      </trkpt>
      <trkpt lat="47.58419" lon="-2.88423">
        <time>2014-03-29T10:23:22Z</time>
      </trkpt>
      <trkpt lat="47.58425" lon="-2.88421">
        <time>2014-03-29T10:23:25Z</time>
      </trkpt>
      <trkpt lat="47.58431" lon="-2.88418">
        <time>2014-03-29T10:23:28Z</time>
      </trkpt>
      <trkpt lat="47.58436" lon="-2.88416">
        <time>2014-03-29T10:23:31Z</time>
      </trkpt>
      <trkpt lat="47.58442" lon="-2.88413">
        <time>2014-03-29T10:23:34Z</time>
      </trkpt>
      <trkpt lat="47.58448" lon="-2.88409">
        <time>2014-03-29T10:23:37Z</time>
      </trkpt>
      <trkpt lat="47.58452" lon="-2.88406">
        <time>2014-03-29T10:23:39Z</time>
      </trkpt>
      <trkpt lat="47.58457" lon="-2.88404">
        <time>2014-03-29T10:23:41Z</time>
      </trkpt>
      <trkpt lat="47.58461" lon="-2.88401">
        <time>2014-03-29T10:23:43Z</time>
      </trkpt>
      <trkpt lat="47.58465" lon="-2.88398">
        <time>2014-03-29T10:23:45Z</time>
      </trkpt>
      <trkpt lat="47.58471" lon="-2.88393">
        <time>2014-03-29T10:23:48Z</time>
      </trkpt>
      <trkpt lat="47.58477" lon="-2.8839">
        <time>2014-03-29T10:23:51Z</time>
      </trkpt>
      <trkpt lat="47.58482" lon="-2.88386">
        <time>2014-03-29T10:23:54Z</time>
      </trkpt>
      <trkpt lat="47.58488" lon="-2.88382">
        <time>2014-03-29T10:23:57Z</time>
      </trkpt>
      <trkpt lat="47.58493" lon="-2.88378">
        <time>2014-03-29T10:24:00Z</time>
      </trkpt>
      <trkpt lat="47.58499" lon="-2.88375">
        <time>2014-03-29T10:24:03Z</time>
      </trkpt>
      <trkpt lat="47.58505" lon="-2.88371">
        <time>2014-03-29T10:24:06Z</time>
      </trkpt>
      <trkpt lat="47.58511" lon="-2.88366">
        <time>2014-03-29T10:24:09Z</time>
      </trkpt>
      <trkpt lat="47.58517" lon="-2.88363">
        <time>2014-03-29T10:24:12Z</time>
      </trkpt>
      <trkpt lat="47.58523" lon="-2.88359">
        <time>2014-03-29T10:24:15Z</time>
      </trkpt>
      <trkpt lat="47.58528" lon="-2.88355">
        <time>2014-03-29T10:24:18Z</time>
      </trkpt>
      <trkpt lat="47.58534" lon="-2.88352">
        <time>2014-03-29T10:24:21Z</time>
      </trkpt>
      <trkpt lat="47.5854" lon="-2.88347">
        <time>2014-03-29T10:24:24Z</time>
      </trkpt>
      <trkpt lat="47.58545" lon="-2.88343">
        <time>2014-03-29T10:24:27Z</time>
      </trkpt>
      <trkpt lat="47.58551" lon="-2.88339">
        <time>2014-03-29T10:24:30Z</time>
      </trkpt>
      <trkpt lat="47.58556" lon="-2.88336">
        <time>2014-03-29T10:24:33Z</time>
      </trkpt>
      <trkpt lat="47.58561" lon="-2.88332">
        <time>2014-03-29T10:24:36Z</time>
      </trkpt>
      <trkpt lat="47.58566" lon="-2.88327">
        <time>2014-03-29T10:24:39Z</time>
      </trkpt>
      <trkpt lat="47.58571" lon="-2.88323">
        <time>2014-03-29T10:24:42Z</time>
      </trkpt>
      <trkpt lat="47.58576" lon="-2.88318">
        <time>2014-03-29T10:24:45Z</time>
      </trkpt>
      <trkpt lat="47.58582" lon="-2.88314">
        <time>2014-03-29T10:24:48Z</time>
      </trkpt>
      <trkpt lat="47.58588" lon="-2.8831">
        <time>2014-03-29T10:24:51Z</time>
      </trkpt>
      <trkpt lat="47.58593" lon="-2.88305">
        <time>2014-03-29T10:24:54Z</time>
      </trkpt>
      <trkpt lat="47.58599" lon="-2.88302">
        <time>2014-03-29T10:24:57Z</time>
      </trkpt>
      <trkpt lat="47.58604" lon="-2.88298">
        <time>2014-03-29T10:25:00Z</time>
      </trkpt>
      <trkpt lat="47.58609" lon="-2.88294">
        <time>2014-03-29T10:25:03Z</time>
      </trkpt>
      <trkpt lat="47.58614" lon="-2.88289">
        <time>2014-03-29T10:25:06Z</time>
      </trkpt>
      <trkpt lat="47.58619" lon="-2.88284">
        <time>2014-03-29T10:25:09Z</time>
      </trkpt>
      <trkpt lat="47.58623" lon="-2.88278">
        <time>2014-03-29T10:25:12Z</time>
      </trkpt>
      <trkpt lat="47.58628" lon="-2.88274">
        <time>2014-03-29T10:25:15Z</time>
      </trkpt>
      <trkpt lat="47.58633" lon="-2.88269">
        <time>2014-03-29T10:25:18Z</time>
      </trkpt>
      <trkpt lat="47.58639" lon="-2.88265">
        <time>2014-03-29T10:25:21Z</time>
      </trkpt>
      <trkpt lat="47.58644" lon="-2.8826">
        <time>2014-03-29T10:25:24Z</time>
      </trkpt>
      <trkpt lat="47.58649" lon="-2.88255">
        <time>2014-03-29T10:25:27Z</time>
      </trkpt>
      <trkpt lat="47.58654" lon="-2.88251">
        <time>2014-03-29T10:25:30Z</time>
      </trkpt>
      <trkpt lat="47.58659" lon="-2.88245">
        <time>2014-03-29T10:25:33Z</time>
      </trkpt>
      <trkpt lat="47.58664" lon="-2.8824">
        <time>2014-03-29T10:25:36Z</time>
      </trkpt>
      <trkpt lat="47.58668" lon="-2.88236">
        <time>2014-03-29T10:25:39Z</time>
      </trkpt>
      <trkpt lat="47.58673" lon="-2.88232">
        <time>2014-03-29T10:25:42Z</time>
      </trkpt>
      <trkpt lat="47.58679" lon="-2.88227">
        <time>2014-03-29T10:25:45Z</time>
      </trkpt>
      <trkpt lat="47.58684" lon="-2.88223">
        <time>2014-03-29T10:25:48Z</time>
      </trkpt>
      <trkpt lat="47.58689" lon="-2.88219">
        <time>2014-03-29T10:25:51Z</time>
      </trkpt>
      <trkpt lat="47.58694" lon="-2.88214">
        <time>2014-03-29T10:25:54Z</time>
      </trkpt>
      <trkpt lat="47.58698" lon="-2.8821">
        <time>2014-03-29T10:25:57Z</time>
      </trkpt>
      <trkpt lat="47.58703" lon="-2.88205">
        <time>2014-03-29T10:26:00Z</time>
      </trkpt>
      <trkpt lat="47.58708" lon="-2.88201">
        <time>2014-03-29T10:26:03Z</time>
      </trkpt>
      <trkpt lat="47.58712" lon="-2.88197">
        <time>2014-03-29T10:26:06Z</time>
      </trkpt>
      <trkpt lat="47.58717" lon="-2.88192">
        <time>2014-03-29T10:26:09Z</time>
      </trkpt>
      <trkpt lat="47.58722" lon="-2.88188">
        <time>2014-03-29T10:26:12Z</time>
      </trkpt>
      <trkpt lat="47.58726" lon="-2.88183">
        <time>2014-03-29T10:26:15Z</time>
      </trkpt>
      <trkpt lat="47.5873" lon="-2.88177">
        <time>2014-03-29T10:26:18Z</time>
      </trkpt>
      <trkpt lat="47.58735" lon="-2.88172">
        <time>2014-03-29T10:26:21Z</time>
      </trkpt>
      <trkpt lat="47.58739" lon="-2.88167">
        <time>2014-03-29T10:26:24Z</time>
      </trkpt>
      <trkpt lat="47.58744" lon="-2.8816">
        <time>2014-03-29T10:26:27Z</time>
      </trkpt>
      <trkpt lat="47.5875" lon="-2.88154">
        <time>2014-03-29T10:26:30Z</time>
      </trkpt>
      <trkpt lat="47.58754" lon="-2.88148">
        <time>2014-03-29T10:26:33Z</time>
      </trkpt>
      <trkpt lat="47.58759" lon="-2.88141">
        <time>2014-03-29T10:26:36Z</time>
      </trkpt>
      <trkpt lat="47.58763" lon="-2.88135">
        <time>2014-03-29T10:26:39Z</time>
      </trkpt>
      <trkpt lat="47.58768" lon="-2.88129">
        <time>2014-03-29T10:26:42Z</time>
      </trkpt>
      <trkpt lat="47.58773" lon="-2.88122">
        <time>2014-03-29T10:26:45Z</time>
      </trkpt>
      <trkpt lat="47.58777" lon="-2.88116">
        <time>2014-03-29T10:26:48Z</time>
      </trkpt>
      <trkpt lat="47.58781" lon="-2.8811">
        <time>2014-03-29T10:26:51Z</time>
      </trkpt>
      <trkpt lat="47.58786" lon="-2.88105">
        <time>2014-03-29T10:26:54Z</time>
      </trkpt>
      <trkpt lat="47.5879" lon="-2.88099">
        <time>2014-03-29T10:26:57Z</time>
      </trkpt>
      <trkpt lat="47.58795" lon="-2.88093">
        <time>2014-03-29T10:27:00Z</time>
      </trkpt>
      <trkpt lat="47.58799" lon="-2.88087">
        <time>2014-03-29T10:27:03Z</time>
      </trkpt>
      <trkpt lat="47.58804" lon="-2.8808">
        <time>2014-03-29T10:27:06Z</time>
      </trkpt>
      <trkpt lat="47.58808" lon="-2.88075">
        <time>2014-03-29T10:27:09Z</time>
      </trkpt>
      <trkpt lat="47.58813" lon="-2.88069">
        <time>2014-03-29T10:27:12Z</time>
      </trkpt>
      <trkpt lat="47.58817" lon="-2.88063">
        <time>2014-03-29T10:27:15Z</time>
      </trkpt>
      <trkpt lat="47.58822" lon="-2.88057">
        <time>2014-03-29T10:27:18Z</time>
      </trkpt>
      <trkpt lat="47.58827" lon="-2.88051">
        <time>2014-03-29T10:27:21Z</time>
      </trkpt>
      <trkpt lat="47.58831" lon="-2.88045">
        <time>2014-03-29T10:27:24Z</time>
      </trkpt>
      <trkpt lat="47.58836" lon="-2.88038">
        <time>2014-03-29T10:27:27Z</time>
      </trkpt>
      <trkpt lat="47.5884" lon="-2.88032">
        <time>2014-03-29T10:27:30Z</time>
      </trkpt>
      <trkpt lat="47.58845" lon="-2.88025">
        <time>2014-03-29T10:27:33Z</time>
      </trkpt>
      <trkpt lat="47.58848" lon="-2.88019">
        <time>2014-03-29T10:27:36Z</time>
      </trkpt>
      <trkpt lat="47.58852" lon="-2.88013">
        <time>2014-03-29T10:27:39Z</time>
      </trkpt>
      <trkpt lat="47.58856" lon="-2.88007">
        <time>2014-03-29T10:27:42Z</time>
      </trkpt>
      <trkpt lat="47.58861" lon="-2.88001">
        <time>2014-03-29T10:27:45Z</time>
      </trkpt>
      <trkpt lat="47.58866" lon="-2.87994">
        <time>2014-03-29T10:27:48Z</time>
      </trkpt>
      <trkpt lat="47.5887" lon="-2.87987">
        <time>2014-03-29T10:27:51Z</time>
      </trkpt>
      <trkpt lat="47.58874" lon="-2.87981">
        <time>2014-03-29T10:27:54Z</time>
      </trkpt>
      <trkpt lat="47.58878" lon="-2.87975">
        <time>2014-03-29T10:27:57Z</time>
      </trkpt>
      <trkpt lat="47.58882" lon="-2.87968">
        <time>2014-03-29T10:28:00Z</time>
      </trkpt>
      <trkpt lat="47.58887" lon="-2.87963">
        <time>2014-03-29T10:28:03Z</time>
      </trkpt>
      <trkpt lat="47.58891" lon="-2.87956">
        <time>2014-03-29T10:28:06Z</time>
      </trkpt>
      <trkpt lat="47.58895" lon="-2.8795">
        <time>2014-03-29T10:28:09Z</time>
      </trkpt>
      <trkpt lat="47.58899" lon="-2.87942">
        <time>2014-03-29T10:28:12Z</time>
      </trkpt>
      <trkpt lat="47.58902" lon="-2.87936">
        <time>2014-03-29T10:28:15Z</time>
      </trkpt>
      <trkpt lat="47.58906" lon="-2.8793">
        <time>2014-03-29T10:28:18Z</time>
      </trkpt>
      <trkpt lat="47.5891" lon="-2.87924">
        <time>2014-03-29T10:28:21Z</time>
      </trkpt>
      <trkpt lat="47.58913" lon="-2.87919">
        <time>2014-03-29T10:28:24Z</time>
      </trkpt>
      <trkpt lat="47.58917" lon="-2.87913">
        <time>2014-03-29T10:28:28Z</time>
      </trkpt>
      <trkpt lat="47.5892" lon="-2.87908">
        <time>2014-03-29T10:28:31Z</time>
      </trkpt>
      <trkpt lat="47.58924" lon="-2.87903">
        <time>2014-03-29T10:28:34Z</time>
      </trkpt>
      <trkpt lat="47.58928" lon="-2.87899">
        <time>2014-03-29T10:28:37Z</time>
      </trkpt>
      <trkpt lat="47.58932" lon="-2.87893">
        <time>2014-03-29T10:28:40Z</time>
      </trkpt>
      <trkpt lat="47.58936" lon="-2.87888">
        <time>2014-03-29T10:28:43Z</time>
      </trkpt>
      <trkpt lat="47.5894" lon="-2.87883">
        <time>2014-03-29T10:28:46Z</time>
      </trkpt>
      <trkpt lat="47.58944" lon="-2.87878">
        <time>2014-03-29T10:28:49Z</time>
      </trkpt>
      <trkpt lat="47.58948" lon="-2.87872">
        <time>2014-03-29T10:28:52Z</time>
      </trkpt>
      <trkpt lat="47.58952" lon="-2.87867">
        <time>2014-03-29T10:28:55Z</time>
      </trkpt>
      <trkpt lat="47.58956" lon="-2.87861">
        <time>2014-03-29T10:28:58Z</time>
      </trkpt>
      <trkpt lat="47.5896" lon="-2.87856">
        <time>2014-03-29T10:29:01Z</time>
      </trkpt>
      <trkpt lat="47.58964" lon="-2.8785">
        <time>2014-03-29T10:29:04Z</time>
      </trkpt>
      <trkpt lat="47.58967" lon="-2.87844">
        <time>2014-03-29T10:29:07Z</time>
      </trkpt>
      <trkpt lat="47.58971" lon="-2.87839">
        <time>2014-03-29T10:29:10Z</time>
      </trkpt>
      <trkpt lat="47.58974" lon="-2.87833">
        <time>2014-03-29T10:29:13Z</time>
      </trkpt>
      <trkpt lat="47.58977" lon="-2.87827">
        <time>2014-03-29T10:29:16Z</time>
      </trkpt>
      <trkpt lat="47.58981" lon="-2.87822">
        <time>2014-03-29T10:29:19Z</time>
      </trkpt>
      <trkpt lat="47.58984" lon="-2.87816">
        <time>2014-03-29T10:29:22Z</time>
      </trkpt>
      <trkpt lat="47.58987" lon="-2.87809">
        <time>2014-03-29T10:29:25Z</time>
      </trkpt>
      <trkpt lat="47.58991" lon="-2.87804">
        <time>2014-03-29T10:29:28Z</time>
      </trkpt>
      <trkpt lat="47.58994" lon="-2.87799">
        <time>2014-03-29T10:29:31Z</time>
      </trkpt>
      <trkpt lat="47.58997" lon="-2.87793">
        <time>2014-03-29T10:29:34Z</time>
      </trkpt>
      <trkpt lat="47.59001" lon="-2.87788">
        <time>2014-03-29T10:29:37Z</time>
      </trkpt>
      <trkpt lat="47.59004" lon="-2.87783">
        <time>2014-03-29T10:29:40Z</time>
      </trkpt>
      <trkpt lat="47.59008" lon="-2.87777">
        <time>2014-03-29T10:29:43Z</time>
      </trkpt>
      <trkpt lat="47.59011" lon="-2.87771">
        <time>2014-03-29T10:29:46Z</time>
      </trkpt>
      <trkpt lat="47.59014" lon="-2.87764">
        <time>2014-03-29T10:29:49Z</time>
      </trkpt>
      <trkpt lat="47.59017" lon="-2.87758">
        <time>2014-03-29T10:29:52Z</time>
      </trkpt>
      <trkpt lat="47.5902" lon="-2.87752">
        <time>2014-03-29T10:29:55Z</time>
      </trkpt>
      <trkpt lat="47.59023" lon="-2.87745">
        <time>2014-03-29T10:29:58Z</time>
      </trkpt>
      <trkpt lat="47.59026" lon="-2.87739">
        <time>2014-03-29T10:30:01Z</time>
      </trkpt>
      <trkpt lat="47.59029" lon="-2.87733">
        <time>2014-03-29T10:30:04Z</time>
      </trkpt>
      <trkpt lat="47.59032" lon="-2.87727">
        <time>2014-03-29T10:30:07Z</time>
      </trkpt>
      <trkpt lat="47.59035" lon="-2.87721">
        <time>2014-03-29T10:30:10Z</time>
      </trkpt>
      <trkpt lat="47.59038" lon="-2.87715">
        <time>2014-03-29T10:30:13Z</time>
      </trkpt>
      <trkpt lat="47.59041" lon="-2.87708">
        <time>2014-03-29T10:30:16Z</time>
      </trkpt>
      <trkpt lat="47.59044" lon="-2.87702">
        <time>2014-03-29T10:30:19Z</time>
      </trkpt>
      <trkpt lat="47.59048" lon="-2.87697">
        <time>2014-03-29T10:30:22Z</time>
      </trkpt>
      <trkpt lat="47.59052" lon="-2.87691">
        <time>2014-03-29T10:30:25Z</time>
      </trkpt>
      <trkpt lat="47.59055" lon="-2.87685">
        <time>2014-03-29T10:30:28Z</time>
      </trkpt>
      <trkpt lat="47.59059" lon="-2.87678">
        <time>2014-03-29T10:30:31Z</time>
      </trkpt>
      <trkpt lat="47.59063" lon="-2.87672">
        <time>2014-03-29T10:30:34Z</time>
      </trkpt>
      <trkpt lat="47.59066" lon="-2.87665">
        <time>2014-03-29T10:30:37Z</time>
      </trkpt>
      <trkpt lat="47.5907" lon="-2.87659">
        <time>2014-03-29T10:30:40Z</time>
      </trkpt>
      <trkpt lat="47.59074" lon="-2.87654">
        <time>2014-03-29T10:30:43Z</time>
      </trkpt>
      <trkpt lat="47.59077" lon="-2.87648">
        <time>2014-03-29T10:30:46Z</time>
      </trkpt>
      <trkpt lat="47.59081" lon="-2.87642">
        <time>2014-03-29T10:30:49Z</time>
      </trkpt>
      <trkpt lat="47.59084" lon="-2.87636">
        <time>2014-03-29T10:30:52Z</time>
      </trkpt>
      <trkpt lat="47.59087" lon="-2.87631">
        <time>2014-03-29T10:30:55Z</time>
      </trkpt>
      <trkpt lat="47.59091" lon="-2.87625">
        <time>2014-03-29T10:30:58Z</time>
      </trkpt>
      <trkpt lat="47.59094" lon="-2.8762">
        <time>2014-03-29T10:31:01Z</time>
      </trkpt>
      <trkpt lat="47.59098" lon="-2.87614">
        <time>2014-03-29T10:31:04Z</time>
      </trkpt>
      <trkpt lat="47.59101" lon="-2.87607">
        <time>2014-03-29T10:31:07Z</time>
      </trkpt>
      <trkpt lat="47.59105" lon="-2.87602">
        <time>2014-03-29T10:31:10Z</time>
      </trkpt>
      <trkpt lat="47.59108" lon="-2.87596">
        <time>2014-03-29T10:31:13Z</time>
      </trkpt>
      <trkpt lat="47.59112" lon="-2.8759">
        <time>2014-03-29T10:31:16Z</time>
      </trkpt>
      <trkpt lat="47.59116" lon="-2.87584">
        <time>2014-03-29T10:31:19Z</time>
      </trkpt>
      <trkpt lat="47.59119" lon="-2.87579">
        <time>2014-03-29T10:31:22Z</time>
      </trkpt>
      <trkpt lat="47.59123" lon="-2.87573">
        <time>2014-03-29T10:31:25Z</time>
      </trkpt>
      <trkpt lat="47.59126" lon="-2.87566">
        <time>2014-03-29T10:31:28Z</time>
      </trkpt>
      <trkpt lat="47.59129" lon="-2.87559">
        <time>2014-03-29T10:31:31Z</time>
      </trkpt>
      <trkpt lat="47.59133" lon="-2.87553">
        <time>2014-03-29T10:31:34Z</time>
      </trkpt>
      <trkpt lat="47.59136" lon="-2.87547">
        <time>2014-03-29T10:31:37Z</time>
      </trkpt>
      <trkpt lat="47.5914" lon="-2.87541">
        <time>2014-03-29T10:31:40Z</time>
      </trkpt>
      <trkpt lat="47.59144" lon="-2.87535">
        <time>2014-03-29T10:31:43Z</time>
      </trkpt>
      <trkpt lat="47.59147" lon="-2.87528">
        <time>2014-03-29T10:31:46Z</time>
      </trkpt>
      <trkpt lat="47.59151" lon="-2.87521">
        <time>2014-03-29T10:31:49Z</time>
      </trkpt>
      <trkpt lat="47.59155" lon="-2.87515">
        <time>2014-03-29T10:31:52Z</time>
      </trkpt>
      <trkpt lat="47.59159" lon="-2.87509">
        <time>2014-03-29T10:31:55Z</time>
      </trkpt>
      <trkpt lat="47.59163" lon="-2.87503">
        <time>2014-03-29T10:31:58Z</time>
      </trkpt>
      <trkpt lat="47.59167" lon="-2.87497">
        <time>2014-03-29T10:32:01Z</time>
      </trkpt>
      <trkpt lat="47.59169" lon="-2.87491">
        <time>2014-03-29T10:32:04Z</time>
      </trkpt>
      <trkpt lat="47.59172" lon="-2.87485">
        <time>2014-03-29T10:32:07Z</time>
      </trkpt>
      <trkpt lat="47.59175" lon="-2.8748">
        <time>2014-03-29T10:32:10Z</time>
      </trkpt>
      <trkpt lat="47.59178" lon="-2.87474">
        <time>2014-03-29T10:32:13Z</time>
      </trkpt>
      <trkpt lat="47.59181" lon="-2.87468">
        <time>2014-03-29T10:32:16Z</time>
      </trkpt>
      <trkpt lat="47.59184" lon="-2.87462">
        <time>2014-03-29T10:32:19Z</time>
      </trkpt>
      <trkpt lat="47.59187" lon="-2.87455">
        <time>2014-03-29T10:32:22Z</time>
      </trkpt>
      <trkpt lat="47.5919" lon="-2.87448">
        <time>2014-03-29T10:32:25Z</time>
      </trkpt>
      <trkpt lat="47.59194" lon="-2.87442">
        <time>2014-03-29T10:32:28Z</time>
      </trkpt>
      <trkpt lat="47.59198" lon="-2.87437">
        <time>2014-03-29T10:32:31Z</time>
      </trkpt>
      <trkpt lat="47.59202" lon="-2.87431">
        <time>2014-03-29T10:32:34Z</time>
      </trkpt>
      <trkpt lat="47.59205" lon="-2.87425">
        <time>2014-03-29T10:32:37Z</time>
      </trkpt>
      <trkpt lat="47.59208" lon="-2.87419">
        <time>2014-03-29T10:32:40Z</time>
      </trkpt>
      <trkpt lat="47.59212" lon="-2.87413">
        <time>2014-03-29T10:32:44Z</time>
      </trkpt>
      <trkpt lat="47.59215" lon="-2.87407">
        <time>2014-03-29T10:32:46Z</time>
      </trkpt>
      <trkpt lat="47.59219" lon="-2.874">
        <time>2014-03-29T10:32:49Z</time>
      </trkpt>
      <trkpt lat="47.59222" lon="-2.87394">
        <time>2014-03-29T10:32:53Z</time>
      </trkpt>
      <trkpt lat="47.59225" lon="-2.87388">
        <time>2014-03-29T10:32:55Z</time>
      </trkpt>
      <trkpt lat="47.59227" lon="-2.87383">
        <time>2014-03-29T10:32:58Z</time>
      </trkpt>
      <trkpt lat="47.59231" lon="-2.87377">
        <time>2014-03-29T10:33:02Z</time>
      </trkpt>
      <trkpt lat="47.59234" lon="-2.87372">
        <time>2014-03-29T10:33:04Z</time>
      </trkpt>
      <trkpt lat="47.59238" lon="-2.87367">
        <time>2014-03-29T10:33:07Z</time>
      </trkpt>
      <trkpt lat="47.59241" lon="-2.87363">
        <time>2014-03-29T10:33:11Z</time>
      </trkpt>
      <trkpt lat="47.59245" lon="-2.87357">
        <time>2014-03-29T10:33:13Z</time>
      </trkpt>
      <trkpt lat="47.59248" lon="-2.87352">
        <time>2014-03-29T10:33:17Z</time>
      </trkpt>
      <trkpt lat="47.59251" lon="-2.87347">
        <time>2014-03-29T10:33:20Z</time>
      </trkpt>
      <trkpt lat="47.59254" lon="-2.87341">
        <time>2014-03-29T10:33:22Z</time>
      </trkpt>
      <trkpt lat="47.59258" lon="-2.87336">
        <time>2014-03-29T10:33:26Z</time>
      </trkpt>
      <trkpt lat="47.59261" lon="-2.87331">
        <time>2014-03-29T10:33:29Z</time>
      </trkpt>
      <trkpt lat="47.59264" lon="-2.87327">
        <time>2014-03-29T10:33:31Z</time>
      </trkpt>
      <trkpt lat="47.59268" lon="-2.87321">
        <time>2014-03-29T10:33:35Z</time>
      </trkpt>
      <trkpt lat="47.59271" lon="-2.87315">
        <time>2014-03-29T10:33:38Z</time>
      </trkpt>
      <trkpt lat="47.59274" lon="-2.87309">
        <time>2014-03-29T10:33:40Z</time>
      </trkpt>
      <trkpt lat="47.59277" lon="-2.87304">
        <time>2014-03-29T10:33:44Z</time>
      </trkpt>
      <trkpt lat="47.5928" lon="-2.87298">
        <time>2014-03-29T10:33:46Z</time>
      </trkpt>
      <trkpt lat="47.59284" lon="-2.87293">
        <time>2014-03-29T10:33:49Z</time>
      </trkpt>
      <trkpt lat="47.59287" lon="-2.87289">
        <time>2014-03-29T10:33:53Z</time>
      </trkpt>
      <trkpt lat="47.59291" lon="-2.87284">
        <time>2014-03-29T10:33:55Z</time>
      </trkpt>
      <trkpt lat="47.59295" lon="-2.87278">
        <time>2014-03-29T10:33:59Z</time>
      </trkpt>
      <trkpt lat="47.59299" lon="-2.87272">
        <time>2014-03-29T10:34:03Z</time>
      </trkpt>
      <trkpt lat="47.59303" lon="-2.87267">
        <time>2014-03-29T10:34:07Z</time>
      </trkpt>
      <trkpt lat="47.59307" lon="-2.87263">
        <time>2014-03-29T10:34:10Z</time>
      </trkpt>
      <trkpt lat="47.59311" lon="-2.87257">
        <time>2014-03-29T10:34:12Z</time>
      </trkpt>
      <trkpt lat="47.59314" lon="-2.87251">
        <time>2014-03-29T10:34:16Z</time>
      </trkpt>
      <trkpt lat="47.59317" lon="-2.87245">
        <time>2014-03-29T10:34:18Z</time>
      </trkpt>
      <trkpt lat="47.5932" lon="-2.87239">
        <time>2014-03-29T10:34:21Z</time>
      </trkpt>
      <trkpt lat="47.59323" lon="-2.87233">
        <time>2014-03-29T10:34:25Z</time>
      </trkpt>
      <trkpt lat="47.59325" lon="-2.87227">
        <time>2014-03-29T10:34:27Z</time>
      </trkpt>
      <trkpt lat="47.59328" lon="-2.87222">
        <time>2014-03-29T10:34:30Z</time>
      </trkpt>
      <trkpt lat="47.59331" lon="-2.87214">
        <time>2014-03-29T10:34:34Z</time>
      </trkpt>
      <trkpt lat="47.59334" lon="-2.87208">
        <time>2014-03-29T10:34:37Z</time>
      </trkpt>
      <trkpt lat="47.59337" lon="-2.87202">
        <time>2014-03-29T10:34:40Z</time>
      </trkpt>
      <trkpt lat="47.5934" lon="-2.87196">
        <time>2014-03-29T10:34:43Z</time>
      </trkpt>
      <trkpt lat="47.59343" lon="-2.8719">
        <time>2014-03-29T10:34:47Z</time>
      </trkpt>
      <trkpt lat="47.59347" lon="-2.87184">
        <time>2014-03-29T10:34:49Z</time>
      </trkpt>
      <trkpt lat="47.5935" lon="-2.87179">
        <time>2014-03-29T10:34:53Z</time>
      </trkpt>
      <trkpt lat="47.59352" lon="-2.87173">
        <time>2014-03-29T10:34:56Z</time>
      </trkpt>
      <trkpt lat="47.59355" lon="-2.87167">
        <time>2014-03-29T10:34:58Z</time>
      </trkpt>
      <trkpt lat="47.59359" lon="-2.87161">
        <time>2014-03-29T10:35:02Z</time>
      </trkpt>
      <trkpt lat="47.59362" lon="-2.87155">
        <time>2014-03-29T10:35:05Z</time>
      </trkpt>
      <trkpt lat="47.59364" lon="-2.87149">
        <time>2014-03-29T10:35:07Z</time>
      </trkpt>
      <trkpt lat="47.59367" lon="-2.87142">
        <time>2014-03-29T10:35:11Z</time>
      </trkpt>
      <trkpt lat="47.5937" lon="-2.87137">
        <time>2014-03-29T10:35:14Z</time>
      </trkpt>
      <trkpt lat="47.59373" lon="-2.8713">
        <time>2014-03-29T10:35:17Z</time>
      </trkpt>
      <trkpt lat="47.59376" lon="-2.87125">
        <time>2014-03-29T10:35:20Z</time>
      </trkpt>
      <trkpt lat="47.59381" lon="-2.87118">
        <time>2014-03-29T10:35:25Z</time>
      </trkpt>
      <trkpt lat="47.59384" lon="-2.87112">
        <time>2014-03-29T10:35:28Z</time>
      </trkpt>
      <trkpt lat="47.59386" lon="-2.87105">
        <time>2014-03-29T10:35:30Z</time>
      </trkpt>
      <trkpt lat="47.59389" lon="-2.871">
        <time>2014-03-29T10:35:34Z</time>
      </trkpt>
      <trkpt lat="47.59392" lon="-2.87094">
        <time>2014-03-29T10:35:37Z</time>
      </trkpt>
      <trkpt lat="47.59396" lon="-2.87089">
        <time>2014-03-29T10:35:39Z</time>
      </trkpt>
      <trkpt lat="47.59399" lon="-2.87082">
        <time>2014-03-29T10:35:43Z</time>
      </trkpt>
      <trkpt lat="47.59402" lon="-2.87076">
        <time>2014-03-29T10:35:46Z</time>
      </trkpt>
      <trkpt lat="47.59405" lon="-2.87069">
        <time>2014-03-29T10:35:48Z</time>
      </trkpt>
      <trkpt lat="47.59408" lon="-2.87063">
        <time>2014-03-29T10:35:52Z</time>
      </trkpt>
      <trkpt lat="47.59411" lon="-2.87057">
        <time>2014-03-29T10:35:54Z</time>
      </trkpt>
      <trkpt lat="47.59414" lon="-2.87051">
        <time>2014-03-29T10:35:57Z</time>
      </trkpt>
      <trkpt lat="47.59417" lon="-2.87046">
        <time>2014-03-29T10:36:01Z</time>
      </trkpt>
      <trkpt lat="47.5942" lon="-2.8704">
        <time>2014-03-29T10:36:03Z</time>
      </trkpt>
      <trkpt lat="47.59423" lon="-2.87035">
        <time>2014-03-29T10:36:06Z</time>
      </trkpt>
      <trkpt lat="47.59427" lon="-2.87029">
        <time>2014-03-29T10:36:10Z</time>
      </trkpt>
      <trkpt lat="47.5943" lon="-2.87024">
        <time>2014-03-29T10:36:12Z</time>
      </trkpt>
      <trkpt lat="47.59433" lon="-2.87017">
        <time>2014-03-29T10:36:16Z</time>
      </trkpt>
      <trkpt lat="47.59436" lon="-2.8701">
        <time>2014-03-29T10:36:19Z</time>
      </trkpt>
      <trkpt lat="47.59439" lon="-2.87005">
        <time>2014-03-29T10:36:23Z</time>
      </trkpt>
      <trkpt lat="47.59442" lon="-2.86999">
        <time>2014-03-29T10:36:25Z</time>
      </trkpt>
      <trkpt lat="47.59444" lon="-2.86992">
        <time>2014-03-29T10:36:29Z</time>
      </trkpt>
      <trkpt lat="47.59447" lon="-2.86986">
        <time>2014-03-29T10:36:32Z</time>
      </trkpt>
      <trkpt lat="47.59449" lon="-2.86979">
        <time>2014-03-29T10:36:34Z</time>
      </trkpt>
      <trkpt lat="47.59452" lon="-2.86972">
        <time>2014-03-29T10:36:38Z</time>
      </trkpt>
      <trkpt lat="47.59454" lon="-2.86966">
        <time>2014-03-29T10:36:41Z</time>
      </trkpt>
      <trkpt lat="47.59457" lon="-2.8696">
        <time>2014-03-29T10:36:43Z</time>
      </trkpt>
      <trkpt lat="47.5946" lon="-2.86954">
        <time>2014-03-29T10:36:46Z</time>
      </trkpt>
      <trkpt lat="47.59463" lon="-2.86948">
        <time>2014-03-29T10:36:49Z</time>
      </trkpt>
      <trkpt lat="47.59467" lon="-2.86941">
        <time>2014-03-29T10:36:52Z</time>
      </trkpt>
      <trkpt lat="47.59469" lon="-2.86933">
        <time>2014-03-29T10:36:55Z</time>
      </trkpt>
      <trkpt lat="47.59472" lon="-2.86927">
        <time>2014-03-29T10:36:58Z</time>
      </trkpt>
      <trkpt lat="47.59475" lon="-2.86921">
        <time>2014-03-29T10:37:01Z</time>
      </trkpt>
      <trkpt lat="47.59478" lon="-2.86915">
        <time>2014-03-29T10:37:04Z</time>
      </trkpt>
      <trkpt lat="47.5948" lon="-2.86909">
        <time>2014-03-29T10:37:07Z</time>
      </trkpt>
      <trkpt lat="47.59483" lon="-2.86903">
        <time>2014-03-29T10:37:10Z</time>
      </trkpt>
      <trkpt lat="47.59486" lon="-2.86897">
        <time>2014-03-29T10:37:13Z</time>
      </trkpt>
      <trkpt lat="47.59488" lon="-2.8689">
        <time>2014-03-29T10:37:16Z</time>
      </trkpt>
      <trkpt lat="47.59491" lon="-2.86883">
        <time>2014-03-29T10:37:19Z</time>
      </trkpt>
      <trkpt lat="47.59494" lon="-2.86878">
        <time>2014-03-29T10:37:22Z</time>
      </trkpt>
      <trkpt lat="47.59497" lon="-2.86872">
        <time>2014-03-29T10:37:25Z</time>
      </trkpt>
      <trkpt lat="47.59499" lon="-2.86866">
        <time>2014-03-29T10:37:29Z</time>
      </trkpt>
      <trkpt lat="47.59502" lon="-2.86859">
        <time>2014-03-29T10:37:31Z</time>
      </trkpt>
      <trkpt lat="47.59504" lon="-2.86853">
        <time>2014-03-29T10:37:35Z</time>
      </trkpt>
      <trkpt lat="47.59507" lon="-2.86847">
        <time>2014-03-29T10:37:37Z</time>
      </trkpt>
      <trkpt lat="47.5951" lon="-2.86841">
        <time>2014-03-29T10:37:40Z</time>
      </trkpt>
      <trkpt lat="47.59513" lon="-2.86835">
        <time>2014-03-29T10:37:43Z</time>
      </trkpt>
      <trkpt lat="47.59517" lon="-2.86829">
        <time>2014-03-29T10:37:46Z</time>
      </trkpt>
      <trkpt lat="47.5952" lon="-2.86823">
        <time>2014-03-29T10:37:49Z</time>
      </trkpt>
      <trkpt lat="47.59523" lon="-2.86817">
        <time>2014-03-29T10:37:52Z</time>
      </trkpt>
      <trkpt lat="47.59526" lon="-2.86811">
        <time>2014-03-29T10:37:56Z</time>
      </trkpt>
      <trkpt lat="47.59529" lon="-2.86804">
        <time>2014-03-29T10:37:58Z</time>
      </trkpt>
      <trkpt lat="47.59533" lon="-2.86799">
        <time>2014-03-29T10:38:02Z</time>
      </trkpt>
      <trkpt lat="47.59536" lon="-2.86794">
        <time>2014-03-29T10:38:04Z</time>
      </trkpt>
      <trkpt lat="47.5954" lon="-2.86787">
        <time>2014-03-29T10:38:09Z</time>
      </trkpt>
      <trkpt lat="47.59544" lon="-2.86782">
        <time>2014-03-29T10:38:11Z</time>
      </trkpt>
      <trkpt lat="47.59547" lon="-2.86776">
        <time>2014-03-29T10:38:14Z</time>
      </trkpt>
      <trkpt lat="47.59551" lon="-2.8677">
        <time>2014-03-29T10:38:18Z</time>
      </trkpt>
      <trkpt lat="47.59555" lon="-2.86765">
        <time>2014-03-29T10:38:20Z</time>
      </trkpt>
      <trkpt lat="47.59559" lon="-2.86761">
        <time>2014-03-29T10:38:23Z</time>
      </trkpt>
      <trkpt lat="47.59562" lon="-2.86756">
        <time>2014-03-29T10:38:26Z</time>
      </trkpt>
      <trkpt lat="47.59565" lon="-2.86751">
        <time>2014-03-29T10:38:30Z</time>
      </trkpt>
      <trkpt lat="47.59569" lon="-2.86747">
        <time>2014-03-29T10:38:32Z</time>
      </trkpt>
      <trkpt lat="47.59573" lon="-2.86741">
        <time>2014-03-29T10:38:36Z</time>
      </trkpt>
      <trkpt lat="47.59577" lon="-2.86737">
        <time>2014-03-29T10:38:41Z</time>
      </trkpt>
      <trkpt lat="47.59582" lon="-2.86737">
        <time>2014-03-29T10:38:47Z</time>
      </trkpt>
      <trkpt lat="47.59586" lon="-2.8674">
        <time>2014-03-29T10:38:54Z</time>
      </trkpt>
      <trkpt lat="47.59591" lon="-2.86741">
        <time>2014-03-29T10:39:02Z</time>
      </trkpt>
      <trkpt lat="47.59595" lon="-2.86744">
        <time>2014-03-29T10:39:22Z</time>
      </trkpt>
      <trkpt lat="47.59599" lon="-2.86748">
        <time>2014-03-29T10:40:01Z</time>
      </trkpt>
      <trkpt lat="47.59604" lon="-2.8675">
        <time>2014-03-29T10:40:22Z</time>
      </trkpt>
      <trkpt lat="47.59609" lon="-2.86748">
        <time>2014-03-29T10:40:26Z</time>
      </trkpt>
      <trkpt lat="47.59613" lon="-2.86744">
        <time>2014-03-29T10:40:29Z</time>
      </trkpt>
      <trkpt lat="47.59617" lon="-2.86737">
        <time>2014-03-29T10:40:33Z</time>
      </trkpt>
      <trkpt lat="47.59619" lon="-2.8673">
        <time>2014-03-29T10:40:35Z</time>
      </trkpt>
      <trkpt lat="47.59621" lon="-2.86723">
        <time>2014-03-29T10:40:39Z</time>
      </trkpt>
      <trkpt lat="47.59623" lon="-2.86715">
        <time>2014-03-29T10:40:41Z</time>
      </trkpt>
      <trkpt lat="47.59624" lon="-2.86707">
        <time>2014-03-29T10:40:44Z</time>
      </trkpt>
      <trkpt lat="47.59626" lon="-2.86699">
        <time>2014-03-29T10:40:47Z</time>
      </trkpt>
      <trkpt lat="47.59626" lon="-2.86692">
        <time>2014-03-29T10:40:50Z</time>
      </trkpt>
      <trkpt lat="47.59627" lon="-2.86684">
        <time>2014-03-29T10:40:54Z</time>
      </trkpt>
      <trkpt lat="47.59628" lon="-2.86675">
        <time>2014-03-29T10:40:56Z</time>
      </trkpt>
      <trkpt lat="47.59628" lon="-2.86666">
        <time>2014-03-29T10:41:00Z</time>
      </trkpt>
      <trkpt lat="47.59629" lon="-2.86658">
        <time>2014-03-29T10:41:02Z</time>
      </trkpt>
      <trkpt lat="47.59629" lon="-2.86649">
        <time>2014-03-29T10:41:06Z</time>
      </trkpt>
      <trkpt lat="47.59629" lon="-2.86642">
        <time>2014-03-29T10:41:08Z</time>
      </trkpt>
      <trkpt lat="47.59629" lon="-2.86634">
        <time>2014-03-29T10:41:12Z</time>
      </trkpt>
      <trkpt lat="47.59629" lon="-2.86626">
        <time>2014-03-29T10:41:14Z</time>
      </trkpt>
      <trkpt lat="47.59629" lon="-2.86618">
        <time>2014-03-29T10:41:17Z</time>
      </trkpt>
      <trkpt lat="47.5963" lon="-2.8661">
        <time>2014-03-29T10:41:20Z</time>
      </trkpt>
      <trkpt lat="47.59631" lon="-2.86602">
        <time>2014-03-29T10:41:23Z</time>
      </trkpt>
      <trkpt lat="47.59631" lon="-2.86595">
        <time>2014-03-29T10:41:26Z</time>
      </trkpt>
      <trkpt lat="47.59631" lon="-2.86588">
        <time>2014-03-29T10:41:29Z</time>
      </trkpt>
      <trkpt lat="47.59632" lon="-2.86581">
        <ele>3</ele>
        <time>2014-03-29T10:41:33Z</time>
      </trkpt>
      <trkpt lat="47.59633" lon="-2.86574">
        <ele>3</ele>
        <time>2014-03-29T10:41:35Z</time>
      </trkpt>
      <trkpt lat="47.59633" lon="-2.86566">
        <ele>3</ele>
        <time>2014-03-29T10:41:39Z</time>
      </trkpt>
      <trkpt lat="47.59633" lon="-2.86558">
        <ele>3</ele>
        <time>2014-03-29T10:41:42Z</time>
      </trkpt>
      <trkpt lat="47.59633" lon="-2.86551">
        <ele>3</ele>
        <time>2014-03-29T10:41:46Z</time>
      </trkpt>
      <trkpt lat="47.59633" lon="-2.86544">
        <ele>3</ele>
        <time>2014-03-29T10:41:48Z</time>
      </trkpt>
      <trkpt lat="47.59633" lon="-2.86535">
        <ele>3</ele>
        <time>2014-03-29T10:41:53Z</time>
      </trkpt>
      <trkpt lat="47.59633" lon="-2.86528">
        <ele>3</ele>
        <time>2014-03-29T10:41:55Z</time>
      </trkpt>
      <trkpt lat="47.59634" lon="-2.8652">
        <ele>3</ele>
        <time>2014-03-29T10:41:58Z</time>
      </trkpt>
      <trkpt lat="47.59635" lon="-2.86513">
        <ele>3</ele>
        <time>2014-03-29T10:42:01Z</time>
      </trkpt>
      <trkpt lat="47.59635" lon="-2.86506">
        <ele>3</ele>
        <time>2014-03-29T10:42:04Z</time>
      </trkpt>
      <trkpt lat="47.59635" lon="-2.86499">
        <ele>3</ele>
        <time>2014-03-29T10:42:07Z</time>
      </trkpt>
      <trkpt lat="47.59636" lon="-2.86492">
        <ele>3</ele>
        <time>2014-03-29T10:42:10Z</time>
      </trkpt>
      <trkpt lat="47.59636" lon="-2.86485">
        <ele>3</ele>
        <time>2014-03-29T10:42:13Z</time>
      </trkpt>
      <trkpt lat="47.59637" lon="-2.86478">
        <ele>3</ele>
        <time>2014-03-29T10:42:16Z</time>
      </trkpt>
      <trkpt lat="47.59637" lon="-2.8647">
        <ele>3</ele>
        <time>2014-03-29T10:42:20Z</time>
      </trkpt>
      <trkpt lat="47.59637" lon="-2.86463">
        <ele>3</ele>
        <time>2014-03-29T10:42:22Z</time>
      </trkpt>
      <trkpt lat="47.59637" lon="-2.86456">
        <ele>4</ele>
        <time>2014-03-29T10:42:25Z</time>
      </trkpt>
      <trkpt lat="47.59637" lon="-2.86449">
        <ele>4</ele>
        <time>2014-03-29T10:42:28Z</time>
      </trkpt>
      <trkpt lat="47.59637" lon="-2.86442">
        <ele>4</ele>
        <time>2014-03-29T10:42:32Z</time>
      </trkpt>
      <trkpt lat="47.59637" lon="-2.86435">
        <ele>4</ele>
        <time>2014-03-29T10:42:34Z</time>
      </trkpt>
      <trkpt lat="47.59637" lon="-2.86428">
        <ele>4</ele>
        <time>2014-03-29T10:42:37Z</time>
      </trkpt>
      <trkpt lat="47.59637" lon="-2.86421">
        <ele>4</ele>
        <time>2014-03-29T10:42:41Z</time>
      </trkpt>
      <trkpt lat="47.59637" lon="-2.86414">
        <ele>4</ele>
        <time>2014-03-29T10:42:43Z</time>
      </trkpt>
      <trkpt lat="47.59637" lon="-2.86406">
        <ele>4</ele>
        <time>2014-03-29T10:42:47Z</time>
      </trkpt>
      <trkpt lat="47.59636" lon="-2.86399">
        <ele>4</ele>
        <time>2014-03-29T10:42:49Z</time>
      </trkpt>
      <trkpt lat="47.59635" lon="-2.86392">
        <ele>4</ele>
        <time>2014-03-29T10:42:52Z</time>
      </trkpt>
      <trkpt lat="47.59635" lon="-2.86385">
        <ele>4</ele>
        <time>2014-03-29T10:42:55Z</time>
      </trkpt>
      <trkpt lat="47.59635" lon="-2.86378">
        <ele>4</ele>
        <time>2014-03-29T10:42:59Z</time>
      </trkpt>
      <trkpt lat="47.59635" lon="-2.86369">
        <ele>5</ele>
        <time>2014-03-29T10:43:02Z</time>
      </trkpt>
      <trkpt lat="47.59635" lon="-2.86362">
        <ele>5</ele>
        <time>2014-03-29T10:43:06Z</time>
      </trkpt>
      <trkpt lat="47.59636" lon="-2.86355">
        <ele>5</ele>
        <time>2014-03-29T10:43:08Z</time>
      </trkpt>
      <trkpt lat="47.59637" lon="-2.86348">
        <ele>5</ele>
        <time>2014-03-29T10:43:12Z</time>
      </trkpt>
      <trkpt lat="47.59639" lon="-2.86341">
        <ele>5</ele>
        <time>2014-03-29T10:43:14Z</time>
      </trkpt>
      <trkpt lat="47.59641" lon="-2.86333">
        <ele>5</ele>
        <time>2014-03-29T10:43:18Z</time>
      </trkpt>
      <trkpt lat="47.59642" lon="-2.86326">
        <ele>5</ele>
        <time>2014-03-29T10:43:22Z</time>
      </trkpt>
      <trkpt lat="47.59645" lon="-2.86318">
        <ele>5</ele>
        <time>2014-03-29T10:43:27Z</time>
      </trkpt>
      <trkpt lat="47.59647" lon="-2.86311">
        <ele>5</ele>
        <time>2014-03-29T10:43:29Z</time>
      </trkpt>
      <trkpt lat="47.59649" lon="-2.86304">
        <ele>5</ele>
        <time>2014-03-29T10:43:32Z</time>
      </trkpt>
      <trkpt lat="47.5965" lon="-2.86297">
        <ele>5</ele>
        <time>2014-03-29T10:43:35Z</time>
      </trkpt>
      <trkpt lat="47.59652" lon="-2.8629">
        <ele>5</ele>
        <time>2014-03-29T10:43:38Z</time>
      </trkpt>
      <trkpt lat="47.59655" lon="-2.86283">
        <ele>5</ele>
        <time>2014-03-29T10:43:41Z</time>
      </trkpt>
      <trkpt lat="47.59657" lon="-2.86277">
        <ele>5</ele>
        <time>2014-03-29T10:43:44Z</time>
      </trkpt>
      <trkpt lat="47.59659" lon="-2.8627">
        <ele>5</ele>
        <time>2014-03-29T10:43:47Z</time>
      </trkpt>
      <trkpt lat="47.5966" lon="-2.86264">
        <ele>5</ele>
        <time>2014-03-29T10:43:50Z</time>
      </trkpt>
      <trkpt lat="47.59663" lon="-2.86256">
        <ele>5</ele>
        <time>2014-03-29T10:43:54Z</time>
      </trkpt>
      <trkpt lat="47.59665" lon="-2.86248">
        <time>2014-03-29T10:43:59Z</time>
      </trkpt>
      <trkpt lat="47.59668" lon="-2.86242">
        <ele>9</ele>
        <time>2014-03-29T10:44:02Z</time>
      </trkpt>
      <trkpt lat="47.59672" lon="-2.86236">
        <ele>9</ele>
        <time>2014-03-29T10:44:07Z</time>
      </trkpt>
      <trkpt lat="47.59675" lon="-2.86231">
        <ele>9</ele>
        <time>2014-03-29T10:44:09Z</time>
      </trkpt>
      <trkpt lat="47.59679" lon="-2.86226">
        <ele>9</ele>
        <time>2014-03-29T10:44:12Z</time>
      </trkpt>
      <trkpt lat="47.59682" lon="-2.86222">
        <ele>9</ele>
        <time>2014-03-29T10:44:15Z</time>
      </trkpt>
      <trkpt lat="47.59686" lon="-2.86218">
        <ele>9</ele>
        <time>2014-03-29T10:44:18Z</time>
      </trkpt>
      <trkpt lat="47.59691" lon="-2.86214">
        <ele>9</ele>
        <time>2014-03-29T10:44:22Z</time>
      </trkpt>
      <trkpt lat="47.59695" lon="-2.8621">
        <ele>9</ele>
        <time>2014-03-29T10:44:26Z</time>
      </trkpt>
      <trkpt lat="47.59699" lon="-2.86205">
        <ele>8</ele>
        <time>2014-03-29T10:44:29Z</time>
      </trkpt>
      <trkpt lat="47.59704" lon="-2.86202">
        <ele>8</ele>
        <time>2014-03-29T10:44:31Z</time>
      </trkpt>
      <trkpt lat="47.59707" lon="-2.86198">
        <ele>8</ele>
        <time>2014-03-29T10:44:35Z</time>
      </trkpt>
      <trkpt lat="47.59712" lon="-2.86193">
        <ele>8</ele>
        <time>2014-03-29T10:44:39Z</time>
      </trkpt>
      <trkpt lat="47.59717" lon="-2.86187">
        <ele>7</ele>
        <time>2014-03-29T10:44:43Z</time>
      </trkpt>
      <trkpt lat="47.59721" lon="-2.86181">
        <ele>7</ele>
        <time>2014-03-29T10:44:46Z</time>
      </trkpt>
      <trkpt lat="47.59724" lon="-2.86175">
        <ele>7</ele>
        <time>2014-03-29T10:44:49Z</time>
      </trkpt>
      <trkpt lat="47.59727" lon="-2.86169">
        <ele>7</ele>
        <time>2014-03-29T10:44:52Z</time>
      </trkpt>
      <trkpt lat="47.59731" lon="-2.86164">
        <ele>5</ele>
        <time>2014-03-29T10:44:55Z</time>
      </trkpt>
      <trkpt lat="47.59735" lon="-2.8616">
        <ele>5</ele>
        <time>2014-03-29T10:44:58Z</time>
      </trkpt>
      <trkpt lat="47.59739" lon="-2.86156">
        <ele>5</ele>
        <time>2014-03-29T10:45:01Z</time>
      </trkpt>
      <trkpt lat="47.59744" lon="-2.86152">
        <ele>5</ele>
        <time>2014-03-29T10:45:04Z</time>
      </trkpt>
      <trkpt lat="47.59748" lon="-2.86148">
        <ele>5</ele>
        <time>2014-03-29T10:45:07Z</time>
      </trkpt>
      <trkpt lat="47.59753" lon="-2.86144">
        <ele>6</ele>
        <time>2014-03-29T10:45:11Z</time>
      </trkpt>
      <trkpt lat="47.59758" lon="-2.86141">
        <ele>7</ele>
        <time>2014-03-29T10:45:13Z</time>
      </trkpt>
      <trkpt lat="47.59763" lon="-2.86136">
        <ele>7</ele>
        <time>2014-03-29T10:45:16Z</time>
      </trkpt>
      <trkpt lat="47.59766" lon="-2.86131">
        <ele>7</ele>
        <time>2014-03-29T10:45:20Z</time>
      </trkpt>
      <trkpt lat="47.5977" lon="-2.86126">
        <ele>8</ele>
        <time>2014-03-29T10:45:22Z</time>
      </trkpt>
      <trkpt lat="47.59774" lon="-2.86122">
        <ele>8</ele>
        <time>2014-03-29T10:45:25Z</time>
      </trkpt>
      <trkpt lat="47.59778" lon="-2.86118">
        <ele>8</ele>
        <time>2014-03-29T10:45:28Z</time>
      </trkpt>
      <trkpt lat="47.59782" lon="-2.86113">
        <ele>8</ele>
        <time>2014-03-29T10:45:31Z</time>
      </trkpt>
      <trkpt lat="47.59786" lon="-2.86108">
        <ele>8</ele>
        <time>2014-03-29T10:45:35Z</time>
      </trkpt>
      <trkpt lat="47.59791" lon="-2.86102">
        <ele>8</ele>
        <time>2014-03-29T10:45:39Z</time>
      </trkpt>
      <trkpt lat="47.59795" lon="-2.86098">
        <ele>9</ele>
        <time>2014-03-29T10:45:43Z</time>
      </trkpt>
      <trkpt lat="47.59798" lon="-2.86094">
        <ele>9</ele>
        <time>2014-03-29T10:45:45Z</time>
      </trkpt>
      <trkpt lat="47.59802" lon="-2.8609">
        <ele>9</ele>
        <time>2014-03-29T10:45:48Z</time>
      </trkpt>
      <trkpt lat="47.59807" lon="-2.86084">
        <ele>9</ele>
        <time>2014-03-29T10:45:53Z</time>
      </trkpt>
      <trkpt lat="47.59811" lon="-2.86079">
        <time>2014-03-29T10:45:57Z</time>
      </trkpt>
      <trkpt lat="47.59815" lon="-2.86075">
        <time>2014-03-29T10:45:59Z</time>
      </trkpt>
      <trkpt lat="47.59819" lon="-2.8607">
        <time>2014-03-29T10:46:02Z</time>
      </trkpt>
      <trkpt lat="47.59824" lon="-2.86066">
        <time>2014-03-29T10:46:07Z</time>
      </trkpt>
      <trkpt lat="47.59829" lon="-2.86062">
        <time>2014-03-29T10:46:11Z</time>
      </trkpt>
      <trkpt lat="47.59833" lon="-2.86059">
        <time>2014-03-29T10:46:13Z</time>
      </trkpt>
      <trkpt lat="47.59838" lon="-2.86055">
        <time>2014-03-29T10:46:17Z</time>
      </trkpt>
      <trkpt lat="47.59842" lon="-2.86051">
        <time>2014-03-29T10:46:21Z</time>
      </trkpt>
      <trkpt lat="47.59846" lon="-2.86046">
        <time>2014-03-29T10:46:25Z</time>
      </trkpt>
      <trkpt lat="47.59851" lon="-2.86042">
        <time>2014-03-29T10:46:29Z</time>
      </trkpt>
      <trkpt lat="47.59855" lon="-2.8604">
        <time>2014-03-29T10:46:33Z</time>
      </trkpt>
      <trkpt lat="47.5986" lon="-2.86036">
        <time>2014-03-29T10:46:37Z</time>
      </trkpt>
      <trkpt lat="47.59865" lon="-2.8603">
        <time>2014-03-29T10:46:40Z</time>
      </trkpt>
      <trkpt lat="47.5987" lon="-2.86027">
        <time>2014-03-29T10:46:44Z</time>
      </trkpt>
      <trkpt lat="47.59875" lon="-2.86026">
        <time>2014-03-29T10:46:48Z</time>
      </trkpt>
      <trkpt lat="47.59879" lon="-2.86024">
        <time>2014-03-29T10:46:51Z</time>
      </trkpt>
      <trkpt lat="47.59884" lon="-2.86022">
        <time>2014-03-29T10:46:53Z</time>
      </trkpt>
      <trkpt lat="47.59888" lon="-2.8602">
        <time>2014-03-29T10:46:57Z</time>
      </trkpt>
      <trkpt lat="47.59893" lon="-2.86018">
        <time>2014-03-29T10:47:00Z</time>
      </trkpt>
      <trkpt lat="47.59898" lon="-2.86015">
        <time>2014-03-29T10:47:02Z</time>
      </trkpt>
      <trkpt lat="47.59903" lon="-2.8601">
        <time>2014-03-29T10:47:05Z</time>
      </trkpt>
      <trkpt lat="47.59908" lon="-2.86005">
        <time>2014-03-29T10:47:09Z</time>
      </trkpt>
      <trkpt lat="47.59913" lon="-2.86002">
        <time>2014-03-29T10:47:11Z</time>
      </trkpt>
      <trkpt lat="47.59918" lon="-2.85999">
        <ele>6</ele>
        <time>2014-03-29T10:47:15Z</time>
      </trkpt>
      <trkpt lat="47.59922" lon="-2.85997">
        <ele>6</ele>
        <time>2014-03-29T10:47:17Z</time>
      </trkpt>
      <trkpt lat="47.59928" lon="-2.85995">
        <ele>6</ele>
        <time>2014-03-29T10:47:20Z</time>
      </trkpt>
      <trkpt lat="47.59933" lon="-2.85993">
        <ele>6</ele>
        <time>2014-03-29T10:47:24Z</time>
      </trkpt>
      <trkpt lat="47.59939" lon="-2.8599">
        <ele>6</ele>
        <time>2014-03-29T10:47:26Z</time>
      </trkpt>
      <trkpt lat="47.59944" lon="-2.85986">
        <ele>6</ele>
        <time>2014-03-29T10:47:29Z</time>
      </trkpt>
      <trkpt lat="47.59949" lon="-2.85982">
        <ele>6</ele>
        <time>2014-03-29T10:47:32Z</time>
      </trkpt>
      <trkpt lat="47.59954" lon="-2.85979">
        <ele>6</ele>
        <time>2014-03-29T10:47:35Z</time>
      </trkpt>
      <trkpt lat="47.5996" lon="-2.85975">
        <ele>6</ele>
        <time>2014-03-29T10:47:38Z</time>
      </trkpt>
      <trkpt lat="47.59965" lon="-2.85972">
        <ele>6</ele>
        <time>2014-03-29T10:47:42Z</time>
      </trkpt>
      <trkpt lat="47.5997" lon="-2.85968">
        <ele>6</ele>
        <time>2014-03-29T10:47:44Z</time>
      </trkpt>
      <trkpt lat="47.59976" lon="-2.85965">
        <ele>6</ele>
        <time>2014-03-29T10:47:47Z</time>
      </trkpt>
      <trkpt lat="47.59982" lon="-2.85962">
        <ele>6</ele>
        <time>2014-03-29T10:47:51Z</time>
      </trkpt>
      <trkpt lat="47.59987" lon="-2.85957">
        <ele>6</ele>
        <time>2014-03-29T10:47:53Z</time>
      </trkpt>
      <trkpt lat="47.59991" lon="-2.85952">
        <ele>6</ele>
        <time>2014-03-29T10:47:56Z</time>
      </trkpt>
      <trkpt lat="47.59995" lon="-2.85947">
        <ele>6</ele>
        <time>2014-03-29T10:48:00Z</time>
      </trkpt>
      <trkpt lat="47.6" lon="-2.85942">
        <ele>6</ele>
        <time>2014-03-29T10:48:02Z</time>
      </trkpt>
      <trkpt lat="47.60005" lon="-2.85939">
        <ele>8</ele>
        <time>2014-03-29T10:48:06Z</time>
      </trkpt>
      <trkpt lat="47.6001" lon="-2.85936">
        <ele>8</ele>
        <time>2014-03-29T10:48:09Z</time>
      </trkpt>
      <trkpt lat="47.60015" lon="-2.85932">
        <ele>8</ele>
        <time>2014-03-29T10:48:11Z</time>
      </trkpt>
      <trkpt lat="47.60019" lon="-2.85927">
        <ele>8</ele>
        <time>2014-03-29T10:48:15Z</time>
      </trkpt>
      <trkpt lat="47.60023" lon="-2.85923">
        <ele>8</ele>
        <time>2014-03-29T10:48:18Z</time>
      </trkpt>
      <trkpt lat="47.60028" lon="-2.85918">
        <ele>8</ele>
        <time>2014-03-29T10:48:20Z</time>
      </trkpt>
      <trkpt lat="47.60032" lon="-2.85913">
        <ele>8</ele>
        <time>2014-03-29T10:48:24Z</time>
      </trkpt>
      <trkpt lat="47.60037" lon="-2.8591">
        <ele>8</ele>
        <time>2014-03-29T10:48:27Z</time>
      </trkpt>
      <trkpt lat="47.60042" lon="-2.85907">
        <ele>8</ele>
        <time>2014-03-29T10:48:29Z</time>
      </trkpt>
      <trkpt lat="47.60047" lon="-2.85905">
        <ele>8</ele>
        <time>2014-03-29T10:48:33Z</time>
      </trkpt>
      <trkpt lat="47.60052" lon="-2.85902">
        <ele>8</ele>
        <time>2014-03-29T10:48:36Z</time>
      </trkpt>
      <trkpt lat="47.60056" lon="-2.85898">
        <ele>8</ele>
        <time>2014-03-29T10:48:38Z</time>
      </trkpt>
      <trkpt lat="47.6006" lon="-2.85894">
        <ele>8</ele>
        <time>2014-03-29T10:48:42Z</time>
      </trkpt>
      <trkpt lat="47.60065" lon="-2.8589">
        <ele>8</ele>
        <time>2014-03-29T10:48:45Z</time>
      </trkpt>
      <trkpt lat="47.60069" lon="-2.85885">
        <ele>8</ele>
        <time>2014-03-29T10:48:47Z</time>
      </trkpt>
      <trkpt lat="47.60073" lon="-2.85881">
        <ele>8</ele>
        <time>2014-03-29T10:48:51Z</time>
      </trkpt>
      <trkpt lat="47.60077" lon="-2.85877">
        <ele>8</ele>
        <time>2014-03-29T10:48:54Z</time>
      </trkpt>
      <trkpt lat="47.60082" lon="-2.85873">
        <ele>8</ele>
        <time>2014-03-29T10:48:56Z</time>
      </trkpt>
      <trkpt lat="47.60087" lon="-2.8587">
        <ele>9</ele>
        <time>2014-03-29T10:49:00Z</time>
      </trkpt>
      <trkpt lat="47.60092" lon="-2.85869">
        <ele>9</ele>
        <time>2014-03-29T10:49:02Z</time>
      </trkpt>
      <trkpt lat="47.60098" lon="-2.85869">
        <ele>9</ele>
        <time>2014-03-29T10:49:06Z</time>
      </trkpt>
      <trkpt lat="47.60103" lon="-2.85868">
        <ele>9</ele>
        <time>2014-03-29T10:49:10Z</time>
      </trkpt>
      <trkpt lat="47.60108" lon="-2.85866">
        <ele>9</ele>
        <time>2014-03-29T10:49:14Z</time>
      </trkpt>
      <trkpt lat="47.60113" lon="-2.85864">
        <ele>9</ele>
        <time>2014-03-29T10:49:19Z</time>
      </trkpt>
      <trkpt lat="47.60117" lon="-2.85861">
        <ele>9</ele>
        <time>2014-03-29T10:49:37Z</time>
      </trkpt>
      <trkpt lat="47.60122" lon="-2.85862">
        <ele>9</ele>
        <time>2014-03-29T10:49:42Z</time>
      </trkpt>
      <trkpt lat="47.60127" lon="-2.85862">
        <ele>9</ele>
        <time>2014-03-29T10:49:46Z</time>
      </trkpt>
      <trkpt lat="47.60133" lon="-2.85861">
        <ele>9</ele>
        <time>2014-03-29T10:49:50Z</time>
      </trkpt>
      <trkpt lat="47.60138" lon="-2.8586">
        <ele>9</ele>
        <time>2014-03-29T10:49:54Z</time>
      </trkpt>
      <trkpt lat="47.60144" lon="-2.85859">
        <ele>9</ele>
        <time>2014-03-29T10:49:59Z</time>
      </trkpt>
      <trkpt lat="47.60149" lon="-2.85858">
        <ele>9</ele>
        <time>2014-03-29T10:50:04Z</time>
      </trkpt>
      <trkpt lat="47.60153" lon="-2.85854">
        <ele>9</ele>
        <time>2014-03-29T10:50:09Z</time>
      </trkpt>
      <trkpt lat="47.60158" lon="-2.85851">
        <ele>9</ele>
        <time>2014-03-29T10:50:14Z</time>
      </trkpt>
      <trkpt lat="47.60161" lon="-2.85846">
        <ele>9</ele>
        <time>2014-03-29T10:50:18Z</time>
      </trkpt>
      <trkpt lat="47.60161" lon="-2.85839">
        <ele>9</ele>
        <time>2014-03-29T10:50:26Z</time>
      </trkpt>
      <trkpt lat="47.6016" lon="-2.85832">
        <time>2014-03-29T10:50:32Z</time>
      </trkpt>
      <trkpt lat="47.6016" lon="-2.85825">
        <time>2014-03-29T10:50:37Z</time>
      </trkpt>
      <trkpt lat="47.6016" lon="-2.85818">
        <time>2014-03-29T10:50:41Z</time>
      </trkpt>
      <trkpt lat="47.60159" lon="-2.8581">
        <time>2014-03-29T10:50:45Z</time>
      </trkpt>
      <trkpt lat="47.60159" lon="-2.85802">
        <time>2014-03-29T10:50:49Z</time>
      </trkpt>
      <trkpt lat="47.60159" lon="-2.85794">
        <time>2014-03-29T10:50:53Z</time>
      </trkpt>
      <trkpt lat="47.60158" lon="-2.85786">
        <time>2014-03-29T10:50:57Z</time>
      </trkpt>
      <trkpt lat="47.60159" lon="-2.85779">
        <time>2014-03-29T10:51:01Z</time>
      </trkpt>
      <trkpt lat="47.60161" lon="-2.85772">
        <time>2014-03-29T10:51:06Z</time>
      </trkpt>
      <trkpt lat="47.60162" lon="-2.85765">
        <time>2014-03-29T10:51:10Z</time>
      </trkpt>
      <trkpt lat="47.60164" lon="-2.85757">
        <time>2014-03-29T10:51:14Z</time>
      </trkpt>
      <trkpt lat="47.60165" lon="-2.85749">
        <time>2014-03-29T10:51:18Z</time>
      </trkpt>
      <trkpt lat="47.60167" lon="-2.85741">
        <time>2014-03-29T10:51:22Z</time>
      </trkpt>
      <trkpt lat="47.60167" lon="-2.85733">
        <time>2014-03-29T10:51:27Z</time>
      </trkpt>
      <trkpt lat="47.60168" lon="-2.85726">
        <time>2014-03-29T10:51:30Z</time>
      </trkpt>
      <trkpt lat="47.6017" lon="-2.85719">
        <time>2014-03-29T10:51:32Z</time>
      </trkpt>
      <trkpt lat="47.60172" lon="-2.85713">
        <time>2014-03-29T10:51:35Z</time>
      </trkpt>
      <trkpt lat="47.60174" lon="-2.85707">
        <time>2014-03-29T10:51:39Z</time>
      </trkpt>
      <trkpt lat="47.60176" lon="-2.857">
        <time>2014-03-29T10:51:41Z</time>
      </trkpt>
      <trkpt lat="47.60178" lon="-2.85692">
        <time>2014-03-29T10:51:45Z</time>
      </trkpt>
      <trkpt lat="47.60181" lon="-2.85685">
        <time>2014-03-29T10:51:48Z</time>
      </trkpt>
      <trkpt lat="47.60183" lon="-2.85678">
        <time>2014-03-29T10:51:50Z</time>
      </trkpt>
      <trkpt lat="47.60185" lon="-2.85671">
        <time>2014-03-29T10:51:54Z</time>
      </trkpt>
      <trkpt lat="47.60186" lon="-2.85663">
        <time>2014-03-29T10:51:57Z</time>
      </trkpt>
      <trkpt lat="47.60187" lon="-2.85656">
        <time>2014-03-29T10:51:59Z</time>
      </trkpt>
      <trkpt lat="47.60189" lon="-2.85649">
        <time>2014-03-29T10:52:03Z</time>
      </trkpt>
      <trkpt lat="47.60191" lon="-2.85642">
        <time>2014-03-29T10:52:06Z</time>
      </trkpt>
      <trkpt lat="47.60193" lon="-2.85635">
        <time>2014-03-29T10:52:08Z</time>
      </trkpt>
      <trkpt lat="47.60195" lon="-2.8563">
        <time>2014-03-29T10:52:12Z</time>
      </trkpt>
      <trkpt lat="47.60198" lon="-2.85623">
        <time>2014-03-29T10:52:14Z</time>
      </trkpt>
      <trkpt lat="47.602" lon="-2.85616">
        <time>2014-03-29T10:52:17Z</time>
      </trkpt>
      <trkpt lat="47.60202" lon="-2.85608">
        <time>2014-03-29T10:52:21Z</time>
      </trkpt>
      <trkpt lat="47.60204" lon="-2.85601">
        <time>2014-03-29T10:52:23Z</time>
      </trkpt>
      <trkpt lat="47.60207" lon="-2.85595">
        <time>2014-03-29T10:52:26Z</time>
      </trkpt>
      <trkpt lat="47.6021" lon="-2.85589">
        <time>2014-03-29T10:52:30Z</time>
      </trkpt>
      <trkpt lat="47.60213" lon="-2.85583">
        <time>2014-03-29T10:52:32Z</time>
      </trkpt>
      <trkpt lat="47.60216" lon="-2.85577">
        <time>2014-03-29T10:52:35Z</time>
      </trkpt>
      <trkpt lat="47.60219" lon="-2.85571">
        <time>2014-03-29T10:52:39Z</time>
      </trkpt>
      <trkpt lat="47.60222" lon="-2.85566">
        <time>2014-03-29T10:52:41Z</time>
      </trkpt>
      <trkpt lat="47.60226" lon="-2.85561">
        <time>2014-03-29T10:52:44Z</time>
      </trkpt>
      <trkpt lat="47.60229" lon="-2.85555">
        <time>2014-03-29T10:52:48Z</time>
      </trkpt>
      <trkpt lat="47.60233" lon="-2.8555">
        <time>2014-03-29T10:52:50Z</time>
      </trkpt>
      <trkpt lat="47.60235" lon="-2.85544">
        <time>2014-03-29T10:52:54Z</time>
      </trkpt>
      <trkpt lat="47.60238" lon="-2.85538">
        <time>2014-03-29T10:52:57Z</time>
      </trkpt>
      <trkpt lat="47.60241" lon="-2.85532">
        <time>2014-03-29T10:52:59Z</time>
      </trkpt>
      <trkpt lat="47.60243" lon="-2.85525">
        <time>2014-03-29T10:53:03Z</time>
      </trkpt>
      <trkpt lat="47.60246" lon="-2.85519">
        <time>2014-03-29T10:53:07Z</time>
      </trkpt>
      <trkpt lat="47.60249" lon="-2.85513">
        <time>2014-03-29T10:53:11Z</time>
      </trkpt>
      <trkpt lat="47.60251" lon="-2.85506">
        <time>2014-03-29T10:53:16Z</time>
      </trkpt>
      <trkpt lat="47.60253" lon="-2.855">
        <time>2014-03-29T10:53:20Z</time>
      </trkpt>
      <trkpt lat="47.60255" lon="-2.85493">
        <time>2014-03-29T10:53:24Z</time>
      </trkpt>
      <trkpt lat="47.60257" lon="-2.85486">
        <time>2014-03-29T10:53:27Z</time>
      </trkpt>
      <trkpt lat="47.60258" lon="-2.85478">
        <time>2014-03-29T10:53:31Z</time>
      </trkpt>
      <trkpt lat="47.60258" lon="-2.8547">
        <time>2014-03-29T10:53:35Z</time>
      </trkpt>
      <trkpt lat="47.60258" lon="-2.85463">
        <time>2014-03-29T10:53:39Z</time>
      </trkpt>
      <trkpt lat="47.60258" lon="-2.85455">
        <time>2014-03-29T10:53:43Z</time>
      </trkpt>
      <trkpt lat="47.60259" lon="-2.85447">
        <time>2014-03-29T10:53:47Z</time>
      </trkpt>
      <trkpt lat="47.6026" lon="-2.85439">
        <time>2014-03-29T10:53:50Z</time>
      </trkpt>
      <trkpt lat="47.6026" lon="-2.85431">
        <time>2014-03-29T10:53:54Z</time>
      </trkpt>
      <trkpt lat="47.6026" lon="-2.85423">
        <time>2014-03-29T10:53:58Z</time>
      </trkpt>
      <trkpt lat="47.6026" lon="-2.85415">
        <time>2014-03-29T10:54:02Z</time>
      </trkpt>
      <trkpt lat="47.6026" lon="-2.85408">
        <time>2014-03-29T10:54:07Z</time>
      </trkpt>
      <trkpt lat="47.60262" lon="-2.85401">
        <time>2014-03-29T10:54:57Z</time>
      </trkpt>
      <trkpt lat="47.60265" lon="-2.85394">
        <time>2014-03-29T10:55:02Z</time>
      </trkpt>
      <trkpt lat="47.60268" lon="-2.85389">
        <time>2014-03-29T10:55:05Z</time>
      </trkpt>
      <trkpt lat="47.6027" lon="-2.85383">
        <time>2014-03-29T10:55:07Z</time>
      </trkpt>
      <trkpt lat="47.60273" lon="-2.85377">
        <time>2014-03-29T10:55:11Z</time>
      </trkpt>
      <trkpt lat="47.60275" lon="-2.8537">
        <time>2014-03-29T10:55:14Z</time>
      </trkpt>
      <trkpt lat="47.60279" lon="-2.85363">
        <time>2014-03-29T10:55:17Z</time>
      </trkpt>
      <trkpt lat="47.60282" lon="-2.85358">
        <time>2014-03-29T10:55:21Z</time>
      </trkpt>
      <trkpt lat="47.60285" lon="-2.85352">
        <time>2014-03-29T10:55:25Z</time>
      </trkpt>
      <trkpt lat="47.60289" lon="-2.85346">
        <time>2014-03-29T10:55:29Z</time>
      </trkpt>
      <trkpt lat="47.60292" lon="-2.85341">
        <time>2014-03-29T10:55:34Z</time>
      </trkpt>
      <trkpt lat="47.60295" lon="-2.85335">
        <time>2014-03-29T10:55:38Z</time>
      </trkpt>
      <trkpt lat="47.60298" lon="-2.85328">
        <time>2014-03-29T10:55:42Z</time>
      </trkpt>
      <trkpt lat="47.60301" lon="-2.85322">
        <time>2014-03-29T10:55:46Z</time>
      </trkpt>
      <trkpt lat="47.60305" lon="-2.85316">
        <time>2014-03-29T10:55:50Z</time>
      </trkpt>
      <trkpt lat="47.60308" lon="-2.8531">
        <time>2014-03-29T10:55:53Z</time>
      </trkpt>
      <trkpt lat="47.60311" lon="-2.85303">
        <time>2014-03-29T10:55:57Z</time>
      </trkpt>
      <trkpt lat="47.60314" lon="-2.85297">
        <time>2014-03-29T10:56:01Z</time>
      </trkpt>
      <trkpt lat="47.60318" lon="-2.85291">
        <time>2014-03-29T10:56:05Z</time>
      </trkpt>
      <trkpt lat="47.60322" lon="-2.85285">
        <time>2014-03-29T10:56:09Z</time>
      </trkpt>
      <trkpt lat="47.60325" lon="-2.85279">
        <time>2014-03-29T10:56:14Z</time>
      </trkpt>
      <trkpt lat="47.60328" lon="-2.85273">
        <time>2014-03-29T10:56:18Z</time>
      </trkpt>
      <trkpt lat="47.60331" lon="-2.85266">
        <time>2014-03-29T10:56:22Z</time>
      </trkpt>
      <trkpt lat="47.60334" lon="-2.8526">
        <time>2014-03-29T10:56:25Z</time>
      </trkpt>
      <trkpt lat="47.60337" lon="-2.85255">
        <time>2014-03-29T10:56:29Z</time>
      </trkpt>
      <trkpt lat="47.6034" lon="-2.85249">
        <time>2014-03-29T10:56:33Z</time>
      </trkpt>
      <trkpt lat="47.60344" lon="-2.85243">
        <time>2014-03-29T10:56:37Z</time>
      </trkpt>
      <trkpt lat="47.60348" lon="-2.85237">
        <time>2014-03-29T10:56:42Z</time>
      </trkpt>
      <trkpt lat="47.60351" lon="-2.85231">
        <time>2014-03-29T10:56:46Z</time>
      </trkpt>
      <trkpt lat="47.60355" lon="-2.85224">
        <time>2014-03-29T10:56:50Z</time>
      </trkpt>
      <trkpt lat="47.60358" lon="-2.85219">
        <time>2014-03-29T10:56:52Z</time>
      </trkpt>
      <trkpt lat="47.6036" lon="-2.85213">
        <time>2014-03-29T10:56:56Z</time>
      </trkpt>
      <trkpt lat="47.60363" lon="-2.85206">
        <time>2014-03-29T10:57:00Z</time>
      </trkpt>
      <trkpt lat="47.60365" lon="-2.85198">
        <time>2014-03-29T10:57:04Z</time>
      </trkpt>
      <trkpt lat="47.60368" lon="-2.8519">
        <time>2014-03-29T10:57:08Z</time>
      </trkpt>
      <trkpt lat="47.60371" lon="-2.85184">
        <time>2014-03-29T10:57:11Z</time>
      </trkpt>
      <trkpt lat="47.60374" lon="-2.85178">
        <time>2014-03-29T10:57:15Z</time>
      </trkpt>
      <trkpt lat="47.60377" lon="-2.85171">
        <time>2014-03-29T10:57:19Z</time>
      </trkpt>
      <trkpt lat="47.6038" lon="-2.85165">
        <time>2014-03-29T10:57:23Z</time>
      </trkpt>
      <trkpt lat="47.60383" lon="-2.85159">
        <time>2014-03-29T10:57:28Z</time>
      </trkpt>
      <trkpt lat="47.60386" lon="-2.85153">
        <time>2014-03-29T10:57:32Z</time>
      </trkpt>
      <trkpt lat="47.60389" lon="-2.85147">
        <time>2014-03-29T10:57:36Z</time>
      </trkpt>
      <trkpt lat="47.60393" lon="-2.8514">
        <time>2014-03-29T10:57:41Z</time>
      </trkpt>
      <trkpt lat="47.60396" lon="-2.85134">
        <time>2014-03-29T10:57:46Z</time>
      </trkpt>
      <trkpt lat="47.604" lon="-2.85128">
        <time>2014-03-29T10:57:51Z</time>
      </trkpt>
      <trkpt lat="47.60403" lon="-2.85124">
        <time>2014-03-29T10:57:55Z</time>
      </trkpt>
      <trkpt lat="47.60406" lon="-2.85118">
        <time>2014-03-29T10:57:59Z</time>
      </trkpt>
      <trkpt lat="47.60409" lon="-2.85113">
        <time>2014-03-29T10:58:03Z</time>
      </trkpt>
      <trkpt lat="47.60411" lon="-2.85108">
        <time>2014-03-29T10:58:06Z</time>
      </trkpt>
      <trkpt lat="47.60414" lon="-2.851">
        <time>2014-03-29T10:58:12Z</time>
      </trkpt>
      <trkpt lat="47.60417" lon="-2.85093">
        <time>2014-03-29T10:58:17Z</time>
      </trkpt>
      <trkpt lat="47.60419" lon="-2.85087">
        <time>2014-03-29T10:58:21Z</time>
      </trkpt>
      <trkpt lat="47.6042" lon="-2.85079">
        <time>2014-03-29T10:58:26Z</time>
      </trkpt>
      <trkpt lat="47.60422" lon="-2.85073">
        <time>2014-03-29T10:58:30Z</time>
      </trkpt>
      <trkpt lat="47.60424" lon="-2.85066">
        <time>2014-03-29T10:58:33Z</time>
      </trkpt>
      <trkpt lat="47.60425" lon="-2.85059">
        <time>2014-03-29T10:58:37Z</time>
      </trkpt>
      <trkpt lat="47.60427" lon="-2.85052">
        <time>2014-03-29T10:58:41Z</time>
      </trkpt>
      <trkpt lat="47.6043" lon="-2.85045">
        <time>2014-03-29T10:58:45Z</time>
      </trkpt>
      <trkpt lat="47.60433" lon="-2.85039">
        <time>2014-03-29T10:58:50Z</time>
      </trkpt>
      <trkpt lat="47.60435" lon="-2.85032">
        <time>2014-03-29T10:58:54Z</time>
      </trkpt>
      <trkpt lat="47.60438" lon="-2.85025">
        <time>2014-03-29T10:58:58Z</time>
      </trkpt>
      <trkpt lat="47.60441" lon="-2.85018">
        <time>2014-03-29T10:59:02Z</time>
      </trkpt>
      <trkpt lat="47.60443" lon="-2.8501">
        <time>2014-03-29T10:59:05Z</time>
      </trkpt>
      <trkpt lat="47.60444" lon="-2.85002">
        <time>2014-03-29T10:59:09Z</time>
      </trkpt>
      <trkpt lat="47.60446" lon="-2.84995">
        <time>2014-03-29T10:59:13Z</time>
      </trkpt>
      <trkpt lat="47.60448" lon="-2.84989">
        <time>2014-03-29T10:59:18Z</time>
      </trkpt>
      <trkpt lat="47.6045" lon="-2.84982">
        <time>2014-03-29T10:59:22Z</time>
      </trkpt>
      <trkpt lat="47.60452" lon="-2.84976">
        <time>2014-03-29T10:59:26Z</time>
      </trkpt>
      <trkpt lat="47.60454" lon="-2.84969">
        <time>2014-03-29T10:59:30Z</time>
      </trkpt>
      <trkpt lat="47.60457" lon="-2.84962">
        <time>2014-03-29T10:59:34Z</time>
      </trkpt>
      <trkpt lat="47.60459" lon="-2.84955">
        <time>2014-03-29T10:59:37Z</time>
      </trkpt>
      <trkpt lat="47.60461" lon="-2.84948">
        <time>2014-03-29T10:59:41Z</time>
      </trkpt>
      <trkpt lat="47.60463" lon="-2.84941">
        <time>2014-03-29T10:59:45Z</time>
      </trkpt>
      <trkpt lat="47.60465" lon="-2.84933">
        <time>2014-03-29T10:59:50Z</time>
      </trkpt>
      <trkpt lat="47.60467" lon="-2.84927">
        <time>2014-03-29T10:59:54Z</time>
      </trkpt>
      <trkpt lat="47.60469" lon="-2.8492">
        <time>2014-03-29T10:59:58Z</time>
      </trkpt>
      <trkpt lat="47.60472" lon="-2.84913">
        <time>2014-03-29T11:00:02Z</time>
      </trkpt>
      <trkpt lat="47.60474" lon="-2.84907">
        <time>2014-03-29T11:00:06Z</time>
      </trkpt>
      <trkpt lat="47.60477" lon="-2.84899">
        <time>2014-03-29T11:00:09Z</time>
      </trkpt>
      <trkpt lat="47.60478" lon="-2.84891">
        <time>2014-03-29T11:00:13Z</time>
      </trkpt>
      <trkpt lat="47.60481" lon="-2.84884">
        <time>2014-03-29T11:00:17Z</time>
      </trkpt>
      <trkpt lat="47.60484" lon="-2.84877">
        <time>2014-03-29T11:00:22Z</time>
      </trkpt>
      <trkpt lat="47.60486" lon="-2.8487">
        <time>2014-03-29T11:00:26Z</time>
      </trkpt>
      <trkpt lat="47.60488" lon="-2.84862">
        <time>2014-03-29T11:00:30Z</time>
      </trkpt>
      <trkpt lat="47.60491" lon="-2.84856">
        <time>2014-03-29T11:00:34Z</time>
      </trkpt>
      <trkpt lat="47.60494" lon="-2.84849">
        <time>2014-03-29T11:00:39Z</time>
      </trkpt>
      <trkpt lat="47.60496" lon="-2.84843">
        <time>2014-03-29T11:00:44Z</time>
      </trkpt>
      <trkpt lat="47.60498" lon="-2.84835">
        <time>2014-03-29T11:00:49Z</time>
      </trkpt>
      <trkpt lat="47.60501" lon="-2.84829">
        <time>2014-03-29T11:00:53Z</time>
      </trkpt>
      <trkpt lat="47.60504" lon="-2.84823">
        <time>2014-03-29T11:00:58Z</time>
      </trkpt>
      <trkpt lat="47.60507" lon="-2.84817">
        <time>2014-03-29T11:01:02Z</time>
      </trkpt>
      <trkpt lat="47.6051" lon="-2.84812">
        <time>2014-03-29T11:01:06Z</time>
      </trkpt>
      <trkpt lat="47.60513" lon="-2.84806">
        <time>2014-03-29T11:01:09Z</time>
      </trkpt>
      <trkpt lat="47.60515" lon="-2.84799">
        <time>2014-03-29T11:01:13Z</time>
      </trkpt>
      <trkpt lat="47.60518" lon="-2.84794">
        <time>2014-03-29T11:01:17Z</time>
      </trkpt>
      <trkpt lat="47.60521" lon="-2.84787">
        <time>2014-03-29T11:01:21Z</time>
      </trkpt>
      <trkpt lat="47.60525" lon="-2.8478">
        <time>2014-03-29T11:01:25Z</time>
      </trkpt>
      <trkpt lat="47.60528" lon="-2.84773">
        <time>2014-03-29T11:01:30Z</time>
      </trkpt>
      <trkpt lat="47.6053" lon="-2.84766">
        <time>2014-03-29T11:01:34Z</time>
      </trkpt>
      <trkpt lat="47.60533" lon="-2.8476">
        <time>2014-03-29T11:01:38Z</time>
      </trkpt>
      <trkpt lat="47.60537" lon="-2.84754">
        <time>2014-03-29T11:01:42Z</time>
      </trkpt>
      <trkpt lat="47.6054" lon="-2.84747">
        <time>2014-03-29T11:01:45Z</time>
      </trkpt>
      <trkpt lat="47.60543" lon="-2.84741">
        <time>2014-03-29T11:01:49Z</time>
      </trkpt>
      <trkpt lat="47.60547" lon="-2.84735">
        <time>2014-03-29T11:01:53Z</time>
      </trkpt>
      <trkpt lat="47.60551" lon="-2.84729">
        <time>2014-03-29T11:01:57Z</time>
      </trkpt>
      <trkpt lat="47.60554" lon="-2.84723">
        <time>2014-03-29T11:02:02Z</time>
      </trkpt>
      <trkpt lat="47.60557" lon="-2.84716">
        <time>2014-03-29T11:02:06Z</time>
      </trkpt>
      <trkpt lat="47.6056" lon="-2.84709">
        <time>2014-03-29T11:02:10Z</time>
      </trkpt>
      <trkpt lat="47.60564" lon="-2.84703">
        <time>2014-03-29T11:02:13Z</time>
      </trkpt>
      <trkpt lat="47.60567" lon="-2.84697">
        <time>2014-03-29T11:02:17Z</time>
      </trkpt>
      <trkpt lat="47.60571" lon="-2.84691">
        <time>2014-03-29T11:02:21Z</time>
      </trkpt>
      <trkpt lat="47.60575" lon="-2.84684">
        <time>2014-03-29T11:02:25Z</time>
      </trkpt>
      <trkpt lat="47.60579" lon="-2.84678">
        <time>2014-03-29T11:02:29Z</time>
      </trkpt>
      <trkpt lat="47.60584" lon="-2.84673">
        <time>2014-03-29T11:02:33Z</time>
      </trkpt>
      <trkpt lat="47.60588" lon="-2.84667">
        <time>2014-03-29T11:02:38Z</time>
      </trkpt>
      <trkpt lat="47.60592" lon="-2.84661">
        <time>2014-03-29T11:02:42Z</time>
      </trkpt>
      <trkpt lat="47.60596" lon="-2.84656">
        <time>2014-03-29T11:02:45Z</time>
      </trkpt>
      <trkpt lat="47.606" lon="-2.8465">
        <time>2014-03-29T11:02:49Z</time>
      </trkpt>
      <trkpt lat="47.60604" lon="-2.84644">
        <time>2014-03-29T11:02:53Z</time>
      </trkpt>
      <trkpt lat="47.60608" lon="-2.84637">
        <time>2014-03-29T11:02:57Z</time>
      </trkpt>
      <trkpt lat="47.60611" lon="-2.84633">
        <time>2014-03-29T11:03:01Z</time>
      </trkpt>
      <trkpt lat="47.60615" lon="-2.84626">
        <time>2014-03-29T11:03:05Z</time>
      </trkpt>
      <trkpt lat="47.60618" lon="-2.84619">
        <time>2014-03-29T11:03:08Z</time>
      </trkpt>
      <trkpt lat="47.6062" lon="-2.84612">
        <time>2014-03-29T11:03:12Z</time>
      </trkpt>
      <trkpt lat="47.60622" lon="-2.84606">
        <time>2014-03-29T11:03:15Z</time>
      </trkpt>
      <trkpt lat="47.60625" lon="-2.846">
        <time>2014-03-29T11:03:19Z</time>
      </trkpt>
      <trkpt lat="47.60628" lon="-2.84595">
        <time>2014-03-29T11:03:21Z</time>
      </trkpt>
      <trkpt lat="47.60632" lon="-2.8459">
        <time>2014-03-29T11:03:24Z</time>
      </trkpt>
      <trkpt lat="47.60636" lon="-2.84584">
        <time>2014-03-29T11:03:29Z</time>
      </trkpt>
      <trkpt lat="47.6064" lon="-2.84578">
        <time>2014-03-29T11:03:33Z</time>
      </trkpt>
      <trkpt lat="47.60643" lon="-2.84571">
        <time>2014-03-29T11:03:36Z</time>
      </trkpt>
      <trkpt lat="47.60648" lon="-2.84565">
        <time>2014-03-29T11:03:41Z</time>
      </trkpt>
      <trkpt lat="47.60652" lon="-2.84559">
        <time>2014-03-29T11:03:44Z</time>
      </trkpt>
      <trkpt lat="47.60655" lon="-2.84555">
        <time>2014-03-29T11:03:47Z</time>
      </trkpt>
      <trkpt lat="47.60658" lon="-2.8455">
        <time>2014-03-29T11:03:51Z</time>
      </trkpt>
      <trkpt lat="47.60662" lon="-2.84545">
        <time>2014-03-29T11:03:53Z</time>
      </trkpt>
      <trkpt lat="47.60666" lon="-2.8454">
        <time>2014-03-29T11:03:56Z</time>
      </trkpt>
      <trkpt lat="47.60669" lon="-2.84535">
        <time>2014-03-29T11:04:00Z</time>
      </trkpt>
      <trkpt lat="47.60672" lon="-2.8453">
        <time>2014-03-29T11:04:02Z</time>
      </trkpt>
      <trkpt lat="47.60675" lon="-2.84524">
        <time>2014-03-29T11:04:05Z</time>
      </trkpt>
      <trkpt lat="47.60677" lon="-2.84518">
        <time>2014-03-29T11:04:09Z</time>
      </trkpt>
      <trkpt lat="47.6068" lon="-2.84511">
        <time>2014-03-29T11:04:13Z</time>
      </trkpt>
      <trkpt lat="47.60684" lon="-2.84504">
        <time>2014-03-29T11:04:16Z</time>
      </trkpt>
      <trkpt lat="47.60687" lon="-2.84497">
        <time>2014-03-29T11:04:20Z</time>
      </trkpt>
      <trkpt lat="47.6069" lon="-2.8449">
        <time>2014-03-29T11:04:24Z</time>
      </trkpt>
      <trkpt lat="47.60693" lon="-2.84482">
        <time>2014-03-29T11:04:28Z</time>
      </trkpt>
      <trkpt lat="47.60696" lon="-2.84476">
        <time>2014-03-29T11:04:33Z</time>
      </trkpt>
      <trkpt lat="47.60699" lon="-2.84469">
        <time>2014-03-29T11:04:37Z</time>
      </trkpt>
      <trkpt lat="47.60701" lon="-2.84462">
        <time>2014-03-29T11:04:41Z</time>
      </trkpt>
      <trkpt lat="47.60703" lon="-2.84455">
        <time>2014-03-29T11:04:45Z</time>
      </trkpt>
      <trkpt lat="47.60706" lon="-2.84449">
        <time>2014-03-29T11:04:47Z</time>
      </trkpt>
      <trkpt lat="47.60709" lon="-2.84442">
        <time>2014-03-29T11:04:51Z</time>
      </trkpt>
      <trkpt lat="47.60712" lon="-2.84435">
        <time>2014-03-29T11:04:56Z</time>
      </trkpt>
      <trkpt lat="47.60715" lon="-2.84427">
        <time>2014-03-29T11:05:00Z</time>
      </trkpt>
      <trkpt lat="47.60717" lon="-2.8442">
        <time>2014-03-29T11:05:04Z</time>
      </trkpt>
      <trkpt lat="47.6072" lon="-2.84413">
        <time>2014-03-29T11:05:08Z</time>
      </trkpt>
      <trkpt lat="47.60722" lon="-2.84407">
        <time>2014-03-29T11:05:12Z</time>
      </trkpt>
      <trkpt lat="47.60724" lon="-2.844">
        <time>2014-03-29T11:05:15Z</time>
      </trkpt>
      <trkpt lat="47.60725" lon="-2.84393">
        <time>2014-03-29T11:05:18Z</time>
      </trkpt>
      <trkpt lat="47.60727" lon="-2.84387">
        <time>2014-03-29T11:05:21Z</time>
      </trkpt>
      <trkpt lat="47.60729" lon="-2.84381">
        <time>2014-03-29T11:05:24Z</time>
      </trkpt>
      <trkpt lat="47.60733" lon="-2.84374">
        <time>2014-03-29T11:05:28Z</time>
      </trkpt>
      <trkpt lat="47.60735" lon="-2.84366">
        <time>2014-03-29T11:05:32Z</time>
      </trkpt>
      <trkpt lat="47.60738" lon="-2.8436">
        <time>2014-03-29T11:05:36Z</time>
      </trkpt>
      <trkpt lat="47.6074" lon="-2.84354">
        <time>2014-03-29T11:05:40Z</time>
      </trkpt>
      <trkpt lat="47.60744" lon="-2.84347">
        <time>2014-03-29T11:05:45Z</time>
      </trkpt>
      <trkpt lat="47.60746" lon="-2.8434">
        <time>2014-03-29T11:05:49Z</time>
      </trkpt>
      <trkpt lat="47.60749" lon="-2.84333">
        <time>2014-03-29T11:05:52Z</time>
      </trkpt>
      <trkpt lat="47.60751" lon="-2.84326">
        <time>2014-03-29T11:05:56Z</time>
      </trkpt>
      <trkpt lat="47.60753" lon="-2.84319">
        <time>2014-03-29T11:06:00Z</time>
      </trkpt>
      <trkpt lat="47.60755" lon="-2.84311">
        <time>2014-03-29T11:06:04Z</time>
      </trkpt>
      <trkpt lat="47.60757" lon="-2.84304">
        <time>2014-03-29T11:06:09Z</time>
      </trkpt>
      <trkpt lat="47.6076" lon="-2.84297">
        <time>2014-03-29T11:06:13Z</time>
      </trkpt>
      <trkpt lat="47.60762" lon="-2.8429">
        <time>2014-03-29T11:06:16Z</time>
      </trkpt>
      <trkpt lat="47.60764" lon="-2.84283">
        <time>2014-03-29T11:06:21Z</time>
      </trkpt>
      <trkpt lat="47.60766" lon="-2.84277">
        <time>2014-03-29T11:06:24Z</time>
      </trkpt>
      <trkpt lat="47.60769" lon="-2.8427">
        <time>2014-03-29T11:06:28Z</time>
      </trkpt>
      <trkpt lat="47.60771" lon="-2.84264">
        <time>2014-03-29T11:06:33Z</time>
      </trkpt>
      <trkpt lat="47.60775" lon="-2.84257">
        <time>2014-03-29T11:06:37Z</time>
      </trkpt>
      <trkpt lat="47.60778" lon="-2.8425">
        <time>2014-03-29T11:06:40Z</time>
      </trkpt>
      <trkpt lat="47.60781" lon="-2.84243">
        <time>2014-03-29T11:06:44Z</time>
      </trkpt>
      <trkpt lat="47.60784" lon="-2.84237">
        <time>2014-03-29T11:06:48Z</time>
      </trkpt>
      <trkpt lat="47.60787" lon="-2.8423">
        <time>2014-03-29T11:06:52Z</time>
      </trkpt>
      <trkpt lat="47.60789" lon="-2.84223">
        <time>2014-03-29T11:06:57Z</time>
      </trkpt>
      <trkpt lat="47.60792" lon="-2.84216">
        <time>2014-03-29T11:07:01Z</time>
      </trkpt>
      <trkpt lat="47.60795" lon="-2.84209">
        <time>2014-03-29T11:07:05Z</time>
      </trkpt>
      <trkpt lat="47.60798" lon="-2.84202">
        <time>2014-03-29T11:07:08Z</time>
      </trkpt>
      <trkpt lat="47.60801" lon="-2.84195">
        <time>2014-03-29T11:07:12Z</time>
      </trkpt>
      <trkpt lat="47.60804" lon="-2.84189">
        <time>2014-03-29T11:07:16Z</time>
      </trkpt>
      <trkpt lat="47.60807" lon="-2.84183">
        <time>2014-03-29T11:07:20Z</time>
      </trkpt>
      <trkpt lat="47.6081" lon="-2.84176">
        <time>2014-03-29T11:07:24Z</time>
      </trkpt>
      <trkpt lat="47.60813" lon="-2.84171">
        <time>2014-03-29T11:07:28Z</time>
      </trkpt>
      <trkpt lat="47.60817" lon="-2.84164">
        <time>2014-03-29T11:07:33Z</time>
      </trkpt>
      <trkpt lat="47.6082" lon="-2.84158">
        <time>2014-03-29T11:07:37Z</time>
      </trkpt>
      <trkpt lat="47.60823" lon="-2.84151">
        <time>2014-03-29T11:07:40Z</time>
      </trkpt>
      <trkpt lat="47.60826" lon="-2.84144">
        <time>2014-03-29T11:07:44Z</time>
      </trkpt>
      <trkpt lat="47.60829" lon="-2.84137">
        <time>2014-03-29T11:07:49Z</time>
      </trkpt>
      <trkpt lat="47.60832" lon="-2.8413">
        <time>2014-03-29T11:07:53Z</time>
      </trkpt>
      <trkpt lat="47.60836" lon="-2.84124">
        <time>2014-03-29T11:07:56Z</time>
      </trkpt>
      <trkpt lat="47.6084" lon="-2.84118">
        <time>2014-03-29T11:08:01Z</time>
      </trkpt>
      <trkpt lat="47.60844" lon="-2.84113">
        <time>2014-03-29T11:08:04Z</time>
      </trkpt>
      <trkpt lat="47.60847" lon="-2.84107">
        <time>2014-03-29T11:08:08Z</time>
      </trkpt>
      <trkpt lat="47.60852" lon="-2.84102">
        <time>2014-03-29T11:08:12Z</time>
      </trkpt>
      <trkpt lat="47.60856" lon="-2.84097">
        <time>2014-03-29T11:08:16Z</time>
      </trkpt>
      <trkpt lat="47.6086" lon="-2.84091">
        <time>2014-03-29T11:08:20Z</time>
      </trkpt>
      <trkpt lat="47.60864" lon="-2.84086">
        <time>2014-03-29T11:08:25Z</time>
      </trkpt>
      <trkpt lat="47.60869" lon="-2.8408">
        <time>2014-03-29T11:08:28Z</time>
      </trkpt>
      <trkpt lat="47.60873" lon="-2.84074">
        <time>2014-03-29T11:08:32Z</time>
      </trkpt>
      <trkpt lat="47.60876" lon="-2.84069">
        <time>2014-03-29T11:08:35Z</time>
      </trkpt>
      <trkpt lat="47.60878" lon="-2.84063">
        <time>2014-03-29T11:08:38Z</time>
      </trkpt>
      <trkpt lat="47.60881" lon="-2.84056">
        <time>2014-03-29T11:08:42Z</time>
      </trkpt>
      <trkpt lat="47.60884" lon="-2.84048">
        <time>2014-03-29T11:08:46Z</time>
      </trkpt>
      <trkpt lat="47.60887" lon="-2.84043">
        <time>2014-03-29T11:08:50Z</time>
      </trkpt>
      <trkpt lat="47.6089" lon="-2.84037">
        <time>2014-03-29T11:08:52Z</time>
      </trkpt>
      <trkpt lat="47.60893" lon="-2.84032">
        <time>2014-03-29T11:08:55Z</time>
      </trkpt>
      <trkpt lat="47.60896" lon="-2.84026">
        <time>2014-03-29T11:08:58Z</time>
      </trkpt>
      <trkpt lat="47.60898" lon="-2.8402">
        <time>2014-03-29T11:09:02Z</time>
      </trkpt>
      <trkpt lat="47.60901" lon="-2.84014">
        <time>2014-03-29T11:09:04Z</time>
      </trkpt>
      <trkpt lat="47.60904" lon="-2.84007">
        <time>2014-03-29T11:09:09Z</time>
      </trkpt>
      <trkpt lat="47.60908" lon="-2.84">
        <time>2014-03-29T11:09:12Z</time>
      </trkpt>
      <trkpt lat="47.60911" lon="-2.83995">
        <time>2014-03-29T11:09:16Z</time>
      </trkpt>
      <trkpt lat="47.60914" lon="-2.83989">
        <time>2014-03-29T11:09:18Z</time>
      </trkpt>
      <trkpt lat="47.60918" lon="-2.83983">
        <time>2014-03-29T11:09:21Z</time>
      </trkpt>
      <trkpt lat="47.6092" lon="-2.83977">
        <time>2014-03-29T11:09:24Z</time>
      </trkpt>
      <trkpt lat="47.60923" lon="-2.83971">
        <time>2014-03-29T11:09:27Z</time>
      </trkpt>
      <trkpt lat="47.60926" lon="-2.83965">
        <time>2014-03-29T11:09:30Z</time>
      </trkpt>
      <trkpt lat="47.60929" lon="-2.83959">
        <time>2014-03-29T11:09:34Z</time>
      </trkpt>
      <trkpt lat="47.60932" lon="-2.83953">
        <time>2014-03-29T11:09:37Z</time>
      </trkpt>
      <trkpt lat="47.60935" lon="-2.83947">
        <time>2014-03-29T11:09:39Z</time>
      </trkpt>
      <trkpt lat="47.60939" lon="-2.83941">
        <time>2014-03-29T11:09:43Z</time>
      </trkpt>
      <trkpt lat="47.60942" lon="-2.83935">
        <time>2014-03-29T11:09:45Z</time>
      </trkpt>
      <trkpt lat="47.60945" lon="-2.83929">
        <time>2014-03-29T11:09:48Z</time>
      </trkpt>
      <trkpt lat="47.60948" lon="-2.83924">
        <time>2014-03-29T11:09:51Z</time>
      </trkpt>
      <trkpt lat="47.60951" lon="-2.83918">
        <time>2014-03-29T11:09:54Z</time>
      </trkpt>
      <trkpt lat="47.60954" lon="-2.83913">
        <time>2014-03-29T11:09:57Z</time>
      </trkpt>
      <trkpt lat="47.60957" lon="-2.83907">
        <time>2014-03-29T11:10:00Z</time>
      </trkpt>
      <trkpt lat="47.6096" lon="-2.83901">
        <time>2014-03-29T11:10:03Z</time>
      </trkpt>
      <trkpt lat="47.60964" lon="-2.83895">
        <time>2014-03-29T11:10:06Z</time>
      </trkpt>
      <trkpt lat="47.60967" lon="-2.8389">
        <time>2014-03-29T11:10:10Z</time>
      </trkpt>
      <trkpt lat="47.6097" lon="-2.83884">
        <time>2014-03-29T11:10:13Z</time>
      </trkpt>
      <trkpt lat="47.60973" lon="-2.83878">
        <time>2014-03-29T11:10:15Z</time>
      </trkpt>
      <trkpt lat="47.60976" lon="-2.83872">
        <time>2014-03-29T11:10:19Z</time>
      </trkpt>
      <trkpt lat="47.60979" lon="-2.83866">
        <time>2014-03-29T11:10:21Z</time>
      </trkpt>
      <trkpt lat="47.60983" lon="-2.83859">
        <time>2014-03-29T11:10:25Z</time>
      </trkpt>
      <trkpt lat="47.60987" lon="-2.83853">
        <time>2014-03-29T11:10:27Z</time>
      </trkpt>
      <trkpt lat="47.60991" lon="-2.83846">
        <time>2014-03-29T11:10:30Z</time>
      </trkpt>
      <trkpt lat="47.60995" lon="-2.83838">
        <time>2014-03-29T11:10:33Z</time>
      </trkpt>
      <trkpt lat="47.60998" lon="-2.83832">
        <time>2014-03-29T11:10:37Z</time>
      </trkpt>
      <trkpt lat="47.61002" lon="-2.83826">
        <time>2014-03-29T11:10:40Z</time>
      </trkpt>
      <trkpt lat="47.61005" lon="-2.8382">
        <time>2014-03-29T11:10:43Z</time>
      </trkpt>
      <trkpt lat="47.61009" lon="-2.83814">
        <time>2014-03-29T11:10:45Z</time>
      </trkpt>
      <trkpt lat="47.61012" lon="-2.83808">
        <time>2014-03-29T11:10:48Z</time>
      </trkpt>
      <trkpt lat="47.61016" lon="-2.83802">
        <time>2014-03-29T11:10:51Z</time>
      </trkpt>
      <trkpt lat="47.6102" lon="-2.83797">
        <time>2014-03-29T11:10:54Z</time>
      </trkpt>
      <trkpt lat="47.61025" lon="-2.83792">
        <time>2014-03-29T11:10:58Z</time>
      </trkpt>
      <trkpt lat="47.6103" lon="-2.83788">
        <time>2014-03-29T11:11:00Z</time>
      </trkpt>
      <trkpt lat="47.61034" lon="-2.83782">
        <time>2014-03-29T11:11:04Z</time>
      </trkpt>
      <trkpt lat="47.61038" lon="-2.83776">
        <time>2014-03-29T11:11:06Z</time>
      </trkpt>
      <trkpt lat="47.61042" lon="-2.83771">
        <time>2014-03-29T11:11:10Z</time>
      </trkpt>
      <trkpt lat="47.61046" lon="-2.83766">
        <time>2014-03-29T11:11:13Z</time>
      </trkpt>
      <trkpt lat="47.61049" lon="-2.8376">
        <time>2014-03-29T11:11:16Z</time>
      </trkpt>
      <trkpt lat="47.61052" lon="-2.83753">
        <time>2014-03-29T11:11:19Z</time>
      </trkpt>
      <trkpt lat="47.61054" lon="-2.83747">
        <time>2014-03-29T11:11:21Z</time>
      </trkpt>
      <trkpt lat="47.61056" lon="-2.8374">
        <time>2014-03-29T11:11:25Z</time>
      </trkpt>
      <trkpt lat="47.61059" lon="-2.83734">
        <time>2014-03-29T11:11:27Z</time>
      </trkpt>
      <trkpt lat="47.61062" lon="-2.83728">
        <time>2014-03-29T11:11:30Z</time>
      </trkpt>
      <trkpt lat="47.61065" lon="-2.83723">
        <time>2014-03-29T11:11:33Z</time>
      </trkpt>
      <trkpt lat="47.61068" lon="-2.83717">
        <time>2014-03-29T11:11:37Z</time>
      </trkpt>
      <trkpt lat="47.61071" lon="-2.83712">
        <time>2014-03-29T11:11:39Z</time>
      </trkpt>
      <trkpt lat="47.61075" lon="-2.83706">
        <time>2014-03-29T11:11:43Z</time>
      </trkpt>
      <trkpt lat="47.61078" lon="-2.83701">
        <time>2014-03-29T11:11:46Z</time>
      </trkpt>
      <trkpt lat="47.61082" lon="-2.83696">
        <time>2014-03-29T11:11:48Z</time>
      </trkpt>
      <trkpt lat="47.61085" lon="-2.83691">
        <time>2014-03-29T11:11:51Z</time>
      </trkpt>
      <trkpt lat="47.61089" lon="-2.83685">
        <time>2014-03-29T11:11:54Z</time>
      </trkpt>
      <trkpt lat="47.61092" lon="-2.8368">
        <time>2014-03-29T11:11:58Z</time>
      </trkpt>
      <trkpt lat="47.61096" lon="-2.83674">
        <time>2014-03-29T11:12:00Z</time>
      </trkpt>
      <trkpt lat="47.611" lon="-2.83668">
        <time>2014-03-29T11:12:04Z</time>
      </trkpt>
      <trkpt lat="47.61103" lon="-2.83661">
        <time>2014-03-29T11:12:06Z</time>
      </trkpt>
      <trkpt lat="47.61107" lon="-2.83655">
        <time>2014-03-29T11:12:09Z</time>
      </trkpt>
      <trkpt lat="47.6111" lon="-2.83649">
        <time>2014-03-29T11:12:12Z</time>
      </trkpt>
      <trkpt lat="47.61114" lon="-2.83644">
        <time>2014-03-29T11:12:15Z</time>
      </trkpt>
      <trkpt lat="47.61117" lon="-2.83637">
        <time>2014-03-29T11:12:18Z</time>
      </trkpt>
      <trkpt lat="47.61121" lon="-2.8363">
        <time>2014-03-29T11:12:20Z</time>
      </trkpt>
      <trkpt lat="47.61124" lon="-2.83623">
        <time>2014-03-29T11:12:23Z</time>
      </trkpt>
      <trkpt lat="47.61128" lon="-2.83617">
        <time>2014-03-29T11:12:26Z</time>
      </trkpt>
      <trkpt lat="47.61131" lon="-2.83609">
        <time>2014-03-29T11:12:29Z</time>
      </trkpt>
      <trkpt lat="47.61134" lon="-2.83602">
        <time>2014-03-29T11:12:32Z</time>
      </trkpt>
      <trkpt lat="47.61137" lon="-2.83596">
        <time>2014-03-29T11:12:35Z</time>
      </trkpt>
      <trkpt lat="47.61139" lon="-2.83589">
        <time>2014-03-29T11:12:38Z</time>
      </trkpt>
      <trkpt lat="47.61142" lon="-2.83582">
        <time>2014-03-29T11:12:41Z</time>
      </trkpt>
      <trkpt lat="47.61144" lon="-2.83576">
        <time>2014-03-29T11:12:44Z</time>
      </trkpt>
      <trkpt lat="47.61147" lon="-2.83569">
        <time>2014-03-29T11:12:47Z</time>
      </trkpt>
      <trkpt lat="47.6115" lon="-2.83563">
        <time>2014-03-29T11:12:51Z</time>
      </trkpt>
      <trkpt lat="47.61153" lon="-2.83556">
        <time>2014-03-29T11:12:53Z</time>
      </trkpt>
      <trkpt lat="47.61157" lon="-2.83549">
        <time>2014-03-29T11:12:56Z</time>
      </trkpt>
      <trkpt lat="47.6116" lon="-2.83543">
        <time>2014-03-29T11:13:00Z</time>
      </trkpt>
      <trkpt lat="47.61162" lon="-2.83536">
        <time>2014-03-29T11:13:02Z</time>
      </trkpt>
      <trkpt lat="47.61165" lon="-2.8353">
        <time>2014-03-29T11:13:05Z</time>
      </trkpt>
      <trkpt lat="47.61167" lon="-2.83524">
        <ele>9</ele>
        <time>2014-03-29T11:13:08Z</time>
      </trkpt>
      <trkpt lat="47.6117" lon="-2.83518">
        <ele>9</ele>
        <time>2014-03-29T11:13:11Z</time>
      </trkpt>
      <trkpt lat="47.61172" lon="-2.83512">
        <ele>9</ele>
        <time>2014-03-29T11:13:14Z</time>
      </trkpt>
      <trkpt lat="47.61175" lon="-2.83506">
        <ele>9</ele>
        <time>2014-03-29T11:13:17Z</time>
      </trkpt>
      <trkpt lat="47.61178" lon="-2.835">
        <ele>9</ele>
        <time>2014-03-29T11:13:20Z</time>
      </trkpt>
      <trkpt lat="47.61181" lon="-2.83493">
        <ele>9</ele>
        <time>2014-03-29T11:13:23Z</time>
      </trkpt>
      <trkpt lat="47.61184" lon="-2.83486">
        <ele>9</ele>
        <time>2014-03-29T11:13:26Z</time>
      </trkpt>
      <trkpt lat="47.61187" lon="-2.8348">
        <ele>9</ele>
        <time>2014-03-29T11:13:30Z</time>
      </trkpt>
      <trkpt lat="47.61191" lon="-2.83474">
        <ele>9</ele>
        <time>2014-03-29T11:13:32Z</time>
      </trkpt>
      <trkpt lat="47.61194" lon="-2.83468">
        <ele>9</ele>
        <time>2014-03-29T11:13:35Z</time>
      </trkpt>
      <trkpt lat="47.61197" lon="-2.83461">
        <ele>9</ele>
        <time>2014-03-29T11:13:39Z</time>
      </trkpt>
      <trkpt lat="47.612" lon="-2.83455">
        <ele>9</ele>
        <time>2014-03-29T11:13:41Z</time>
      </trkpt>
      <trkpt lat="47.61203" lon="-2.8345">
        <ele>9</ele>
        <time>2014-03-29T11:13:44Z</time>
      </trkpt>
      <trkpt lat="47.61206" lon="-2.83443">
        <ele>9</ele>
        <time>2014-03-29T11:13:48Z</time>
      </trkpt>
      <trkpt lat="47.61209" lon="-2.83437">
        <ele>9</ele>
        <time>2014-03-29T11:13:50Z</time>
      </trkpt>
      <trkpt lat="47.61213" lon="-2.83431">
        <ele>9</ele>
        <time>2014-03-29T11:13:53Z</time>
      </trkpt>
      <trkpt lat="47.61215" lon="-2.83425">
        <ele>9</ele>
        <time>2014-03-29T11:13:56Z</time>
      </trkpt>
      <trkpt lat="47.61219" lon="-2.8342">
        <ele>9</ele>
        <time>2014-03-29T11:13:59Z</time>
      </trkpt>
      <trkpt lat="47.61222" lon="-2.83414">
        <time>2014-03-29T11:14:02Z</time>
      </trkpt>
      <trkpt lat="47.61225" lon="-2.83408">
        <time>2014-03-29T11:14:05Z</time>
      </trkpt>
      <trkpt lat="47.61229" lon="-2.83402">
        <time>2014-03-29T11:14:08Z</time>
      </trkpt>
      <trkpt lat="47.61232" lon="-2.83396">
        <time>2014-03-29T11:14:11Z</time>
      </trkpt>
      <trkpt lat="47.61235" lon="-2.8339">
        <time>2014-03-29T11:14:14Z</time>
      </trkpt>
      <trkpt lat="47.61238" lon="-2.83383">
        <time>2014-03-29T11:14:17Z</time>
      </trkpt>
      <trkpt lat="47.61241" lon="-2.83377">
        <time>2014-03-29T11:14:20Z</time>
      </trkpt>
      <trkpt lat="47.61243" lon="-2.8337">
        <time>2014-03-29T11:14:23Z</time>
      </trkpt>
      <trkpt lat="47.61246" lon="-2.83363">
        <time>2014-03-29T11:14:27Z</time>
      </trkpt>
      <trkpt lat="47.61249" lon="-2.83355">
        <time>2014-03-29T11:14:29Z</time>
      </trkpt>
      <trkpt lat="47.61252" lon="-2.83348">
        <ele>11</ele>
        <time>2014-03-29T11:14:32Z</time>
      </trkpt>
      <trkpt lat="47.61255" lon="-2.83342">
        <ele>11</ele>
        <time>2014-03-29T11:14:36Z</time>
      </trkpt>
      <trkpt lat="47.61258" lon="-2.83335">
        <ele>11</ele>
        <time>2014-03-29T11:14:38Z</time>
      </trkpt>
      <trkpt lat="47.6126" lon="-2.83328">
        <ele>8</ele>
        <time>2014-03-29T11:14:41Z</time>
      </trkpt>
      <trkpt lat="47.61263" lon="-2.83322">
        <ele>8</ele>
        <time>2014-03-29T11:14:44Z</time>
      </trkpt>
      <trkpt lat="47.61266" lon="-2.83316">
        <ele>8</ele>
        <time>2014-03-29T11:14:47Z</time>
      </trkpt>
      <trkpt lat="47.61269" lon="-2.83309">
        <ele>8</ele>
        <time>2014-03-29T11:14:50Z</time>
      </trkpt>
      <trkpt lat="47.61272" lon="-2.83303">
        <ele>8</ele>
        <time>2014-03-29T11:14:53Z</time>
      </trkpt>
      <trkpt lat="47.61275" lon="-2.83297">
        <ele>8</ele>
        <time>2014-03-29T11:14:56Z</time>
      </trkpt>
      <trkpt lat="47.61278" lon="-2.83291">
        <ele>8</ele>
        <time>2014-03-29T11:14:59Z</time>
      </trkpt>
      <trkpt lat="47.61281" lon="-2.83285">
        <ele>8</ele>
        <time>2014-03-29T11:15:02Z</time>
      </trkpt>
      <trkpt lat="47.61284" lon="-2.83278">
        <ele>8</ele>
        <time>2014-03-29T11:15:05Z</time>
      </trkpt>
      <trkpt lat="47.61288" lon="-2.83272">
        <ele>8</ele>
        <time>2014-03-29T11:15:08Z</time>
      </trkpt>
      <trkpt lat="47.61292" lon="-2.83266">
        <ele>8</ele>
        <time>2014-03-29T11:15:11Z</time>
      </trkpt>
      <trkpt lat="47.61295" lon="-2.8326">
        <ele>8</ele>
        <time>2014-03-29T11:15:14Z</time>
      </trkpt>
      <trkpt lat="47.61298" lon="-2.83254">
        <ele>8</ele>
        <time>2014-03-29T11:15:17Z</time>
      </trkpt>
      <trkpt lat="47.61301" lon="-2.83247">
        <ele>7</ele>
        <time>2014-03-29T11:15:20Z</time>
      </trkpt>
      <trkpt lat="47.61304" lon="-2.8324">
        <ele>7</ele>
        <time>2014-03-29T11:15:24Z</time>
      </trkpt>
      <trkpt lat="47.61307" lon="-2.83234">
        <ele>7</ele>
        <time>2014-03-29T11:15:26Z</time>
      </trkpt>
      <trkpt lat="47.6131" lon="-2.83228">
        <ele>7</ele>
        <time>2014-03-29T11:15:29Z</time>
      </trkpt>
      <trkpt lat="47.61313" lon="-2.83222">
        <ele>7</ele>
        <time>2014-03-29T11:15:32Z</time>
      </trkpt>
      <trkpt lat="47.61316" lon="-2.83217">
        <ele>7</ele>
        <time>2014-03-29T11:15:35Z</time>
      </trkpt>
      <trkpt lat="47.61319" lon="-2.83211">
        <ele>7</ele>
        <time>2014-03-29T11:15:38Z</time>
      </trkpt>
      <trkpt lat="47.61322" lon="-2.83205">
        <ele>7</ele>
        <time>2014-03-29T11:15:41Z</time>
      </trkpt>
      <trkpt lat="47.61325" lon="-2.83199">
        <ele>7</ele>
        <time>2014-03-29T11:15:44Z</time>
      </trkpt>
      <trkpt lat="47.61328" lon="-2.83192">
        <ele>7</ele>
        <time>2014-03-29T11:15:47Z</time>
      </trkpt>
      <trkpt lat="47.61331" lon="-2.83186">
        <ele>7</ele>
        <time>2014-03-29T11:15:50Z</time>
      </trkpt>
      <trkpt lat="47.61334" lon="-2.8318">
        <ele>13</ele>
        <time>2014-03-29T11:15:53Z</time>
      </trkpt>
      <trkpt lat="47.61337" lon="-2.83174">
        <ele>14</ele>
        <time>2014-03-29T11:15:56Z</time>
      </trkpt>
      <trkpt lat="47.61339" lon="-2.83167">
        <ele>14</ele>
        <time>2014-03-29T11:15:59Z</time>
      </trkpt>
      <trkpt lat="47.61342" lon="-2.83161">
        <ele>12</ele>
        <time>2014-03-29T11:16:03Z</time>
      </trkpt>
      <trkpt lat="47.61344" lon="-2.83155">
        <ele>12</ele>
        <time>2014-03-29T11:16:05Z</time>
      </trkpt>
      <trkpt lat="47.61347" lon="-2.83148">
        <ele>12</ele>
        <time>2014-03-29T11:16:08Z</time>
      </trkpt>
      <trkpt lat="47.61348" lon="-2.83141">
        <ele>12</ele>
        <time>2014-03-29T11:16:11Z</time>
      </trkpt>
      <trkpt lat="47.6135" lon="-2.83134">
        <ele>12</ele>
        <time>2014-03-29T11:16:14Z</time>
      </trkpt>
      <trkpt lat="47.61352" lon="-2.83127">
        <ele>12</ele>
        <time>2014-03-29T11:16:17Z</time>
      </trkpt>
      <trkpt lat="47.61355" lon="-2.83119">
        <ele>11</ele>
        <time>2014-03-29T11:16:21Z</time>
      </trkpt>
      <trkpt lat="47.61357" lon="-2.83113">
        <ele>11</ele>
        <time>2014-03-29T11:16:23Z</time>
      </trkpt>
      <trkpt lat="47.6136" lon="-2.83107">
        <ele>11</ele>
        <time>2014-03-29T11:16:26Z</time>
      </trkpt>
      <trkpt lat="47.61362" lon="-2.831">
        <ele>11</ele>
        <time>2014-03-29T11:16:29Z</time>
      </trkpt>
      <trkpt lat="47.61364" lon="-2.83093">
        <ele>10</ele>
        <time>2014-03-29T11:16:32Z</time>
      </trkpt>
      <trkpt lat="47.61367" lon="-2.83086">
        <ele>10</ele>
        <time>2014-03-29T11:16:35Z</time>
      </trkpt>
      <trkpt lat="47.61369" lon="-2.83079">
        <ele>6</ele>
        <time>2014-03-29T11:16:38Z</time>
      </trkpt>
      <trkpt lat="47.61372" lon="-2.83073">
        <ele>6</ele>
        <time>2014-03-29T11:16:41Z</time>
      </trkpt>
      <trkpt lat="47.61375" lon="-2.83066">
        <ele>6</ele>
        <time>2014-03-29T11:16:44Z</time>
      </trkpt>
      <trkpt lat="47.61377" lon="-2.83059">
        <ele>5</ele>
        <time>2014-03-29T11:16:47Z</time>
      </trkpt>
      <trkpt lat="47.61379" lon="-2.83051">
        <ele>5</ele>
        <time>2014-03-29T11:16:50Z</time>
      </trkpt>
      <trkpt lat="47.61382" lon="-2.83044">
        <ele>5</ele>
        <time>2014-03-29T11:16:53Z</time>
      </trkpt>
      <trkpt lat="47.61384" lon="-2.83038">
        <ele>5</ele>
        <time>2014-03-29T11:16:56Z</time>
      </trkpt>
      <trkpt lat="47.61386" lon="-2.83031">
        <ele>5</ele>
        <time>2014-03-29T11:17:00Z</time>
      </trkpt>
      <trkpt lat="47.61388" lon="-2.83024">
        <ele>4</ele>
        <time>2014-03-29T11:17:02Z</time>
      </trkpt>
      <trkpt lat="47.6139" lon="-2.83017">
        <ele>4</ele>
        <time>2014-03-29T11:17:05Z</time>
      </trkpt>
      <trkpt lat="47.61393" lon="-2.8301">
        <ele>4</ele>
        <time>2014-03-29T11:17:09Z</time>
      </trkpt>
      <trkpt lat="47.61396" lon="-2.83004">
        <ele>4</ele>
        <time>2014-03-29T11:17:11Z</time>
      </trkpt>
      <trkpt lat="47.61398" lon="-2.82997">
        <ele>3</ele>
        <time>2014-03-29T11:17:14Z</time>
      </trkpt>
      <trkpt lat="47.614" lon="-2.82991">
        <ele>3</ele>
        <time>2014-03-29T11:17:17Z</time>
      </trkpt>
      <trkpt lat="47.61402" lon="-2.82985">
        <ele>3</ele>
        <time>2014-03-29T11:17:20Z</time>
      </trkpt>
      <trkpt lat="47.61405" lon="-2.82979">
        <ele>3</ele>
        <time>2014-03-29T11:17:23Z</time>
      </trkpt>
      <trkpt lat="47.61407" lon="-2.82973">
        <ele>3</ele>
        <time>2014-03-29T11:17:26Z</time>
      </trkpt>
      <trkpt lat="47.6141" lon="-2.82967">
        <ele>3</ele>
        <time>2014-03-29T11:17:30Z</time>
      </trkpt>
      <trkpt lat="47.61413" lon="-2.8296">
        <ele>3</ele>
        <time>2014-03-29T11:17:33Z</time>
      </trkpt>
      <trkpt lat="47.61415" lon="-2.82954">
        <ele>3</ele>
        <time>2014-03-29T11:17:37Z</time>
      </trkpt>
      <trkpt lat="47.61418" lon="-2.82948">
        <ele>5</ele>
        <time>2014-03-29T11:17:42Z</time>
      </trkpt>
      <trkpt lat="47.6142" lon="-2.82942">
        <ele>5</ele>
        <time>2014-03-29T11:17:48Z</time>
      </trkpt>
      <trkpt lat="47.61424" lon="-2.82938">
        <ele>5</ele>
        <time>2014-03-29T11:17:59Z</time>
      </trkpt>
      <trkpt lat="47.61429" lon="-2.8294">
        <ele>5</ele>
        <time>2014-03-29T11:18:06Z</time>
      </trkpt>
      <trkpt lat="47.61434" lon="-2.82941">
        <ele>5</ele>
        <time>2014-03-29T11:18:13Z</time>
      </trkpt>
      <trkpt lat="47.61436" lon="-2.82947">
        <ele>5</ele>
        <time>2014-03-29T11:18:30Z</time>
      </trkpt>
      <trkpt lat="47.61436" lon="-2.82955">
        <ele>5</ele>
        <time>2014-03-29T11:18:47Z</time>
      </trkpt>
      <trkpt lat="47.6144" lon="-2.82959">
        <ele>5</ele>
        <time>2014-03-29T11:18:52Z</time>
      </trkpt>
      <trkpt lat="47.61444" lon="-2.82962">
        <ele>5</ele>
        <time>2014-03-29T11:18:55Z</time>
      </trkpt>
      <trkpt lat="47.61449" lon="-2.82963">
        <ele>5</ele>
        <time>2014-03-29T11:19:01Z</time>
      </trkpt>
      <trkpt lat="47.61454" lon="-2.82965">
        <ele>5</ele>
        <time>2014-03-29T11:19:06Z</time>
      </trkpt>
      <trkpt lat="47.61459" lon="-2.82966">
        <ele>5</ele>
        <time>2014-03-29T11:19:10Z</time>
      </trkpt>
      <trkpt lat="47.61464" lon="-2.82967">
        <ele>5</ele>
        <time>2014-03-29T11:19:17Z</time>
      </trkpt>
      <trkpt lat="47.61467" lon="-2.82972">
        <ele>5</ele>
        <time>2014-03-29T11:20:00Z</time>
      </trkpt>
      <trkpt lat="47.61472" lon="-2.82976">
        <ele>6</ele>
        <time>2014-03-29T11:20:35Z</time>
      </trkpt>
      <trkpt lat="47.61476" lon="-2.82979">
        <ele>6</ele>
        <time>2014-03-29T11:20:42Z</time>
      </trkpt>
      <trkpt lat="47.61481" lon="-2.8298">
        <ele>6</ele>
        <time>2014-03-29T11:20:49Z</time>
      </trkpt>
      <trkpt lat="47.61486" lon="-2.82981">
        <ele>7</ele>
        <time>2014-03-29T11:20:58Z</time>
      </trkpt>
      <trkpt lat="47.61491" lon="-2.82979">
        <ele>7</ele>
        <time>2014-03-29T11:21:05Z</time>
      </trkpt>
      <trkpt lat="47.61495" lon="-2.82976">
        <ele>7</ele>
        <time>2014-03-29T11:21:12Z</time>
      </trkpt>
      <trkpt lat="47.61499" lon="-2.82971">
        <ele>6</ele>
        <time>2014-03-29T11:21:18Z</time>
      </trkpt>
      <trkpt lat="47.61504" lon="-2.82969">
        <ele>9</ele>
        <time>2014-03-29T11:21:25Z</time>
      </trkpt>
      <trkpt lat="47.61508" lon="-2.82966">
        <ele>9</ele>
        <time>2014-03-29T11:21:34Z</time>
      </trkpt>
      <trkpt lat="47.61512" lon="-2.82962">
        <ele>9</ele>
        <time>2014-03-29T11:22:07Z</time>
      </trkpt>
      <trkpt lat="47.6151" lon="-2.82969">
        <ele>10</ele>
        <time>2014-03-29T11:22:45Z</time>
      </trkpt>
      <trkpt lat="47.61506" lon="-2.82974">
        <ele>10</ele>
        <time>2014-03-29T11:22:56Z</time>
      </trkpt>
      <trkpt lat="47.61501" lon="-2.82977">
        <ele>10</ele>
        <time>2014-03-29T11:23:01Z</time>
      </trkpt>
      <trkpt lat="47.61497" lon="-2.82981">
        <ele>7</ele>
        <time>2014-03-29T11:23:06Z</time>
      </trkpt>
      <trkpt lat="47.61493" lon="-2.82986">
        <ele>7</ele>
        <time>2014-03-29T11:23:11Z</time>
      </trkpt>
      <trkpt lat="47.61489" lon="-2.8299">
        <ele>7</ele>
        <time>2014-03-29T11:23:15Z</time>
      </trkpt>
      <trkpt lat="47.61485" lon="-2.82994">
        <ele>7</ele>
        <time>2014-03-29T11:23:20Z</time>
      </trkpt>
      <trkpt lat="47.6148" lon="-2.82999">
        <ele>7</ele>
        <time>2014-03-29T11:23:24Z</time>
      </trkpt>
      <trkpt lat="47.61475" lon="-2.83002">
        <ele>9</ele>
        <time>2014-03-29T11:23:28Z</time>
      </trkpt>
      <trkpt lat="47.6147" lon="-2.83004">
        <ele>9</ele>
        <time>2014-03-29T11:23:32Z</time>
      </trkpt>
      <trkpt lat="47.61475" lon="-2.83005">
        <ele>9</ele>
        <time>2014-03-29T11:24:13Z</time>
      </trkpt>
    </trkseg>
  </trk>
</gpx>